<?xml version="1.0" encoding="UTF-8" standalone="no" ?>
<gpx xmlns="http://www.topografix.com/GPX/1/1" xmlns:xsi="http://www.w3.org/2001/XMLSchema-instance" xsi:schemaLocation="http://www.topografix.com/GPX/1/1 http://www.topografix.com/GPX/1/1/gpx.xsd" version="1.1" creator="VisuGPX - https://www.visugpx.com">
  <metadata>
    <name>Etape 4_Bagnères de Luchon _Ercé_107 kms_2535 D+ </name>
  </metadata>
  <trk>
    <name><![CDATA[Etape 4_Bagnères de Luchon _Ercé_107 kms_2535 D+ ]]></name>
    <extensions>
      <line xmlns="http://www.topografix.com/GPX/gpx_style/0/2">
        <color>0000FF</color>
        <width>4</width>
      </line>
    </extensions>
    <trkseg>
      <trkpt lat="42.78281" lon="0.59702">
        <ele>645</ele>
        <time>2021-08-20T16:06:03Z</time>
      </trkpt>
      <trkpt lat="42.78373" lon="0.59641">
        <ele>641</ele>
        <time>2021-08-20T16:06:21Z</time>
      </trkpt>
      <trkpt lat="42.78455" lon="0.59578">
        <ele>637</ele>
        <time>2021-08-20T16:06:38Z</time>
      </trkpt>
      <trkpt lat="42.78545" lon="0.59531">
        <ele>635</ele>
        <time>2021-08-20T16:06:55Z</time>
      </trkpt>
      <trkpt lat="42.78618" lon="0.59785">
        <ele>635</ele>
        <time>2021-08-20T16:07:31Z</time>
      </trkpt>
      <trkpt lat="42.7863" lon="0.59814">
        <ele>634</ele>
        <time>2021-08-20T16:07:35Z</time>
      </trkpt>
      <trkpt lat="42.7864" lon="0.59805">
        <ele>634</ele>
        <time>2021-08-20T16:07:37Z</time>
      </trkpt>
      <trkpt lat="42.78756" lon="0.5974">
        <ele>634</ele>
        <time>2021-08-20T16:08:00Z</time>
      </trkpt>
      <trkpt lat="42.78773" lon="0.59733">
        <ele>633</ele>
        <time>2021-08-20T16:08:03Z</time>
      </trkpt>
      <trkpt lat="42.78826" lon="0.5972">
        <ele>632</ele>
        <time>2021-08-20T16:08:12Z</time>
      </trkpt>
      <trkpt lat="42.78872" lon="0.59723">
        <ele>631</ele>
        <time>2021-08-20T16:08:20Z</time>
      </trkpt>
      <trkpt lat="42.78939" lon="0.59734">
        <ele>629</ele>
        <time>2021-08-20T16:08:32Z</time>
      </trkpt>
      <trkpt lat="42.78955" lon="0.59733">
        <ele>629</ele>
        <time>2021-08-20T16:08:35Z</time>
      </trkpt>
      <trkpt lat="42.7896" lon="0.59741">
        <ele>629</ele>
        <time>2021-08-20T16:08:37Z</time>
      </trkpt>
      <trkpt lat="42.78969" lon="0.59743">
        <ele>629</ele>
        <time>2021-08-20T16:08:38Z</time>
      </trkpt>
      <trkpt lat="42.78978" lon="0.59735">
        <ele>629</ele>
        <time>2021-08-20T16:08:40Z</time>
      </trkpt>
      <trkpt lat="42.79011" lon="0.59749">
        <ele>628</ele>
        <time>2021-08-20T16:08:46Z</time>
      </trkpt>
      <trkpt lat="42.79055" lon="0.59763">
        <ele>630</ele>
        <time>2021-08-20T16:08:54Z</time>
      </trkpt>
      <trkpt lat="42.79104" lon="0.5977">
        <ele>630</ele>
        <time>2021-08-20T16:09:03Z</time>
      </trkpt>
      <trkpt lat="42.79104" lon="0.59775">
        <ele>630</ele>
        <time>2021-08-20T16:09:04Z</time>
      </trkpt>
      <trkpt lat="42.79108" lon="0.59782">
        <ele>630</ele>
        <time>2021-08-20T16:09:05Z</time>
      </trkpt>
      <trkpt lat="42.79111" lon="0.59784">
        <ele>630</ele>
        <time>2021-08-20T16:09:06Z</time>
      </trkpt>
      <trkpt lat="42.79117" lon="0.59783">
        <ele>630</ele>
        <time>2021-08-20T16:09:07Z</time>
      </trkpt>
      <trkpt lat="42.79122" lon="0.59777">
        <ele>630</ele>
        <time>2021-08-20T16:09:08Z</time>
      </trkpt>
      <trkpt lat="42.79123" lon="0.59773">
        <ele>630</ele>
        <time>2021-08-20T16:09:08Z</time>
      </trkpt>
      <trkpt lat="42.79133" lon="0.59775">
        <ele>629</ele>
        <time>2021-08-20T16:09:10Z</time>
      </trkpt>
      <trkpt lat="42.79185" lon="0.59777">
        <ele>628</ele>
        <time>2021-08-20T16:09:19Z</time>
      </trkpt>
      <trkpt lat="42.79227" lon="0.59778">
        <ele>627</ele>
        <time>2021-08-20T16:09:27Z</time>
      </trkpt>
      <trkpt lat="42.79247" lon="0.59775">
        <ele>627</ele>
        <time>2021-08-20T16:09:31Z</time>
      </trkpt>
      <trkpt lat="42.79268" lon="0.59768">
        <ele>627</ele>
        <time>2021-08-20T16:09:34Z</time>
      </trkpt>
      <trkpt lat="42.79379" lon="0.59688">
        <ele>628</ele>
        <time>2021-08-20T16:09:57Z</time>
      </trkpt>
      <trkpt lat="42.79422" lon="0.59663">
        <ele>628</ele>
        <time>2021-08-20T16:10:05Z</time>
      </trkpt>
      <trkpt lat="42.79436" lon="0.59657">
        <ele>628</ele>
        <time>2021-08-20T16:10:08Z</time>
      </trkpt>
      <trkpt lat="42.7944" lon="0.59655">
        <ele>628</ele>
        <time>2021-08-20T16:10:08Z</time>
      </trkpt>
      <trkpt lat="42.79475" lon="0.59641">
        <ele>627</ele>
        <time>2021-08-20T16:10:15Z</time>
      </trkpt>
      <trkpt lat="42.79488" lon="0.59634">
        <ele>626</ele>
        <time>2021-08-20T16:10:17Z</time>
      </trkpt>
      <trkpt lat="42.79508" lon="0.59622">
        <ele>626</ele>
        <time>2021-08-20T16:10:21Z</time>
      </trkpt>
      <trkpt lat="42.79511" lon="0.5962">
        <ele>626</ele>
        <time>2021-08-20T16:10:22Z</time>
      </trkpt>
      <trkpt lat="42.79511" lon="0.59629">
        <ele>626</ele>
        <time>2021-08-20T16:10:23Z</time>
      </trkpt>
      <trkpt lat="42.79516" lon="0.59653">
        <ele>626</ele>
        <time>2021-08-20T16:10:26Z</time>
      </trkpt>
      <trkpt lat="42.79524" lon="0.59668">
        <ele>626</ele>
        <time>2021-08-20T16:10:29Z</time>
      </trkpt>
      <trkpt lat="42.79529" lon="0.59672">
        <ele>626</ele>
        <time>2021-08-20T16:10:30Z</time>
      </trkpt>
      <trkpt lat="42.79539" lon="0.59675">
        <ele>626</ele>
        <time>2021-08-20T16:10:32Z</time>
      </trkpt>
      <trkpt lat="42.79544" lon="0.59677">
        <ele>626</ele>
        <time>2021-08-20T16:10:32Z</time>
      </trkpt>
      <trkpt lat="42.7955" lon="0.59678">
        <ele>626</ele>
        <time>2021-08-20T16:10:34Z</time>
      </trkpt>
      <trkpt lat="42.79613" lon="0.59687">
        <ele>625</ele>
        <time>2021-08-20T16:10:45Z</time>
      </trkpt>
      <trkpt lat="42.7977" lon="0.59707">
        <ele>622</ele>
        <time>2021-08-20T16:11:13Z</time>
      </trkpt>
      <trkpt lat="42.79772" lon="0.59708">
        <ele>622</ele>
        <time>2021-08-20T16:11:13Z</time>
      </trkpt>
      <trkpt lat="42.79779" lon="0.59709">
        <ele>622</ele>
        <time>2021-08-20T16:11:15Z</time>
      </trkpt>
      <trkpt lat="42.79861" lon="0.5972">
        <ele>622</ele>
        <time>2021-08-20T16:11:29Z</time>
      </trkpt>
      <trkpt lat="42.79931" lon="0.59728">
        <ele>621</ele>
        <time>2021-08-20T16:11:42Z</time>
      </trkpt>
      <trkpt lat="42.79987" lon="0.59733">
        <ele>618</ele>
        <time>2021-08-20T16:11:52Z</time>
      </trkpt>
      <trkpt lat="42.80025" lon="0.59735">
        <ele>618</ele>
        <time>2021-08-20T16:11:58Z</time>
      </trkpt>
      <trkpt lat="42.80088" lon="0.59737">
        <ele>618</ele>
        <time>2021-08-20T16:12:10Z</time>
      </trkpt>
      <trkpt lat="42.80101" lon="0.59739">
        <ele>618</ele>
        <time>2021-08-20T16:12:12Z</time>
      </trkpt>
      <trkpt lat="42.80148" lon="0.59746">
        <ele>619</ele>
        <time>2021-08-20T16:12:20Z</time>
      </trkpt>
      <trkpt lat="42.80151" lon="0.59746">
        <ele>619</ele>
        <time>2021-08-20T16:12:21Z</time>
      </trkpt>
      <trkpt lat="42.80169" lon="0.5975">
        <ele>619</ele>
        <time>2021-08-20T16:12:24Z</time>
      </trkpt>
      <trkpt lat="42.80184" lon="0.59754">
        <ele>619</ele>
        <time>2021-08-20T16:12:27Z</time>
      </trkpt>
      <trkpt lat="42.80239" lon="0.59782">
        <ele>617</ele>
        <time>2021-08-20T16:12:37Z</time>
      </trkpt>
      <trkpt lat="42.80268" lon="0.598">
        <ele>617</ele>
        <time>2021-08-20T16:12:43Z</time>
      </trkpt>
      <trkpt lat="42.80277" lon="0.59807">
        <ele>617</ele>
        <time>2021-08-20T16:12:45Z</time>
      </trkpt>
      <trkpt lat="42.80389" lon="0.59897">
        <ele>615</ele>
        <time>2021-08-20T16:13:08Z</time>
      </trkpt>
      <trkpt lat="42.80421" lon="0.59921">
        <ele>614</ele>
        <time>2021-08-20T16:13:14Z</time>
      </trkpt>
      <trkpt lat="42.80434" lon="0.59932">
        <ele>614</ele>
        <time>2021-08-20T16:13:17Z</time>
      </trkpt>
      <trkpt lat="42.80479" lon="0.59969">
        <ele>613</ele>
        <time>2021-08-20T16:13:27Z</time>
      </trkpt>
      <trkpt lat="42.80485" lon="0.59974">
        <ele>613</ele>
        <time>2021-08-20T16:13:28Z</time>
      </trkpt>
      <trkpt lat="42.80496" lon="0.59988">
        <ele>613</ele>
        <time>2021-08-20T16:13:30Z</time>
      </trkpt>
      <trkpt lat="42.80512" lon="0.60011">
        <ele>613</ele>
        <time>2021-08-20T16:13:35Z</time>
      </trkpt>
      <trkpt lat="42.80517" lon="0.60022">
        <ele>614</ele>
        <time>2021-08-20T16:13:36Z</time>
      </trkpt>
      <trkpt lat="42.80518" lon="0.60026">
        <ele>614</ele>
        <time>2021-08-20T16:13:37Z</time>
      </trkpt>
      <trkpt lat="42.80519" lon="0.60029">
        <ele>614</ele>
        <time>2021-08-20T16:13:37Z</time>
      </trkpt>
      <trkpt lat="42.80522" lon="0.60032">
        <ele>614</ele>
        <time>2021-08-20T16:13:38Z</time>
      </trkpt>
      <trkpt lat="42.80529" lon="0.60035">
        <ele>614</ele>
        <time>2021-08-20T16:13:39Z</time>
      </trkpt>
      <trkpt lat="42.80532" lon="0.60034">
        <ele>614</ele>
        <time>2021-08-20T16:13:40Z</time>
      </trkpt>
      <trkpt lat="42.80536" lon="0.60032">
        <ele>614</ele>
        <time>2021-08-20T16:13:41Z</time>
      </trkpt>
      <trkpt lat="42.80537" lon="0.60029">
        <ele>614</ele>
        <time>2021-08-20T16:13:41Z</time>
      </trkpt>
      <trkpt lat="42.80543" lon="0.60027">
        <ele>614</ele>
        <time>2021-08-20T16:13:42Z</time>
      </trkpt>
      <trkpt lat="42.80557" lon="0.60025">
        <ele>614</ele>
        <time>2021-08-20T16:13:45Z</time>
      </trkpt>
      <trkpt lat="42.80598" lon="0.60037">
        <ele>614</ele>
        <time>2021-08-20T16:13:52Z</time>
      </trkpt>
      <trkpt lat="42.80658" lon="0.60048">
        <ele>614</ele>
        <time>2021-08-20T16:14:03Z</time>
      </trkpt>
      <trkpt lat="42.80686" lon="0.60051">
        <ele>614</ele>
        <time>2021-08-20T16:14:08Z</time>
      </trkpt>
      <trkpt lat="42.81129" lon="0.60152">
        <ele>612</ele>
        <time>2021-08-20T16:15:28Z</time>
      </trkpt>
      <trkpt lat="42.8127" lon="0.60184">
        <ele>611</ele>
        <time>2021-08-20T16:15:53Z</time>
      </trkpt>
      <trkpt lat="42.81347" lon="0.60201">
        <ele>609</ele>
        <time>2021-08-20T16:16:07Z</time>
      </trkpt>
      <trkpt lat="42.81875" lon="0.6032">
        <ele>605</ele>
        <time>2021-08-20T16:17:42Z</time>
      </trkpt>
      <trkpt lat="42.82043" lon="0.60358">
        <ele>606</ele>
        <time>2021-08-20T16:18:13Z</time>
      </trkpt>
      <trkpt lat="42.82122" lon="0.60374">
        <ele>605</ele>
        <time>2021-08-20T16:18:27Z</time>
      </trkpt>
      <trkpt lat="42.8217" lon="0.60381">
        <ele>604</ele>
        <time>2021-08-20T16:18:35Z</time>
      </trkpt>
      <trkpt lat="42.82235" lon="0.60383">
        <ele>605</ele>
        <time>2021-08-20T16:18:47Z</time>
      </trkpt>
      <trkpt lat="42.82263" lon="0.60381">
        <ele>605</ele>
        <time>2021-08-20T16:18:52Z</time>
      </trkpt>
      <trkpt lat="42.82266" lon="0.60381">
        <ele>605</ele>
        <time>2021-08-20T16:18:52Z</time>
      </trkpt>
      <trkpt lat="42.82295" lon="0.60377">
        <ele>603</ele>
        <time>2021-08-20T16:18:58Z</time>
      </trkpt>
      <trkpt lat="42.82356" lon="0.60363">
        <ele>601</ele>
        <time>2021-08-20T16:19:09Z</time>
      </trkpt>
      <trkpt lat="42.82387" lon="0.60353">
        <ele>601</ele>
        <time>2021-08-20T16:19:14Z</time>
      </trkpt>
      <trkpt lat="42.82422" lon="0.60339">
        <ele>601</ele>
        <time>2021-08-20T16:19:21Z</time>
      </trkpt>
      <trkpt lat="42.82666" lon="0.60227">
        <ele>601</ele>
        <time>2021-08-20T16:20:07Z</time>
      </trkpt>
      <trkpt lat="42.82703" lon="0.60214">
        <ele>601</ele>
        <time>2021-08-20T16:20:13Z</time>
      </trkpt>
      <trkpt lat="42.82755" lon="0.602">
        <ele>601</ele>
        <time>2021-08-20T16:20:23Z</time>
      </trkpt>
      <trkpt lat="42.82784" lon="0.60194">
        <ele>600</ele>
        <time>2021-08-20T16:20:28Z</time>
      </trkpt>
      <trkpt lat="42.82813" lon="0.60191">
        <ele>600</ele>
        <time>2021-08-20T16:20:33Z</time>
      </trkpt>
      <trkpt lat="42.82876" lon="0.60179">
        <ele>599</ele>
        <time>2021-08-20T16:20:45Z</time>
      </trkpt>
      <trkpt lat="42.82886" lon="0.60179">
        <ele>599</ele>
        <time>2021-08-20T16:20:46Z</time>
      </trkpt>
      <trkpt lat="42.82892" lon="0.60181">
        <ele>599</ele>
        <time>2021-08-20T16:20:47Z</time>
      </trkpt>
      <trkpt lat="42.82894" lon="0.60184">
        <ele>599</ele>
        <time>2021-08-20T16:20:48Z</time>
      </trkpt>
      <trkpt lat="42.82898" lon="0.60187">
        <ele>599</ele>
        <time>2021-08-20T16:20:49Z</time>
      </trkpt>
      <trkpt lat="42.82907" lon="0.60188">
        <ele>599</ele>
        <time>2021-08-20T16:20:50Z</time>
      </trkpt>
      <trkpt lat="42.82911" lon="0.60186">
        <ele>599</ele>
        <time>2021-08-20T16:20:51Z</time>
      </trkpt>
      <trkpt lat="42.82913" lon="0.60183">
        <ele>599</ele>
        <time>2021-08-20T16:20:52Z</time>
      </trkpt>
      <trkpt lat="42.82915" lon="0.6018">
        <ele>599</ele>
        <time>2021-08-20T16:20:52Z</time>
      </trkpt>
      <trkpt lat="42.82922" lon="0.60172">
        <ele>599</ele>
        <time>2021-08-20T16:20:54Z</time>
      </trkpt>
      <trkpt lat="42.82928" lon="0.60168">
        <ele>599</ele>
        <time>2021-08-20T16:20:55Z</time>
      </trkpt>
      <trkpt lat="42.82955" lon="0.60164">
        <ele>599</ele>
        <time>2021-08-20T16:21:00Z</time>
      </trkpt>
      <trkpt lat="42.82983" lon="0.60164">
        <ele>599</ele>
        <time>2021-08-20T16:21:05Z</time>
      </trkpt>
      <trkpt lat="42.82999" lon="0.60166">
        <ele>599</ele>
        <time>2021-08-20T16:21:08Z</time>
      </trkpt>
      <trkpt lat="42.83012" lon="0.60166">
        <ele>599</ele>
        <time>2021-08-20T16:21:10Z</time>
      </trkpt>
      <trkpt lat="42.8303" lon="0.6017">
        <ele>599</ele>
        <time>2021-08-20T16:21:13Z</time>
      </trkpt>
      <trkpt lat="42.83045" lon="0.60175">
        <ele>600</ele>
        <time>2021-08-20T16:21:16Z</time>
      </trkpt>
      <trkpt lat="42.83169" lon="0.60209">
        <ele>602</ele>
        <time>2021-08-20T16:21:38Z</time>
      </trkpt>
      <trkpt lat="42.83205" lon="0.60219">
        <ele>601</ele>
        <time>2021-08-20T16:21:45Z</time>
      </trkpt>
      <trkpt lat="42.83534" lon="0.60312">
        <ele>597</ele>
        <time>2021-08-20T16:22:45Z</time>
      </trkpt>
      <trkpt lat="42.83556" lon="0.6032">
        <ele>596</ele>
        <time>2021-08-20T16:22:49Z</time>
      </trkpt>
      <trkpt lat="42.83566" lon="0.60323">
        <ele>596</ele>
        <time>2021-08-20T16:22:51Z</time>
      </trkpt>
      <trkpt lat="42.83657" lon="0.6035">
        <ele>599</ele>
        <time>2021-08-20T16:23:07Z</time>
      </trkpt>
      <trkpt lat="42.83666" lon="0.60352">
        <ele>599</ele>
        <time>2021-08-20T16:23:09Z</time>
      </trkpt>
      <trkpt lat="42.83717" lon="0.60367">
        <ele>601</ele>
        <time>2021-08-20T16:23:18Z</time>
      </trkpt>
      <trkpt lat="42.83848" lon="0.60402">
        <ele>603</ele>
        <time>2021-08-20T16:23:42Z</time>
      </trkpt>
      <trkpt lat="42.83861" lon="0.60404">
        <ele>603</ele>
        <time>2021-08-20T16:23:44Z</time>
      </trkpt>
      <trkpt lat="42.84033" lon="0.60454">
        <ele>600</ele>
        <time>2021-08-20T16:24:16Z</time>
      </trkpt>
      <trkpt lat="42.84068" lon="0.60461">
        <ele>598</ele>
        <time>2021-08-20T16:24:22Z</time>
      </trkpt>
      <trkpt lat="42.84091" lon="0.60463">
        <ele>597</ele>
        <time>2021-08-20T16:24:26Z</time>
      </trkpt>
      <trkpt lat="42.84137" lon="0.6046">
        <ele>596</ele>
        <time>2021-08-20T16:24:34Z</time>
      </trkpt>
      <trkpt lat="42.84148" lon="0.60457">
        <ele>596</ele>
        <time>2021-08-20T16:24:36Z</time>
      </trkpt>
      <trkpt lat="42.84149" lon="0.60457">
        <ele>596</ele>
        <time>2021-08-20T16:24:36Z</time>
      </trkpt>
      <trkpt lat="42.84171" lon="0.6045">
        <ele>595</ele>
        <time>2021-08-20T16:24:40Z</time>
      </trkpt>
      <trkpt lat="42.84174" lon="0.60449">
        <ele>595</ele>
        <time>2021-08-20T16:24:41Z</time>
      </trkpt>
      <trkpt lat="42.84194" lon="0.60441">
        <ele>595</ele>
        <time>2021-08-20T16:24:45Z</time>
      </trkpt>
      <trkpt lat="42.84252" lon="0.60419">
        <ele>596</ele>
        <time>2021-08-20T16:24:55Z</time>
      </trkpt>
      <trkpt lat="42.84264" lon="0.60416">
        <ele>596</ele>
        <time>2021-08-20T16:24:57Z</time>
      </trkpt>
      <trkpt lat="42.84306" lon="0.60408">
        <ele>596</ele>
        <time>2021-08-20T16:25:05Z</time>
      </trkpt>
      <trkpt lat="42.84356" lon="0.60399">
        <ele>597</ele>
        <time>2021-08-20T16:25:14Z</time>
      </trkpt>
      <trkpt lat="42.8439" lon="0.60393">
        <ele>598</ele>
        <time>2021-08-20T16:25:20Z</time>
      </trkpt>
      <trkpt lat="42.84419" lon="0.60387">
        <ele>599</ele>
        <time>2021-08-20T16:25:25Z</time>
      </trkpt>
      <trkpt lat="42.84439" lon="0.60382">
        <ele>599</ele>
        <time>2021-08-20T16:25:29Z</time>
      </trkpt>
      <trkpt lat="42.84478" lon="0.60374">
        <ele>598</ele>
        <time>2021-08-20T16:25:36Z</time>
      </trkpt>
      <trkpt lat="42.84557" lon="0.60356">
        <ele>597</ele>
        <time>2021-08-20T16:25:50Z</time>
      </trkpt>
      <trkpt lat="42.84597" lon="0.60348">
        <ele>597</ele>
        <time>2021-08-20T16:25:57Z</time>
      </trkpt>
      <trkpt lat="42.84864" lon="0.60283">
        <ele>595</ele>
        <time>2021-08-20T16:26:46Z</time>
      </trkpt>
      <trkpt lat="42.84945" lon="0.60264">
        <ele>596</ele>
        <time>2021-08-20T16:27:00Z</time>
      </trkpt>
      <trkpt lat="42.84992" lon="0.60256">
        <ele>597</ele>
        <time>2021-08-20T16:27:09Z</time>
      </trkpt>
      <trkpt lat="42.85145" lon="0.60254">
        <ele>598</ele>
        <time>2021-08-20T16:27:36Z</time>
      </trkpt>
      <trkpt lat="42.85168" lon="0.60255">
        <ele>597</ele>
        <time>2021-08-20T16:27:40Z</time>
      </trkpt>
      <trkpt lat="42.85181" lon="0.60257">
        <ele>597</ele>
        <time>2021-08-20T16:27:42Z</time>
      </trkpt>
      <trkpt lat="42.85195" lon="0.60261">
        <ele>598</ele>
        <time>2021-08-20T16:27:45Z</time>
      </trkpt>
      <trkpt lat="42.8523" lon="0.60273">
        <ele>599</ele>
        <time>2021-08-20T16:27:51Z</time>
      </trkpt>
      <trkpt lat="42.85249" lon="0.60284">
        <ele>601</ele>
        <time>2021-08-20T16:27:55Z</time>
      </trkpt>
      <trkpt lat="42.85261" lon="0.60292">
        <ele>601</ele>
        <time>2021-08-20T16:27:57Z</time>
      </trkpt>
      <trkpt lat="42.85274" lon="0.60301">
        <ele>600</ele>
        <time>2021-08-20T16:28:00Z</time>
      </trkpt>
      <trkpt lat="42.85291" lon="0.60314">
        <ele>599</ele>
        <time>2021-08-20T16:28:03Z</time>
      </trkpt>
      <trkpt lat="42.85307" lon="0.60331">
        <ele>597</ele>
        <time>2021-08-20T16:28:07Z</time>
      </trkpt>
      <trkpt lat="42.85384" lon="0.6043">
        <ele>598</ele>
        <time>2021-08-20T16:28:26Z</time>
      </trkpt>
      <trkpt lat="42.85404" lon="0.60455">
        <ele>601</ele>
        <time>2021-08-20T16:28:31Z</time>
      </trkpt>
      <trkpt lat="42.85433" lon="0.60484">
        <ele>604</ele>
        <time>2021-08-20T16:28:37Z</time>
      </trkpt>
      <trkpt lat="42.85459" lon="0.60501">
        <ele>605</ele>
        <time>2021-08-20T16:28:42Z</time>
      </trkpt>
      <trkpt lat="42.85486" lon="0.60517">
        <ele>611</ele>
        <time>2021-08-20T16:28:47Z</time>
      </trkpt>
      <trkpt lat="42.85583" lon="0.60572">
        <ele>606</ele>
        <time>2021-08-20T16:29:06Z</time>
      </trkpt>
      <trkpt lat="42.8561" lon="0.60586">
        <ele>605</ele>
        <time>2021-08-20T16:29:11Z</time>
      </trkpt>
      <trkpt lat="42.85629" lon="0.60594">
        <ele>606</ele>
        <time>2021-08-20T16:29:15Z</time>
      </trkpt>
      <trkpt lat="42.85658" lon="0.60601">
        <ele>605</ele>
        <time>2021-08-20T16:29:20Z</time>
      </trkpt>
      <trkpt lat="42.85678" lon="0.60601">
        <ele>604</ele>
        <time>2021-08-20T16:29:24Z</time>
      </trkpt>
      <trkpt lat="42.85704" lon="0.60599">
        <ele>605</ele>
        <time>2021-08-20T16:29:28Z</time>
      </trkpt>
      <trkpt lat="42.85728" lon="0.60594">
        <ele>604</ele>
        <time>2021-08-20T16:29:33Z</time>
      </trkpt>
      <trkpt lat="42.85818" lon="0.60561">
        <ele>607</ele>
        <time>2021-08-20T16:29:49Z</time>
      </trkpt>
      <trkpt lat="42.8583" lon="0.60558">
        <ele>608</ele>
        <time>2021-08-20T16:29:51Z</time>
      </trkpt>
      <trkpt lat="42.85847" lon="0.60557">
        <ele>610</ele>
        <time>2021-08-20T16:29:54Z</time>
      </trkpt>
      <trkpt lat="42.85924" lon="0.6056">
        <ele>613</ele>
        <time>2021-08-20T16:30:08Z</time>
      </trkpt>
      <trkpt lat="42.85996" lon="0.60582">
        <ele>601</ele>
        <time>2021-08-20T16:30:21Z</time>
      </trkpt>
      <trkpt lat="42.86036" lon="0.60585">
        <ele>603</ele>
        <time>2021-08-20T16:30:28Z</time>
      </trkpt>
      <trkpt lat="42.86058" lon="0.60581">
        <ele>603</ele>
        <time>2021-08-20T16:30:32Z</time>
      </trkpt>
      <trkpt lat="42.86139" lon="0.60558">
        <ele>607</ele>
        <time>2021-08-20T16:30:47Z</time>
      </trkpt>
      <trkpt lat="42.86263" lon="0.60519">
        <ele>603</ele>
        <time>2021-08-20T16:31:10Z</time>
      </trkpt>
      <trkpt lat="42.86282" lon="0.60514">
        <ele>602</ele>
        <time>2021-08-20T16:31:13Z</time>
      </trkpt>
      <trkpt lat="42.863" lon="0.60512">
        <ele>601</ele>
        <time>2021-08-20T16:31:16Z</time>
      </trkpt>
      <trkpt lat="42.86325" lon="0.60512">
        <ele>601</ele>
        <time>2021-08-20T16:31:21Z</time>
      </trkpt>
      <trkpt lat="42.86347" lon="0.60517">
        <ele>602</ele>
        <time>2021-08-20T16:31:25Z</time>
      </trkpt>
      <trkpt lat="42.8639" lon="0.60529">
        <ele>603</ele>
        <time>2021-08-20T16:31:32Z</time>
      </trkpt>
      <trkpt lat="42.86407" lon="0.60537">
        <ele>604</ele>
        <time>2021-08-20T16:31:36Z</time>
      </trkpt>
      <trkpt lat="42.86423" lon="0.60542">
        <ele>605</ele>
        <time>2021-08-20T16:31:39Z</time>
      </trkpt>
      <trkpt lat="42.86446" lon="0.60559">
        <ele>606</ele>
        <time>2021-08-20T16:31:43Z</time>
      </trkpt>
      <trkpt lat="42.86446" lon="0.60564">
        <ele>607</ele>
        <time>2021-08-20T16:31:44Z</time>
      </trkpt>
      <trkpt lat="42.86453" lon="0.60569">
        <ele>607</ele>
        <time>2021-08-20T16:31:45Z</time>
      </trkpt>
      <trkpt lat="42.86466" lon="0.60579">
        <ele>607</ele>
        <time>2021-08-20T16:31:48Z</time>
      </trkpt>
      <trkpt lat="42.86511" lon="0.60618">
        <ele>606</ele>
        <time>2021-08-20T16:31:57Z</time>
      </trkpt>
      <trkpt lat="42.86528" lon="0.60632">
        <ele>605</ele>
        <time>2021-08-20T16:32:01Z</time>
      </trkpt>
      <trkpt lat="42.86569" lon="0.60668">
        <ele>601</ele>
        <time>2021-08-20T16:32:10Z</time>
      </trkpt>
      <trkpt lat="42.86585" lon="0.60683">
        <ele>600</ele>
        <time>2021-08-20T16:32:13Z</time>
      </trkpt>
      <trkpt lat="42.86668" lon="0.60758">
        <ele>604</ele>
        <time>2021-08-20T16:32:31Z</time>
      </trkpt>
      <trkpt lat="42.86712" lon="0.60808">
        <ele>606</ele>
        <time>2021-08-20T16:32:41Z</time>
      </trkpt>
      <trkpt lat="42.86796" lon="0.60915">
        <ele>600</ele>
        <time>2021-08-20T16:33:01Z</time>
      </trkpt>
      <trkpt lat="42.86811" lon="0.60929">
        <ele>599</ele>
        <time>2021-08-20T16:33:05Z</time>
      </trkpt>
      <trkpt lat="42.86826" lon="0.6094">
        <ele>598</ele>
        <time>2021-08-20T16:33:08Z</time>
      </trkpt>
      <trkpt lat="42.86845" lon="0.60951">
        <ele>596</ele>
        <time>2021-08-20T16:33:11Z</time>
      </trkpt>
      <trkpt lat="42.86867" lon="0.6096">
        <ele>595</ele>
        <time>2021-08-20T16:33:16Z</time>
      </trkpt>
      <trkpt lat="42.86943" lon="0.60983">
        <ele>590</ele>
        <time>2021-08-20T16:33:29Z</time>
      </trkpt>
      <trkpt lat="42.86987" lon="0.61">
        <ele>588</ele>
        <time>2021-08-20T16:33:37Z</time>
      </trkpt>
      <trkpt lat="42.87007" lon="0.61013">
        <ele>589</ele>
        <time>2021-08-20T16:33:41Z</time>
      </trkpt>
      <trkpt lat="42.87066" lon="0.61058">
        <ele>594</ele>
        <time>2021-08-20T16:33:53Z</time>
      </trkpt>
      <trkpt lat="42.87096" lon="0.61078">
        <ele>596</ele>
        <time>2021-08-20T16:33:59Z</time>
      </trkpt>
      <trkpt lat="42.87109" lon="0.61085">
        <ele>596</ele>
        <time>2021-08-20T16:34:02Z</time>
      </trkpt>
      <trkpt lat="42.87134" lon="0.61095">
        <ele>598</ele>
        <time>2021-08-20T16:34:07Z</time>
      </trkpt>
      <trkpt lat="42.87157" lon="0.61103">
        <ele>598</ele>
        <time>2021-08-20T16:34:11Z</time>
      </trkpt>
      <trkpt lat="42.87192" lon="0.61116">
        <ele>597</ele>
        <time>2021-08-20T16:34:17Z</time>
      </trkpt>
      <trkpt lat="42.87236" lon="0.61138">
        <ele>593</ele>
        <time>2021-08-20T16:34:26Z</time>
      </trkpt>
      <trkpt lat="42.87337" lon="0.61209">
        <ele>597</ele>
        <time>2021-08-20T16:34:46Z</time>
      </trkpt>
      <trkpt lat="42.87357" lon="0.61223">
        <ele>597</ele>
        <time>2021-08-20T16:34:50Z</time>
      </trkpt>
      <trkpt lat="42.87385" lon="0.61238">
        <ele>596</ele>
        <time>2021-08-20T16:34:55Z</time>
      </trkpt>
      <trkpt lat="42.8741" lon="0.61249">
        <ele>592</ele>
        <time>2021-08-20T16:35:00Z</time>
      </trkpt>
      <trkpt lat="42.87523" lon="0.613">
        <ele>596</ele>
        <time>2021-08-20T16:35:21Z</time>
      </trkpt>
      <trkpt lat="42.8753" lon="0.61303">
        <ele>595</ele>
        <time>2021-08-20T16:35:22Z</time>
      </trkpt>
      <trkpt lat="42.87545" lon="0.6131">
        <ele>594</ele>
        <time>2021-08-20T16:35:25Z</time>
      </trkpt>
      <trkpt lat="42.87573" lon="0.61323">
        <ele>590</ele>
        <time>2021-08-20T16:35:30Z</time>
      </trkpt>
      <trkpt lat="42.87619" lon="0.61343">
        <ele>588</ele>
        <time>2021-08-20T16:35:39Z</time>
      </trkpt>
      <trkpt lat="42.87653" lon="0.61359">
        <ele>588</ele>
        <time>2021-08-20T16:35:45Z</time>
      </trkpt>
      <trkpt lat="42.87676" lon="0.6137">
        <ele>587</ele>
        <time>2021-08-20T16:35:50Z</time>
      </trkpt>
      <trkpt lat="42.87727" lon="0.61422">
        <ele>587</ele>
        <time>2021-08-20T16:36:01Z</time>
      </trkpt>
      <trkpt lat="42.87726" lon="0.61407">
        <ele>584</ele>
        <time>2021-08-20T16:36:03Z</time>
      </trkpt>
      <trkpt lat="42.87728" lon="0.61394">
        <ele>583</ele>
        <time>2021-08-20T16:36:05Z</time>
      </trkpt>
      <trkpt lat="42.87748" lon="0.61402">
        <ele>580</ele>
        <time>2021-08-20T16:36:08Z</time>
      </trkpt>
      <trkpt lat="42.87769" lon="0.61409">
        <ele>579</ele>
        <time>2021-08-20T16:36:12Z</time>
      </trkpt>
      <trkpt lat="42.8781" lon="0.61411">
        <ele>579</ele>
        <time>2021-08-20T16:36:20Z</time>
      </trkpt>
      <trkpt lat="42.87834" lon="0.61406">
        <ele>579</ele>
        <time>2021-08-20T16:36:24Z</time>
      </trkpt>
      <trkpt lat="42.87845" lon="0.61402">
        <ele>579</ele>
        <time>2021-08-20T16:36:26Z</time>
      </trkpt>
      <trkpt lat="42.87889" lon="0.61385">
        <ele>580</ele>
        <time>2021-08-20T16:36:34Z</time>
      </trkpt>
      <trkpt lat="42.87971" lon="0.61354">
        <ele>576</ele>
        <time>2021-08-20T16:36:49Z</time>
      </trkpt>
      <trkpt lat="42.88" lon="0.61348">
        <ele>577</ele>
        <time>2021-08-20T16:36:54Z</time>
      </trkpt>
      <trkpt lat="42.88014" lon="0.61348">
        <ele>576</ele>
        <time>2021-08-20T16:36:57Z</time>
      </trkpt>
      <trkpt lat="42.88238" lon="0.61384">
        <ele>572</ele>
        <time>2021-08-20T16:37:37Z</time>
      </trkpt>
      <trkpt lat="42.88268" lon="0.61395">
        <ele>572</ele>
        <time>2021-08-20T16:37:43Z</time>
      </trkpt>
      <trkpt lat="42.88281" lon="0.61403">
        <ele>572</ele>
        <time>2021-08-20T16:37:45Z</time>
      </trkpt>
      <trkpt lat="42.88298" lon="0.61418">
        <ele>571</ele>
        <time>2021-08-20T16:37:49Z</time>
      </trkpt>
      <trkpt lat="42.88319" lon="0.61446">
        <ele>576</ele>
        <time>2021-08-20T16:37:54Z</time>
      </trkpt>
      <trkpt lat="42.88329" lon="0.61465">
        <ele>579</ele>
        <time>2021-08-20T16:37:57Z</time>
      </trkpt>
      <trkpt lat="42.88362" lon="0.61542">
        <ele>584</ele>
        <time>2021-08-20T16:38:09Z</time>
      </trkpt>
      <trkpt lat="42.88378" lon="0.61574">
        <ele>581</ele>
        <time>2021-08-20T16:38:14Z</time>
      </trkpt>
      <trkpt lat="42.88401" lon="0.61607">
        <ele>579</ele>
        <time>2021-08-20T16:38:20Z</time>
      </trkpt>
      <trkpt lat="42.88422" lon="0.61631">
        <ele>578</ele>
        <time>2021-08-20T16:38:24Z</time>
      </trkpt>
      <trkpt lat="42.88439" lon="0.61645">
        <ele>577</ele>
        <time>2021-08-20T16:38:28Z</time>
      </trkpt>
      <trkpt lat="42.88486" lon="0.61672">
        <ele>569</ele>
        <time>2021-08-20T16:38:37Z</time>
      </trkpt>
      <trkpt lat="42.88507" lon="0.6169">
        <ele>568</ele>
        <time>2021-08-20T16:38:41Z</time>
      </trkpt>
      <trkpt lat="42.88538" lon="0.61732">
        <ele>570</ele>
        <time>2021-08-20T16:38:49Z</time>
      </trkpt>
      <trkpt lat="42.88568" lon="0.61789">
        <ele>571</ele>
        <time>2021-08-20T16:38:58Z</time>
      </trkpt>
      <trkpt lat="42.88587" lon="0.61813">
        <ele>569</ele>
        <time>2021-08-20T16:39:03Z</time>
      </trkpt>
      <trkpt lat="42.88597" lon="0.61824">
        <ele>568</ele>
        <time>2021-08-20T16:39:05Z</time>
      </trkpt>
      <trkpt lat="42.88658" lon="0.61867">
        <ele>560</ele>
        <time>2021-08-20T16:39:17Z</time>
      </trkpt>
      <trkpt lat="42.88679" lon="0.61887">
        <ele>559</ele>
        <time>2021-08-20T16:39:22Z</time>
      </trkpt>
      <trkpt lat="42.88731" lon="0.61945">
        <ele>558</ele>
        <time>2021-08-20T16:39:34Z</time>
      </trkpt>
      <trkpt lat="42.8874" lon="0.61953">
        <ele>557</ele>
        <time>2021-08-20T16:39:36Z</time>
      </trkpt>
      <trkpt lat="42.88765" lon="0.61962">
        <ele>556</ele>
        <time>2021-08-20T16:39:41Z</time>
      </trkpt>
      <trkpt lat="42.88926" lon="0.62004">
        <ele>553</ele>
        <time>2021-08-20T16:40:10Z</time>
      </trkpt>
      <trkpt lat="42.88985" lon="0.6201">
        <ele>555</ele>
        <time>2021-08-20T16:40:20Z</time>
      </trkpt>
      <trkpt lat="42.8901" lon="0.62011">
        <ele>556</ele>
        <time>2021-08-20T16:40:25Z</time>
      </trkpt>
      <trkpt lat="42.89015" lon="0.62009">
        <ele>556</ele>
        <time>2021-08-20T16:40:26Z</time>
      </trkpt>
      <trkpt lat="42.89042" lon="0.6199">
        <ele>560</ele>
        <time>2021-08-20T16:40:31Z</time>
      </trkpt>
      <trkpt lat="42.89046" lon="0.61989">
        <ele>561</ele>
        <time>2021-08-20T16:40:32Z</time>
      </trkpt>
      <trkpt lat="42.89057" lon="0.61991">
        <ele>561</ele>
        <time>2021-08-20T16:40:34Z</time>
      </trkpt>
      <trkpt lat="42.89063" lon="0.61995">
        <ele>560</ele>
        <time>2021-08-20T16:40:35Z</time>
      </trkpt>
      <trkpt lat="42.89071" lon="0.62006">
        <ele>559</ele>
        <time>2021-08-20T16:40:37Z</time>
      </trkpt>
      <trkpt lat="42.89088" lon="0.6204">
        <ele>556</ele>
        <time>2021-08-20T16:40:42Z</time>
      </trkpt>
      <trkpt lat="42.89124" lon="0.62131">
        <ele>553</ele>
        <time>2021-08-20T16:40:56Z</time>
      </trkpt>
      <trkpt lat="42.89129" lon="0.6214">
        <ele>553</ele>
        <time>2021-08-20T16:40:57Z</time>
      </trkpt>
      <trkpt lat="42.8914" lon="0.6215">
        <ele>552</ele>
        <time>2021-08-20T16:41:00Z</time>
      </trkpt>
      <trkpt lat="42.89158" lon="0.62155">
        <ele>550</ele>
        <time>2021-08-20T16:41:03Z</time>
      </trkpt>
      <trkpt lat="42.89168" lon="0.62155">
        <ele>549</ele>
        <time>2021-08-20T16:41:05Z</time>
      </trkpt>
      <trkpt lat="42.89185" lon="0.62149">
        <ele>550</ele>
        <time>2021-08-20T16:41:08Z</time>
      </trkpt>
      <trkpt lat="42.89229" lon="0.62122">
        <ele>553</ele>
        <time>2021-08-20T16:41:16Z</time>
      </trkpt>
      <trkpt lat="42.89256" lon="0.62107">
        <ele>555</ele>
        <time>2021-08-20T16:41:22Z</time>
      </trkpt>
      <trkpt lat="42.89289" lon="0.62085">
        <ele>561</ele>
        <time>2021-08-20T16:41:28Z</time>
      </trkpt>
      <trkpt lat="42.89296" lon="0.62082">
        <ele>563</ele>
        <time>2021-08-20T16:41:29Z</time>
      </trkpt>
      <trkpt lat="42.89313" lon="0.62084">
        <ele>564</ele>
        <time>2021-08-20T16:41:32Z</time>
      </trkpt>
      <trkpt lat="42.89443" lon="0.62171">
        <ele>548</ele>
        <time>2021-08-20T16:41:58Z</time>
      </trkpt>
      <trkpt lat="42.895" lon="0.6222">
        <ele>547</ele>
        <time>2021-08-20T16:42:10Z</time>
      </trkpt>
      <trkpt lat="42.89546" lon="0.62286">
        <ele>547</ele>
        <time>2021-08-20T16:42:22Z</time>
      </trkpt>
      <trkpt lat="42.89574" lon="0.62316">
        <ele>544</ele>
        <time>2021-08-20T16:42:28Z</time>
      </trkpt>
      <trkpt lat="42.89741" lon="0.62468">
        <ele>544</ele>
        <time>2021-08-20T16:43:04Z</time>
      </trkpt>
      <trkpt lat="42.89772" lon="0.62501">
        <ele>543</ele>
        <time>2021-08-20T16:43:11Z</time>
      </trkpt>
      <trkpt lat="42.89785" lon="0.6252">
        <ele>545</ele>
        <time>2021-08-20T16:43:14Z</time>
      </trkpt>
      <trkpt lat="42.89787" lon="0.62532">
        <ele>544</ele>
        <time>2021-08-20T16:43:16Z</time>
      </trkpt>
      <trkpt lat="42.89788" lon="0.62563">
        <ele>542</ele>
        <time>2021-08-20T16:43:20Z</time>
      </trkpt>
      <trkpt lat="42.89793" lon="0.62575">
        <ele>541</ele>
        <time>2021-08-20T16:43:22Z</time>
      </trkpt>
      <trkpt lat="42.89827" lon="0.62625">
        <ele>536</ele>
        <time>2021-08-20T16:43:31Z</time>
      </trkpt>
      <trkpt lat="42.89846" lon="0.62665">
        <ele>534</ele>
        <time>2021-08-20T16:43:37Z</time>
      </trkpt>
      <trkpt lat="42.89862" lon="0.62704">
        <ele>537</ele>
        <time>2021-08-20T16:43:43Z</time>
      </trkpt>
      <trkpt lat="42.89887" lon="0.6279">
        <ele>537</ele>
        <time>2021-08-20T16:43:55Z</time>
      </trkpt>
      <trkpt lat="42.89922" lon="0.62922">
        <ele>533</ele>
        <time>2021-08-20T16:44:13Z</time>
      </trkpt>
      <trkpt lat="42.89943" lon="0.62982">
        <ele>538</ele>
        <time>2021-08-20T16:44:22Z</time>
      </trkpt>
      <trkpt lat="42.89947" lon="0.63002">
        <ele>538</ele>
        <time>2021-08-20T16:44:25Z</time>
      </trkpt>
      <trkpt lat="42.89943" lon="0.63023">
        <ele>537</ele>
        <time>2021-08-20T16:44:27Z</time>
      </trkpt>
      <trkpt lat="42.8994" lon="0.6303">
        <ele>536</ele>
        <time>2021-08-20T16:44:28Z</time>
      </trkpt>
      <trkpt lat="42.89923" lon="0.63054">
        <ele>534</ele>
        <time>2021-08-20T16:44:33Z</time>
      </trkpt>
      <trkpt lat="42.8992" lon="0.63061">
        <ele>534</ele>
        <time>2021-08-20T16:44:34Z</time>
      </trkpt>
      <trkpt lat="42.89918" lon="0.63082">
        <ele>533</ele>
        <time>2021-08-20T16:44:37Z</time>
      </trkpt>
      <trkpt lat="42.89922" lon="0.63205">
        <ele>531</ele>
        <time>2021-08-20T16:44:53Z</time>
      </trkpt>
      <trkpt lat="42.89926" lon="0.63233">
        <ele>531</ele>
        <time>2021-08-20T16:44:56Z</time>
      </trkpt>
      <trkpt lat="42.89935" lon="0.63262">
        <ele>532</ele>
        <time>2021-08-20T16:45:00Z</time>
      </trkpt>
      <trkpt lat="42.8994" lon="0.63272">
        <ele>533</ele>
        <time>2021-08-20T16:45:02Z</time>
      </trkpt>
      <trkpt lat="42.89944" lon="0.63279">
        <ele>534</ele>
        <time>2021-08-20T16:45:03Z</time>
      </trkpt>
      <trkpt lat="42.89949" lon="0.63286">
        <ele>534</ele>
        <time>2021-08-20T16:45:04Z</time>
      </trkpt>
      <trkpt lat="42.89968" lon="0.63302">
        <ele>535</ele>
        <time>2021-08-20T16:45:08Z</time>
      </trkpt>
      <trkpt lat="42.89981" lon="0.6331">
        <ele>534</ele>
        <time>2021-08-20T16:45:11Z</time>
      </trkpt>
      <trkpt lat="42.89994" lon="0.63317">
        <ele>534</ele>
        <time>2021-08-20T16:45:13Z</time>
      </trkpt>
      <trkpt lat="42.90029" lon="0.63326">
        <ele>532</ele>
        <time>2021-08-20T16:45:20Z</time>
      </trkpt>
      <trkpt lat="42.90096" lon="0.63352">
        <ele>533</ele>
        <time>2021-08-20T16:45:32Z</time>
      </trkpt>
      <trkpt lat="42.90115" lon="0.63361">
        <ele>534</ele>
        <time>2021-08-20T16:45:36Z</time>
      </trkpt>
      <trkpt lat="42.90165" lon="0.63393">
        <ele>539</ele>
        <time>2021-08-20T16:45:46Z</time>
      </trkpt>
      <trkpt lat="42.90184" lon="0.63401">
        <ele>540</ele>
        <time>2021-08-20T16:45:49Z</time>
      </trkpt>
      <trkpt lat="42.90204" lon="0.63401">
        <ele>538</ele>
        <time>2021-08-20T16:45:53Z</time>
      </trkpt>
      <trkpt lat="42.90227" lon="0.63392">
        <ele>534</ele>
        <time>2021-08-20T16:45:57Z</time>
      </trkpt>
      <trkpt lat="42.90236" lon="0.63384">
        <ele>532</ele>
        <time>2021-08-20T16:45:59Z</time>
      </trkpt>
      <trkpt lat="42.90258" lon="0.6336">
        <ele>526</ele>
        <time>2021-08-20T16:46:04Z</time>
      </trkpt>
      <trkpt lat="42.90273" lon="0.63342">
        <ele>522</ele>
        <time>2021-08-20T16:46:07Z</time>
      </trkpt>
      <trkpt lat="42.90282" lon="0.63331">
        <ele>521</ele>
        <time>2021-08-20T16:46:10Z</time>
      </trkpt>
      <trkpt lat="42.90294" lon="0.63316">
        <ele>522</ele>
        <time>2021-08-20T16:46:12Z</time>
      </trkpt>
      <trkpt lat="42.90311" lon="0.633">
        <ele>522</ele>
        <time>2021-08-20T16:46:16Z</time>
      </trkpt>
      <trkpt lat="42.90321" lon="0.63293">
        <ele>521</ele>
        <time>2021-08-20T16:46:18Z</time>
      </trkpt>
      <trkpt lat="42.9035" lon="0.63282">
        <ele>520</ele>
        <time>2021-08-20T16:46:24Z</time>
      </trkpt>
      <trkpt lat="42.90374" lon="0.63281">
        <ele>521</ele>
        <time>2021-08-20T16:46:28Z</time>
      </trkpt>
      <trkpt lat="42.90398" lon="0.63288">
        <ele>522</ele>
        <time>2021-08-20T16:46:32Z</time>
      </trkpt>
      <trkpt lat="42.90411" lon="0.63296">
        <ele>522</ele>
        <time>2021-08-20T16:46:35Z</time>
      </trkpt>
      <trkpt lat="42.90431" lon="0.63312">
        <ele>521</ele>
        <time>2021-08-20T16:46:39Z</time>
      </trkpt>
      <trkpt lat="42.9045" lon="0.63337">
        <ele>519</ele>
        <time>2021-08-20T16:46:43Z</time>
      </trkpt>
      <trkpt lat="42.90481" lon="0.63403">
        <ele>520</ele>
        <time>2021-08-20T16:46:54Z</time>
      </trkpt>
      <trkpt lat="42.90501" lon="0.6344">
        <ele>521</ele>
        <time>2021-08-20T16:47:00Z</time>
      </trkpt>
      <trkpt lat="42.9052" lon="0.63468">
        <ele>523</ele>
        <time>2021-08-20T16:47:05Z</time>
      </trkpt>
      <trkpt lat="42.90539" lon="0.63492">
        <ele>522</ele>
        <time>2021-08-20T16:47:09Z</time>
      </trkpt>
      <trkpt lat="42.90557" lon="0.63509">
        <ele>520</ele>
        <time>2021-08-20T16:47:13Z</time>
      </trkpt>
      <trkpt lat="42.90618" lon="0.63558">
        <ele>518</ele>
        <time>2021-08-20T16:47:26Z</time>
      </trkpt>
      <trkpt lat="42.90672" lon="0.63597">
        <ele>508</ele>
        <time>2021-08-20T16:47:37Z</time>
      </trkpt>
      <trkpt lat="42.90701" lon="0.63614">
        <ele>511</ele>
        <time>2021-08-20T16:47:42Z</time>
      </trkpt>
      <trkpt lat="42.90712" lon="0.6362">
        <ele>511</ele>
        <time>2021-08-20T16:47:44Z</time>
      </trkpt>
      <trkpt lat="42.90761" lon="0.63646">
        <ele>511</ele>
        <time>2021-08-20T16:47:54Z</time>
      </trkpt>
      <trkpt lat="42.90812" lon="0.63674">
        <ele>509</ele>
        <time>2021-08-20T16:48:04Z</time>
      </trkpt>
      <trkpt lat="42.90824" lon="0.6368">
        <ele>509</ele>
        <time>2021-08-20T16:48:06Z</time>
      </trkpt>
      <trkpt lat="42.90847" lon="0.63693">
        <ele>511</ele>
        <time>2021-08-20T16:48:10Z</time>
      </trkpt>
      <trkpt lat="42.90871" lon="0.63709">
        <ele>512</ele>
        <time>2021-08-20T16:48:15Z</time>
      </trkpt>
      <trkpt lat="42.90879" lon="0.63715">
        <ele>512</ele>
        <time>2021-08-20T16:48:17Z</time>
      </trkpt>
      <trkpt lat="42.90891" lon="0.63722">
        <ele>512</ele>
        <time>2021-08-20T16:48:19Z</time>
      </trkpt>
      <trkpt lat="42.90916" lon="0.63743">
        <ele>509</ele>
        <time>2021-08-20T16:48:24Z</time>
      </trkpt>
      <trkpt lat="42.90924" lon="0.6375">
        <ele>509</ele>
        <time>2021-08-20T16:48:26Z</time>
      </trkpt>
      <trkpt lat="42.90941" lon="0.63765">
        <ele>509</ele>
        <time>2021-08-20T16:48:29Z</time>
      </trkpt>
      <trkpt lat="42.90978" lon="0.63803">
        <ele>507</ele>
        <time>2021-08-20T16:48:38Z</time>
      </trkpt>
      <trkpt lat="42.91" lon="0.63827">
        <ele>502</ele>
        <time>2021-08-20T16:48:43Z</time>
      </trkpt>
      <trkpt lat="42.91026" lon="0.6386">
        <ele>504</ele>
        <time>2021-08-20T16:48:49Z</time>
      </trkpt>
      <trkpt lat="42.91063" lon="0.63914">
        <ele>503</ele>
        <time>2021-08-20T16:48:59Z</time>
      </trkpt>
      <trkpt lat="42.91105" lon="0.63992">
        <ele>503</ele>
        <time>2021-08-20T16:49:11Z</time>
      </trkpt>
      <trkpt lat="42.91132" lon="0.64053">
        <ele>500</ele>
        <time>2021-08-20T16:49:21Z</time>
      </trkpt>
      <trkpt lat="42.91155" lon="0.6412">
        <ele>495</ele>
        <time>2021-08-20T16:49:30Z</time>
      </trkpt>
      <trkpt lat="42.91169" lon="0.64167">
        <ele>493</ele>
        <time>2021-08-20T16:49:37Z</time>
      </trkpt>
      <trkpt lat="42.91177" lon="0.64193">
        <ele>492</ele>
        <time>2021-08-20T16:49:40Z</time>
      </trkpt>
      <trkpt lat="42.9123" lon="0.64377">
        <ele>496</ele>
        <time>2021-08-20T16:50:06Z</time>
      </trkpt>
      <trkpt lat="42.91236" lon="0.64401">
        <ele>497</ele>
        <time>2021-08-20T16:50:10Z</time>
      </trkpt>
      <trkpt lat="42.9126" lon="0.6454">
        <ele>491</ele>
        <time>2021-08-20T16:50:28Z</time>
      </trkpt>
      <trkpt lat="42.91267" lon="0.64567">
        <ele>490</ele>
        <time>2021-08-20T16:50:32Z</time>
      </trkpt>
      <trkpt lat="42.91276" lon="0.64591">
        <ele>489</ele>
        <time>2021-08-20T16:50:35Z</time>
      </trkpt>
      <trkpt lat="42.91286" lon="0.64614">
        <ele>488</ele>
        <time>2021-08-20T16:50:39Z</time>
      </trkpt>
      <trkpt lat="42.91308" lon="0.64652">
        <ele>486</ele>
        <time>2021-08-20T16:50:45Z</time>
      </trkpt>
      <trkpt lat="42.91317" lon="0.64663">
        <ele>486</ele>
        <time>2021-08-20T16:50:47Z</time>
      </trkpt>
      <trkpt lat="42.91323" lon="0.64671">
        <ele>485</ele>
        <time>2021-08-20T16:50:49Z</time>
      </trkpt>
      <trkpt lat="42.91327" lon="0.64676">
        <ele>485</ele>
        <time>2021-08-20T16:50:50Z</time>
      </trkpt>
      <trkpt lat="42.91342" lon="0.64691">
        <ele>485</ele>
        <time>2021-08-20T16:50:53Z</time>
      </trkpt>
      <trkpt lat="42.91373" lon="0.64714">
        <ele>486</ele>
        <time>2021-08-20T16:50:59Z</time>
      </trkpt>
      <trkpt lat="42.91382" lon="0.6472">
        <ele>486</ele>
        <time>2021-08-20T16:51:01Z</time>
      </trkpt>
      <trkpt lat="42.9141" lon="0.64738">
        <ele>486</ele>
        <time>2021-08-20T16:51:07Z</time>
      </trkpt>
      <trkpt lat="42.9142" lon="0.64744">
        <ele>485</ele>
        <time>2021-08-20T16:51:09Z</time>
      </trkpt>
      <trkpt lat="42.91424" lon="0.6475">
        <ele>485</ele>
        <time>2021-08-20T16:51:10Z</time>
      </trkpt>
      <trkpt lat="42.91426" lon="0.64754">
        <ele>485</ele>
        <time>2021-08-20T16:51:10Z</time>
      </trkpt>
      <trkpt lat="42.91427" lon="0.64757">
        <ele>485</ele>
        <time>2021-08-20T16:51:11Z</time>
      </trkpt>
      <trkpt lat="42.91429" lon="0.64765">
        <ele>485</ele>
        <time>2021-08-20T16:51:12Z</time>
      </trkpt>
      <trkpt lat="42.91428" lon="0.64779">
        <ele>485</ele>
        <time>2021-08-20T16:51:14Z</time>
      </trkpt>
      <trkpt lat="42.91423" lon="0.64808">
        <ele>484</ele>
        <time>2021-08-20T16:51:18Z</time>
      </trkpt>
      <trkpt lat="42.91425" lon="0.64819">
        <ele>484</ele>
        <time>2021-08-20T16:51:19Z</time>
      </trkpt>
      <trkpt lat="42.91419" lon="0.64865">
        <ele>485</ele>
        <time>2021-08-20T16:51:25Z</time>
      </trkpt>
      <trkpt lat="42.91412" lon="0.64913">
        <ele>487</ele>
        <time>2021-08-20T16:51:31Z</time>
      </trkpt>
      <trkpt lat="42.91407" lon="0.64945">
        <ele>488</ele>
        <time>2021-08-20T16:51:36Z</time>
      </trkpt>
      <trkpt lat="42.91405" lon="0.64958">
        <ele>488</ele>
        <time>2021-08-20T16:51:37Z</time>
      </trkpt>
      <trkpt lat="42.91404" lon="0.64969">
        <ele>488</ele>
        <time>2021-08-20T16:51:39Z</time>
      </trkpt>
      <trkpt lat="42.91403" lon="0.64973">
        <ele>488</ele>
        <time>2021-08-20T16:51:39Z</time>
      </trkpt>
      <trkpt lat="42.914" lon="0.64994">
        <ele>489</ele>
        <time>2021-08-20T16:51:42Z</time>
      </trkpt>
      <trkpt lat="42.91392" lon="0.65068">
        <ele>493</ele>
        <time>2021-08-20T16:51:52Z</time>
      </trkpt>
      <trkpt lat="42.91388" lon="0.65087">
        <ele>494</ele>
        <time>2021-08-20T16:51:55Z</time>
      </trkpt>
      <trkpt lat="42.91387" lon="0.65098">
        <ele>494</ele>
        <time>2021-08-20T16:51:56Z</time>
      </trkpt>
      <trkpt lat="42.91384" lon="0.6512">
        <ele>495</ele>
        <time>2021-08-20T16:51:59Z</time>
      </trkpt>
      <trkpt lat="42.91378" lon="0.6517">
        <ele>496</ele>
        <time>2021-08-20T16:52:06Z</time>
      </trkpt>
      <trkpt lat="42.91346" lon="0.65374">
        <ele>501</ele>
        <time>2021-08-20T16:52:33Z</time>
      </trkpt>
      <trkpt lat="42.91332" lon="0.65472">
        <ele>506</ele>
        <time>2021-08-20T16:52:46Z</time>
      </trkpt>
      <trkpt lat="42.91329" lon="0.65507">
        <ele>508</ele>
        <time>2021-08-20T16:52:50Z</time>
      </trkpt>
      <trkpt lat="42.91329" lon="0.65541">
        <ele>509</ele>
        <time>2021-08-20T16:52:55Z</time>
      </trkpt>
      <trkpt lat="42.91337" lon="0.65683">
        <ele>512</ele>
        <time>2021-08-20T16:53:13Z</time>
      </trkpt>
      <trkpt lat="42.91337" lon="0.65712">
        <ele>513</ele>
        <time>2021-08-20T16:53:17Z</time>
      </trkpt>
      <trkpt lat="42.91333" lon="0.65769">
        <ele>515</ele>
        <time>2021-08-20T16:53:25Z</time>
      </trkpt>
      <trkpt lat="42.91333" lon="0.65796">
        <ele>515</ele>
        <time>2021-08-20T16:53:28Z</time>
      </trkpt>
      <trkpt lat="42.91334" lon="0.65806">
        <ele>515</ele>
        <time>2021-08-20T16:53:29Z</time>
      </trkpt>
      <trkpt lat="42.91336" lon="0.65826">
        <ele>515</ele>
        <time>2021-08-20T16:53:32Z</time>
      </trkpt>
      <trkpt lat="42.91345" lon="0.65856">
        <ele>515</ele>
        <time>2021-08-20T16:53:36Z</time>
      </trkpt>
      <trkpt lat="42.91354" lon="0.65881">
        <ele>515</ele>
        <time>2021-08-20T16:53:40Z</time>
      </trkpt>
      <trkpt lat="42.91358" lon="0.65891">
        <ele>515</ele>
        <time>2021-08-20T16:53:41Z</time>
      </trkpt>
      <trkpt lat="42.91361" lon="0.65898">
        <ele>515</ele>
        <time>2021-08-20T16:53:42Z</time>
      </trkpt>
      <trkpt lat="42.91366" lon="0.65911">
        <ele>515</ele>
        <time>2021-08-20T16:53:44Z</time>
      </trkpt>
      <trkpt lat="42.91374" lon="0.65934">
        <ele>515</ele>
        <time>2021-08-20T16:53:48Z</time>
      </trkpt>
      <trkpt lat="42.91384" lon="0.65968">
        <ele>515</ele>
        <time>2021-08-20T16:53:52Z</time>
      </trkpt>
      <trkpt lat="42.91447" lon="0.66249">
        <ele>505</ele>
        <time>2021-08-20T16:54:31Z</time>
      </trkpt>
      <trkpt lat="42.91462" lon="0.66315">
        <ele>505</ele>
        <time>2021-08-20T16:54:40Z</time>
      </trkpt>
      <trkpt lat="42.91471" lon="0.66362">
        <ele>505</ele>
        <time>2021-08-20T16:54:46Z</time>
      </trkpt>
      <trkpt lat="42.9148" lon="0.66417">
        <ele>506</ele>
        <time>2021-08-20T16:54:53Z</time>
      </trkpt>
      <trkpt lat="42.91477" lon="0.66492">
        <ele>516</ele>
        <time>2021-08-20T16:55:03Z</time>
      </trkpt>
      <trkpt lat="42.91482" lon="0.66539">
        <ele>519</ele>
        <time>2021-08-20T16:55:09Z</time>
      </trkpt>
      <trkpt lat="42.91514" lon="0.66672">
        <ele>514</ele>
        <time>2021-08-20T16:55:28Z</time>
      </trkpt>
      <trkpt lat="42.91519" lon="0.6672">
        <ele>520</ele>
        <time>2021-08-20T16:55:34Z</time>
      </trkpt>
      <trkpt lat="42.91508" lon="0.6677">
        <ele>522</ele>
        <time>2021-08-20T16:55:41Z</time>
      </trkpt>
      <trkpt lat="42.91506" lon="0.6679">
        <ele>522</ele>
        <time>2021-08-20T16:55:43Z</time>
      </trkpt>
      <trkpt lat="42.91508" lon="0.6681">
        <ele>523</ele>
        <time>2021-08-20T16:55:46Z</time>
      </trkpt>
      <trkpt lat="42.91513" lon="0.66826">
        <ele>524</ele>
        <time>2021-08-20T16:55:48Z</time>
      </trkpt>
      <trkpt lat="42.91529" lon="0.66853">
        <ele>525</ele>
        <time>2021-08-20T16:55:53Z</time>
      </trkpt>
      <trkpt lat="42.91564" lon="0.669">
        <ele>521</ele>
        <time>2021-08-20T16:56:02Z</time>
      </trkpt>
      <trkpt lat="42.9159" lon="0.66945">
        <ele>516</ele>
        <time>2021-08-20T16:56:09Z</time>
      </trkpt>
      <trkpt lat="42.91609" lon="0.67009">
        <ele>517</ele>
        <time>2021-08-20T16:56:18Z</time>
      </trkpt>
      <trkpt lat="42.91633" lon="0.67109">
        <ele>519</ele>
        <time>2021-08-20T16:56:32Z</time>
      </trkpt>
      <trkpt lat="42.9167" lon="0.67233">
        <ele>513</ele>
        <time>2021-08-20T16:56:49Z</time>
      </trkpt>
      <trkpt lat="42.91678" lon="0.67282">
        <ele>514</ele>
        <time>2021-08-20T16:56:56Z</time>
      </trkpt>
      <trkpt lat="42.91676" lon="0.67318">
        <ele>513</ele>
        <time>2021-08-20T16:57:00Z</time>
      </trkpt>
      <trkpt lat="42.91674" lon="0.67349">
        <ele>511</ele>
        <time>2021-08-20T16:57:04Z</time>
      </trkpt>
      <trkpt lat="42.91669" lon="0.67381">
        <ele>509</ele>
        <time>2021-08-20T16:57:09Z</time>
      </trkpt>
      <trkpt lat="42.91668" lon="0.67404">
        <ele>508</ele>
        <time>2021-08-20T16:57:12Z</time>
      </trkpt>
      <trkpt lat="42.91672" lon="0.67428">
        <ele>509</ele>
        <time>2021-08-20T16:57:15Z</time>
      </trkpt>
      <trkpt lat="42.91693" lon="0.67492">
        <ele>511</ele>
        <time>2021-08-20T16:57:24Z</time>
      </trkpt>
      <trkpt lat="42.91699" lon="0.67525">
        <ele>510</ele>
        <time>2021-08-20T16:57:29Z</time>
      </trkpt>
      <trkpt lat="42.91699" lon="0.67559">
        <ele>510</ele>
        <time>2021-08-20T16:57:33Z</time>
      </trkpt>
      <trkpt lat="42.91694" lon="0.67622">
        <ele>510</ele>
        <time>2021-08-20T16:57:41Z</time>
      </trkpt>
      <trkpt lat="42.91699" lon="0.67695">
        <ele>508</ele>
        <time>2021-08-20T16:57:51Z</time>
      </trkpt>
      <trkpt lat="42.9172" lon="0.67871">
        <ele>508</ele>
        <time>2021-08-20T16:58:14Z</time>
      </trkpt>
      <trkpt lat="42.91749" lon="0.68157">
        <ele>497</ele>
        <time>2021-08-20T16:58:52Z</time>
      </trkpt>
      <trkpt lat="42.91754" lon="0.68218">
        <ele>500</ele>
        <time>2021-08-20T16:59:00Z</time>
      </trkpt>
      <trkpt lat="42.91753" lon="0.68264">
        <ele>502</ele>
        <time>2021-08-20T16:59:06Z</time>
      </trkpt>
      <trkpt lat="42.91736" lon="0.68461">
        <ele>509</ele>
        <time>2021-08-20T16:59:31Z</time>
      </trkpt>
      <trkpt lat="42.91725" lon="0.68544">
        <ele>512</ele>
        <time>2021-08-20T16:59:42Z</time>
      </trkpt>
      <trkpt lat="42.91714" lon="0.68576">
        <ele>513</ele>
        <time>2021-08-20T16:59:47Z</time>
      </trkpt>
      <trkpt lat="42.91688" lon="0.6864">
        <ele>512</ele>
        <time>2021-08-20T16:59:57Z</time>
      </trkpt>
      <trkpt lat="42.91676" lon="0.68687">
        <ele>510</ele>
        <time>2021-08-20T17:00:03Z</time>
      </trkpt>
      <trkpt lat="42.91668" lon="0.68746">
        <ele>506</ele>
        <time>2021-08-20T17:00:11Z</time>
      </trkpt>
      <trkpt lat="42.91673" lon="0.68852">
        <ele>503</ele>
        <time>2021-08-20T17:00:25Z</time>
      </trkpt>
      <trkpt lat="42.91668" lon="0.68896">
        <ele>502</ele>
        <time>2021-08-20T17:00:31Z</time>
      </trkpt>
      <trkpt lat="42.91668" lon="0.68897">
        <ele>502</ele>
        <time>2021-08-20T17:00:31Z</time>
      </trkpt>
      <trkpt lat="42.9162" lon="0.69002">
        <ele>522</ele>
        <time>2021-08-20T17:00:47Z</time>
      </trkpt>
      <trkpt lat="42.91556" lon="0.69127">
        <ele>520</ele>
        <time>2021-08-20T17:01:07Z</time>
      </trkpt>
      <trkpt lat="42.9155" lon="0.69142">
        <ele>517</ele>
        <time>2021-08-20T17:01:09Z</time>
      </trkpt>
      <trkpt lat="42.91545" lon="0.69157">
        <ele>513</ele>
        <time>2021-08-20T17:01:11Z</time>
      </trkpt>
      <trkpt lat="42.91536" lon="0.69185">
        <ele>510</ele>
        <time>2021-08-20T17:01:15Z</time>
      </trkpt>
      <trkpt lat="42.91533" lon="0.69191">
        <ele>511</ele>
        <time>2021-08-20T17:01:16Z</time>
      </trkpt>
      <trkpt lat="42.91495" lon="0.69249">
        <ele>507</ele>
        <time>2021-08-20T17:01:26Z</time>
      </trkpt>
      <trkpt lat="42.9147" lon="0.69278">
        <ele>510</ele>
        <time>2021-08-20T17:01:32Z</time>
      </trkpt>
      <trkpt lat="42.91453" lon="0.69292">
        <ele>510</ele>
        <time>2021-08-20T17:01:35Z</time>
      </trkpt>
      <trkpt lat="42.91437" lon="0.69299">
        <ele>510</ele>
        <time>2021-08-20T17:01:38Z</time>
      </trkpt>
      <trkpt lat="42.91405" lon="0.69304">
        <ele>509</ele>
        <time>2021-08-20T17:01:44Z</time>
      </trkpt>
      <trkpt lat="42.91374" lon="0.69294">
        <ele>507</ele>
        <time>2021-08-20T17:01:50Z</time>
      </trkpt>
      <trkpt lat="42.91337" lon="0.69272">
        <ele>506</ele>
        <time>2021-08-20T17:01:57Z</time>
      </trkpt>
      <trkpt lat="42.91263" lon="0.69198">
        <ele>510</ele>
        <time>2021-08-20T17:02:13Z</time>
      </trkpt>
      <trkpt lat="42.91248" lon="0.69187">
        <ele>510</ele>
        <time>2021-08-20T17:02:16Z</time>
      </trkpt>
      <trkpt lat="42.91244" lon="0.69201">
        <ele>508</ele>
        <time>2021-08-20T17:02:18Z</time>
      </trkpt>
      <trkpt lat="42.91231" lon="0.69244">
        <ele>503</ele>
        <time>2021-08-20T17:02:24Z</time>
      </trkpt>
      <trkpt lat="42.9122" lon="0.69277">
        <ele>503</ele>
        <time>2021-08-20T17:02:29Z</time>
      </trkpt>
      <trkpt lat="42.91219" lon="0.6928">
        <ele>503</ele>
        <time>2021-08-20T17:02:30Z</time>
      </trkpt>
      <trkpt lat="42.91165" lon="0.69453">
        <ele>504</ele>
        <time>2021-08-20T17:02:54Z</time>
      </trkpt>
      <trkpt lat="42.91146" lon="0.69512">
        <ele>504</ele>
        <time>2021-08-20T17:03:02Z</time>
      </trkpt>
      <trkpt lat="42.9114" lon="0.69533">
        <ele>506</ele>
        <time>2021-08-20T17:03:05Z</time>
      </trkpt>
      <trkpt lat="42.91135" lon="0.69553">
        <ele>508</ele>
        <time>2021-08-20T17:03:08Z</time>
      </trkpt>
      <trkpt lat="42.91129" lon="0.69569">
        <ele>509</ele>
        <time>2021-08-20T17:03:11Z</time>
      </trkpt>
      <trkpt lat="42.91127" lon="0.69598">
        <ele>513</ele>
        <time>2021-08-20T17:03:14Z</time>
      </trkpt>
      <trkpt lat="42.91138" lon="0.69634">
        <ele>520</ele>
        <time>2021-08-20T17:03:19Z</time>
      </trkpt>
      <trkpt lat="42.91148" lon="0.69671">
        <ele>529</ele>
        <time>2021-08-20T17:03:25Z</time>
      </trkpt>
      <trkpt lat="42.91148" lon="0.69695">
        <ele>535</ele>
        <time>2021-08-20T17:03:28Z</time>
      </trkpt>
      <trkpt lat="42.91143" lon="0.6973">
        <ele>543</ele>
        <time>2021-08-20T17:03:32Z</time>
      </trkpt>
      <trkpt lat="42.91137" lon="0.69752">
        <ele>545</ele>
        <time>2021-08-20T17:03:35Z</time>
      </trkpt>
      <trkpt lat="42.91117" lon="0.69801">
        <ele>543</ele>
        <time>2021-08-20T17:03:43Z</time>
      </trkpt>
      <trkpt lat="42.91112" lon="0.6982">
        <ele>543</ele>
        <time>2021-08-20T17:03:45Z</time>
      </trkpt>
      <trkpt lat="42.91109" lon="0.69838">
        <ele>544</ele>
        <time>2021-08-20T17:03:48Z</time>
      </trkpt>
      <trkpt lat="42.91108" lon="0.6988">
        <ele>551</ele>
        <time>2021-08-20T17:03:53Z</time>
      </trkpt>
      <trkpt lat="42.91094" lon="0.69926">
        <ele>550</ele>
        <time>2021-08-20T17:04:00Z</time>
      </trkpt>
      <trkpt lat="42.91089" lon="0.69951">
        <ele>549</ele>
        <time>2021-08-20T17:04:03Z</time>
      </trkpt>
      <trkpt lat="42.91091" lon="0.6999">
        <ele>553</ele>
        <time>2021-08-20T17:04:08Z</time>
      </trkpt>
      <trkpt lat="42.9109" lon="0.7002">
        <ele>555</ele>
        <time>2021-08-20T17:04:12Z</time>
      </trkpt>
      <trkpt lat="42.91075" lon="0.70069">
        <ele>556</ele>
        <time>2021-08-20T17:04:19Z</time>
      </trkpt>
      <trkpt lat="42.91064" lon="0.70097">
        <ele>556</ele>
        <time>2021-08-20T17:04:23Z</time>
      </trkpt>
      <trkpt lat="42.91044" lon="0.70135">
        <ele>554</ele>
        <time>2021-08-20T17:04:29Z</time>
      </trkpt>
      <trkpt lat="42.91041" lon="0.70172">
        <ele>557</ele>
        <time>2021-08-20T17:04:34Z</time>
      </trkpt>
      <trkpt lat="42.91044" lon="0.70203">
        <ele>560</ele>
        <time>2021-08-20T17:04:38Z</time>
      </trkpt>
      <trkpt lat="42.91057" lon="0.7025">
        <ele>567</ele>
        <time>2021-08-20T17:04:45Z</time>
      </trkpt>
      <trkpt lat="42.91063" lon="0.70301">
        <ele>568</ele>
        <time>2021-08-20T17:04:51Z</time>
      </trkpt>
      <trkpt lat="42.91074" lon="0.70329">
        <ele>571</ele>
        <time>2021-08-20T17:04:56Z</time>
      </trkpt>
      <trkpt lat="42.9109" lon="0.70356">
        <ele>576</ele>
        <time>2021-08-20T17:05:00Z</time>
      </trkpt>
      <trkpt lat="42.91098" lon="0.70389">
        <ele>581</ele>
        <time>2021-08-20T17:05:05Z</time>
      </trkpt>
      <trkpt lat="42.91108" lon="0.70495">
        <ele>584</ele>
        <time>2021-08-20T17:05:19Z</time>
      </trkpt>
      <trkpt lat="42.91119" lon="0.70572">
        <ele>589</ele>
        <time>2021-08-20T17:05:29Z</time>
      </trkpt>
      <trkpt lat="42.91125" lon="0.70602">
        <ele>592</ele>
        <time>2021-08-20T17:05:33Z</time>
      </trkpt>
      <trkpt lat="42.9114" lon="0.70641">
        <ele>599</ele>
        <time>2021-08-20T17:05:39Z</time>
      </trkpt>
      <trkpt lat="42.91149" lon="0.70657">
        <ele>602</ele>
        <time>2021-08-20T17:05:41Z</time>
      </trkpt>
      <trkpt lat="42.91172" lon="0.70698">
        <ele>610</ele>
        <time>2021-08-20T17:05:48Z</time>
      </trkpt>
      <trkpt lat="42.91185" lon="0.7075">
        <ele>614</ele>
        <time>2021-08-20T17:05:55Z</time>
      </trkpt>
      <trkpt lat="42.91194" lon="0.7079">
        <ele>616</ele>
        <time>2021-08-20T17:06:01Z</time>
      </trkpt>
      <trkpt lat="42.91203" lon="0.70811">
        <ele>618</ele>
        <time>2021-08-20T17:06:04Z</time>
      </trkpt>
      <trkpt lat="42.9122" lon="0.70823">
        <ele>623</ele>
        <time>2021-08-20T17:06:07Z</time>
      </trkpt>
      <trkpt lat="42.91253" lon="0.70842">
        <ele>633</ele>
        <time>2021-08-20T17:06:13Z</time>
      </trkpt>
      <trkpt lat="42.91261" lon="0.70849">
        <ele>637</ele>
        <time>2021-08-20T17:06:15Z</time>
      </trkpt>
      <trkpt lat="42.91266" lon="0.70864">
        <ele>638</ele>
        <time>2021-08-20T17:06:17Z</time>
      </trkpt>
      <trkpt lat="42.91265" lon="0.70876">
        <ele>638</ele>
        <time>2021-08-20T17:06:19Z</time>
      </trkpt>
      <trkpt lat="42.91259" lon="0.70901">
        <ele>635</ele>
        <time>2021-08-20T17:06:22Z</time>
      </trkpt>
      <trkpt lat="42.91246" lon="0.70941">
        <ele>633</ele>
        <time>2021-08-20T17:06:28Z</time>
      </trkpt>
      <trkpt lat="42.91244" lon="0.70983">
        <ele>637</ele>
        <time>2021-08-20T17:06:34Z</time>
      </trkpt>
      <trkpt lat="42.91257" lon="0.71078">
        <ele>645</ele>
        <time>2021-08-20T17:06:46Z</time>
      </trkpt>
      <trkpt lat="42.91269" lon="0.71126">
        <ele>646</ele>
        <time>2021-08-20T17:06:53Z</time>
      </trkpt>
      <trkpt lat="42.91288" lon="0.71149">
        <ele>650</ele>
        <time>2021-08-20T17:06:57Z</time>
      </trkpt>
      <trkpt lat="42.91322" lon="0.71185">
        <ele>658</ele>
        <time>2021-08-20T17:07:05Z</time>
      </trkpt>
      <trkpt lat="42.91337" lon="0.71207">
        <ele>660</ele>
        <time>2021-08-20T17:07:09Z</time>
      </trkpt>
      <trkpt lat="42.91357" lon="0.71227">
        <ele>665</ele>
        <time>2021-08-20T17:07:13Z</time>
      </trkpt>
      <trkpt lat="42.91396" lon="0.71298">
        <ele>668</ele>
        <time>2021-08-20T17:07:25Z</time>
      </trkpt>
      <trkpt lat="42.91414" lon="0.71322">
        <ele>669</ele>
        <time>2021-08-20T17:07:29Z</time>
      </trkpt>
      <trkpt lat="42.91433" lon="0.71336">
        <ele>673</ele>
        <time>2021-08-20T17:07:33Z</time>
      </trkpt>
      <trkpt lat="42.91454" lon="0.71349">
        <ele>677</ele>
        <time>2021-08-20T17:07:37Z</time>
      </trkpt>
      <trkpt lat="42.91534" lon="0.71385">
        <ele>694</ele>
        <time>2021-08-20T17:07:52Z</time>
      </trkpt>
      <trkpt lat="42.91552" lon="0.71403">
        <ele>694</ele>
        <time>2021-08-20T17:07:56Z</time>
      </trkpt>
      <trkpt lat="42.91606" lon="0.71447">
        <ele>703</ele>
        <time>2021-08-20T17:08:07Z</time>
      </trkpt>
      <trkpt lat="42.91623" lon="0.7148">
        <ele>701</ele>
        <time>2021-08-20T17:08:13Z</time>
      </trkpt>
      <trkpt lat="42.91626" lon="0.71522">
        <ele>696</ele>
        <time>2021-08-20T17:08:18Z</time>
      </trkpt>
      <trkpt lat="42.91644" lon="0.71581">
        <ele>698</ele>
        <time>2021-08-20T17:08:26Z</time>
      </trkpt>
      <trkpt lat="42.91658" lon="0.71613">
        <ele>701</ele>
        <time>2021-08-20T17:08:31Z</time>
      </trkpt>
      <trkpt lat="42.91679" lon="0.71661">
        <ele>702</ele>
        <time>2021-08-20T17:08:39Z</time>
      </trkpt>
      <trkpt lat="42.91713" lon="0.71748">
        <ele>711</ele>
        <time>2021-08-20T17:08:51Z</time>
      </trkpt>
      <trkpt lat="42.91722" lon="0.71766">
        <ele>714</ele>
        <time>2021-08-20T17:08:54Z</time>
      </trkpt>
      <trkpt lat="42.91735" lon="0.7178">
        <ele>717</ele>
        <time>2021-08-20T17:08:57Z</time>
      </trkpt>
      <trkpt lat="42.91751" lon="0.71794">
        <ele>720</ele>
        <time>2021-08-20T17:09:01Z</time>
      </trkpt>
      <trkpt lat="42.91759" lon="0.71795">
        <ele>721</ele>
        <time>2021-08-20T17:09:02Z</time>
      </trkpt>
      <trkpt lat="42.91803" lon="0.71803">
        <ele>723</ele>
        <time>2021-08-20T17:09:10Z</time>
      </trkpt>
      <trkpt lat="42.91823" lon="0.71806">
        <ele>724</ele>
        <time>2021-08-20T17:09:14Z</time>
      </trkpt>
      <trkpt lat="42.91838" lon="0.71801">
        <ele>724</ele>
        <time>2021-08-20T17:09:16Z</time>
      </trkpt>
      <trkpt lat="42.91854" lon="0.71791">
        <ele>724</ele>
        <time>2021-08-20T17:09:19Z</time>
      </trkpt>
      <trkpt lat="42.91865" lon="0.71788">
        <ele>724</ele>
        <time>2021-08-20T17:09:21Z</time>
      </trkpt>
      <trkpt lat="42.91884" lon="0.71792">
        <ele>725</ele>
        <time>2021-08-20T17:09:25Z</time>
      </trkpt>
      <trkpt lat="42.9192" lon="0.71798">
        <ele>728</ele>
        <time>2021-08-20T17:09:31Z</time>
      </trkpt>
      <trkpt lat="42.91942" lon="0.71807">
        <ele>732</ele>
        <time>2021-08-20T17:09:35Z</time>
      </trkpt>
      <trkpt lat="42.9195" lon="0.71812">
        <ele>733</ele>
        <time>2021-08-20T17:09:37Z</time>
      </trkpt>
      <trkpt lat="42.91977" lon="0.71829">
        <ele>737</ele>
        <time>2021-08-20T17:09:42Z</time>
      </trkpt>
      <trkpt lat="42.91997" lon="0.71848">
        <ele>740</ele>
        <time>2021-08-20T17:09:47Z</time>
      </trkpt>
      <trkpt lat="42.92011" lon="0.71866">
        <ele>743</ele>
        <time>2021-08-20T17:09:50Z</time>
      </trkpt>
      <trkpt lat="42.92037" lon="0.71912">
        <ele>751</ele>
        <time>2021-08-20T17:09:58Z</time>
      </trkpt>
      <trkpt lat="42.92079" lon="0.72001">
        <ele>759</ele>
        <time>2021-08-20T17:10:11Z</time>
      </trkpt>
      <trkpt lat="42.92085" lon="0.72041">
        <ele>760</ele>
        <time>2021-08-20T17:10:17Z</time>
      </trkpt>
      <trkpt lat="42.92082" lon="0.72075">
        <ele>759</ele>
        <time>2021-08-20T17:10:21Z</time>
      </trkpt>
      <trkpt lat="42.9207" lon="0.72105">
        <ele>762</ele>
        <time>2021-08-20T17:10:26Z</time>
      </trkpt>
      <trkpt lat="42.9203" lon="0.72156">
        <ele>767</ele>
        <time>2021-08-20T17:10:35Z</time>
      </trkpt>
      <trkpt lat="42.92027" lon="0.72172">
        <ele>769</ele>
        <time>2021-08-20T17:10:37Z</time>
      </trkpt>
      <trkpt lat="42.92035" lon="0.72185">
        <ele>773</ele>
        <time>2021-08-20T17:10:40Z</time>
      </trkpt>
      <trkpt lat="42.92068" lon="0.72186">
        <ele>777</ele>
        <time>2021-08-20T17:10:46Z</time>
      </trkpt>
      <trkpt lat="42.92102" lon="0.72179">
        <ele>780</ele>
        <time>2021-08-20T17:10:52Z</time>
      </trkpt>
      <trkpt lat="42.92145" lon="0.7216">
        <ele>784</ele>
        <time>2021-08-20T17:11:00Z</time>
      </trkpt>
      <trkpt lat="42.92201" lon="0.72117">
        <ele>793</ele>
        <time>2021-08-20T17:11:11Z</time>
      </trkpt>
      <trkpt lat="42.92216" lon="0.72097">
        <ele>794</ele>
        <time>2021-08-20T17:11:15Z</time>
      </trkpt>
      <trkpt lat="42.9222" lon="0.72087">
        <ele>793</ele>
        <time>2021-08-20T17:11:16Z</time>
      </trkpt>
      <trkpt lat="42.92221" lon="0.7204">
        <ele>792</ele>
        <time>2021-08-20T17:11:22Z</time>
      </trkpt>
      <trkpt lat="42.92226" lon="0.72014">
        <ele>793</ele>
        <time>2021-08-20T17:11:26Z</time>
      </trkpt>
      <trkpt lat="42.9224" lon="0.71999">
        <ele>795</ele>
        <time>2021-08-20T17:11:29Z</time>
      </trkpt>
      <trkpt lat="42.92255" lon="0.71994">
        <ele>797</ele>
        <time>2021-08-20T17:11:32Z</time>
      </trkpt>
      <trkpt lat="42.92265" lon="0.72">
        <ele>798</ele>
        <time>2021-08-20T17:11:34Z</time>
      </trkpt>
      <trkpt lat="42.92277" lon="0.72031">
        <ele>802</ele>
        <time>2021-08-20T17:11:38Z</time>
      </trkpt>
      <trkpt lat="42.9228" lon="0.72077">
        <ele>806</ele>
        <time>2021-08-20T17:11:44Z</time>
      </trkpt>
      <trkpt lat="42.92278" lon="0.72116">
        <ele>814</ele>
        <time>2021-08-20T17:11:50Z</time>
      </trkpt>
      <trkpt lat="42.92259" lon="0.72161">
        <ele>820</ele>
        <time>2021-08-20T17:11:56Z</time>
      </trkpt>
      <trkpt lat="42.92204" lon="0.72223">
        <ele>822</ele>
        <time>2021-08-20T17:12:09Z</time>
      </trkpt>
      <trkpt lat="42.92175" lon="0.72265">
        <ele>825</ele>
        <time>2021-08-20T17:12:16Z</time>
      </trkpt>
      <trkpt lat="42.92108" lon="0.72381">
        <ele>839</ele>
        <time>2021-08-20T17:12:36Z</time>
      </trkpt>
      <trkpt lat="42.92011" lon="0.72467">
        <ele>850</ele>
        <time>2021-08-20T17:12:56Z</time>
      </trkpt>
      <trkpt lat="42.91986" lon="0.72492">
        <ele>853</ele>
        <time>2021-08-20T17:13:02Z</time>
      </trkpt>
      <trkpt lat="42.91954" lon="0.7253">
        <ele>856</ele>
        <time>2021-08-20T17:13:09Z</time>
      </trkpt>
      <trkpt lat="42.9192" lon="0.72599">
        <ele>861</ele>
        <time>2021-08-20T17:13:20Z</time>
      </trkpt>
      <trkpt lat="42.9191" lon="0.72637">
        <ele>864</ele>
        <time>2021-08-20T17:13:25Z</time>
      </trkpt>
      <trkpt lat="42.91906" lon="0.72684">
        <ele>869</ele>
        <time>2021-08-20T17:13:32Z</time>
      </trkpt>
      <trkpt lat="42.91903" lon="0.72774">
        <ele>878</ele>
        <time>2021-08-20T17:13:43Z</time>
      </trkpt>
      <trkpt lat="42.91862" lon="0.72889">
        <ele>880</ele>
        <time>2021-08-20T17:14:00Z</time>
      </trkpt>
      <trkpt lat="42.91845" lon="0.72956">
        <ele>888</ele>
        <time>2021-08-20T17:14:09Z</time>
      </trkpt>
      <trkpt lat="42.91836" lon="0.73012">
        <ele>896</ele>
        <time>2021-08-20T17:14:17Z</time>
      </trkpt>
      <trkpt lat="42.91824" lon="0.73054">
        <ele>898</ele>
        <time>2021-08-20T17:14:23Z</time>
      </trkpt>
      <trkpt lat="42.91819" lon="0.7309">
        <ele>903</ele>
        <time>2021-08-20T17:14:27Z</time>
      </trkpt>
      <trkpt lat="42.91808" lon="0.73135">
        <ele>907</ele>
        <time>2021-08-20T17:14:34Z</time>
      </trkpt>
      <trkpt lat="42.91803" lon="0.73204">
        <ele>921</ele>
        <time>2021-08-20T17:14:43Z</time>
      </trkpt>
      <trkpt lat="42.91789" lon="0.7326">
        <ele>925</ele>
        <time>2021-08-20T17:14:50Z</time>
      </trkpt>
      <trkpt lat="42.91772" lon="0.73285">
        <ele>919</ele>
        <time>2021-08-20T17:14:55Z</time>
      </trkpt>
      <trkpt lat="42.91761" lon="0.73344">
        <ele>926</ele>
        <time>2021-08-20T17:15:03Z</time>
      </trkpt>
      <trkpt lat="42.91753" lon="0.73404">
        <ele>932</ele>
        <time>2021-08-20T17:15:11Z</time>
      </trkpt>
      <trkpt lat="42.9174" lon="0.73443">
        <ele>932</ele>
        <time>2021-08-20T17:15:16Z</time>
      </trkpt>
      <trkpt lat="42.91726" lon="0.73531">
        <ele>942</ele>
        <time>2021-08-20T17:15:28Z</time>
      </trkpt>
      <trkpt lat="42.91718" lon="0.73548">
        <ele>941</ele>
        <time>2021-08-20T17:15:31Z</time>
      </trkpt>
      <trkpt lat="42.91713" lon="0.73592">
        <ele>947</ele>
        <time>2021-08-20T17:15:36Z</time>
      </trkpt>
      <trkpt lat="42.91697" lon="0.73635">
        <ele>947</ele>
        <time>2021-08-20T17:15:43Z</time>
      </trkpt>
      <trkpt lat="42.91666" lon="0.73699">
        <ele>945</ele>
        <time>2021-08-20T17:15:53Z</time>
      </trkpt>
      <trkpt lat="42.91663" lon="0.73712">
        <ele>946</ele>
        <time>2021-08-20T17:15:54Z</time>
      </trkpt>
      <trkpt lat="42.91664" lon="0.73725">
        <ele>949</ele>
        <time>2021-08-20T17:15:56Z</time>
      </trkpt>
      <trkpt lat="42.91678" lon="0.73757">
        <ele>962</ele>
        <time>2021-08-20T17:16:01Z</time>
      </trkpt>
      <trkpt lat="42.91711" lon="0.73817">
        <ele>984</ele>
        <time>2021-08-20T17:16:11Z</time>
      </trkpt>
      <trkpt lat="42.91721" lon="0.73846">
        <ele>990</ele>
        <time>2021-08-20T17:16:15Z</time>
      </trkpt>
      <trkpt lat="42.91716" lon="0.73871">
        <ele>992</ele>
        <time>2021-08-20T17:16:18Z</time>
      </trkpt>
      <trkpt lat="42.91693" lon="0.73885">
        <ele>990</ele>
        <time>2021-08-20T17:16:23Z</time>
      </trkpt>
      <trkpt lat="42.91653" lon="0.73874">
        <ele>977</ele>
        <time>2021-08-20T17:16:30Z</time>
      </trkpt>
      <trkpt lat="42.91635" lon="0.73865">
        <ele>969</ele>
        <time>2021-08-20T17:16:34Z</time>
      </trkpt>
      <trkpt lat="42.9162" lon="0.73869">
        <ele>967</ele>
        <time>2021-08-20T17:16:36Z</time>
      </trkpt>
      <trkpt lat="42.91606" lon="0.7389">
        <ele>971</ele>
        <time>2021-08-20T17:16:40Z</time>
      </trkpt>
      <trkpt lat="42.91592" lon="0.73931">
        <ele>982</ele>
        <time>2021-08-20T17:16:46Z</time>
      </trkpt>
      <trkpt lat="42.91575" lon="0.73965">
        <ele>985</ele>
        <time>2021-08-20T17:16:51Z</time>
      </trkpt>
      <trkpt lat="42.9157" lon="0.74004">
        <ele>993</ele>
        <time>2021-08-20T17:16:56Z</time>
      </trkpt>
      <trkpt lat="42.91571" lon="0.74034">
        <ele>997</ele>
        <time>2021-08-20T17:17:00Z</time>
      </trkpt>
      <trkpt lat="42.91589" lon="0.74107">
        <ele>1017</ele>
        <time>2021-08-20T17:17:10Z</time>
      </trkpt>
      <trkpt lat="42.91587" lon="0.74141">
        <ele>1022</ele>
        <time>2021-08-20T17:17:15Z</time>
      </trkpt>
      <trkpt lat="42.91579" lon="0.74157">
        <ele>1021</ele>
        <time>2021-08-20T17:17:17Z</time>
      </trkpt>
      <trkpt lat="42.91549" lon="0.74177">
        <ele>1012</ele>
        <time>2021-08-20T17:17:23Z</time>
      </trkpt>
      <trkpt lat="42.91544" lon="0.74186">
        <ele>1012</ele>
        <time>2021-08-20T17:17:25Z</time>
      </trkpt>
      <trkpt lat="42.91528" lon="0.74228">
        <ele>1014</ele>
        <time>2021-08-20T17:17:31Z</time>
      </trkpt>
      <trkpt lat="42.91518" lon="0.74275">
        <ele>1018</ele>
        <time>2021-08-20T17:17:37Z</time>
      </trkpt>
      <trkpt lat="42.91515" lon="0.74297">
        <ele>1021</ele>
        <time>2021-08-20T17:17:40Z</time>
      </trkpt>
      <trkpt lat="42.91506" lon="0.74341">
        <ele>1023</ele>
        <time>2021-08-20T17:17:46Z</time>
      </trkpt>
      <trkpt lat="42.91505" lon="0.74354">
        <ele>1024</ele>
        <time>2021-08-20T17:17:48Z</time>
      </trkpt>
      <trkpt lat="42.91505" lon="0.74424">
        <ele>1035</ele>
        <time>2021-08-20T17:17:57Z</time>
      </trkpt>
      <trkpt lat="42.91492" lon="0.74493">
        <ele>1036</ele>
        <time>2021-08-20T17:18:06Z</time>
      </trkpt>
      <trkpt lat="42.91489" lon="0.74532">
        <ele>1039</ele>
        <time>2021-08-20T17:18:11Z</time>
      </trkpt>
      <trkpt lat="42.9149" lon="0.7456">
        <ele>1042</ele>
        <time>2021-08-20T17:18:15Z</time>
      </trkpt>
      <trkpt lat="42.91494" lon="0.74567">
        <ele>1044</ele>
        <time>2021-08-20T17:18:16Z</time>
      </trkpt>
      <trkpt lat="42.91502" lon="0.74566">
        <ele>1047</ele>
        <time>2021-08-20T17:18:18Z</time>
      </trkpt>
      <trkpt lat="42.91505" lon="0.74562">
        <ele>1048</ele>
        <time>2021-08-20T17:18:18Z</time>
      </trkpt>
      <trkpt lat="42.91506" lon="0.74535">
        <ele>1046</ele>
        <time>2021-08-20T17:18:22Z</time>
      </trkpt>
      <trkpt lat="42.9151" lon="0.74509">
        <ele>1046</ele>
        <time>2021-08-20T17:18:25Z</time>
      </trkpt>
      <trkpt lat="42.91517" lon="0.74494">
        <ele>1049</ele>
        <time>2021-08-20T17:18:28Z</time>
      </trkpt>
      <trkpt lat="42.91534" lon="0.74468">
        <ele>1055</ele>
        <time>2021-08-20T17:18:32Z</time>
      </trkpt>
      <trkpt lat="42.91548" lon="0.74385">
        <ele>1054</ele>
        <time>2021-08-20T17:18:43Z</time>
      </trkpt>
      <trkpt lat="42.91552" lon="0.74378">
        <ele>1056</ele>
        <time>2021-08-20T17:18:44Z</time>
      </trkpt>
      <trkpt lat="42.91558" lon="0.74378">
        <ele>1059</ele>
        <time>2021-08-20T17:18:45Z</time>
      </trkpt>
      <trkpt lat="42.91563" lon="0.74386">
        <ele>1063</ele>
        <time>2021-08-20T17:18:47Z</time>
      </trkpt>
      <trkpt lat="42.91554" lon="0.7442">
        <ele>1062</ele>
        <time>2021-08-20T17:18:52Z</time>
      </trkpt>
      <trkpt lat="42.91556" lon="0.74497">
        <ele>1070</ele>
        <time>2021-08-20T17:19:02Z</time>
      </trkpt>
      <trkpt lat="42.91552" lon="0.74528">
        <ele>1070</ele>
        <time>2021-08-20T17:19:06Z</time>
      </trkpt>
      <trkpt lat="42.91561" lon="0.74611">
        <ele>1081</ele>
        <time>2021-08-20T17:19:17Z</time>
      </trkpt>
      <trkpt lat="42.91559" lon="0.74628">
        <ele>1082</ele>
        <time>2021-08-20T17:19:19Z</time>
      </trkpt>
      <trkpt lat="42.91545" lon="0.74662">
        <ele>1078</ele>
        <time>2021-08-20T17:19:24Z</time>
      </trkpt>
      <trkpt lat="42.91543" lon="0.74717">
        <ele>1084</ele>
        <time>2021-08-20T17:19:31Z</time>
      </trkpt>
      <trkpt lat="42.91535" lon="0.74772">
        <ele>1087</ele>
        <time>2021-08-20T17:19:38Z</time>
      </trkpt>
      <trkpt lat="42.91536" lon="0.7481">
        <ele>1091</ele>
        <time>2021-08-20T17:19:43Z</time>
      </trkpt>
      <trkpt lat="42.91528" lon="0.74882">
        <ele>1096</ele>
        <time>2021-08-20T17:19:53Z</time>
      </trkpt>
      <trkpt lat="42.91525" lon="0.74917">
        <ele>1100</ele>
        <time>2021-08-20T17:19:57Z</time>
      </trkpt>
      <trkpt lat="42.91525" lon="0.74937">
        <ele>1102</ele>
        <time>2021-08-20T17:20:00Z</time>
      </trkpt>
      <trkpt lat="42.91531" lon="0.74967">
        <ele>1110</ele>
        <time>2021-08-20T17:20:04Z</time>
      </trkpt>
      <trkpt lat="42.91528" lon="0.75013">
        <ele>1113</ele>
        <time>2021-08-20T17:20:10Z</time>
      </trkpt>
      <trkpt lat="42.91529" lon="0.7503">
        <ele>1114</ele>
        <time>2021-08-20T17:20:12Z</time>
      </trkpt>
      <trkpt lat="42.91541" lon="0.7508">
        <ele>1123</ele>
        <time>2021-08-20T17:20:19Z</time>
      </trkpt>
      <trkpt lat="42.91543" lon="0.75102">
        <ele>1126</ele>
        <time>2021-08-20T17:20:22Z</time>
      </trkpt>
      <trkpt lat="42.9154" lon="0.75157">
        <ele>1131</ele>
        <time>2021-08-20T17:20:29Z</time>
      </trkpt>
      <trkpt lat="42.91537" lon="0.75167">
        <ele>1132</ele>
        <time>2021-08-20T17:20:31Z</time>
      </trkpt>
      <trkpt lat="42.91531" lon="0.75175">
        <ele>1133</ele>
        <time>2021-08-20T17:20:32Z</time>
      </trkpt>
      <trkpt lat="42.91524" lon="0.75177">
        <ele>1132</ele>
        <time>2021-08-20T17:20:33Z</time>
      </trkpt>
      <trkpt lat="42.91487" lon="0.75181">
        <ele>1127</ele>
        <time>2021-08-20T17:20:40Z</time>
      </trkpt>
      <trkpt lat="42.91447" lon="0.75199">
        <ele>1130</ele>
        <time>2021-08-20T17:20:48Z</time>
      </trkpt>
      <trkpt lat="42.91406" lon="0.75214">
        <ele>1129</ele>
        <time>2021-08-20T17:20:55Z</time>
      </trkpt>
      <trkpt lat="42.91394" lon="0.75222">
        <ele>1129</ele>
        <time>2021-08-20T17:20:57Z</time>
      </trkpt>
      <trkpt lat="42.91382" lon="0.75233">
        <ele>1129</ele>
        <time>2021-08-20T17:21:00Z</time>
      </trkpt>
      <trkpt lat="42.91373" lon="0.75245">
        <ele>1130</ele>
        <time>2021-08-20T17:21:02Z</time>
      </trkpt>
      <trkpt lat="42.91366" lon="0.75258">
        <ele>1131</ele>
        <time>2021-08-20T17:21:04Z</time>
      </trkpt>
      <trkpt lat="42.9136" lon="0.75274">
        <ele>1133</ele>
        <time>2021-08-20T17:21:07Z</time>
      </trkpt>
      <trkpt lat="42.91341" lon="0.75355">
        <ele>1141</ele>
        <time>2021-08-20T17:21:18Z</time>
      </trkpt>
      <trkpt lat="42.91337" lon="0.75368">
        <ele>1142</ele>
        <time>2021-08-20T17:21:20Z</time>
      </trkpt>
      <trkpt lat="42.91322" lon="0.75402">
        <ele>1146</ele>
        <time>2021-08-20T17:21:25Z</time>
      </trkpt>
      <trkpt lat="42.91323" lon="0.75407">
        <ele>1146</ele>
        <time>2021-08-20T17:21:26Z</time>
      </trkpt>
      <trkpt lat="42.91327" lon="0.75412">
        <ele>1147</ele>
        <time>2021-08-20T17:21:26Z</time>
      </trkpt>
      <trkpt lat="42.91333" lon="0.75412">
        <ele>1147</ele>
        <time>2021-08-20T17:21:28Z</time>
      </trkpt>
      <trkpt lat="42.9136" lon="0.75368">
        <ele>1149</ele>
        <time>2021-08-20T17:21:35Z</time>
      </trkpt>
      <trkpt lat="42.914" lon="0.75313">
        <ele>1153</ele>
        <time>2021-08-20T17:21:45Z</time>
      </trkpt>
      <trkpt lat="42.91407" lon="0.75305">
        <ele>1153</ele>
        <time>2021-08-20T17:21:47Z</time>
      </trkpt>
      <trkpt lat="42.91412" lon="0.75303">
        <ele>1154</ele>
        <time>2021-08-20T17:21:48Z</time>
      </trkpt>
      <trkpt lat="42.91416" lon="0.75303">
        <ele>1156</ele>
        <time>2021-08-20T17:21:48Z</time>
      </trkpt>
      <trkpt lat="42.9142" lon="0.7531">
        <ele>1158</ele>
        <time>2021-08-20T17:21:50Z</time>
      </trkpt>
      <trkpt lat="42.9142" lon="0.75315">
        <ele>1159</ele>
        <time>2021-08-20T17:21:50Z</time>
      </trkpt>
      <trkpt lat="42.91418" lon="0.7532">
        <ele>1160</ele>
        <time>2021-08-20T17:21:51Z</time>
      </trkpt>
      <trkpt lat="42.91408" lon="0.75337">
        <ele>1160</ele>
        <time>2021-08-20T17:21:54Z</time>
      </trkpt>
      <trkpt lat="42.91404" lon="0.75357">
        <ele>1161</ele>
        <time>2021-08-20T17:21:56Z</time>
      </trkpt>
      <trkpt lat="42.91404" lon="0.75406">
        <ele>1166</ele>
        <time>2021-08-20T17:22:03Z</time>
      </trkpt>
      <trkpt lat="42.91401" lon="0.75438">
        <ele>1168</ele>
        <time>2021-08-20T17:22:07Z</time>
      </trkpt>
      <trkpt lat="42.91393" lon="0.75467">
        <ele>1170</ele>
        <time>2021-08-20T17:22:11Z</time>
      </trkpt>
      <trkpt lat="42.91371" lon="0.755">
        <ele>1169</ele>
        <time>2021-08-20T17:22:17Z</time>
      </trkpt>
      <trkpt lat="42.91368" lon="0.75512">
        <ele>1171</ele>
        <time>2021-08-20T17:22:19Z</time>
      </trkpt>
      <trkpt lat="42.9137" lon="0.75516">
        <ele>1172</ele>
        <time>2021-08-20T17:22:19Z</time>
      </trkpt>
      <trkpt lat="42.91376" lon="0.75521">
        <ele>1174</ele>
        <time>2021-08-20T17:22:20Z</time>
      </trkpt>
      <trkpt lat="42.91383" lon="0.75518">
        <ele>1175</ele>
        <time>2021-08-20T17:22:22Z</time>
      </trkpt>
      <trkpt lat="42.91403" lon="0.75494">
        <ele>1175</ele>
        <time>2021-08-20T17:22:27Z</time>
      </trkpt>
      <trkpt lat="42.91434" lon="0.75467">
        <ele>1178</ele>
        <time>2021-08-20T17:22:33Z</time>
      </trkpt>
      <trkpt lat="42.91452" lon="0.75447">
        <ele>1178</ele>
        <time>2021-08-20T17:22:37Z</time>
      </trkpt>
      <trkpt lat="42.91456" lon="0.75445">
        <ele>1179</ele>
        <time>2021-08-20T17:22:38Z</time>
      </trkpt>
      <trkpt lat="42.9146" lon="0.75445">
        <ele>1179</ele>
        <time>2021-08-20T17:22:39Z</time>
      </trkpt>
      <trkpt lat="42.91465" lon="0.75451">
        <ele>1181</ele>
        <time>2021-08-20T17:22:40Z</time>
      </trkpt>
      <trkpt lat="42.91465" lon="0.75461">
        <ele>1182</ele>
        <time>2021-08-20T17:22:41Z</time>
      </trkpt>
      <trkpt lat="42.9145" lon="0.75479">
        <ele>1182</ele>
        <time>2021-08-20T17:22:45Z</time>
      </trkpt>
      <trkpt lat="42.91443" lon="0.75497">
        <ele>1183</ele>
        <time>2021-08-20T17:22:47Z</time>
      </trkpt>
      <trkpt lat="42.91428" lon="0.75584">
        <ele>1190</ele>
        <time>2021-08-20T17:22:59Z</time>
      </trkpt>
      <trkpt lat="42.91422" lon="0.75613">
        <ele>1193</ele>
        <time>2021-08-20T17:23:03Z</time>
      </trkpt>
      <trkpt lat="42.91413" lon="0.75638">
        <ele>1195</ele>
        <time>2021-08-20T17:23:07Z</time>
      </trkpt>
      <trkpt lat="42.91402" lon="0.75659">
        <ele>1199</ele>
        <time>2021-08-20T17:23:10Z</time>
      </trkpt>
      <trkpt lat="42.914" lon="0.7567">
        <ele>1201</ele>
        <time>2021-08-20T17:23:11Z</time>
      </trkpt>
      <trkpt lat="42.91401" lon="0.75675">
        <ele>1202</ele>
        <time>2021-08-20T17:23:12Z</time>
      </trkpt>
      <trkpt lat="42.91407" lon="0.75682">
        <ele>1203</ele>
        <time>2021-08-20T17:23:13Z</time>
      </trkpt>
      <trkpt lat="42.91416" lon="0.7568">
        <ele>1203</ele>
        <time>2021-08-20T17:23:15Z</time>
      </trkpt>
      <trkpt lat="42.91421" lon="0.75675">
        <ele>1203</ele>
        <time>2021-08-20T17:23:16Z</time>
      </trkpt>
      <trkpt lat="42.91447" lon="0.75644">
        <ele>1203</ele>
        <time>2021-08-20T17:23:22Z</time>
      </trkpt>
      <trkpt lat="42.9146" lon="0.75624">
        <ele>1203</ele>
        <time>2021-08-20T17:23:26Z</time>
      </trkpt>
      <trkpt lat="42.91477" lon="0.7559">
        <ele>1202</ele>
        <time>2021-08-20T17:23:31Z</time>
      </trkpt>
      <trkpt lat="42.91481" lon="0.75587">
        <ele>1203</ele>
        <time>2021-08-20T17:23:32Z</time>
      </trkpt>
      <trkpt lat="42.91488" lon="0.75589">
        <ele>1205</ele>
        <time>2021-08-20T17:23:33Z</time>
      </trkpt>
      <trkpt lat="42.91491" lon="0.75592">
        <ele>1206</ele>
        <time>2021-08-20T17:23:34Z</time>
      </trkpt>
      <trkpt lat="42.91492" lon="0.75601">
        <ele>1208</ele>
        <time>2021-08-20T17:23:35Z</time>
      </trkpt>
      <trkpt lat="42.91485" lon="0.75631">
        <ele>1210</ele>
        <time>2021-08-20T17:23:39Z</time>
      </trkpt>
      <trkpt lat="42.91481" lon="0.75677">
        <ele>1217</ele>
        <time>2021-08-20T17:23:45Z</time>
      </trkpt>
      <trkpt lat="42.91479" lon="0.75688">
        <ele>1219</ele>
        <time>2021-08-20T17:23:47Z</time>
      </trkpt>
      <trkpt lat="42.91468" lon="0.75714">
        <ele>1222</ele>
        <time>2021-08-20T17:23:51Z</time>
      </trkpt>
      <trkpt lat="42.91468" lon="0.75723">
        <ele>1224</ele>
        <time>2021-08-20T17:23:52Z</time>
      </trkpt>
      <trkpt lat="42.91469" lon="0.75725">
        <ele>1225</ele>
        <time>2021-08-20T17:23:52Z</time>
      </trkpt>
      <trkpt lat="42.91472" lon="0.75728">
        <ele>1226</ele>
        <time>2021-08-20T17:23:53Z</time>
      </trkpt>
      <trkpt lat="42.91476" lon="0.7573">
        <ele>1228</ele>
        <time>2021-08-20T17:23:54Z</time>
      </trkpt>
      <trkpt lat="42.91485" lon="0.75724">
        <ele>1229</ele>
        <time>2021-08-20T17:23:55Z</time>
      </trkpt>
      <trkpt lat="42.9151" lon="0.75673">
        <ele>1222</ele>
        <time>2021-08-20T17:24:03Z</time>
      </trkpt>
      <trkpt lat="42.91516" lon="0.75665">
        <ele>1220</ele>
        <time>2021-08-20T17:24:05Z</time>
      </trkpt>
      <trkpt lat="42.91527" lon="0.75658">
        <ele>1220</ele>
        <time>2021-08-20T17:24:07Z</time>
      </trkpt>
      <trkpt lat="42.91534" lon="0.75658">
        <ele>1221</ele>
        <time>2021-08-20T17:24:08Z</time>
      </trkpt>
      <trkpt lat="42.91541" lon="0.75661">
        <ele>1222</ele>
        <time>2021-08-20T17:24:10Z</time>
      </trkpt>
      <trkpt lat="42.91548" lon="0.75665">
        <ele>1224</ele>
        <time>2021-08-20T17:24:11Z</time>
      </trkpt>
      <trkpt lat="42.91554" lon="0.75673">
        <ele>1226</ele>
        <time>2021-08-20T17:24:12Z</time>
      </trkpt>
      <trkpt lat="42.91584" lon="0.75719">
        <ele>1242</ele>
        <time>2021-08-20T17:24:20Z</time>
      </trkpt>
      <trkpt lat="42.91595" lon="0.75733">
        <ele>1247</ele>
        <time>2021-08-20T17:24:23Z</time>
      </trkpt>
      <trkpt lat="42.91616" lon="0.75752">
        <ele>1251</ele>
        <time>2021-08-20T17:24:28Z</time>
      </trkpt>
      <trkpt lat="42.91626" lon="0.75757">
        <ele>1253</ele>
        <time>2021-08-20T17:24:29Z</time>
      </trkpt>
      <trkpt lat="42.91646" lon="0.75764">
        <ele>1254</ele>
        <time>2021-08-20T17:24:33Z</time>
      </trkpt>
      <trkpt lat="42.91655" lon="0.75765">
        <ele>1254</ele>
        <time>2021-08-20T17:24:35Z</time>
      </trkpt>
      <trkpt lat="42.9167" lon="0.75762">
        <ele>1254</ele>
        <time>2021-08-20T17:24:37Z</time>
      </trkpt>
      <trkpt lat="42.91681" lon="0.75754">
        <ele>1257</ele>
        <time>2021-08-20T17:24:40Z</time>
      </trkpt>
      <trkpt lat="42.91686" lon="0.75743">
        <ele>1257</ele>
        <time>2021-08-20T17:24:41Z</time>
      </trkpt>
      <trkpt lat="42.91686" lon="0.7573">
        <ele>1257</ele>
        <time>2021-08-20T17:24:43Z</time>
      </trkpt>
      <trkpt lat="42.9168" lon="0.75698">
        <ele>1253</ele>
        <time>2021-08-20T17:24:47Z</time>
      </trkpt>
      <trkpt lat="42.91679" lon="0.75622">
        <ele>1249</ele>
        <time>2021-08-20T17:24:57Z</time>
      </trkpt>
      <trkpt lat="42.91683" lon="0.7561">
        <ele>1250</ele>
        <time>2021-08-20T17:24:59Z</time>
      </trkpt>
      <trkpt lat="42.91689" lon="0.75609">
        <ele>1252</ele>
        <time>2021-08-20T17:25:00Z</time>
      </trkpt>
      <trkpt lat="42.91696" lon="0.75615">
        <ele>1256</ele>
        <time>2021-08-20T17:25:02Z</time>
      </trkpt>
      <trkpt lat="42.91698" lon="0.75626">
        <ele>1258</ele>
        <time>2021-08-20T17:25:03Z</time>
      </trkpt>
      <trkpt lat="42.91694" lon="0.75661">
        <ele>1258</ele>
        <time>2021-08-20T17:25:08Z</time>
      </trkpt>
      <trkpt lat="42.91694" lon="0.75673">
        <ele>1259</ele>
        <time>2021-08-20T17:25:09Z</time>
      </trkpt>
      <trkpt lat="42.91699" lon="0.75695">
        <ele>1262</ele>
        <time>2021-08-20T17:25:12Z</time>
      </trkpt>
      <trkpt lat="42.91705" lon="0.75711">
        <ele>1265</ele>
        <time>2021-08-20T17:25:15Z</time>
      </trkpt>
      <trkpt lat="42.91719" lon="0.75738">
        <ele>1271</ele>
        <time>2021-08-20T17:25:19Z</time>
      </trkpt>
      <trkpt lat="42.91746" lon="0.75786">
        <ele>1279</ele>
        <time>2021-08-20T17:25:27Z</time>
      </trkpt>
      <trkpt lat="42.9175" lon="0.75798">
        <ele>1280</ele>
        <time>2021-08-20T17:25:28Z</time>
      </trkpt>
      <trkpt lat="42.91753" lon="0.7581">
        <ele>1280</ele>
        <time>2021-08-20T17:25:30Z</time>
      </trkpt>
      <trkpt lat="42.91753" lon="0.75839">
        <ele>1280</ele>
        <time>2021-08-20T17:25:34Z</time>
      </trkpt>
      <trkpt lat="42.91755" lon="0.75846">
        <ele>1282</ele>
        <time>2021-08-20T17:25:35Z</time>
      </trkpt>
      <trkpt lat="42.91758" lon="0.75851">
        <ele>1285</ele>
        <time>2021-08-20T17:25:36Z</time>
      </trkpt>
      <trkpt lat="42.91765" lon="0.75855">
        <ele>1288</ele>
        <time>2021-08-20T17:25:37Z</time>
      </trkpt>
      <trkpt lat="42.9177" lon="0.75854">
        <ele>1290</ele>
        <time>2021-08-20T17:25:38Z</time>
      </trkpt>
      <trkpt lat="42.91772" lon="0.75851">
        <ele>1290</ele>
        <time>2021-08-20T17:25:38Z</time>
      </trkpt>
      <trkpt lat="42.91775" lon="0.75845">
        <ele>1289</ele>
        <time>2021-08-20T17:25:39Z</time>
      </trkpt>
      <trkpt lat="42.91773" lon="0.75825">
        <ele>1287</ele>
        <time>2021-08-20T17:25:42Z</time>
      </trkpt>
      <trkpt lat="42.91767" lon="0.75789">
        <ele>1288</ele>
        <time>2021-08-20T17:25:47Z</time>
      </trkpt>
      <trkpt lat="42.91756" lon="0.75759">
        <ele>1286</ele>
        <time>2021-08-20T17:25:51Z</time>
      </trkpt>
      <trkpt lat="42.91757" lon="0.75751">
        <ele>1287</ele>
        <time>2021-08-20T17:25:52Z</time>
      </trkpt>
      <trkpt lat="42.9176" lon="0.75747">
        <ele>1289</ele>
        <time>2021-08-20T17:25:53Z</time>
      </trkpt>
      <trkpt lat="42.91767" lon="0.75746">
        <ele>1293</ele>
        <time>2021-08-20T17:25:54Z</time>
      </trkpt>
      <trkpt lat="42.91771" lon="0.75748">
        <ele>1295</ele>
        <time>2021-08-20T17:25:55Z</time>
      </trkpt>
      <trkpt lat="42.91774" lon="0.75752">
        <ele>1296</ele>
        <time>2021-08-20T17:25:56Z</time>
      </trkpt>
      <trkpt lat="42.91776" lon="0.75759">
        <ele>1296</ele>
        <time>2021-08-20T17:25:57Z</time>
      </trkpt>
      <trkpt lat="42.9178" lon="0.7578">
        <ele>1296</ele>
        <time>2021-08-20T17:26:00Z</time>
      </trkpt>
      <trkpt lat="42.91803" lon="0.7587">
        <ele>1302</ele>
        <time>2021-08-20T17:26:12Z</time>
      </trkpt>
      <trkpt lat="42.91806" lon="0.75911">
        <ele>1305</ele>
        <time>2021-08-20T17:26:17Z</time>
      </trkpt>
      <trkpt lat="42.91812" lon="0.75921">
        <ele>1307</ele>
        <time>2021-08-20T17:26:19Z</time>
      </trkpt>
      <trkpt lat="42.91816" lon="0.75922">
        <ele>1308</ele>
        <time>2021-08-20T17:26:20Z</time>
      </trkpt>
      <trkpt lat="42.91823" lon="0.75918">
        <ele>1307</ele>
        <time>2021-08-20T17:26:21Z</time>
      </trkpt>
      <trkpt lat="42.91825" lon="0.75908">
        <ele>1307</ele>
        <time>2021-08-20T17:26:22Z</time>
      </trkpt>
      <trkpt lat="42.91816" lon="0.75863">
        <ele>1305</ele>
        <time>2021-08-20T17:26:29Z</time>
      </trkpt>
      <trkpt lat="42.91814" lon="0.75847">
        <ele>1304</ele>
        <time>2021-08-20T17:26:31Z</time>
      </trkpt>
      <trkpt lat="42.91814" lon="0.758">
        <ele>1309</ele>
        <time>2021-08-20T17:26:37Z</time>
      </trkpt>
      <trkpt lat="42.91812" lon="0.75788">
        <ele>1310</ele>
        <time>2021-08-20T17:26:38Z</time>
      </trkpt>
      <trkpt lat="42.91807" lon="0.75773">
        <ele>1311</ele>
        <time>2021-08-20T17:26:41Z</time>
      </trkpt>
      <trkpt lat="42.91798" lon="0.75751">
        <ele>1309</ele>
        <time>2021-08-20T17:26:44Z</time>
      </trkpt>
      <trkpt lat="42.91771" lon="0.75698">
        <ele>1296</ele>
        <time>2021-08-20T17:26:52Z</time>
      </trkpt>
      <trkpt lat="42.91766" lon="0.75686">
        <ele>1294</ele>
        <time>2021-08-20T17:26:54Z</time>
      </trkpt>
      <trkpt lat="42.91765" lon="0.75678">
        <ele>1294</ele>
        <time>2021-08-20T17:26:55Z</time>
      </trkpt>
      <trkpt lat="42.91766" lon="0.75672">
        <ele>1295</ele>
        <time>2021-08-20T17:26:56Z</time>
      </trkpt>
      <trkpt lat="42.9177" lon="0.75668">
        <ele>1297</ele>
        <time>2021-08-20T17:26:57Z</time>
      </trkpt>
      <trkpt lat="42.91777" lon="0.75668">
        <ele>1300</ele>
        <time>2021-08-20T17:26:58Z</time>
      </trkpt>
      <trkpt lat="42.91783" lon="0.75676">
        <ele>1303</ele>
        <time>2021-08-20T17:27:00Z</time>
      </trkpt>
      <trkpt lat="42.91787" lon="0.75695">
        <ele>1305</ele>
        <time>2021-08-20T17:27:02Z</time>
      </trkpt>
      <trkpt lat="42.91802" lon="0.75723">
        <ele>1312</ele>
        <time>2021-08-20T17:27:07Z</time>
      </trkpt>
      <trkpt lat="42.91833" lon="0.75761">
        <ele>1326</ele>
        <time>2021-08-20T17:27:14Z</time>
      </trkpt>
      <trkpt lat="42.9185" lon="0.75784">
        <ele>1330</ele>
        <time>2021-08-20T17:27:18Z</time>
      </trkpt>
      <trkpt lat="42.91855" lon="0.75797">
        <ele>1330</ele>
        <time>2021-08-20T17:27:20Z</time>
      </trkpt>
      <trkpt lat="42.91867" lon="0.75838">
        <ele>1329</ele>
        <time>2021-08-20T17:27:26Z</time>
      </trkpt>
      <trkpt lat="42.91873" lon="0.7585">
        <ele>1331</ele>
        <time>2021-08-20T17:27:28Z</time>
      </trkpt>
      <trkpt lat="42.91878" lon="0.75859">
        <ele>1333</ele>
        <time>2021-08-20T17:27:29Z</time>
      </trkpt>
      <trkpt lat="42.91905" lon="0.75896">
        <ele>1342</ele>
        <time>2021-08-20T17:27:36Z</time>
      </trkpt>
      <trkpt lat="42.91907" lon="0.75905">
        <ele>1341</ele>
        <time>2021-08-20T17:27:37Z</time>
      </trkpt>
      <trkpt lat="42.91907" lon="0.75928">
        <ele>1341</ele>
        <time>2021-08-20T17:27:40Z</time>
      </trkpt>
      <trkpt lat="42.919" lon="0.75978">
        <ele>1342</ele>
        <time>2021-08-20T17:27:47Z</time>
      </trkpt>
      <trkpt lat="42.91899" lon="0.76012">
        <ele>1344</ele>
        <time>2021-08-20T17:27:51Z</time>
      </trkpt>
      <trkpt lat="42.91899" lon="0.7603">
        <ele>1347</ele>
        <time>2021-08-20T17:27:54Z</time>
      </trkpt>
      <trkpt lat="42.91901" lon="0.76047">
        <ele>1349</ele>
        <time>2021-08-20T17:27:56Z</time>
      </trkpt>
      <trkpt lat="42.91919" lon="0.76127">
        <ele>1357</ele>
        <time>2021-08-20T17:28:07Z</time>
      </trkpt>
      <trkpt lat="42.91926" lon="0.76154">
        <ele>1359</ele>
        <time>2021-08-20T17:28:11Z</time>
      </trkpt>
      <trkpt lat="42.91935" lon="0.76179">
        <ele>1360</ele>
        <time>2021-08-20T17:28:14Z</time>
      </trkpt>
      <trkpt lat="42.91937" lon="0.7619">
        <ele>1360</ele>
        <time>2021-08-20T17:28:16Z</time>
      </trkpt>
      <trkpt lat="42.91939" lon="0.76198">
        <ele>1360</ele>
        <time>2021-08-20T17:28:17Z</time>
      </trkpt>
      <trkpt lat="42.91939" lon="0.76226">
        <ele>1359</ele>
        <time>2021-08-20T17:28:20Z</time>
      </trkpt>
      <trkpt lat="42.91924" lon="0.76346">
        <ele>1353</ele>
        <time>2021-08-20T17:28:36Z</time>
      </trkpt>
      <trkpt lat="42.91922" lon="0.76367">
        <ele>1351</ele>
        <time>2021-08-20T17:28:39Z</time>
      </trkpt>
      <trkpt lat="42.91919" lon="0.76406">
        <ele>1349</ele>
        <time>2021-08-20T17:28:44Z</time>
      </trkpt>
      <trkpt lat="42.91911" lon="0.76471">
        <ele>1346</ele>
        <time>2021-08-20T17:28:53Z</time>
      </trkpt>
      <trkpt lat="42.91902" lon="0.76631">
        <ele>1338</ele>
        <time>2021-08-20T17:29:14Z</time>
      </trkpt>
      <trkpt lat="42.91903" lon="0.76669">
        <ele>1336</ele>
        <time>2021-08-20T17:29:19Z</time>
      </trkpt>
      <trkpt lat="42.9191" lon="0.76769">
        <ele>1325</ele>
        <time>2021-08-20T17:29:32Z</time>
      </trkpt>
      <trkpt lat="42.91911" lon="0.76816">
        <ele>1319</ele>
        <time>2021-08-20T17:29:38Z</time>
      </trkpt>
      <trkpt lat="42.91909" lon="0.7683">
        <ele>1318</ele>
        <time>2021-08-20T17:29:40Z</time>
      </trkpt>
      <trkpt lat="42.919" lon="0.76864">
        <ele>1315</ele>
        <time>2021-08-20T17:29:44Z</time>
      </trkpt>
      <trkpt lat="42.9189" lon="0.76885">
        <ele>1314</ele>
        <time>2021-08-20T17:29:48Z</time>
      </trkpt>
      <trkpt lat="42.91875" lon="0.76901">
        <ele>1315</ele>
        <time>2021-08-20T17:29:51Z</time>
      </trkpt>
      <trkpt lat="42.91853" lon="0.76915">
        <ele>1318</ele>
        <time>2021-08-20T17:29:55Z</time>
      </trkpt>
      <trkpt lat="42.91837" lon="0.76927">
        <ele>1319</ele>
        <time>2021-08-20T17:29:59Z</time>
      </trkpt>
      <trkpt lat="42.91824" lon="0.76942">
        <ele>1318</ele>
        <time>2021-08-20T17:30:02Z</time>
      </trkpt>
      <trkpt lat="42.91817" lon="0.76955">
        <ele>1317</ele>
        <time>2021-08-20T17:30:04Z</time>
      </trkpt>
      <trkpt lat="42.91814" lon="0.76963">
        <ele>1316</ele>
        <time>2021-08-20T17:30:05Z</time>
      </trkpt>
      <trkpt lat="42.91813" lon="0.76973">
        <ele>1315</ele>
        <time>2021-08-20T17:30:06Z</time>
      </trkpt>
      <trkpt lat="42.91814" lon="0.76985">
        <ele>1312</ele>
        <time>2021-08-20T17:30:08Z</time>
      </trkpt>
      <trkpt lat="42.91821" lon="0.77008">
        <ele>1306</ele>
        <time>2021-08-20T17:30:11Z</time>
      </trkpt>
      <trkpt lat="42.91826" lon="0.77045">
        <ele>1302</ele>
        <time>2021-08-20T17:30:16Z</time>
      </trkpt>
      <trkpt lat="42.91827" lon="0.77097">
        <ele>1298</ele>
        <time>2021-08-20T17:30:23Z</time>
      </trkpt>
      <trkpt lat="42.91823" lon="0.77146">
        <ele>1297</ele>
        <time>2021-08-20T17:30:29Z</time>
      </trkpt>
      <trkpt lat="42.91824" lon="0.77159">
        <ele>1296</ele>
        <time>2021-08-20T17:30:31Z</time>
      </trkpt>
      <trkpt lat="42.91826" lon="0.77173">
        <ele>1295</ele>
        <time>2021-08-20T17:30:33Z</time>
      </trkpt>
      <trkpt lat="42.91834" lon="0.77195">
        <ele>1294</ele>
        <time>2021-08-20T17:30:36Z</time>
      </trkpt>
      <trkpt lat="42.91843" lon="0.7721">
        <ele>1292</ele>
        <time>2021-08-20T17:30:39Z</time>
      </trkpt>
      <trkpt lat="42.91872" lon="0.77246">
        <ele>1286</ele>
        <time>2021-08-20T17:30:45Z</time>
      </trkpt>
      <trkpt lat="42.91882" lon="0.77262">
        <ele>1285</ele>
        <time>2021-08-20T17:30:48Z</time>
      </trkpt>
      <trkpt lat="42.91891" lon="0.77279">
        <ele>1283</ele>
        <time>2021-08-20T17:30:51Z</time>
      </trkpt>
      <trkpt lat="42.91897" lon="0.77293">
        <ele>1281</ele>
        <time>2021-08-20T17:30:53Z</time>
      </trkpt>
      <trkpt lat="42.91905" lon="0.77328">
        <ele>1279</ele>
        <time>2021-08-20T17:30:58Z</time>
      </trkpt>
      <trkpt lat="42.91907" lon="0.77342">
        <ele>1278</ele>
        <time>2021-08-20T17:31:00Z</time>
      </trkpt>
      <trkpt lat="42.91906" lon="0.7736">
        <ele>1277</ele>
        <time>2021-08-20T17:31:02Z</time>
      </trkpt>
      <trkpt lat="42.919" lon="0.77394">
        <ele>1276</ele>
        <time>2021-08-20T17:31:07Z</time>
      </trkpt>
      <trkpt lat="42.91887" lon="0.77451">
        <ele>1273</ele>
        <time>2021-08-20T17:31:14Z</time>
      </trkpt>
      <trkpt lat="42.91886" lon="0.7747">
        <ele>1271</ele>
        <time>2021-08-20T17:31:17Z</time>
      </trkpt>
      <trkpt lat="42.91887" lon="0.77481">
        <ele>1269</ele>
        <time>2021-08-20T17:31:18Z</time>
      </trkpt>
      <trkpt lat="42.91895" lon="0.77513">
        <ele>1265</ele>
        <time>2021-08-20T17:31:23Z</time>
      </trkpt>
      <trkpt lat="42.91914" lon="0.7758">
        <ele>1258</ele>
        <time>2021-08-20T17:31:32Z</time>
      </trkpt>
      <trkpt lat="42.91915" lon="0.77588">
        <ele>1258</ele>
        <time>2021-08-20T17:31:33Z</time>
      </trkpt>
      <trkpt lat="42.91913" lon="0.77594">
        <ele>1257</ele>
        <time>2021-08-20T17:31:34Z</time>
      </trkpt>
      <trkpt lat="42.91906" lon="0.77601">
        <ele>1257</ele>
        <time>2021-08-20T17:31:36Z</time>
      </trkpt>
      <trkpt lat="42.91901" lon="0.77601">
        <ele>1256</ele>
        <time>2021-08-20T17:31:36Z</time>
      </trkpt>
      <trkpt lat="42.91863" lon="0.77588">
        <ele>1257</ele>
        <time>2021-08-20T17:31:43Z</time>
      </trkpt>
      <trkpt lat="42.91833" lon="0.77583">
        <ele>1258</ele>
        <time>2021-08-20T17:31:49Z</time>
      </trkpt>
      <trkpt lat="42.91826" lon="0.77585">
        <ele>1258</ele>
        <time>2021-08-20T17:31:50Z</time>
      </trkpt>
      <trkpt lat="42.9182" lon="0.7759">
        <ele>1257</ele>
        <time>2021-08-20T17:31:51Z</time>
      </trkpt>
      <trkpt lat="42.91818" lon="0.77601">
        <ele>1254</ele>
        <time>2021-08-20T17:31:53Z</time>
      </trkpt>
      <trkpt lat="42.91824" lon="0.77608">
        <ele>1251</ele>
        <time>2021-08-20T17:31:54Z</time>
      </trkpt>
      <trkpt lat="42.91856" lon="0.77614">
        <ele>1251</ele>
        <time>2021-08-20T17:32:00Z</time>
      </trkpt>
      <trkpt lat="42.91862" lon="0.77617">
        <ele>1251</ele>
        <time>2021-08-20T17:32:01Z</time>
      </trkpt>
      <trkpt lat="42.91867" lon="0.77624">
        <ele>1250</ele>
        <time>2021-08-20T17:32:02Z</time>
      </trkpt>
      <trkpt lat="42.91891" lon="0.77677">
        <ele>1245</ele>
        <time>2021-08-20T17:32:10Z</time>
      </trkpt>
      <trkpt lat="42.91907" lon="0.77701">
        <ele>1244</ele>
        <time>2021-08-20T17:32:15Z</time>
      </trkpt>
      <trkpt lat="42.91916" lon="0.77723">
        <ele>1241</ele>
        <time>2021-08-20T17:32:18Z</time>
      </trkpt>
      <trkpt lat="42.91937" lon="0.77797">
        <ele>1238</ele>
        <time>2021-08-20T17:32:28Z</time>
      </trkpt>
      <trkpt lat="42.91953" lon="0.77865">
        <ele>1231</ele>
        <time>2021-08-20T17:32:38Z</time>
      </trkpt>
      <trkpt lat="42.91964" lon="0.77891">
        <ele>1230</ele>
        <time>2021-08-20T17:32:42Z</time>
      </trkpt>
      <trkpt lat="42.91985" lon="0.7793">
        <ele>1233</ele>
        <time>2021-08-20T17:32:48Z</time>
      </trkpt>
      <trkpt lat="42.91986" lon="0.77936">
        <ele>1232</ele>
        <time>2021-08-20T17:32:49Z</time>
      </trkpt>
      <trkpt lat="42.91985" lon="0.77945">
        <ele>1229</ele>
        <time>2021-08-20T17:32:50Z</time>
      </trkpt>
      <trkpt lat="42.9198" lon="0.77948">
        <ele>1225</ele>
        <time>2021-08-20T17:32:51Z</time>
      </trkpt>
      <trkpt lat="42.91974" lon="0.77945">
        <ele>1221</ele>
        <time>2021-08-20T17:32:52Z</time>
      </trkpt>
      <trkpt lat="42.91949" lon="0.77885">
        <ele>1221</ele>
        <time>2021-08-20T17:33:01Z</time>
      </trkpt>
      <trkpt lat="42.9193" lon="0.77853">
        <ele>1219</ele>
        <time>2021-08-20T17:33:06Z</time>
      </trkpt>
      <trkpt lat="42.91894" lon="0.77799">
        <ele>1217</ele>
        <time>2021-08-20T17:33:16Z</time>
      </trkpt>
      <trkpt lat="42.91878" lon="0.77789">
        <ele>1213</ele>
        <time>2021-08-20T17:33:19Z</time>
      </trkpt>
      <trkpt lat="42.9185" lon="0.77787">
        <ele>1205</ele>
        <time>2021-08-20T17:33:24Z</time>
      </trkpt>
      <trkpt lat="42.91841" lon="0.77785">
        <ele>1202</ele>
        <time>2021-08-20T17:33:26Z</time>
      </trkpt>
      <trkpt lat="42.91817" lon="0.77775">
        <ele>1206</ele>
        <time>2021-08-20T17:33:30Z</time>
      </trkpt>
      <trkpt lat="42.91814" lon="0.77777">
        <ele>1207</ele>
        <time>2021-08-20T17:33:31Z</time>
      </trkpt>
      <trkpt lat="42.91812" lon="0.77782">
        <ele>1207</ele>
        <time>2021-08-20T17:33:31Z</time>
      </trkpt>
      <trkpt lat="42.91812" lon="0.77787">
        <ele>1206</ele>
        <time>2021-08-20T17:33:32Z</time>
      </trkpt>
      <trkpt lat="42.91814" lon="0.77791">
        <ele>1205</ele>
        <time>2021-08-20T17:33:33Z</time>
      </trkpt>
      <trkpt lat="42.91843" lon="0.77815">
        <ele>1198</ele>
        <time>2021-08-20T17:33:39Z</time>
      </trkpt>
      <trkpt lat="42.91871" lon="0.77846">
        <ele>1200</ele>
        <time>2021-08-20T17:33:45Z</time>
      </trkpt>
      <trkpt lat="42.91898" lon="0.77874">
        <ele>1199</ele>
        <time>2021-08-20T17:33:51Z</time>
      </trkpt>
      <trkpt lat="42.91904" lon="0.77884">
        <ele>1197</ele>
        <time>2021-08-20T17:33:53Z</time>
      </trkpt>
      <trkpt lat="42.91903" lon="0.77891">
        <ele>1195</ele>
        <time>2021-08-20T17:33:54Z</time>
      </trkpt>
      <trkpt lat="42.91897" lon="0.77895">
        <ele>1193</ele>
        <time>2021-08-20T17:33:55Z</time>
      </trkpt>
      <trkpt lat="42.91894" lon="0.77894">
        <ele>1193</ele>
        <time>2021-08-20T17:33:55Z</time>
      </trkpt>
      <trkpt lat="42.91879" lon="0.77879">
        <ele>1194</ele>
        <time>2021-08-20T17:33:59Z</time>
      </trkpt>
      <trkpt lat="42.91873" lon="0.77877">
        <ele>1194</ele>
        <time>2021-08-20T17:34:00Z</time>
      </trkpt>
      <trkpt lat="42.91846" lon="0.77877">
        <ele>1189</ele>
        <time>2021-08-20T17:34:05Z</time>
      </trkpt>
      <trkpt lat="42.91835" lon="0.77872">
        <ele>1188</ele>
        <time>2021-08-20T17:34:07Z</time>
      </trkpt>
      <trkpt lat="42.91827" lon="0.77873">
        <ele>1189</ele>
        <time>2021-08-20T17:34:08Z</time>
      </trkpt>
      <trkpt lat="42.91824" lon="0.77877">
        <ele>1190</ele>
        <time>2021-08-20T17:34:09Z</time>
      </trkpt>
      <trkpt lat="42.91823" lon="0.77883">
        <ele>1189</ele>
        <time>2021-08-20T17:34:10Z</time>
      </trkpt>
      <trkpt lat="42.91825" lon="0.77887">
        <ele>1188</ele>
        <time>2021-08-20T17:34:10Z</time>
      </trkpt>
      <trkpt lat="42.91828" lon="0.7789">
        <ele>1187</ele>
        <time>2021-08-20T17:34:11Z</time>
      </trkpt>
      <trkpt lat="42.91846" lon="0.77896">
        <ele>1186</ele>
        <time>2021-08-20T17:34:14Z</time>
      </trkpt>
      <trkpt lat="42.91866" lon="0.77907">
        <ele>1186</ele>
        <time>2021-08-20T17:34:18Z</time>
      </trkpt>
      <trkpt lat="42.91881" lon="0.77921">
        <ele>1184</ele>
        <time>2021-08-20T17:34:21Z</time>
      </trkpt>
      <trkpt lat="42.91888" lon="0.7793">
        <ele>1184</ele>
        <time>2021-08-20T17:34:23Z</time>
      </trkpt>
      <trkpt lat="42.91911" lon="0.77996">
        <ele>1176</ele>
        <time>2021-08-20T17:34:33Z</time>
      </trkpt>
      <trkpt lat="42.91925" lon="0.78043">
        <ele>1170</ele>
        <time>2021-08-20T17:34:39Z</time>
      </trkpt>
      <trkpt lat="42.91931" lon="0.78056">
        <ele>1170</ele>
        <time>2021-08-20T17:34:41Z</time>
      </trkpt>
      <trkpt lat="42.91982" lon="0.78139">
        <ele>1169</ele>
        <time>2021-08-20T17:34:55Z</time>
      </trkpt>
      <trkpt lat="42.92017" lon="0.7821">
        <ele>1158</ele>
        <time>2021-08-20T17:35:07Z</time>
      </trkpt>
      <trkpt lat="42.92029" lon="0.78224">
        <ele>1158</ele>
        <time>2021-08-20T17:35:09Z</time>
      </trkpt>
      <trkpt lat="42.92043" lon="0.78233">
        <ele>1161</ele>
        <time>2021-08-20T17:35:12Z</time>
      </trkpt>
      <trkpt lat="42.92047" lon="0.78241">
        <ele>1160</ele>
        <time>2021-08-20T17:35:13Z</time>
      </trkpt>
      <trkpt lat="42.92046" lon="0.78248">
        <ele>1156</ele>
        <time>2021-08-20T17:35:14Z</time>
      </trkpt>
      <trkpt lat="42.92044" lon="0.7825">
        <ele>1155</ele>
        <time>2021-08-20T17:35:15Z</time>
      </trkpt>
      <trkpt lat="42.92038" lon="0.78251">
        <ele>1152</ele>
        <time>2021-08-20T17:35:16Z</time>
      </trkpt>
      <trkpt lat="42.9199" lon="0.78199">
        <ele>1151</ele>
        <time>2021-08-20T17:35:27Z</time>
      </trkpt>
      <trkpt lat="42.91959" lon="0.78159">
        <ele>1154</ele>
        <time>2021-08-20T17:35:34Z</time>
      </trkpt>
      <trkpt lat="42.91934" lon="0.7814">
        <ele>1151</ele>
        <time>2021-08-20T17:35:39Z</time>
      </trkpt>
      <trkpt lat="42.91929" lon="0.78144">
        <ele>1148</ele>
        <time>2021-08-20T17:35:40Z</time>
      </trkpt>
      <trkpt lat="42.91927" lon="0.78148">
        <ele>1147</ele>
        <time>2021-08-20T17:35:41Z</time>
      </trkpt>
      <trkpt lat="42.91928" lon="0.78155">
        <ele>1145</ele>
        <time>2021-08-20T17:35:42Z</time>
      </trkpt>
      <trkpt lat="42.91945" lon="0.78167">
        <ele>1147</ele>
        <time>2021-08-20T17:35:45Z</time>
      </trkpt>
      <trkpt lat="42.91959" lon="0.78182">
        <ele>1149</ele>
        <time>2021-08-20T17:35:49Z</time>
      </trkpt>
      <trkpt lat="42.91973" lon="0.78212">
        <ele>1145</ele>
        <time>2021-08-20T17:35:53Z</time>
      </trkpt>
      <trkpt lat="42.91991" lon="0.78237">
        <ele>1139</ele>
        <time>2021-08-20T17:35:58Z</time>
      </trkpt>
      <trkpt lat="42.92013" lon="0.78274">
        <ele>1132</ele>
        <time>2021-08-20T17:36:04Z</time>
      </trkpt>
      <trkpt lat="42.92045" lon="0.78337">
        <ele>1126</ele>
        <time>2021-08-20T17:36:14Z</time>
      </trkpt>
      <trkpt lat="42.9205" lon="0.7835">
        <ele>1125</ele>
        <time>2021-08-20T17:36:16Z</time>
      </trkpt>
      <trkpt lat="42.92057" lon="0.7839">
        <ele>1119</ele>
        <time>2021-08-20T17:36:21Z</time>
      </trkpt>
      <trkpt lat="42.9206" lon="0.784">
        <ele>1118</ele>
        <time>2021-08-20T17:36:23Z</time>
      </trkpt>
      <trkpt lat="42.92065" lon="0.7841">
        <ele>1118</ele>
        <time>2021-08-20T17:36:24Z</time>
      </trkpt>
      <trkpt lat="42.92088" lon="0.78444">
        <ele>1120</ele>
        <time>2021-08-20T17:36:30Z</time>
      </trkpt>
      <trkpt lat="42.92097" lon="0.78465">
        <ele>1121</ele>
        <time>2021-08-20T17:36:33Z</time>
      </trkpt>
      <trkpt lat="42.92107" lon="0.78523">
        <ele>1114</ele>
        <time>2021-08-20T17:36:41Z</time>
      </trkpt>
      <trkpt lat="42.92133" lon="0.78613">
        <ele>1112</ele>
        <time>2021-08-20T17:36:54Z</time>
      </trkpt>
      <trkpt lat="42.92143" lon="0.78665">
        <ele>1109</ele>
        <time>2021-08-20T17:37:01Z</time>
      </trkpt>
      <trkpt lat="42.92151" lon="0.78689">
        <ele>1110</ele>
        <time>2021-08-20T17:37:04Z</time>
      </trkpt>
      <trkpt lat="42.92152" lon="0.78695">
        <ele>1110</ele>
        <time>2021-08-20T17:37:05Z</time>
      </trkpt>
      <trkpt lat="42.9215" lon="0.78704">
        <ele>1106</ele>
        <time>2021-08-20T17:37:06Z</time>
      </trkpt>
      <trkpt lat="42.92147" lon="0.78705">
        <ele>1104</ele>
        <time>2021-08-20T17:37:07Z</time>
      </trkpt>
      <trkpt lat="42.92144" lon="0.78704">
        <ele>1102</ele>
        <time>2021-08-20T17:37:07Z</time>
      </trkpt>
      <trkpt lat="42.9214" lon="0.78699">
        <ele>1100</ele>
        <time>2021-08-20T17:37:08Z</time>
      </trkpt>
      <trkpt lat="42.92134" lon="0.78666">
        <ele>1102</ele>
        <time>2021-08-20T17:37:13Z</time>
      </trkpt>
      <trkpt lat="42.92116" lon="0.78615">
        <ele>1100</ele>
        <time>2021-08-20T17:37:20Z</time>
      </trkpt>
      <trkpt lat="42.92109" lon="0.78601">
        <ele>1098</ele>
        <time>2021-08-20T17:37:22Z</time>
      </trkpt>
      <trkpt lat="42.92104" lon="0.78594">
        <ele>1096</ele>
        <time>2021-08-20T17:37:24Z</time>
      </trkpt>
      <trkpt lat="42.92074" lon="0.78568">
        <ele>1086</ele>
        <time>2021-08-20T17:37:30Z</time>
      </trkpt>
      <trkpt lat="42.9206" lon="0.78543">
        <ele>1087</ele>
        <time>2021-08-20T17:37:34Z</time>
      </trkpt>
      <trkpt lat="42.92056" lon="0.78527">
        <ele>1089</ele>
        <time>2021-08-20T17:37:36Z</time>
      </trkpt>
      <trkpt lat="42.92052" lon="0.78523">
        <ele>1088</ele>
        <time>2021-08-20T17:37:37Z</time>
      </trkpt>
      <trkpt lat="42.92049" lon="0.78523">
        <ele>1087</ele>
        <time>2021-08-20T17:37:38Z</time>
      </trkpt>
      <trkpt lat="42.92047" lon="0.78525">
        <ele>1086</ele>
        <time>2021-08-20T17:37:38Z</time>
      </trkpt>
      <trkpt lat="42.92045" lon="0.78528">
        <ele>1085</ele>
        <time>2021-08-20T17:37:39Z</time>
      </trkpt>
      <trkpt lat="42.92044" lon="0.78531">
        <ele>1084</ele>
        <time>2021-08-20T17:37:39Z</time>
      </trkpt>
      <trkpt lat="42.92053" lon="0.78554">
        <ele>1082</ele>
        <time>2021-08-20T17:37:42Z</time>
      </trkpt>
      <trkpt lat="42.92095" lon="0.78635">
        <ele>1081</ele>
        <time>2021-08-20T17:37:55Z</time>
      </trkpt>
      <trkpt lat="42.921" lon="0.78663">
        <ele>1078</ele>
        <time>2021-08-20T17:37:59Z</time>
      </trkpt>
      <trkpt lat="42.92113" lon="0.78766">
        <ele>1069</ele>
        <time>2021-08-20T17:38:13Z</time>
      </trkpt>
      <trkpt lat="42.92122" lon="0.78803">
        <ele>1070</ele>
        <time>2021-08-20T17:38:18Z</time>
      </trkpt>
      <trkpt lat="42.92125" lon="0.78817">
        <ele>1070</ele>
        <time>2021-08-20T17:38:20Z</time>
      </trkpt>
      <trkpt lat="42.92136" lon="0.78883">
        <ele>1066</ele>
        <time>2021-08-20T17:38:29Z</time>
      </trkpt>
      <trkpt lat="42.92139" lon="0.78915">
        <ele>1061</ele>
        <time>2021-08-20T17:38:33Z</time>
      </trkpt>
      <trkpt lat="42.92141" lon="0.78975">
        <ele>1053</ele>
        <time>2021-08-20T17:38:41Z</time>
      </trkpt>
      <trkpt lat="42.92147" lon="0.79018">
        <ele>1049</ele>
        <time>2021-08-20T17:38:46Z</time>
      </trkpt>
      <trkpt lat="42.92149" lon="0.79046">
        <ele>1044</ele>
        <time>2021-08-20T17:38:50Z</time>
      </trkpt>
      <trkpt lat="42.92151" lon="0.79055">
        <ele>1044</ele>
        <time>2021-08-20T17:38:51Z</time>
      </trkpt>
      <trkpt lat="42.92162" lon="0.79075">
        <ele>1047</ele>
        <time>2021-08-20T17:38:54Z</time>
      </trkpt>
      <trkpt lat="42.92164" lon="0.79081">
        <ele>1047</ele>
        <time>2021-08-20T17:38:55Z</time>
      </trkpt>
      <trkpt lat="42.9216" lon="0.79089">
        <ele>1043</ele>
        <time>2021-08-20T17:38:57Z</time>
      </trkpt>
      <trkpt lat="42.92153" lon="0.7909">
        <ele>1038</ele>
        <time>2021-08-20T17:38:58Z</time>
      </trkpt>
      <trkpt lat="42.9215" lon="0.79087">
        <ele>1037</ele>
        <time>2021-08-20T17:38:58Z</time>
      </trkpt>
      <trkpt lat="42.92113" lon="0.78988">
        <ele>1033</ele>
        <time>2021-08-20T17:39:13Z</time>
      </trkpt>
      <trkpt lat="42.92109" lon="0.78968">
        <ele>1033</ele>
        <time>2021-08-20T17:39:16Z</time>
      </trkpt>
      <trkpt lat="42.92107" lon="0.78938">
        <ele>1036</ele>
        <time>2021-08-20T17:39:20Z</time>
      </trkpt>
      <trkpt lat="42.92102" lon="0.7892">
        <ele>1035</ele>
        <time>2021-08-20T17:39:22Z</time>
      </trkpt>
      <trkpt lat="42.92097" lon="0.78913">
        <ele>1033</ele>
        <time>2021-08-20T17:39:23Z</time>
      </trkpt>
      <trkpt lat="42.92076" lon="0.78897">
        <ele>1024</ele>
        <time>2021-08-20T17:39:28Z</time>
      </trkpt>
      <trkpt lat="42.92066" lon="0.78885">
        <ele>1023</ele>
        <time>2021-08-20T17:39:30Z</time>
      </trkpt>
      <trkpt lat="42.92063" lon="0.78877">
        <ele>1023</ele>
        <time>2021-08-20T17:39:31Z</time>
      </trkpt>
      <trkpt lat="42.92062" lon="0.78867">
        <ele>1025</ele>
        <time>2021-08-20T17:39:32Z</time>
      </trkpt>
      <trkpt lat="42.92063" lon="0.7885">
        <ele>1027</ele>
        <time>2021-08-20T17:39:35Z</time>
      </trkpt>
      <trkpt lat="42.92061" lon="0.7884">
        <ele>1028</ele>
        <time>2021-08-20T17:39:36Z</time>
      </trkpt>
      <trkpt lat="42.92058" lon="0.78837">
        <ele>1028</ele>
        <time>2021-08-20T17:39:37Z</time>
      </trkpt>
      <trkpt lat="42.92055" lon="0.78838">
        <ele>1027</ele>
        <time>2021-08-20T17:39:37Z</time>
      </trkpt>
      <trkpt lat="42.9205" lon="0.78842">
        <ele>1025</ele>
        <time>2021-08-20T17:39:38Z</time>
      </trkpt>
      <trkpt lat="42.92036" lon="0.78884">
        <ele>1015</ele>
        <time>2021-08-20T17:39:44Z</time>
      </trkpt>
      <trkpt lat="42.92034" lon="0.78895">
        <ele>1012</ele>
        <time>2021-08-20T17:39:46Z</time>
      </trkpt>
      <trkpt lat="42.92035" lon="0.78903">
        <ele>1012</ele>
        <time>2021-08-20T17:39:47Z</time>
      </trkpt>
      <trkpt lat="42.92043" lon="0.78934">
        <ele>1009</ele>
        <time>2021-08-20T17:39:51Z</time>
      </trkpt>
      <trkpt lat="42.92104" lon="0.79109">
        <ele>1004</ele>
        <time>2021-08-20T17:40:16Z</time>
      </trkpt>
      <trkpt lat="42.92109" lon="0.79143">
        <ele>1000</ele>
        <time>2021-08-20T17:40:21Z</time>
      </trkpt>
      <trkpt lat="42.92114" lon="0.79224">
        <ele>984</ele>
        <time>2021-08-20T17:40:31Z</time>
      </trkpt>
      <trkpt lat="42.9212" lon="0.79271">
        <ele>977</ele>
        <time>2021-08-20T17:40:38Z</time>
      </trkpt>
      <trkpt lat="42.9214" lon="0.79309">
        <ele>978</ele>
        <time>2021-08-20T17:40:44Z</time>
      </trkpt>
      <trkpt lat="42.92149" lon="0.79334">
        <ele>976</ele>
        <time>2021-08-20T17:40:47Z</time>
      </trkpt>
      <trkpt lat="42.92163" lon="0.79407">
        <ele>970</ele>
        <time>2021-08-20T17:40:57Z</time>
      </trkpt>
      <trkpt lat="42.92172" lon="0.79431">
        <ele>970</ele>
        <time>2021-08-20T17:41:01Z</time>
      </trkpt>
      <trkpt lat="42.92194" lon="0.79465">
        <ele>976</ele>
        <time>2021-08-20T17:41:07Z</time>
      </trkpt>
      <trkpt lat="42.92201" lon="0.79482">
        <ele>976</ele>
        <time>2021-08-20T17:41:09Z</time>
      </trkpt>
      <trkpt lat="42.92207" lon="0.79504">
        <ele>976</ele>
        <time>2021-08-20T17:41:12Z</time>
      </trkpt>
      <trkpt lat="42.92219" lon="0.7958">
        <ele>971</ele>
        <time>2021-08-20T17:41:22Z</time>
      </trkpt>
      <trkpt lat="42.92222" lon="0.79609">
        <ele>968</ele>
        <time>2021-08-20T17:41:26Z</time>
      </trkpt>
      <trkpt lat="42.92224" lon="0.79648">
        <ele>964</ele>
        <time>2021-08-20T17:41:31Z</time>
      </trkpt>
      <trkpt lat="42.92228" lon="0.79682">
        <ele>960</ele>
        <time>2021-08-20T17:41:36Z</time>
      </trkpt>
      <trkpt lat="42.92236" lon="0.7972">
        <ele>954</ele>
        <time>2021-08-20T17:41:41Z</time>
      </trkpt>
      <trkpt lat="42.92244" lon="0.79745">
        <ele>952</ele>
        <time>2021-08-20T17:41:45Z</time>
      </trkpt>
      <trkpt lat="42.92313" lon="0.79903">
        <ele>942</ele>
        <time>2021-08-20T17:42:08Z</time>
      </trkpt>
      <trkpt lat="42.92354" lon="0.79977">
        <ele>937</ele>
        <time>2021-08-20T17:42:21Z</time>
      </trkpt>
      <trkpt lat="42.92395" lon="0.80075">
        <ele>926</ele>
        <time>2021-08-20T17:42:35Z</time>
      </trkpt>
      <trkpt lat="42.92411" lon="0.80102">
        <ele>923</ele>
        <time>2021-08-20T17:42:40Z</time>
      </trkpt>
      <trkpt lat="42.9243" lon="0.80121">
        <ele>920</ele>
        <time>2021-08-20T17:42:44Z</time>
      </trkpt>
      <trkpt lat="42.92433" lon="0.80126">
        <ele>918</ele>
        <time>2021-08-20T17:42:45Z</time>
      </trkpt>
      <trkpt lat="42.9243" lon="0.80134">
        <ele>914</ele>
        <time>2021-08-20T17:42:46Z</time>
      </trkpt>
      <trkpt lat="42.92426" lon="0.80134">
        <ele>914</ele>
        <time>2021-08-20T17:42:47Z</time>
      </trkpt>
      <trkpt lat="42.9242" lon="0.80131">
        <ele>914</ele>
        <time>2021-08-20T17:42:48Z</time>
      </trkpt>
      <trkpt lat="42.92415" lon="0.80124">
        <ele>916</ele>
        <time>2021-08-20T17:42:49Z</time>
      </trkpt>
      <trkpt lat="42.92351" lon="0.80068">
        <ele>909</ele>
        <time>2021-08-20T17:43:03Z</time>
      </trkpt>
      <trkpt lat="42.92336" lon="0.80051">
        <ele>907</ele>
        <time>2021-08-20T17:43:06Z</time>
      </trkpt>
      <trkpt lat="42.92308" lon="0.80014">
        <ele>906</ele>
        <time>2021-08-20T17:43:13Z</time>
      </trkpt>
      <trkpt lat="42.92289" lon="0.79996">
        <ele>904</ele>
        <time>2021-08-20T17:43:17Z</time>
      </trkpt>
      <trkpt lat="42.92269" lon="0.79982">
        <ele>900</ele>
        <time>2021-08-20T17:43:21Z</time>
      </trkpt>
      <trkpt lat="42.92257" lon="0.79969">
        <ele>898</ele>
        <time>2021-08-20T17:43:24Z</time>
      </trkpt>
      <trkpt lat="42.92247" lon="0.79953">
        <ele>898</ele>
        <time>2021-08-20T17:43:27Z</time>
      </trkpt>
      <trkpt lat="42.92237" lon="0.79928">
        <ele>900</ele>
        <time>2021-08-20T17:43:30Z</time>
      </trkpt>
      <trkpt lat="42.92228" lon="0.79926">
        <ele>897</ele>
        <time>2021-08-20T17:43:32Z</time>
      </trkpt>
      <trkpt lat="42.92223" lon="0.79934">
        <ele>893</ele>
        <time>2021-08-20T17:43:33Z</time>
      </trkpt>
      <trkpt lat="42.92226" lon="0.79948">
        <ele>891</ele>
        <time>2021-08-20T17:43:35Z</time>
      </trkpt>
      <trkpt lat="42.92251" lon="0.80011">
        <ele>887</ele>
        <time>2021-08-20T17:43:45Z</time>
      </trkpt>
      <trkpt lat="42.92303" lon="0.80147">
        <ele>876</ele>
        <time>2021-08-20T17:44:05Z</time>
      </trkpt>
      <trkpt lat="42.92307" lon="0.80165">
        <ele>873</ele>
        <time>2021-08-20T17:44:07Z</time>
      </trkpt>
      <trkpt lat="42.92313" lon="0.80214">
        <ele>863</ele>
        <time>2021-08-20T17:44:13Z</time>
      </trkpt>
      <trkpt lat="42.92316" lon="0.80226">
        <ele>861</ele>
        <time>2021-08-20T17:44:15Z</time>
      </trkpt>
      <trkpt lat="42.92322" lon="0.80235">
        <ele>861</ele>
        <time>2021-08-20T17:44:17Z</time>
      </trkpt>
      <trkpt lat="42.92332" lon="0.80243">
        <ele>861</ele>
        <time>2021-08-20T17:44:19Z</time>
      </trkpt>
      <trkpt lat="42.92347" lon="0.80248">
        <ele>861</ele>
        <time>2021-08-20T17:44:22Z</time>
      </trkpt>
      <trkpt lat="42.92388" lon="0.8026">
        <ele>859</ele>
        <time>2021-08-20T17:44:29Z</time>
      </trkpt>
      <trkpt lat="42.92407" lon="0.80257">
        <ele>861</ele>
        <time>2021-08-20T17:44:32Z</time>
      </trkpt>
      <trkpt lat="42.92412" lon="0.80259">
        <ele>861</ele>
        <time>2021-08-20T17:44:33Z</time>
      </trkpt>
      <trkpt lat="42.92414" lon="0.80264">
        <ele>858</ele>
        <time>2021-08-20T17:44:34Z</time>
      </trkpt>
      <trkpt lat="42.92413" lon="0.80271">
        <ele>855</ele>
        <time>2021-08-20T17:44:35Z</time>
      </trkpt>
      <trkpt lat="42.92407" lon="0.80273">
        <ele>854</ele>
        <time>2021-08-20T17:44:36Z</time>
      </trkpt>
      <trkpt lat="42.92355" lon="0.80279">
        <ele>852</ele>
        <time>2021-08-20T17:44:45Z</time>
      </trkpt>
      <trkpt lat="42.92336" lon="0.80286">
        <ele>850</ele>
        <time>2021-08-20T17:44:49Z</time>
      </trkpt>
      <trkpt lat="42.92295" lon="0.80288">
        <ele>842</ele>
        <time>2021-08-20T17:44:56Z</time>
      </trkpt>
      <trkpt lat="42.92269" lon="0.80302">
        <ele>833</ele>
        <time>2021-08-20T17:45:01Z</time>
      </trkpt>
      <trkpt lat="42.9226" lon="0.80301">
        <ele>831</ele>
        <time>2021-08-20T17:45:03Z</time>
      </trkpt>
      <trkpt lat="42.92253" lon="0.80293">
        <ele>832</ele>
        <time>2021-08-20T17:45:04Z</time>
      </trkpt>
      <trkpt lat="42.92238" lon="0.8026">
        <ele>836</ele>
        <time>2021-08-20T17:45:09Z</time>
      </trkpt>
      <trkpt lat="42.92226" lon="0.80241">
        <ele>837</ele>
        <time>2021-08-20T17:45:13Z</time>
      </trkpt>
      <trkpt lat="42.9219" lon="0.80216">
        <ele>834</ele>
        <time>2021-08-20T17:45:20Z</time>
      </trkpt>
      <trkpt lat="42.92183" lon="0.80215">
        <ele>832</ele>
        <time>2021-08-20T17:45:21Z</time>
      </trkpt>
      <trkpt lat="42.9218" lon="0.80221">
        <ele>830</ele>
        <time>2021-08-20T17:45:22Z</time>
      </trkpt>
      <trkpt lat="42.92182" lon="0.80227">
        <ele>829</ele>
        <time>2021-08-20T17:45:23Z</time>
      </trkpt>
      <trkpt lat="42.92198" lon="0.80244">
        <ele>829</ele>
        <time>2021-08-20T17:45:27Z</time>
      </trkpt>
      <trkpt lat="42.92204" lon="0.8026">
        <ele>827</ele>
        <time>2021-08-20T17:45:29Z</time>
      </trkpt>
      <trkpt lat="42.92206" lon="0.80273">
        <ele>825</ele>
        <time>2021-08-20T17:45:31Z</time>
      </trkpt>
      <trkpt lat="42.92213" lon="0.80291">
        <ele>824</ele>
        <time>2021-08-20T17:45:33Z</time>
      </trkpt>
      <trkpt lat="42.92219" lon="0.80301">
        <ele>823</ele>
        <time>2021-08-20T17:45:35Z</time>
      </trkpt>
      <trkpt lat="42.92227" lon="0.8031">
        <ele>823</ele>
        <time>2021-08-20T17:45:37Z</time>
      </trkpt>
      <trkpt lat="42.92239" lon="0.80338">
        <ele>819</ele>
        <time>2021-08-20T17:45:41Z</time>
      </trkpt>
      <trkpt lat="42.92248" lon="0.80354">
        <ele>815</ele>
        <time>2021-08-20T17:45:44Z</time>
      </trkpt>
      <trkpt lat="42.9226" lon="0.8037">
        <ele>811</ele>
        <time>2021-08-20T17:45:47Z</time>
      </trkpt>
      <trkpt lat="42.92278" lon="0.80385">
        <ele>808</ele>
        <time>2021-08-20T17:45:50Z</time>
      </trkpt>
      <trkpt lat="42.92278" lon="0.80391">
        <ele>806</ele>
        <time>2021-08-20T17:45:51Z</time>
      </trkpt>
      <trkpt lat="42.92276" lon="0.80395">
        <ele>804</ele>
        <time>2021-08-20T17:45:52Z</time>
      </trkpt>
      <trkpt lat="42.9227" lon="0.80395">
        <ele>803</ele>
        <time>2021-08-20T17:45:53Z</time>
      </trkpt>
      <trkpt lat="42.92232" lon="0.80357">
        <ele>812</ele>
        <time>2021-08-20T17:46:01Z</time>
      </trkpt>
      <trkpt lat="42.92222" lon="0.80345">
        <ele>814</ele>
        <time>2021-08-20T17:46:04Z</time>
      </trkpt>
      <trkpt lat="42.92213" lon="0.80328">
        <ele>817</ele>
        <time>2021-08-20T17:46:06Z</time>
      </trkpt>
      <trkpt lat="42.92205" lon="0.8032">
        <ele>817</ele>
        <time>2021-08-20T17:46:08Z</time>
      </trkpt>
      <trkpt lat="42.9218" lon="0.80305">
        <ele>815</ele>
        <time>2021-08-20T17:46:13Z</time>
      </trkpt>
      <trkpt lat="42.92172" lon="0.80305">
        <ele>813</ele>
        <time>2021-08-20T17:46:14Z</time>
      </trkpt>
      <trkpt lat="42.92165" lon="0.8031">
        <ele>812</ele>
        <time>2021-08-20T17:46:16Z</time>
      </trkpt>
      <trkpt lat="42.92161" lon="0.80315">
        <ele>813</ele>
        <time>2021-08-20T17:46:17Z</time>
      </trkpt>
      <trkpt lat="42.92159" lon="0.80323">
        <ele>812</ele>
        <time>2021-08-20T17:46:18Z</time>
      </trkpt>
      <trkpt lat="42.92158" lon="0.80339">
        <ele>809</ele>
        <time>2021-08-20T17:46:20Z</time>
      </trkpt>
      <trkpt lat="42.92163" lon="0.80358">
        <ele>804</ele>
        <time>2021-08-20T17:46:23Z</time>
      </trkpt>
      <trkpt lat="42.92173" lon="0.8038">
        <ele>798</ele>
        <time>2021-08-20T17:46:26Z</time>
      </trkpt>
      <trkpt lat="42.92174" lon="0.80391">
        <ele>796</ele>
        <time>2021-08-20T17:46:27Z</time>
      </trkpt>
      <trkpt lat="42.92168" lon="0.804">
        <ele>793</ele>
        <time>2021-08-20T17:46:29Z</time>
      </trkpt>
      <trkpt lat="42.92155" lon="0.80403">
        <ele>793</ele>
        <time>2021-08-20T17:46:31Z</time>
      </trkpt>
      <trkpt lat="42.92131" lon="0.80388">
        <ele>800</ele>
        <time>2021-08-20T17:46:36Z</time>
      </trkpt>
      <trkpt lat="42.92121" lon="0.80388">
        <ele>801</ele>
        <time>2021-08-20T17:46:38Z</time>
      </trkpt>
      <trkpt lat="42.92106" lon="0.80398">
        <ele>800</ele>
        <time>2021-08-20T17:46:41Z</time>
      </trkpt>
      <trkpt lat="42.92092" lon="0.80412">
        <ele>796</ele>
        <time>2021-08-20T17:46:44Z</time>
      </trkpt>
      <trkpt lat="42.92086" lon="0.80423">
        <ele>795</ele>
        <time>2021-08-20T17:46:46Z</time>
      </trkpt>
      <trkpt lat="42.92087" lon="0.80435">
        <ele>794</ele>
        <time>2021-08-20T17:46:47Z</time>
      </trkpt>
      <trkpt lat="42.92104" lon="0.80473">
        <ele>791</ele>
        <time>2021-08-20T17:46:53Z</time>
      </trkpt>
      <trkpt lat="42.92109" lon="0.80484">
        <ele>790</ele>
        <time>2021-08-20T17:46:55Z</time>
      </trkpt>
      <trkpt lat="42.92116" lon="0.80496">
        <ele>789</ele>
        <time>2021-08-20T17:46:57Z</time>
      </trkpt>
      <trkpt lat="42.92147" lon="0.80556">
        <ele>802</ele>
        <time>2021-08-20T17:47:06Z</time>
      </trkpt>
      <trkpt lat="42.92184" lon="0.80587">
        <ele>802</ele>
        <time>2021-08-20T17:47:14Z</time>
      </trkpt>
      <trkpt lat="42.92221" lon="0.80611">
        <ele>804</ele>
        <time>2021-08-20T17:47:21Z</time>
      </trkpt>
      <trkpt lat="42.92232" lon="0.80617">
        <ele>803</ele>
        <time>2021-08-20T17:47:23Z</time>
      </trkpt>
      <trkpt lat="42.92266" lon="0.80627">
        <ele>803</ele>
        <time>2021-08-20T17:47:30Z</time>
      </trkpt>
      <trkpt lat="42.92285" lon="0.80625">
        <ele>804</ele>
        <time>2021-08-20T17:47:33Z</time>
      </trkpt>
      <trkpt lat="42.92313" lon="0.80614">
        <ele>803</ele>
        <time>2021-08-20T17:47:38Z</time>
      </trkpt>
      <trkpt lat="42.92345" lon="0.80606">
        <ele>807</ele>
        <time>2021-08-20T17:47:44Z</time>
      </trkpt>
      <trkpt lat="42.92383" lon="0.80592">
        <ele>818</ele>
        <time>2021-08-20T17:47:51Z</time>
      </trkpt>
      <trkpt lat="42.92406" lon="0.80527">
        <ele>806</ele>
        <time>2021-08-20T17:48:00Z</time>
      </trkpt>
      <trkpt lat="42.9242" lon="0.80505">
        <ele>802</ele>
        <time>2021-08-20T17:48:04Z</time>
      </trkpt>
      <trkpt lat="42.92441" lon="0.80499">
        <ele>803</ele>
        <time>2021-08-20T17:48:08Z</time>
      </trkpt>
      <trkpt lat="42.9246" lon="0.80506">
        <ele>808</ele>
        <time>2021-08-20T17:48:12Z</time>
      </trkpt>
      <trkpt lat="42.92486" lon="0.80506">
        <ele>811</ele>
        <time>2021-08-20T17:48:16Z</time>
      </trkpt>
      <trkpt lat="42.92503" lon="0.80503">
        <ele>811</ele>
        <time>2021-08-20T17:48:19Z</time>
      </trkpt>
      <trkpt lat="42.9252" lon="0.80507">
        <ele>808</ele>
        <time>2021-08-20T17:48:22Z</time>
      </trkpt>
      <trkpt lat="42.92529" lon="0.80522">
        <ele>812</ele>
        <time>2021-08-20T17:48:25Z</time>
      </trkpt>
      <trkpt lat="42.92584" lon="0.80585">
        <ele>820</ele>
        <time>2021-08-20T17:48:38Z</time>
      </trkpt>
      <trkpt lat="42.92626" lon="0.80646">
        <ele>814</ele>
        <time>2021-08-20T17:48:48Z</time>
      </trkpt>
      <trkpt lat="42.92631" lon="0.80649">
        <ele>811</ele>
        <time>2021-08-20T17:48:49Z</time>
      </trkpt>
      <trkpt lat="42.92645" lon="0.80673">
        <ele>808</ele>
        <time>2021-08-20T17:48:53Z</time>
      </trkpt>
      <trkpt lat="42.92666" lon="0.80722">
        <ele>802</ele>
        <time>2021-08-20T17:49:01Z</time>
      </trkpt>
      <trkpt lat="42.92676" lon="0.8074">
        <ele>801</ele>
        <time>2021-08-20T17:49:04Z</time>
      </trkpt>
      <trkpt lat="42.92694" lon="0.80752">
        <ele>799</ele>
        <time>2021-08-20T17:49:07Z</time>
      </trkpt>
      <trkpt lat="42.92724" lon="0.80753">
        <ele>792</ele>
        <time>2021-08-20T17:49:13Z</time>
      </trkpt>
      <trkpt lat="42.92731" lon="0.80758">
        <ele>791</ele>
        <time>2021-08-20T17:49:14Z</time>
      </trkpt>
      <trkpt lat="42.92742" lon="0.80779">
        <ele>793</ele>
        <time>2021-08-20T17:49:17Z</time>
      </trkpt>
      <trkpt lat="42.92754" lon="0.80795">
        <ele>794</ele>
        <time>2021-08-20T17:49:20Z</time>
      </trkpt>
      <trkpt lat="42.9277" lon="0.80802">
        <ele>797</ele>
        <time>2021-08-20T17:49:23Z</time>
      </trkpt>
      <trkpt lat="42.92776" lon="0.80796">
        <ele>796</ele>
        <time>2021-08-20T17:49:25Z</time>
      </trkpt>
      <trkpt lat="42.92788" lon="0.80776">
        <ele>792</ele>
        <time>2021-08-20T17:49:28Z</time>
      </trkpt>
      <trkpt lat="42.92791" lon="0.80765">
        <ele>790</ele>
        <time>2021-08-20T17:49:30Z</time>
      </trkpt>
      <trkpt lat="42.92806" lon="0.80742">
        <ele>785</ele>
        <time>2021-08-20T17:49:34Z</time>
      </trkpt>
      <trkpt lat="42.92822" lon="0.80722">
        <ele>780</ele>
        <time>2021-08-20T17:49:38Z</time>
      </trkpt>
      <trkpt lat="42.92846" lon="0.80679">
        <ele>765</ele>
        <time>2021-08-20T17:49:45Z</time>
      </trkpt>
      <trkpt lat="42.92855" lon="0.80666">
        <ele>761</ele>
        <time>2021-08-20T17:49:47Z</time>
      </trkpt>
      <trkpt lat="42.92873" lon="0.80648">
        <ele>756</ele>
        <time>2021-08-20T17:49:51Z</time>
      </trkpt>
      <trkpt lat="42.92878" lon="0.80648">
        <ele>756</ele>
        <time>2021-08-20T17:49:52Z</time>
      </trkpt>
      <trkpt lat="42.92889" lon="0.80655">
        <ele>758</ele>
        <time>2021-08-20T17:49:54Z</time>
      </trkpt>
      <trkpt lat="42.92898" lon="0.80665">
        <ele>761</ele>
        <time>2021-08-20T17:49:56Z</time>
      </trkpt>
      <trkpt lat="42.92923" lon="0.80687">
        <ele>767</ele>
        <time>2021-08-20T17:50:01Z</time>
      </trkpt>
      <trkpt lat="42.92958" lon="0.80701">
        <ele>766</ele>
        <time>2021-08-20T17:50:08Z</time>
      </trkpt>
      <trkpt lat="42.92977" lon="0.807">
        <ele>762</ele>
        <time>2021-08-20T17:50:11Z</time>
      </trkpt>
      <trkpt lat="42.92996" lon="0.80689">
        <ele>754</ele>
        <time>2021-08-20T17:50:15Z</time>
      </trkpt>
      <trkpt lat="42.93011" lon="0.80685">
        <ele>750</ele>
        <time>2021-08-20T17:50:18Z</time>
      </trkpt>
      <trkpt lat="42.9304" lon="0.80702">
        <ele>750</ele>
        <time>2021-08-20T17:50:23Z</time>
      </trkpt>
      <trkpt lat="42.93042" lon="0.80707">
        <ele>751</ele>
        <time>2021-08-20T17:50:24Z</time>
      </trkpt>
      <trkpt lat="42.93056" lon="0.80721">
        <ele>752</ele>
        <time>2021-08-20T17:50:27Z</time>
      </trkpt>
      <trkpt lat="42.93095" lon="0.80728">
        <ele>744</ele>
        <time>2021-08-20T17:50:34Z</time>
      </trkpt>
      <trkpt lat="42.93125" lon="0.80738">
        <ele>739</ele>
        <time>2021-08-20T17:50:39Z</time>
      </trkpt>
      <trkpt lat="42.93136" lon="0.80754">
        <ele>739</ele>
        <time>2021-08-20T17:50:42Z</time>
      </trkpt>
      <trkpt lat="42.93147" lon="0.80774">
        <ele>740</ele>
        <time>2021-08-20T17:50:46Z</time>
      </trkpt>
      <trkpt lat="42.93165" lon="0.80786">
        <ele>737</ele>
        <time>2021-08-20T17:50:49Z</time>
      </trkpt>
      <trkpt lat="42.9318" lon="0.80792">
        <ele>736</ele>
        <time>2021-08-20T17:50:52Z</time>
      </trkpt>
      <trkpt lat="42.932" lon="0.80811">
        <ele>737</ele>
        <time>2021-08-20T17:50:56Z</time>
      </trkpt>
      <trkpt lat="42.93204" lon="0.80819">
        <ele>738</ele>
        <time>2021-08-20T17:50:58Z</time>
      </trkpt>
      <trkpt lat="42.93208" lon="0.80843">
        <ele>742</ele>
        <time>2021-08-20T17:51:01Z</time>
      </trkpt>
      <trkpt lat="42.93216" lon="0.80872">
        <ele>744</ele>
        <time>2021-08-20T17:51:05Z</time>
      </trkpt>
      <trkpt lat="42.93222" lon="0.8088">
        <ele>744</ele>
        <time>2021-08-20T17:51:06Z</time>
      </trkpt>
      <trkpt lat="42.93228" lon="0.80885">
        <ele>743</ele>
        <time>2021-08-20T17:51:08Z</time>
      </trkpt>
      <trkpt lat="42.93236" lon="0.80881">
        <ele>741</ele>
        <time>2021-08-20T17:51:09Z</time>
      </trkpt>
      <trkpt lat="42.93239" lon="0.8087">
        <ele>740</ele>
        <time>2021-08-20T17:51:11Z</time>
      </trkpt>
      <trkpt lat="42.93228" lon="0.80798">
        <ele>731</ele>
        <time>2021-08-20T17:51:20Z</time>
      </trkpt>
      <trkpt lat="42.93232" lon="0.80735">
        <ele>719</ele>
        <time>2021-08-20T17:51:28Z</time>
      </trkpt>
      <trkpt lat="42.93238" lon="0.8071">
        <ele>716</ele>
        <time>2021-08-20T17:51:32Z</time>
      </trkpt>
      <trkpt lat="42.93246" lon="0.80701">
        <ele>714</ele>
        <time>2021-08-20T17:51:34Z</time>
      </trkpt>
      <trkpt lat="42.93256" lon="0.80698">
        <ele>713</ele>
        <time>2021-08-20T17:51:35Z</time>
      </trkpt>
      <trkpt lat="42.93272" lon="0.80712">
        <ele>716</ele>
        <time>2021-08-20T17:51:39Z</time>
      </trkpt>
      <trkpt lat="42.93307" lon="0.80733">
        <ele>723</ele>
        <time>2021-08-20T17:51:46Z</time>
      </trkpt>
      <trkpt lat="42.93317" lon="0.80733">
        <ele>724</ele>
        <time>2021-08-20T17:51:47Z</time>
      </trkpt>
      <trkpt lat="42.93341" lon="0.80717">
        <ele>724</ele>
        <time>2021-08-20T17:51:52Z</time>
      </trkpt>
      <trkpt lat="42.93354" lon="0.80697">
        <ele>721</ele>
        <time>2021-08-20T17:51:56Z</time>
      </trkpt>
      <trkpt lat="42.93368" lon="0.80645">
        <ele>714</ele>
        <time>2021-08-20T17:52:03Z</time>
      </trkpt>
      <trkpt lat="42.93386" lon="0.80594">
        <ele>711</ele>
        <time>2021-08-20T17:52:10Z</time>
      </trkpt>
      <trkpt lat="42.93405" lon="0.80586">
        <ele>707</ele>
        <time>2021-08-20T17:52:14Z</time>
      </trkpt>
      <trkpt lat="42.93445" lon="0.80613">
        <ele>707</ele>
        <time>2021-08-20T17:52:22Z</time>
      </trkpt>
      <trkpt lat="42.93507" lon="0.80644">
        <ele>701</ele>
        <time>2021-08-20T17:52:33Z</time>
      </trkpt>
      <trkpt lat="42.93551" lon="0.8063">
        <ele>706</ele>
        <time>2021-08-20T17:52:42Z</time>
      </trkpt>
      <trkpt lat="42.93568" lon="0.80616">
        <ele>707</ele>
        <time>2021-08-20T17:52:45Z</time>
      </trkpt>
      <trkpt lat="42.93591" lon="0.80609">
        <ele>708</ele>
        <time>2021-08-20T17:52:49Z</time>
      </trkpt>
      <trkpt lat="42.93644" lon="0.80621">
        <ele>712</ele>
        <time>2021-08-20T17:52:59Z</time>
      </trkpt>
      <trkpt lat="42.93681" lon="0.80695">
        <ele>720</ele>
        <time>2021-08-20T17:53:10Z</time>
      </trkpt>
      <trkpt lat="42.93704" lon="0.80734">
        <ele>724</ele>
        <time>2021-08-20T17:53:17Z</time>
      </trkpt>
      <trkpt lat="42.93744" lon="0.80748">
        <ele>707</ele>
        <time>2021-08-20T17:53:24Z</time>
      </trkpt>
      <trkpt lat="42.93801" lon="0.80737">
        <ele>694</ele>
        <time>2021-08-20T17:53:35Z</time>
      </trkpt>
      <trkpt lat="42.93818" lon="0.80748">
        <ele>690</ele>
        <time>2021-08-20T17:53:38Z</time>
      </trkpt>
      <trkpt lat="42.9383" lon="0.80794">
        <ele>695</ele>
        <time>2021-08-20T17:53:44Z</time>
      </trkpt>
      <trkpt lat="42.93837" lon="0.80835">
        <ele>701</ele>
        <time>2021-08-20T17:53:50Z</time>
      </trkpt>
      <trkpt lat="42.93855" lon="0.80877">
        <ele>710</ele>
        <time>2021-08-20T17:53:56Z</time>
      </trkpt>
      <trkpt lat="42.93886" lon="0.80916">
        <ele>702</ele>
        <time>2021-08-20T17:54:04Z</time>
      </trkpt>
      <trkpt lat="42.9392" lon="0.80919">
        <ele>681</ele>
        <time>2021-08-20T17:54:10Z</time>
      </trkpt>
      <trkpt lat="42.93937" lon="0.80938">
        <ele>684</ele>
        <time>2021-08-20T17:54:14Z</time>
      </trkpt>
      <trkpt lat="42.93941" lon="0.80967">
        <ele>691</ele>
        <time>2021-08-20T17:54:17Z</time>
      </trkpt>
      <trkpt lat="42.93941" lon="0.80993">
        <ele>697</ele>
        <time>2021-08-20T17:54:21Z</time>
      </trkpt>
      <trkpt lat="42.93946" lon="0.81034">
        <ele>712</ele>
        <time>2021-08-20T17:54:26Z</time>
      </trkpt>
      <trkpt lat="42.93962" lon="0.81065">
        <ele>716</ele>
        <time>2021-08-20T17:54:31Z</time>
      </trkpt>
      <trkpt lat="42.93982" lon="0.81076">
        <ele>708</ele>
        <time>2021-08-20T17:54:35Z</time>
      </trkpt>
      <trkpt lat="42.94001" lon="0.81084">
        <ele>698</ele>
        <time>2021-08-20T17:54:39Z</time>
      </trkpt>
      <trkpt lat="42.94073" lon="0.81087">
        <ele>683</ele>
        <time>2021-08-20T17:54:51Z</time>
      </trkpt>
      <trkpt lat="42.94131" lon="0.81111">
        <ele>686</ele>
        <time>2021-08-20T17:55:02Z</time>
      </trkpt>
      <trkpt lat="42.94143" lon="0.81114">
        <ele>686</ele>
        <time>2021-08-20T17:55:04Z</time>
      </trkpt>
      <trkpt lat="42.94159" lon="0.81108">
        <ele>681</ele>
        <time>2021-08-20T17:55:07Z</time>
      </trkpt>
      <trkpt lat="42.94175" lon="0.81098">
        <ele>676</ele>
        <time>2021-08-20T17:55:10Z</time>
      </trkpt>
      <trkpt lat="42.94184" lon="0.81098">
        <ele>675</ele>
        <time>2021-08-20T17:55:12Z</time>
      </trkpt>
      <trkpt lat="42.94195" lon="0.81102">
        <ele>676</ele>
        <time>2021-08-20T17:55:14Z</time>
      </trkpt>
      <trkpt lat="42.94205" lon="0.8111">
        <ele>678</ele>
        <time>2021-08-20T17:55:16Z</time>
      </trkpt>
      <trkpt lat="42.94225" lon="0.81132">
        <ele>683</ele>
        <time>2021-08-20T17:55:21Z</time>
      </trkpt>
      <trkpt lat="42.94236" lon="0.81141">
        <ele>684</ele>
        <time>2021-08-20T17:55:23Z</time>
      </trkpt>
      <trkpt lat="42.94267" lon="0.81155">
        <ele>683</ele>
        <time>2021-08-20T17:55:29Z</time>
      </trkpt>
      <trkpt lat="42.94298" lon="0.81171">
        <ele>680</ele>
        <time>2021-08-20T17:55:35Z</time>
      </trkpt>
      <trkpt lat="42.94376" lon="0.81201">
        <ele>671</ele>
        <time>2021-08-20T17:55:49Z</time>
      </trkpt>
      <trkpt lat="42.9439" lon="0.8121">
        <ele>670</ele>
        <time>2021-08-20T17:55:52Z</time>
      </trkpt>
      <trkpt lat="42.944" lon="0.81223">
        <ele>670</ele>
        <time>2021-08-20T17:55:54Z</time>
      </trkpt>
      <trkpt lat="42.94408" lon="0.81239">
        <ele>670</ele>
        <time>2021-08-20T17:55:57Z</time>
      </trkpt>
      <trkpt lat="42.94413" lon="0.81253">
        <ele>671</ele>
        <time>2021-08-20T17:55:59Z</time>
      </trkpt>
      <trkpt lat="42.94417" lon="0.81287">
        <ele>680</ele>
        <time>2021-08-20T17:56:03Z</time>
      </trkpt>
      <trkpt lat="42.94421" lon="0.81301">
        <ele>682</ele>
        <time>2021-08-20T17:56:05Z</time>
      </trkpt>
      <trkpt lat="42.94429" lon="0.81314">
        <ele>684</ele>
        <time>2021-08-20T17:56:07Z</time>
      </trkpt>
      <trkpt lat="42.94458" lon="0.81348">
        <ele>685</ele>
        <time>2021-08-20T17:56:14Z</time>
      </trkpt>
      <trkpt lat="42.94469" lon="0.81356">
        <ele>685</ele>
        <time>2021-08-20T17:56:16Z</time>
      </trkpt>
      <trkpt lat="42.94486" lon="0.81365">
        <ele>684</ele>
        <time>2021-08-20T17:56:20Z</time>
      </trkpt>
      <trkpt lat="42.94496" lon="0.81366">
        <ele>681</ele>
        <time>2021-08-20T17:56:22Z</time>
      </trkpt>
      <trkpt lat="42.94561" lon="0.81356">
        <ele>671</ele>
        <time>2021-08-20T17:56:33Z</time>
      </trkpt>
      <trkpt lat="42.94605" lon="0.8134">
        <ele>660</ele>
        <time>2021-08-20T17:56:41Z</time>
      </trkpt>
      <trkpt lat="42.94613" lon="0.8134">
        <ele>659</ele>
        <time>2021-08-20T17:56:43Z</time>
      </trkpt>
      <trkpt lat="42.94621" lon="0.81346">
        <ele>660</ele>
        <time>2021-08-20T17:56:44Z</time>
      </trkpt>
      <trkpt lat="42.94626" lon="0.81354">
        <ele>662</ele>
        <time>2021-08-20T17:56:46Z</time>
      </trkpt>
      <trkpt lat="42.94652" lon="0.81419">
        <ele>677</ele>
        <time>2021-08-20T17:56:55Z</time>
      </trkpt>
      <trkpt lat="42.94658" lon="0.81426">
        <ele>678</ele>
        <time>2021-08-20T17:56:57Z</time>
      </trkpt>
      <trkpt lat="42.94666" lon="0.81427">
        <ele>676</ele>
        <time>2021-08-20T17:56:58Z</time>
      </trkpt>
      <trkpt lat="42.94673" lon="0.81426">
        <ele>674</ele>
        <time>2021-08-20T17:56:59Z</time>
      </trkpt>
      <trkpt lat="42.94687" lon="0.81418">
        <ele>667</ele>
        <time>2021-08-20T17:57:02Z</time>
      </trkpt>
      <trkpt lat="42.94697" lon="0.81418">
        <ele>665</ele>
        <time>2021-08-20T17:57:04Z</time>
      </trkpt>
      <trkpt lat="42.9471" lon="0.81421">
        <ele>663</ele>
        <time>2021-08-20T17:57:06Z</time>
      </trkpt>
      <trkpt lat="42.94762" lon="0.81458">
        <ele>662</ele>
        <time>2021-08-20T17:57:17Z</time>
      </trkpt>
      <trkpt lat="42.94776" lon="0.81474">
        <ele>663</ele>
        <time>2021-08-20T17:57:20Z</time>
      </trkpt>
      <trkpt lat="42.9479" lon="0.81493">
        <ele>662</ele>
        <time>2021-08-20T17:57:23Z</time>
      </trkpt>
      <trkpt lat="42.94802" lon="0.81515">
        <ele>661</ele>
        <time>2021-08-20T17:57:27Z</time>
      </trkpt>
      <trkpt lat="42.94838" lon="0.81616">
        <ele>671</ele>
        <time>2021-08-20T17:57:42Z</time>
      </trkpt>
      <trkpt lat="42.94846" lon="0.81626">
        <ele>674</ele>
        <time>2021-08-20T17:57:44Z</time>
      </trkpt>
      <trkpt lat="42.94857" lon="0.81632">
        <ele>674</ele>
        <time>2021-08-20T17:57:46Z</time>
      </trkpt>
      <trkpt lat="42.94869" lon="0.8163">
        <ele>670</ele>
        <time>2021-08-20T17:57:48Z</time>
      </trkpt>
      <trkpt lat="42.94878" lon="0.81639">
        <ele>671</ele>
        <time>2021-08-20T17:57:50Z</time>
      </trkpt>
      <trkpt lat="42.94886" lon="0.81643">
        <ele>671</ele>
        <time>2021-08-20T17:57:51Z</time>
      </trkpt>
      <trkpt lat="42.94894" lon="0.81642">
        <ele>668</ele>
        <time>2021-08-20T17:57:53Z</time>
      </trkpt>
      <trkpt lat="42.94904" lon="0.81637">
        <ele>664</ele>
        <time>2021-08-20T17:57:55Z</time>
      </trkpt>
      <trkpt lat="42.94926" lon="0.81621">
        <ele>657</ele>
        <time>2021-08-20T17:57:59Z</time>
      </trkpt>
      <trkpt lat="42.94947" lon="0.81616">
        <ele>654</ele>
        <time>2021-08-20T17:58:03Z</time>
      </trkpt>
      <trkpt lat="42.94962" lon="0.8162">
        <ele>655</ele>
        <time>2021-08-20T17:58:06Z</time>
      </trkpt>
      <trkpt lat="42.94998" lon="0.81636">
        <ele>658</ele>
        <time>2021-08-20T17:58:12Z</time>
      </trkpt>
      <trkpt lat="42.95003" lon="0.8164">
        <ele>659</ele>
        <time>2021-08-20T17:58:13Z</time>
      </trkpt>
      <trkpt lat="42.95009" lon="0.81647">
        <ele>661</ele>
        <time>2021-08-20T17:58:15Z</time>
      </trkpt>
      <trkpt lat="42.95023" lon="0.81697">
        <ele>673</ele>
        <time>2021-08-20T17:58:22Z</time>
      </trkpt>
      <trkpt lat="42.95056" lon="0.818">
        <ele>685</ele>
        <time>2021-08-20T17:58:36Z</time>
      </trkpt>
      <trkpt lat="42.95056" lon="0.8182">
        <ele>687</ele>
        <time>2021-08-20T17:58:39Z</time>
      </trkpt>
      <trkpt lat="42.95052" lon="0.81828">
        <ele>688</ele>
        <time>2021-08-20T17:58:40Z</time>
      </trkpt>
      <trkpt lat="42.94996" lon="0.81871">
        <ele>700</ele>
        <time>2021-08-20T17:58:52Z</time>
      </trkpt>
      <trkpt lat="42.94984" lon="0.81874">
        <ele>702</ele>
        <time>2021-08-20T17:58:54Z</time>
      </trkpt>
      <trkpt lat="42.94952" lon="0.81874">
        <ele>709</ele>
        <time>2021-08-20T17:59:00Z</time>
      </trkpt>
      <trkpt lat="42.94933" lon="0.81876">
        <ele>713</ele>
        <time>2021-08-20T17:59:03Z</time>
      </trkpt>
      <trkpt lat="42.94906" lon="0.81897">
        <ele>718</ele>
        <time>2021-08-20T17:59:08Z</time>
      </trkpt>
      <trkpt lat="42.94877" lon="0.81915">
        <ele>731</ele>
        <time>2021-08-20T17:59:14Z</time>
      </trkpt>
      <trkpt lat="42.94864" lon="0.81943">
        <ele>736</ele>
        <time>2021-08-20T17:59:18Z</time>
      </trkpt>
      <trkpt lat="42.94856" lon="0.81968">
        <ele>739</ele>
        <time>2021-08-20T17:59:22Z</time>
      </trkpt>
      <trkpt lat="42.94855" lon="0.82071">
        <ele>741</ele>
        <time>2021-08-20T17:59:35Z</time>
      </trkpt>
      <trkpt lat="42.94859" lon="0.82158">
        <ele>747</ele>
        <time>2021-08-20T17:59:47Z</time>
      </trkpt>
      <trkpt lat="42.94857" lon="0.82251">
        <ele>753</ele>
        <time>2021-08-20T17:59:59Z</time>
      </trkpt>
      <trkpt lat="42.94865" lon="0.82276">
        <ele>753</ele>
        <time>2021-08-20T18:00:02Z</time>
      </trkpt>
      <trkpt lat="42.94866" lon="0.82285">
        <ele>754</ele>
        <time>2021-08-20T18:00:04Z</time>
      </trkpt>
      <trkpt lat="42.94859" lon="0.82296">
        <ele>754</ele>
        <time>2021-08-20T18:00:06Z</time>
      </trkpt>
      <trkpt lat="42.9484" lon="0.8231">
        <ele>754</ele>
        <time>2021-08-20T18:00:09Z</time>
      </trkpt>
      <trkpt lat="42.94831" lon="0.82319">
        <ele>754</ele>
        <time>2021-08-20T18:00:11Z</time>
      </trkpt>
      <trkpt lat="42.94823" lon="0.82336">
        <ele>758</ele>
        <time>2021-08-20T18:00:14Z</time>
      </trkpt>
      <trkpt lat="42.94799" lon="0.82406">
        <ele>767</ele>
        <time>2021-08-20T18:00:24Z</time>
      </trkpt>
      <trkpt lat="42.94794" lon="0.82416">
        <ele>767</ele>
        <time>2021-08-20T18:00:26Z</time>
      </trkpt>
      <trkpt lat="42.94787" lon="0.82425">
        <ele>770</ele>
        <time>2021-08-20T18:00:27Z</time>
      </trkpt>
      <trkpt lat="42.9477" lon="0.82436">
        <ele>772</ele>
        <time>2021-08-20T18:00:31Z</time>
      </trkpt>
      <trkpt lat="42.94757" lon="0.82447">
        <ele>773</ele>
        <time>2021-08-20T18:00:33Z</time>
      </trkpt>
      <trkpt lat="42.94717" lon="0.82502">
        <ele>786</ele>
        <time>2021-08-20T18:00:43Z</time>
      </trkpt>
      <trkpt lat="42.94697" lon="0.82539">
        <ele>794</ele>
        <time>2021-08-20T18:00:49Z</time>
      </trkpt>
      <trkpt lat="42.94691" lon="0.8256">
        <ele>794</ele>
        <time>2021-08-20T18:00:52Z</time>
      </trkpt>
      <trkpt lat="42.94681" lon="0.82588">
        <ele>792</ele>
        <time>2021-08-20T18:00:56Z</time>
      </trkpt>
      <trkpt lat="42.9467" lon="0.82608">
        <ele>794</ele>
        <time>2021-08-20T18:01:00Z</time>
      </trkpt>
      <trkpt lat="42.94657" lon="0.82632">
        <ele>799</ele>
        <time>2021-08-20T18:01:04Z</time>
      </trkpt>
      <trkpt lat="42.9464" lon="0.82667">
        <ele>805</ele>
        <time>2021-08-20T18:01:09Z</time>
      </trkpt>
      <trkpt lat="42.94631" lon="0.8269">
        <ele>810</ele>
        <time>2021-08-20T18:01:12Z</time>
      </trkpt>
      <trkpt lat="42.94623" lon="0.82699">
        <ele>813</ele>
        <time>2021-08-20T18:01:14Z</time>
      </trkpt>
      <trkpt lat="42.94614" lon="0.82703">
        <ele>814</ele>
        <time>2021-08-20T18:01:16Z</time>
      </trkpt>
      <trkpt lat="42.94603" lon="0.82718">
        <ele>815</ele>
        <time>2021-08-20T18:01:19Z</time>
      </trkpt>
      <trkpt lat="42.94598" lon="0.82776">
        <ele>815</ele>
        <time>2021-08-20T18:01:26Z</time>
      </trkpt>
      <trkpt lat="42.94594" lon="0.82795">
        <ele>815</ele>
        <time>2021-08-20T18:01:29Z</time>
      </trkpt>
      <trkpt lat="42.94577" lon="0.82834">
        <ele>817</ele>
        <time>2021-08-20T18:01:35Z</time>
      </trkpt>
      <trkpt lat="42.9457" lon="0.82855">
        <ele>822</ele>
        <time>2021-08-20T18:01:38Z</time>
      </trkpt>
      <trkpt lat="42.94568" lon="0.82873">
        <ele>824</ele>
        <time>2021-08-20T18:01:40Z</time>
      </trkpt>
      <trkpt lat="42.94568" lon="0.82899">
        <ele>825</ele>
        <time>2021-08-20T18:01:44Z</time>
      </trkpt>
      <trkpt lat="42.94571" lon="0.82925">
        <ele>825</ele>
        <time>2021-08-20T18:01:47Z</time>
      </trkpt>
      <trkpt lat="42.94568" lon="0.82942">
        <ele>827</ele>
        <time>2021-08-20T18:01:49Z</time>
      </trkpt>
      <trkpt lat="42.94546" lon="0.83005">
        <ele>837</ele>
        <time>2021-08-20T18:01:58Z</time>
      </trkpt>
      <trkpt lat="42.94534" lon="0.83051">
        <ele>839</ele>
        <time>2021-08-20T18:02:05Z</time>
      </trkpt>
      <trkpt lat="42.94533" lon="0.83075">
        <ele>838</ele>
        <time>2021-08-20T18:02:08Z</time>
      </trkpt>
      <trkpt lat="42.94534" lon="0.83092">
        <ele>838</ele>
        <time>2021-08-20T18:02:10Z</time>
      </trkpt>
      <trkpt lat="42.94533" lon="0.83102">
        <ele>839</ele>
        <time>2021-08-20T18:02:11Z</time>
      </trkpt>
      <trkpt lat="42.94529" lon="0.8311">
        <ele>840</ele>
        <time>2021-08-20T18:02:13Z</time>
      </trkpt>
      <trkpt lat="42.94506" lon="0.83139">
        <ele>837</ele>
        <time>2021-08-20T18:02:18Z</time>
      </trkpt>
      <trkpt lat="42.94472" lon="0.8319">
        <ele>846</ele>
        <time>2021-08-20T18:02:27Z</time>
      </trkpt>
      <trkpt lat="42.94437" lon="0.83225">
        <ele>848</ele>
        <time>2021-08-20T18:02:35Z</time>
      </trkpt>
      <trkpt lat="42.94429" lon="0.83236">
        <ele>846</ele>
        <time>2021-08-20T18:02:37Z</time>
      </trkpt>
      <trkpt lat="42.9442" lon="0.83255">
        <ele>844</ele>
        <time>2021-08-20T18:02:40Z</time>
      </trkpt>
      <trkpt lat="42.94413" lon="0.83277">
        <ele>848</ele>
        <time>2021-08-20T18:02:43Z</time>
      </trkpt>
      <trkpt lat="42.94392" lon="0.83319">
        <ele>862</ele>
        <time>2021-08-20T18:02:50Z</time>
      </trkpt>
      <trkpt lat="42.94367" lon="0.83378">
        <ele>871</ele>
        <time>2021-08-20T18:02:59Z</time>
      </trkpt>
      <trkpt lat="42.94348" lon="0.83434">
        <ele>869</ele>
        <time>2021-08-20T18:03:07Z</time>
      </trkpt>
      <trkpt lat="42.94337" lon="0.83447">
        <ele>866</ele>
        <time>2021-08-20T18:03:09Z</time>
      </trkpt>
      <trkpt lat="42.94315" lon="0.83467">
        <ele>871</ele>
        <time>2021-08-20T18:03:14Z</time>
      </trkpt>
      <trkpt lat="42.94296" lon="0.8348">
        <ele>876</ele>
        <time>2021-08-20T18:03:18Z</time>
      </trkpt>
      <trkpt lat="42.94236" lon="0.83513">
        <ele>889</ele>
        <time>2021-08-20T18:03:29Z</time>
      </trkpt>
      <trkpt lat="42.94199" lon="0.83519">
        <ele>898</ele>
        <time>2021-08-20T18:03:36Z</time>
      </trkpt>
      <trkpt lat="42.94189" lon="0.83518">
        <ele>900</ele>
        <time>2021-08-20T18:03:38Z</time>
      </trkpt>
      <trkpt lat="42.94178" lon="0.83514">
        <ele>903</ele>
        <time>2021-08-20T18:03:40Z</time>
      </trkpt>
      <trkpt lat="42.94158" lon="0.83502">
        <ele>906</ele>
        <time>2021-08-20T18:03:44Z</time>
      </trkpt>
      <trkpt lat="42.9415" lon="0.835">
        <ele>907</ele>
        <time>2021-08-20T18:03:45Z</time>
      </trkpt>
      <trkpt lat="42.94148" lon="0.835">
        <ele>907</ele>
        <time>2021-08-20T18:03:45Z</time>
      </trkpt>
      <trkpt lat="42.94144" lon="0.83506">
        <ele>908</ele>
        <time>2021-08-20T18:03:46Z</time>
      </trkpt>
      <trkpt lat="42.94144" lon="0.8351">
        <ele>909</ele>
        <time>2021-08-20T18:03:47Z</time>
      </trkpt>
      <trkpt lat="42.94148" lon="0.83518">
        <ele>909</ele>
        <time>2021-08-20T18:03:48Z</time>
      </trkpt>
      <trkpt lat="42.94172" lon="0.83548">
        <ele>905</ele>
        <time>2021-08-20T18:03:54Z</time>
      </trkpt>
      <trkpt lat="42.94182" lon="0.83554">
        <ele>904</ele>
        <time>2021-08-20T18:03:56Z</time>
      </trkpt>
      <trkpt lat="42.94206" lon="0.83565">
        <ele>900</ele>
        <time>2021-08-20T18:04:00Z</time>
      </trkpt>
      <trkpt lat="42.94224" lon="0.83571">
        <ele>898</ele>
        <time>2021-08-20T18:04:04Z</time>
      </trkpt>
      <trkpt lat="42.94238" lon="0.83573">
        <ele>896</ele>
        <time>2021-08-20T18:04:06Z</time>
      </trkpt>
      <trkpt lat="42.94272" lon="0.83573">
        <ele>891</ele>
        <time>2021-08-20T18:04:12Z</time>
      </trkpt>
      <trkpt lat="42.94278" lon="0.83577">
        <ele>890</ele>
        <time>2021-08-20T18:04:13Z</time>
      </trkpt>
      <trkpt lat="42.94282" lon="0.83586">
        <ele>891</ele>
        <time>2021-08-20T18:04:15Z</time>
      </trkpt>
      <trkpt lat="42.94284" lon="0.83595">
        <ele>894</ele>
        <time>2021-08-20T18:04:16Z</time>
      </trkpt>
      <trkpt lat="42.94287" lon="0.83663">
        <ele>912</ele>
        <time>2021-08-20T18:04:25Z</time>
      </trkpt>
      <trkpt lat="42.94292" lon="0.83692">
        <ele>917</ele>
        <time>2021-08-20T18:04:29Z</time>
      </trkpt>
      <trkpt lat="42.94294" lon="0.83704">
        <ele>919</ele>
        <time>2021-08-20T18:04:30Z</time>
      </trkpt>
      <trkpt lat="42.94329" lon="0.83787">
        <ele>913</ele>
        <time>2021-08-20T18:04:43Z</time>
      </trkpt>
      <trkpt lat="42.94333" lon="0.83803">
        <ele>912</ele>
        <time>2021-08-20T18:04:45Z</time>
      </trkpt>
      <trkpt lat="42.94335" lon="0.83826">
        <ele>913</ele>
        <time>2021-08-20T18:04:48Z</time>
      </trkpt>
      <trkpt lat="42.94333" lon="0.83836">
        <ele>913</ele>
        <time>2021-08-20T18:04:49Z</time>
      </trkpt>
      <trkpt lat="42.94323" lon="0.83849">
        <ele>918</ele>
        <time>2021-08-20T18:04:52Z</time>
      </trkpt>
      <trkpt lat="42.94278" lon="0.8387">
        <ele>935</ele>
        <time>2021-08-20T18:05:00Z</time>
      </trkpt>
      <trkpt lat="42.9425" lon="0.83888">
        <ele>943</ele>
        <time>2021-08-20T18:05:06Z</time>
      </trkpt>
      <trkpt lat="42.94247" lon="0.83895">
        <ele>943</ele>
        <time>2021-08-20T18:05:07Z</time>
      </trkpt>
      <trkpt lat="42.94246" lon="0.83908">
        <ele>942</ele>
        <time>2021-08-20T18:05:09Z</time>
      </trkpt>
      <trkpt lat="42.94251" lon="0.83915">
        <ele>939</ele>
        <time>2021-08-20T18:05:10Z</time>
      </trkpt>
      <trkpt lat="42.94258" lon="0.8392">
        <ele>938</ele>
        <time>2021-08-20T18:05:11Z</time>
      </trkpt>
      <trkpt lat="42.9429" lon="0.83938">
        <ele>934</ele>
        <time>2021-08-20T18:05:17Z</time>
      </trkpt>
      <trkpt lat="42.94298" lon="0.83944">
        <ele>933</ele>
        <time>2021-08-20T18:05:19Z</time>
      </trkpt>
      <trkpt lat="42.94306" lon="0.83954">
        <ele>933</ele>
        <time>2021-08-20T18:05:21Z</time>
      </trkpt>
      <trkpt lat="42.9431" lon="0.83963">
        <ele>934</ele>
        <time>2021-08-20T18:05:22Z</time>
      </trkpt>
      <trkpt lat="42.94329" lon="0.84017">
        <ele>942</ele>
        <time>2021-08-20T18:05:30Z</time>
      </trkpt>
      <trkpt lat="42.94343" lon="0.84048">
        <ele>948</ele>
        <time>2021-08-20T18:05:35Z</time>
      </trkpt>
      <trkpt lat="42.94363" lon="0.84077">
        <ele>950</ele>
        <time>2021-08-20T18:05:40Z</time>
      </trkpt>
      <trkpt lat="42.94379" lon="0.84095">
        <ele>949</ele>
        <time>2021-08-20T18:05:44Z</time>
      </trkpt>
      <trkpt lat="42.94386" lon="0.84106">
        <ele>949</ele>
        <time>2021-08-20T18:05:46Z</time>
      </trkpt>
      <trkpt lat="42.94394" lon="0.84123">
        <ele>950</ele>
        <time>2021-08-20T18:05:48Z</time>
      </trkpt>
      <trkpt lat="42.94402" lon="0.84148">
        <ele>952</ele>
        <time>2021-08-20T18:05:52Z</time>
      </trkpt>
      <trkpt lat="42.94406" lon="0.8417">
        <ele>955</ele>
        <time>2021-08-20T18:05:55Z</time>
      </trkpt>
      <trkpt lat="42.94403" lon="0.84206">
        <ele>961</ele>
        <time>2021-08-20T18:06:00Z</time>
      </trkpt>
      <trkpt lat="42.94396" lon="0.84228">
        <ele>967</ele>
        <time>2021-08-20T18:06:03Z</time>
      </trkpt>
      <trkpt lat="42.94388" lon="0.8424">
        <ele>972</ele>
        <time>2021-08-20T18:06:05Z</time>
      </trkpt>
      <trkpt lat="42.94385" lon="0.84252">
        <ele>975</ele>
        <time>2021-08-20T18:06:06Z</time>
      </trkpt>
      <trkpt lat="42.94386" lon="0.84259">
        <ele>976</ele>
        <time>2021-08-20T18:06:07Z</time>
      </trkpt>
      <trkpt lat="42.94389" lon="0.84266">
        <ele>976</ele>
        <time>2021-08-20T18:06:08Z</time>
      </trkpt>
      <trkpt lat="42.94395" lon="0.84272">
        <ele>975</ele>
        <time>2021-08-20T18:06:10Z</time>
      </trkpt>
      <trkpt lat="42.94408" lon="0.84279">
        <ele>972</ele>
        <time>2021-08-20T18:06:12Z</time>
      </trkpt>
      <trkpt lat="42.94421" lon="0.84289">
        <ele>972</ele>
        <time>2021-08-20T18:06:15Z</time>
      </trkpt>
      <trkpt lat="42.9445" lon="0.84331">
        <ele>978</ele>
        <time>2021-08-20T18:06:22Z</time>
      </trkpt>
      <trkpt lat="42.94454" lon="0.84343">
        <ele>980</ele>
        <time>2021-08-20T18:06:24Z</time>
      </trkpt>
      <trkpt lat="42.94458" lon="0.84377">
        <ele>986</ele>
        <time>2021-08-20T18:06:29Z</time>
      </trkpt>
      <trkpt lat="42.94462" lon="0.84404">
        <ele>991</ele>
        <time>2021-08-20T18:06:32Z</time>
      </trkpt>
      <trkpt lat="42.94474" lon="0.84436">
        <ele>992</ele>
        <time>2021-08-20T18:06:37Z</time>
      </trkpt>
      <trkpt lat="42.94486" lon="0.84462">
        <ele>991</ele>
        <time>2021-08-20T18:06:41Z</time>
      </trkpt>
      <trkpt lat="42.94488" lon="0.84473">
        <ele>991</ele>
        <time>2021-08-20T18:06:42Z</time>
      </trkpt>
      <trkpt lat="42.94487" lon="0.84489">
        <ele>994</ele>
        <time>2021-08-20T18:06:44Z</time>
      </trkpt>
      <trkpt lat="42.94481" lon="0.84525">
        <ele>1000</ele>
        <time>2021-08-20T18:06:49Z</time>
      </trkpt>
      <trkpt lat="42.94465" lon="0.84594">
        <ele>1011</ele>
        <time>2021-08-20T18:06:59Z</time>
      </trkpt>
      <trkpt lat="42.94452" lon="0.84627">
        <ele>1015</ele>
        <time>2021-08-20T18:07:04Z</time>
      </trkpt>
      <trkpt lat="42.94449" lon="0.84645">
        <ele>1016</ele>
        <time>2021-08-20T18:07:06Z</time>
      </trkpt>
      <trkpt lat="42.94448" lon="0.84662">
        <ele>1016</ele>
        <time>2021-08-20T18:07:08Z</time>
      </trkpt>
      <trkpt lat="42.94448" lon="0.8468">
        <ele>1015</ele>
        <time>2021-08-20T18:07:11Z</time>
      </trkpt>
      <trkpt lat="42.94453" lon="0.84741">
        <ele>1013</ele>
        <time>2021-08-20T18:07:19Z</time>
      </trkpt>
      <trkpt lat="42.94453" lon="0.84758">
        <ele>1013</ele>
        <time>2021-08-20T18:07:21Z</time>
      </trkpt>
      <trkpt lat="42.94449" lon="0.84802">
        <ele>1014</ele>
        <time>2021-08-20T18:07:27Z</time>
      </trkpt>
      <trkpt lat="42.94447" lon="0.8489">
        <ele>1021</ele>
        <time>2021-08-20T18:07:38Z</time>
      </trkpt>
      <trkpt lat="42.9444" lon="0.84936">
        <ele>1025</ele>
        <time>2021-08-20T18:07:44Z</time>
      </trkpt>
      <trkpt lat="42.94432" lon="0.84968">
        <ele>1026</ele>
        <time>2021-08-20T18:07:49Z</time>
      </trkpt>
      <trkpt lat="42.94428" lon="0.84977">
        <ele>1026</ele>
        <time>2021-08-20T18:07:50Z</time>
      </trkpt>
      <trkpt lat="42.94422" lon="0.84984">
        <ele>1025</ele>
        <time>2021-08-20T18:07:51Z</time>
      </trkpt>
      <trkpt lat="42.94414" lon="0.84989">
        <ele>1025</ele>
        <time>2021-08-20T18:07:53Z</time>
      </trkpt>
      <trkpt lat="42.94384" lon="0.85002">
        <ele>1028</ele>
        <time>2021-08-20T18:07:58Z</time>
      </trkpt>
      <trkpt lat="42.94375" lon="0.85002">
        <ele>1029</ele>
        <time>2021-08-20T18:08:00Z</time>
      </trkpt>
      <trkpt lat="42.94285" lon="0.84988">
        <ele>1040</ele>
        <time>2021-08-20T18:08:16Z</time>
      </trkpt>
      <trkpt lat="42.94269" lon="0.84989">
        <ele>1042</ele>
        <time>2021-08-20T18:08:19Z</time>
      </trkpt>
      <trkpt lat="42.94263" lon="0.84991">
        <ele>1043</ele>
        <time>2021-08-20T18:08:20Z</time>
      </trkpt>
      <trkpt lat="42.94257" lon="0.85002">
        <ele>1042</ele>
        <time>2021-08-20T18:08:22Z</time>
      </trkpt>
      <trkpt lat="42.94256" lon="0.85011">
        <ele>1043</ele>
        <time>2021-08-20T18:08:23Z</time>
      </trkpt>
      <trkpt lat="42.94259" lon="0.85029">
        <ele>1044</ele>
        <time>2021-08-20T18:08:26Z</time>
      </trkpt>
      <trkpt lat="42.94302" lon="0.85131">
        <ele>1050</ele>
        <time>2021-08-20T18:08:41Z</time>
      </trkpt>
      <trkpt lat="42.94324" lon="0.85173">
        <ele>1052</ele>
        <time>2021-08-20T18:08:48Z</time>
      </trkpt>
      <trkpt lat="42.94344" lon="0.85202">
        <ele>1055</ele>
        <time>2021-08-20T18:08:53Z</time>
      </trkpt>
      <trkpt lat="42.94351" lon="0.8521">
        <ele>1056</ele>
        <time>2021-08-20T18:08:54Z</time>
      </trkpt>
      <trkpt lat="42.94374" lon="0.85221">
        <ele>1057</ele>
        <time>2021-08-20T18:08:59Z</time>
      </trkpt>
      <trkpt lat="42.94384" lon="0.85228">
        <ele>1058</ele>
        <time>2021-08-20T18:09:01Z</time>
      </trkpt>
      <trkpt lat="42.94394" lon="0.85239">
        <ele>1060</ele>
        <time>2021-08-20T18:09:03Z</time>
      </trkpt>
      <trkpt lat="42.94428" lon="0.85295">
        <ele>1069</ele>
        <time>2021-08-20T18:09:13Z</time>
      </trkpt>
      <trkpt lat="42.94462" lon="0.85346">
        <ele>1076</ele>
        <time>2021-08-20T18:09:21Z</time>
      </trkpt>
      <trkpt lat="42.94494" lon="0.85412">
        <ele>1072</ele>
        <time>2021-08-20T18:09:32Z</time>
      </trkpt>
      <trkpt lat="42.94511" lon="0.85439">
        <ele>1068</ele>
        <time>2021-08-20T18:09:36Z</time>
      </trkpt>
      <trkpt lat="42.94517" lon="0.85445">
        <ele>1068</ele>
        <time>2021-08-20T18:09:38Z</time>
      </trkpt>
      <trkpt lat="42.94568" lon="0.85477">
        <ele>1069</ele>
        <time>2021-08-20T18:09:48Z</time>
      </trkpt>
      <trkpt lat="42.94583" lon="0.85481">
        <ele>1070</ele>
        <time>2021-08-20T18:09:50Z</time>
      </trkpt>
      <trkpt lat="42.94592" lon="0.85492">
        <ele>1070</ele>
        <time>2021-08-20T18:09:53Z</time>
      </trkpt>
      <trkpt lat="42.94595" lon="0.85502">
        <ele>1069</ele>
        <time>2021-08-20T18:09:54Z</time>
      </trkpt>
      <trkpt lat="42.94598" lon="0.8556">
        <ele>1057</ele>
        <time>2021-08-20T18:10:02Z</time>
      </trkpt>
      <trkpt lat="42.94602" lon="0.85584">
        <ele>1053</ele>
        <time>2021-08-20T18:10:05Z</time>
      </trkpt>
      <trkpt lat="42.94611" lon="0.85614">
        <ele>1052</ele>
        <time>2021-08-20T18:10:09Z</time>
      </trkpt>
      <trkpt lat="42.94626" lon="0.85644">
        <ele>1053</ele>
        <time>2021-08-20T18:10:14Z</time>
      </trkpt>
      <trkpt lat="42.94631" lon="0.85659">
        <ele>1053</ele>
        <time>2021-08-20T18:10:16Z</time>
      </trkpt>
      <trkpt lat="42.94632" lon="0.85669">
        <ele>1052</ele>
        <time>2021-08-20T18:10:17Z</time>
      </trkpt>
      <trkpt lat="42.94627" lon="0.857">
        <ele>1047</ele>
        <time>2021-08-20T18:10:21Z</time>
      </trkpt>
      <trkpt lat="42.94626" lon="0.85776">
        <ele>1040</ele>
        <time>2021-08-20T18:10:31Z</time>
      </trkpt>
      <trkpt lat="42.94623" lon="0.85797">
        <ele>1038</ele>
        <time>2021-08-20T18:10:34Z</time>
      </trkpt>
      <trkpt lat="42.94612" lon="0.85843">
        <ele>1032</ele>
        <time>2021-08-20T18:10:40Z</time>
      </trkpt>
      <trkpt lat="42.94607" lon="0.85926">
        <ele>1024</ele>
        <time>2021-08-20T18:10:51Z</time>
      </trkpt>
      <trkpt lat="42.94611" lon="0.85948">
        <ele>1024</ele>
        <time>2021-08-20T18:10:54Z</time>
      </trkpt>
      <trkpt lat="42.94622" lon="0.85981">
        <ele>1026</ele>
        <time>2021-08-20T18:10:59Z</time>
      </trkpt>
      <trkpt lat="42.94623" lon="0.8599">
        <ele>1026</ele>
        <time>2021-08-20T18:11:00Z</time>
      </trkpt>
      <trkpt lat="42.94621" lon="0.85998">
        <ele>1024</ele>
        <time>2021-08-20T18:11:01Z</time>
      </trkpt>
      <trkpt lat="42.94616" lon="0.86004">
        <ele>1022</ele>
        <time>2021-08-20T18:11:02Z</time>
      </trkpt>
      <trkpt lat="42.9461" lon="0.86005">
        <ele>1019</ele>
        <time>2021-08-20T18:11:03Z</time>
      </trkpt>
      <trkpt lat="42.94605" lon="0.86003">
        <ele>1017</ele>
        <time>2021-08-20T18:11:04Z</time>
      </trkpt>
      <trkpt lat="42.946" lon="0.85995">
        <ele>1016</ele>
        <time>2021-08-20T18:11:06Z</time>
      </trkpt>
      <trkpt lat="42.94577" lon="0.85916">
        <ele>1012</ele>
        <time>2021-08-20T18:11:17Z</time>
      </trkpt>
      <trkpt lat="42.94566" lon="0.85891">
        <ele>1010</ele>
        <time>2021-08-20T18:11:21Z</time>
      </trkpt>
      <trkpt lat="42.9452" lon="0.85805">
        <ele>1003</ele>
        <time>2021-08-20T18:11:34Z</time>
      </trkpt>
      <trkpt lat="42.94488" lon="0.85753">
        <ele>1001</ele>
        <time>2021-08-20T18:11:43Z</time>
      </trkpt>
      <trkpt lat="42.94482" lon="0.85737">
        <ele>1003</ele>
        <time>2021-08-20T18:11:46Z</time>
      </trkpt>
      <trkpt lat="42.94477" lon="0.85709">
        <ele>1007</ele>
        <time>2021-08-20T18:11:49Z</time>
      </trkpt>
      <trkpt lat="42.94471" lon="0.85701">
        <ele>1008</ele>
        <time>2021-08-20T18:11:51Z</time>
      </trkpt>
      <trkpt lat="42.94465" lon="0.85699">
        <ele>1009</ele>
        <time>2021-08-20T18:11:52Z</time>
      </trkpt>
      <trkpt lat="42.94458" lon="0.85702">
        <ele>1009</ele>
        <time>2021-08-20T18:11:53Z</time>
      </trkpt>
      <trkpt lat="42.94453" lon="0.85709">
        <ele>1007</ele>
        <time>2021-08-20T18:11:55Z</time>
      </trkpt>
      <trkpt lat="42.94451" lon="0.85722">
        <ele>1005</ele>
        <time>2021-08-20T18:11:56Z</time>
      </trkpt>
      <trkpt lat="42.94452" lon="0.85798">
        <ele>990</ele>
        <time>2021-08-20T18:12:06Z</time>
      </trkpt>
      <trkpt lat="42.94452" lon="0.85877">
        <ele>978</ele>
        <time>2021-08-20T18:12:16Z</time>
      </trkpt>
      <trkpt lat="42.94455" lon="0.85891">
        <ele>977</ele>
        <time>2021-08-20T18:12:18Z</time>
      </trkpt>
      <trkpt lat="42.9446" lon="0.85902">
        <ele>977</ele>
        <time>2021-08-20T18:12:20Z</time>
      </trkpt>
      <trkpt lat="42.9448" lon="0.85933">
        <ele>977</ele>
        <time>2021-08-20T18:12:25Z</time>
      </trkpt>
      <trkpt lat="42.94486" lon="0.85946">
        <ele>976</ele>
        <time>2021-08-20T18:12:27Z</time>
      </trkpt>
      <trkpt lat="42.94493" lon="0.86036">
        <ele>964</ele>
        <time>2021-08-20T18:12:39Z</time>
      </trkpt>
      <trkpt lat="42.94496" lon="0.8606">
        <ele>961</ele>
        <time>2021-08-20T18:12:42Z</time>
      </trkpt>
      <trkpt lat="42.94507" lon="0.86094">
        <ele>962</ele>
        <time>2021-08-20T18:12:47Z</time>
      </trkpt>
      <trkpt lat="42.94508" lon="0.86107">
        <ele>962</ele>
        <time>2021-08-20T18:12:49Z</time>
      </trkpt>
      <trkpt lat="42.94507" lon="0.86119">
        <ele>961</ele>
        <time>2021-08-20T18:12:51Z</time>
      </trkpt>
      <trkpt lat="42.94503" lon="0.86136">
        <ele>958</ele>
        <time>2021-08-20T18:12:53Z</time>
      </trkpt>
      <trkpt lat="42.94467" lon="0.86219">
        <ele>946</ele>
        <time>2021-08-20T18:13:05Z</time>
      </trkpt>
      <trkpt lat="42.94451" lon="0.86271">
        <ele>940</ele>
        <time>2021-08-20T18:13:13Z</time>
      </trkpt>
      <trkpt lat="42.94436" lon="0.86349">
        <ele>935</ele>
        <time>2021-08-20T18:13:23Z</time>
      </trkpt>
      <trkpt lat="42.94416" lon="0.86486">
        <ele>924</ele>
        <time>2021-08-20T18:13:41Z</time>
      </trkpt>
      <trkpt lat="42.94415" lon="0.86506">
        <ele>923</ele>
        <time>2021-08-20T18:13:44Z</time>
      </trkpt>
      <trkpt lat="42.94417" lon="0.86521">
        <ele>923</ele>
        <time>2021-08-20T18:13:46Z</time>
      </trkpt>
      <trkpt lat="42.9443" lon="0.8655">
        <ele>924</ele>
        <time>2021-08-20T18:13:50Z</time>
      </trkpt>
      <trkpt lat="42.94432" lon="0.8656">
        <ele>924</ele>
        <time>2021-08-20T18:13:52Z</time>
      </trkpt>
      <trkpt lat="42.9443" lon="0.86567">
        <ele>923</ele>
        <time>2021-08-20T18:13:53Z</time>
      </trkpt>
      <trkpt lat="42.94427" lon="0.86573">
        <ele>922</ele>
        <time>2021-08-20T18:13:54Z</time>
      </trkpt>
      <trkpt lat="42.94423" lon="0.86576">
        <ele>921</ele>
        <time>2021-08-20T18:13:55Z</time>
      </trkpt>
      <trkpt lat="42.94417" lon="0.86578">
        <ele>919</ele>
        <time>2021-08-20T18:13:56Z</time>
      </trkpt>
      <trkpt lat="42.94411" lon="0.86576">
        <ele>919</ele>
        <time>2021-08-20T18:13:57Z</time>
      </trkpt>
      <trkpt lat="42.94377" lon="0.86526">
        <ele>913</ele>
        <time>2021-08-20T18:14:06Z</time>
      </trkpt>
      <trkpt lat="42.94346" lon="0.86476">
        <ele>905</ele>
        <time>2021-08-20T18:14:14Z</time>
      </trkpt>
      <trkpt lat="42.94311" lon="0.86401">
        <ele>903</ele>
        <time>2021-08-20T18:14:26Z</time>
      </trkpt>
      <trkpt lat="42.94305" lon="0.86355">
        <ele>906</ele>
        <time>2021-08-20T18:14:32Z</time>
      </trkpt>
      <trkpt lat="42.943" lon="0.86348">
        <ele>906</ele>
        <time>2021-08-20T18:14:33Z</time>
      </trkpt>
      <trkpt lat="42.94295" lon="0.86346">
        <ele>906</ele>
        <time>2021-08-20T18:14:34Z</time>
      </trkpt>
      <trkpt lat="42.94289" lon="0.86347">
        <ele>906</ele>
        <time>2021-08-20T18:14:35Z</time>
      </trkpt>
      <trkpt lat="42.94284" lon="0.86351">
        <ele>906</ele>
        <time>2021-08-20T18:14:36Z</time>
      </trkpt>
      <trkpt lat="42.94281" lon="0.86358">
        <ele>905</ele>
        <time>2021-08-20T18:14:37Z</time>
      </trkpt>
      <trkpt lat="42.94281" lon="0.86367">
        <ele>904</ele>
        <time>2021-08-20T18:14:38Z</time>
      </trkpt>
      <trkpt lat="42.94283" lon="0.86393">
        <ele>900</ele>
        <time>2021-08-20T18:14:42Z</time>
      </trkpt>
      <trkpt lat="42.94281" lon="0.86409">
        <ele>898</ele>
        <time>2021-08-20T18:14:44Z</time>
      </trkpt>
      <trkpt lat="42.94248" lon="0.86527">
        <ele>890</ele>
        <time>2021-08-20T18:15:00Z</time>
      </trkpt>
      <trkpt lat="42.94241" lon="0.86536">
        <ele>890</ele>
        <time>2021-08-20T18:15:02Z</time>
      </trkpt>
      <trkpt lat="42.94234" lon="0.86541">
        <ele>889</ele>
        <time>2021-08-20T18:15:03Z</time>
      </trkpt>
      <trkpt lat="42.94217" lon="0.8654">
        <ele>886</ele>
        <time>2021-08-20T18:15:07Z</time>
      </trkpt>
      <trkpt lat="42.9421" lon="0.86537">
        <ele>884</ele>
        <time>2021-08-20T18:15:08Z</time>
      </trkpt>
      <trkpt lat="42.94205" lon="0.86528">
        <ele>882</ele>
        <time>2021-08-20T18:15:09Z</time>
      </trkpt>
      <trkpt lat="42.94198" lon="0.86497">
        <ele>879</ele>
        <time>2021-08-20T18:15:14Z</time>
      </trkpt>
      <trkpt lat="42.94195" lon="0.86492">
        <ele>879</ele>
        <time>2021-08-20T18:15:14Z</time>
      </trkpt>
      <trkpt lat="42.94179" lon="0.86487">
        <ele>878</ele>
        <time>2021-08-20T18:15:17Z</time>
      </trkpt>
      <trkpt lat="42.94152" lon="0.86489">
        <ele>876</ele>
        <time>2021-08-20T18:15:22Z</time>
      </trkpt>
      <trkpt lat="42.94127" lon="0.86486">
        <ele>877</ele>
        <time>2021-08-20T18:15:27Z</time>
      </trkpt>
      <trkpt lat="42.94119" lon="0.86491">
        <ele>876</ele>
        <time>2021-08-20T18:15:28Z</time>
      </trkpt>
      <trkpt lat="42.94113" lon="0.86499">
        <ele>874</ele>
        <time>2021-08-20T18:15:30Z</time>
      </trkpt>
      <trkpt lat="42.94107" lon="0.86523">
        <ele>872</ele>
        <time>2021-08-20T18:15:33Z</time>
      </trkpt>
      <trkpt lat="42.941" lon="0.86541">
        <ele>870</ele>
        <time>2021-08-20T18:15:36Z</time>
      </trkpt>
      <trkpt lat="42.94093" lon="0.86552">
        <ele>868</ele>
        <time>2021-08-20T18:15:37Z</time>
      </trkpt>
      <trkpt lat="42.94078" lon="0.86568">
        <ele>865</ele>
        <time>2021-08-20T18:15:41Z</time>
      </trkpt>
      <trkpt lat="42.94043" lon="0.86589">
        <ele>862</ele>
        <time>2021-08-20T18:15:48Z</time>
      </trkpt>
      <trkpt lat="42.94034" lon="0.866">
        <ele>861</ele>
        <time>2021-08-20T18:15:50Z</time>
      </trkpt>
      <trkpt lat="42.94005" lon="0.86668">
        <ele>856</ele>
        <time>2021-08-20T18:16:00Z</time>
      </trkpt>
      <trkpt lat="42.93997" lon="0.86681">
        <ele>855</ele>
        <time>2021-08-20T18:16:02Z</time>
      </trkpt>
      <trkpt lat="42.93964" lon="0.86725">
        <ele>853</ele>
        <time>2021-08-20T18:16:10Z</time>
      </trkpt>
      <trkpt lat="42.93867" lon="0.86863">
        <ele>847</ele>
        <time>2021-08-20T18:16:35Z</time>
      </trkpt>
      <trkpt lat="42.93857" lon="0.86886">
        <ele>847</ele>
        <time>2021-08-20T18:16:39Z</time>
      </trkpt>
      <trkpt lat="42.93848" lon="0.8691">
        <ele>847</ele>
        <time>2021-08-20T18:16:42Z</time>
      </trkpt>
      <trkpt lat="42.93819" lon="0.87029">
        <ele>846</ele>
        <time>2021-08-20T18:16:59Z</time>
      </trkpt>
      <trkpt lat="42.93803" lon="0.8717">
        <ele>845</ele>
        <time>2021-08-20T18:17:17Z</time>
      </trkpt>
      <trkpt lat="42.93781" lon="0.87351">
        <ele>839</ele>
        <time>2021-08-20T18:17:41Z</time>
      </trkpt>
      <trkpt lat="42.93784" lon="0.87376">
        <ele>836</ele>
        <time>2021-08-20T18:17:45Z</time>
      </trkpt>
      <trkpt lat="42.93833" lon="0.87455">
        <ele>832</ele>
        <time>2021-08-20T18:17:58Z</time>
      </trkpt>
      <trkpt lat="42.93912" lon="0.87517">
        <ele>831</ele>
        <time>2021-08-20T18:18:14Z</time>
      </trkpt>
      <trkpt lat="42.9399" lon="0.87594">
        <ele>825</ele>
        <time>2021-08-20T18:18:31Z</time>
      </trkpt>
      <trkpt lat="42.94006" lon="0.87614">
        <ele>823</ele>
        <time>2021-08-20T18:18:35Z</time>
      </trkpt>
      <trkpt lat="42.94011" lon="0.87635">
        <ele>824</ele>
        <time>2021-08-20T18:18:38Z</time>
      </trkpt>
      <trkpt lat="42.94023" lon="0.87697">
        <ele>825</ele>
        <time>2021-08-20T18:18:46Z</time>
      </trkpt>
      <trkpt lat="42.94033" lon="0.87837">
        <ele>822</ele>
        <time>2021-08-20T18:19:05Z</time>
      </trkpt>
      <trkpt lat="42.94036" lon="0.87875">
        <ele>819</ele>
        <time>2021-08-20T18:19:10Z</time>
      </trkpt>
      <trkpt lat="42.94042" lon="0.87913">
        <ele>815</ele>
        <time>2021-08-20T18:19:15Z</time>
      </trkpt>
      <trkpt lat="42.94042" lon="0.88001">
        <ele>811</ele>
        <time>2021-08-20T18:19:26Z</time>
      </trkpt>
      <trkpt lat="42.94039" lon="0.88035">
        <ele>807</ele>
        <time>2021-08-20T18:19:31Z</time>
      </trkpt>
      <trkpt lat="42.9401" lon="0.881">
        <ele>802</ele>
        <time>2021-08-20T18:19:41Z</time>
      </trkpt>
      <trkpt lat="42.93993" lon="0.88143">
        <ele>797</ele>
        <time>2021-08-20T18:19:47Z</time>
      </trkpt>
      <trkpt lat="42.93977" lon="0.88184">
        <ele>794</ele>
        <time>2021-08-20T18:19:53Z</time>
      </trkpt>
      <trkpt lat="42.93959" lon="0.88239">
        <ele>787</ele>
        <time>2021-08-20T18:20:01Z</time>
      </trkpt>
      <trkpt lat="42.93943" lon="0.88264">
        <ele>785</ele>
        <time>2021-08-20T18:20:05Z</time>
      </trkpt>
      <trkpt lat="42.93923" lon="0.88288">
        <ele>783</ele>
        <time>2021-08-20T18:20:10Z</time>
      </trkpt>
      <trkpt lat="42.93905" lon="0.88301">
        <ele>781</ele>
        <time>2021-08-20T18:20:14Z</time>
      </trkpt>
      <trkpt lat="42.93843" lon="0.88329">
        <ele>778</ele>
        <time>2021-08-20T18:20:25Z</time>
      </trkpt>
      <trkpt lat="42.93828" lon="0.88339">
        <ele>778</ele>
        <time>2021-08-20T18:20:28Z</time>
      </trkpt>
      <trkpt lat="42.93819" lon="0.8835">
        <ele>780</ele>
        <time>2021-08-20T18:20:30Z</time>
      </trkpt>
      <trkpt lat="42.93811" lon="0.88362">
        <ele>780</ele>
        <time>2021-08-20T18:20:32Z</time>
      </trkpt>
      <trkpt lat="42.93784" lon="0.88416">
        <ele>772</ele>
        <time>2021-08-20T18:20:41Z</time>
      </trkpt>
      <trkpt lat="42.93774" lon="0.88432">
        <ele>770</ele>
        <time>2021-08-20T18:20:44Z</time>
      </trkpt>
      <trkpt lat="42.9376" lon="0.88443">
        <ele>768</ele>
        <time>2021-08-20T18:20:47Z</time>
      </trkpt>
      <trkpt lat="42.93724" lon="0.88457">
        <ele>767</ele>
        <time>2021-08-20T18:20:53Z</time>
      </trkpt>
      <trkpt lat="42.937" lon="0.88471">
        <ele>765</ele>
        <time>2021-08-20T18:20:58Z</time>
      </trkpt>
      <trkpt lat="42.93683" lon="0.88483">
        <ele>763</ele>
        <time>2021-08-20T18:21:01Z</time>
      </trkpt>
      <trkpt lat="42.93655" lon="0.8851">
        <ele>758</ele>
        <time>2021-08-20T18:21:07Z</time>
      </trkpt>
      <trkpt lat="42.93643" lon="0.88517">
        <ele>758</ele>
        <time>2021-08-20T18:21:10Z</time>
      </trkpt>
      <trkpt lat="42.93587" lon="0.88538">
        <ele>752</ele>
        <time>2021-08-20T18:21:20Z</time>
      </trkpt>
      <trkpt lat="42.93566" lon="0.88544">
        <ele>752</ele>
        <time>2021-08-20T18:21:24Z</time>
      </trkpt>
      <trkpt lat="42.93555" lon="0.88551">
        <ele>752</ele>
        <time>2021-08-20T18:21:26Z</time>
      </trkpt>
      <trkpt lat="42.93547" lon="0.88559">
        <ele>752</ele>
        <time>2021-08-20T18:21:28Z</time>
      </trkpt>
      <trkpt lat="42.93538" lon="0.88572">
        <ele>752</ele>
        <time>2021-08-20T18:21:30Z</time>
      </trkpt>
      <trkpt lat="42.93534" lon="0.8859">
        <ele>751</ele>
        <time>2021-08-20T18:21:33Z</time>
      </trkpt>
      <trkpt lat="42.93535" lon="0.8868">
        <ele>755</ele>
        <time>2021-08-20T18:21:44Z</time>
      </trkpt>
      <trkpt lat="42.93527" lon="0.88715">
        <ele>754</ele>
        <time>2021-08-20T18:21:49Z</time>
      </trkpt>
      <trkpt lat="42.93519" lon="0.8873">
        <ele>751</ele>
        <time>2021-08-20T18:21:51Z</time>
      </trkpt>
      <trkpt lat="42.93508" lon="0.88744">
        <ele>745</ele>
        <time>2021-08-20T18:21:54Z</time>
      </trkpt>
      <trkpt lat="42.93428" lon="0.88797">
        <ele>741</ele>
        <time>2021-08-20T18:22:10Z</time>
      </trkpt>
      <trkpt lat="42.93413" lon="0.88808">
        <ele>737</ele>
        <time>2021-08-20T18:22:13Z</time>
      </trkpt>
      <trkpt lat="42.93405" lon="0.88818">
        <ele>735</ele>
        <time>2021-08-20T18:22:15Z</time>
      </trkpt>
      <trkpt lat="42.934" lon="0.8883">
        <ele>733</ele>
        <time>2021-08-20T18:22:17Z</time>
      </trkpt>
      <trkpt lat="42.93399" lon="0.88842">
        <ele>732</ele>
        <time>2021-08-20T18:22:18Z</time>
      </trkpt>
      <trkpt lat="42.934" lon="0.88883">
        <ele>734</ele>
        <time>2021-08-20T18:22:24Z</time>
      </trkpt>
      <trkpt lat="42.93395" lon="0.88895">
        <ele>734</ele>
        <time>2021-08-20T18:22:25Z</time>
      </trkpt>
      <trkpt lat="42.93388" lon="0.88902">
        <ele>733</ele>
        <time>2021-08-20T18:22:27Z</time>
      </trkpt>
      <trkpt lat="42.93381" lon="0.88908">
        <ele>732</ele>
        <time>2021-08-20T18:22:28Z</time>
      </trkpt>
      <trkpt lat="42.93361" lon="0.88919">
        <ele>727</ele>
        <time>2021-08-20T18:22:32Z</time>
      </trkpt>
      <trkpt lat="42.93344" lon="0.88924">
        <ele>724</ele>
        <time>2021-08-20T18:22:35Z</time>
      </trkpt>
      <trkpt lat="42.93282" lon="0.88923">
        <ele>729</ele>
        <time>2021-08-20T18:22:46Z</time>
      </trkpt>
      <trkpt lat="42.93272" lon="0.88925">
        <ele>730</ele>
        <time>2021-08-20T18:22:48Z</time>
      </trkpt>
      <trkpt lat="42.93262" lon="0.8893">
        <ele>730</ele>
        <time>2021-08-20T18:22:50Z</time>
      </trkpt>
      <trkpt lat="42.93249" lon="0.88942">
        <ele>729</ele>
        <time>2021-08-20T18:22:53Z</time>
      </trkpt>
      <trkpt lat="42.93223" lon="0.88981">
        <ele>726</ele>
        <time>2021-08-20T18:23:00Z</time>
      </trkpt>
      <trkpt lat="42.93189" lon="0.89026">
        <ele>723</ele>
        <time>2021-08-20T18:23:08Z</time>
      </trkpt>
      <trkpt lat="42.93152" lon="0.89079">
        <ele>717</ele>
        <time>2021-08-20T18:23:18Z</time>
      </trkpt>
      <trkpt lat="42.93144" lon="0.89087">
        <ele>718</ele>
        <time>2021-08-20T18:23:19Z</time>
      </trkpt>
      <trkpt lat="42.93103" lon="0.89107">
        <ele>722</ele>
        <time>2021-08-20T18:23:27Z</time>
      </trkpt>
      <trkpt lat="42.93087" lon="0.89118">
        <ele>722</ele>
        <time>2021-08-20T18:23:30Z</time>
      </trkpt>
      <trkpt lat="42.93078" lon="0.89127">
        <ele>723</ele>
        <time>2021-08-20T18:23:32Z</time>
      </trkpt>
      <trkpt lat="42.93073" lon="0.89139">
        <ele>723</ele>
        <time>2021-08-20T18:23:34Z</time>
      </trkpt>
      <trkpt lat="42.93068" lon="0.8916">
        <ele>720</ele>
        <time>2021-08-20T18:23:37Z</time>
      </trkpt>
      <trkpt lat="42.93068" lon="0.89184">
        <ele>718</ele>
        <time>2021-08-20T18:23:40Z</time>
      </trkpt>
      <trkpt lat="42.93073" lon="0.89216">
        <ele>715</ele>
        <time>2021-08-20T18:23:44Z</time>
      </trkpt>
      <trkpt lat="42.93086" lon="0.89251">
        <ele>710</ele>
        <time>2021-08-20T18:23:50Z</time>
      </trkpt>
      <trkpt lat="42.9309" lon="0.89267">
        <ele>708</ele>
        <time>2021-08-20T18:23:52Z</time>
      </trkpt>
      <trkpt lat="42.9309" lon="0.8928">
        <ele>706</ele>
        <time>2021-08-20T18:23:53Z</time>
      </trkpt>
      <trkpt lat="42.93085" lon="0.893">
        <ele>702</ele>
        <time>2021-08-20T18:23:56Z</time>
      </trkpt>
      <trkpt lat="42.93057" lon="0.8936">
        <ele>702</ele>
        <time>2021-08-20T18:24:06Z</time>
      </trkpt>
      <trkpt lat="42.93054" lon="0.89367">
        <ele>702</ele>
        <time>2021-08-20T18:24:07Z</time>
      </trkpt>
      <trkpt lat="42.93043" lon="0.89391">
        <ele>700</ele>
        <time>2021-08-20T18:24:10Z</time>
      </trkpt>
      <trkpt lat="42.93015" lon="0.89426">
        <ele>694</ele>
        <time>2021-08-20T18:24:17Z</time>
      </trkpt>
      <trkpt lat="42.93006" lon="0.89434">
        <ele>694</ele>
        <time>2021-08-20T18:24:19Z</time>
      </trkpt>
      <trkpt lat="42.92957" lon="0.89461">
        <ele>689</ele>
        <time>2021-08-20T18:24:28Z</time>
      </trkpt>
      <trkpt lat="42.92918" lon="0.89478">
        <ele>684</ele>
        <time>2021-08-20T18:24:36Z</time>
      </trkpt>
      <trkpt lat="42.92915" lon="0.89481">
        <ele>683</ele>
        <time>2021-08-20T18:24:36Z</time>
      </trkpt>
      <trkpt lat="42.92905" lon="0.89502">
        <ele>684</ele>
        <time>2021-08-20T18:24:40Z</time>
      </trkpt>
      <trkpt lat="42.9289" lon="0.89519">
        <ele>687</ele>
        <time>2021-08-20T18:24:43Z</time>
      </trkpt>
      <trkpt lat="42.92883" lon="0.89535">
        <ele>688</ele>
        <time>2021-08-20T18:24:45Z</time>
      </trkpt>
      <trkpt lat="42.92858" lon="0.8964">
        <ele>697</ele>
        <time>2021-08-20T18:25:00Z</time>
      </trkpt>
      <trkpt lat="42.92858" lon="0.89651">
        <ele>698</ele>
        <time>2021-08-20T18:25:01Z</time>
      </trkpt>
      <trkpt lat="42.92861" lon="0.89667">
        <ele>697</ele>
        <time>2021-08-20T18:25:03Z</time>
      </trkpt>
      <trkpt lat="42.92873" lon="0.89705">
        <ele>696</ele>
        <time>2021-08-20T18:25:09Z</time>
      </trkpt>
      <trkpt lat="42.92885" lon="0.89734">
        <ele>694</ele>
        <time>2021-08-20T18:25:13Z</time>
      </trkpt>
      <trkpt lat="42.92897" lon="0.89755">
        <ele>691</ele>
        <time>2021-08-20T18:25:17Z</time>
      </trkpt>
      <trkpt lat="42.92912" lon="0.89772">
        <ele>687</ele>
        <time>2021-08-20T18:25:20Z</time>
      </trkpt>
      <trkpt lat="42.92923" lon="0.89792">
        <ele>689</ele>
        <time>2021-08-20T18:25:23Z</time>
      </trkpt>
      <trkpt lat="42.92931" lon="0.89812">
        <ele>694</ele>
        <time>2021-08-20T18:25:26Z</time>
      </trkpt>
      <trkpt lat="42.92944" lon="0.89923">
        <ele>701</ele>
        <time>2021-08-20T18:25:41Z</time>
      </trkpt>
      <trkpt lat="42.92945" lon="0.89976">
        <ele>699</ele>
        <time>2021-08-20T18:25:48Z</time>
      </trkpt>
      <trkpt lat="42.9294" lon="0.90049">
        <ele>695</ele>
        <time>2021-08-20T18:25:57Z</time>
      </trkpt>
      <trkpt lat="42.92941" lon="0.90108">
        <ele>693</ele>
        <time>2021-08-20T18:26:05Z</time>
      </trkpt>
      <trkpt lat="42.92938" lon="0.90143">
        <ele>691</ele>
        <time>2021-08-20T18:26:10Z</time>
      </trkpt>
      <trkpt lat="42.92929" lon="0.90171">
        <ele>686</ele>
        <time>2021-08-20T18:26:14Z</time>
      </trkpt>
      <trkpt lat="42.92914" lon="0.90199">
        <ele>683</ele>
        <time>2021-08-20T18:26:18Z</time>
      </trkpt>
      <trkpt lat="42.92899" lon="0.90235">
        <ele>686</ele>
        <time>2021-08-20T18:26:24Z</time>
      </trkpt>
      <trkpt lat="42.92888" lon="0.90265">
        <ele>686</ele>
        <time>2021-08-20T18:26:28Z</time>
      </trkpt>
      <trkpt lat="42.92884" lon="0.90287">
        <ele>686</ele>
        <time>2021-08-20T18:26:31Z</time>
      </trkpt>
      <trkpt lat="42.92883" lon="0.9031">
        <ele>686</ele>
        <time>2021-08-20T18:26:34Z</time>
      </trkpt>
      <trkpt lat="42.92884" lon="0.90334">
        <ele>685</ele>
        <time>2021-08-20T18:26:37Z</time>
      </trkpt>
      <trkpt lat="42.92887" lon="0.90352">
        <ele>685</ele>
        <time>2021-08-20T18:26:39Z</time>
      </trkpt>
      <trkpt lat="42.92894" lon="0.90371">
        <ele>683</ele>
        <time>2021-08-20T18:26:42Z</time>
      </trkpt>
      <trkpt lat="42.92905" lon="0.9039">
        <ele>679</ele>
        <time>2021-08-20T18:26:45Z</time>
      </trkpt>
      <trkpt lat="42.92915" lon="0.90403">
        <ele>675</ele>
        <time>2021-08-20T18:26:48Z</time>
      </trkpt>
      <trkpt lat="42.92963" lon="0.90445">
        <ele>677</ele>
        <time>2021-08-20T18:26:58Z</time>
      </trkpt>
      <trkpt lat="42.93003" lon="0.90489">
        <ele>677</ele>
        <time>2021-08-20T18:27:07Z</time>
      </trkpt>
      <trkpt lat="42.93008" lon="0.90498">
        <ele>678</ele>
        <time>2021-08-20T18:27:09Z</time>
      </trkpt>
      <trkpt lat="42.9301" lon="0.90507">
        <ele>678</ele>
        <time>2021-08-20T18:27:10Z</time>
      </trkpt>
      <trkpt lat="42.9301" lon="0.90517">
        <ele>680</ele>
        <time>2021-08-20T18:27:11Z</time>
      </trkpt>
      <trkpt lat="42.93008" lon="0.90528">
        <ele>680</ele>
        <time>2021-08-20T18:27:13Z</time>
      </trkpt>
      <trkpt lat="42.93" lon="0.90543">
        <ele>680</ele>
        <time>2021-08-20T18:27:15Z</time>
      </trkpt>
      <trkpt lat="42.92977" lon="0.90583">
        <ele>679</ele>
        <time>2021-08-20T18:27:22Z</time>
      </trkpt>
      <trkpt lat="42.92949" lon="0.90624">
        <ele>676</ele>
        <time>2021-08-20T18:27:29Z</time>
      </trkpt>
      <trkpt lat="42.92941" lon="0.90643">
        <ele>675</ele>
        <time>2021-08-20T18:27:32Z</time>
      </trkpt>
      <trkpt lat="42.92936" lon="0.90659">
        <ele>674</ele>
        <time>2021-08-20T18:27:34Z</time>
      </trkpt>
      <trkpt lat="42.92932" lon="0.90675">
        <ele>673</ele>
        <time>2021-08-20T18:27:36Z</time>
      </trkpt>
      <trkpt lat="42.92932" lon="0.90692">
        <ele>672</ele>
        <time>2021-08-20T18:27:38Z</time>
      </trkpt>
      <trkpt lat="42.92933" lon="0.9071">
        <ele>672</ele>
        <time>2021-08-20T18:27:41Z</time>
      </trkpt>
      <trkpt lat="42.92937" lon="0.90726">
        <ele>672</ele>
        <time>2021-08-20T18:27:43Z</time>
      </trkpt>
      <trkpt lat="42.92946" lon="0.9075">
        <ele>675</ele>
        <time>2021-08-20T18:27:47Z</time>
      </trkpt>
      <trkpt lat="42.92965" lon="0.90776">
        <ele>679</ele>
        <time>2021-08-20T18:27:51Z</time>
      </trkpt>
      <trkpt lat="42.9297" lon="0.90785">
        <ele>680</ele>
        <time>2021-08-20T18:27:53Z</time>
      </trkpt>
      <trkpt lat="42.92971" lon="0.908">
        <ele>679</ele>
        <time>2021-08-20T18:27:55Z</time>
      </trkpt>
      <trkpt lat="42.92969" lon="0.90815">
        <ele>677</ele>
        <time>2021-08-20T18:27:57Z</time>
      </trkpt>
      <trkpt lat="42.92961" lon="0.90844">
        <ele>674</ele>
        <time>2021-08-20T18:28:01Z</time>
      </trkpt>
      <trkpt lat="42.92945" lon="0.90899">
        <ele>675</ele>
        <time>2021-08-20T18:28:08Z</time>
      </trkpt>
      <trkpt lat="42.92885" lon="0.91024">
        <ele>672</ele>
        <time>2021-08-20T18:28:28Z</time>
      </trkpt>
      <trkpt lat="42.92881" lon="0.9104">
        <ele>671</ele>
        <time>2021-08-20T18:28:30Z</time>
      </trkpt>
      <trkpt lat="42.92881" lon="0.91057">
        <ele>671</ele>
        <time>2021-08-20T18:28:32Z</time>
      </trkpt>
      <trkpt lat="42.92886" lon="0.91106">
        <ele>672</ele>
        <time>2021-08-20T18:28:39Z</time>
      </trkpt>
      <trkpt lat="42.92892" lon="0.9114">
        <ele>672</ele>
        <time>2021-08-20T18:28:43Z</time>
      </trkpt>
      <trkpt lat="42.92896" lon="0.91212">
        <ele>668</ele>
        <time>2021-08-20T18:28:53Z</time>
      </trkpt>
      <trkpt lat="42.92899" lon="0.91236">
        <ele>667</ele>
        <time>2021-08-20T18:28:56Z</time>
      </trkpt>
      <trkpt lat="42.9292" lon="0.91303">
        <ele>664</ele>
        <time>2021-08-20T18:29:05Z</time>
      </trkpt>
      <trkpt lat="42.92924" lon="0.91355">
        <ele>661</ele>
        <time>2021-08-20T18:29:12Z</time>
      </trkpt>
      <trkpt lat="42.92925" lon="0.91429">
        <ele>656</ele>
        <time>2021-08-20T18:29:22Z</time>
      </trkpt>
      <trkpt lat="42.92926" lon="0.91445">
        <ele>655</ele>
        <time>2021-08-20T18:29:24Z</time>
      </trkpt>
      <trkpt lat="42.9293" lon="0.91462">
        <ele>654</ele>
        <time>2021-08-20T18:29:26Z</time>
      </trkpt>
      <trkpt lat="42.92937" lon="0.91475">
        <ele>653</ele>
        <time>2021-08-20T18:29:28Z</time>
      </trkpt>
      <trkpt lat="42.92972" lon="0.91529">
        <ele>652</ele>
        <time>2021-08-20T18:29:38Z</time>
      </trkpt>
      <trkpt lat="42.9299" lon="0.91552">
        <ele>650</ele>
        <time>2021-08-20T18:29:42Z</time>
      </trkpt>
      <trkpt lat="42.93" lon="0.9156">
        <ele>649</ele>
        <time>2021-08-20T18:29:44Z</time>
      </trkpt>
      <trkpt lat="42.93018" lon="0.9157">
        <ele>647</ele>
        <time>2021-08-20T18:29:48Z</time>
      </trkpt>
      <trkpt lat="42.93038" lon="0.91575">
        <ele>645</ele>
        <time>2021-08-20T18:29:51Z</time>
      </trkpt>
      <trkpt lat="42.93104" lon="0.91586">
        <ele>641</ele>
        <time>2021-08-20T18:30:03Z</time>
      </trkpt>
      <trkpt lat="42.93161" lon="0.91608">
        <ele>640</ele>
        <time>2021-08-20T18:30:14Z</time>
      </trkpt>
      <trkpt lat="42.93182" lon="0.91622">
        <ele>644</ele>
        <time>2021-08-20T18:30:18Z</time>
      </trkpt>
      <trkpt lat="42.93191" lon="0.91633">
        <ele>647</ele>
        <time>2021-08-20T18:30:20Z</time>
      </trkpt>
      <trkpt lat="42.93202" lon="0.91648">
        <ele>649</ele>
        <time>2021-08-20T18:30:23Z</time>
      </trkpt>
      <trkpt lat="42.93209" lon="0.91663">
        <ele>650</ele>
        <time>2021-08-20T18:30:25Z</time>
      </trkpt>
      <trkpt lat="42.93213" lon="0.9168">
        <ele>650</ele>
        <time>2021-08-20T18:30:27Z</time>
      </trkpt>
      <trkpt lat="42.93215" lon="0.91698">
        <ele>650</ele>
        <time>2021-08-20T18:30:30Z</time>
      </trkpt>
      <trkpt lat="42.9321" lon="0.91761">
        <ele>646</ele>
        <time>2021-08-20T18:30:38Z</time>
      </trkpt>
      <trkpt lat="42.9321" lon="0.91784">
        <ele>645</ele>
        <time>2021-08-20T18:30:41Z</time>
      </trkpt>
      <trkpt lat="42.93216" lon="0.91835">
        <ele>643</ele>
        <time>2021-08-20T18:30:48Z</time>
      </trkpt>
      <trkpt lat="42.93233" lon="0.9192">
        <ele>642</ele>
        <time>2021-08-20T18:30:59Z</time>
      </trkpt>
      <trkpt lat="42.93263" lon="0.92026">
        <ele>643</ele>
        <time>2021-08-20T18:31:14Z</time>
      </trkpt>
      <trkpt lat="42.93265" lon="0.92049">
        <ele>642</ele>
        <time>2021-08-20T18:31:17Z</time>
      </trkpt>
      <trkpt lat="42.93262" lon="0.92166">
        <ele>636</ele>
        <time>2021-08-20T18:31:32Z</time>
      </trkpt>
      <trkpt lat="42.93258" lon="0.92203">
        <ele>636</ele>
        <time>2021-08-20T18:31:37Z</time>
      </trkpt>
      <trkpt lat="42.93245" lon="0.92271">
        <ele>634</ele>
        <time>2021-08-20T18:31:46Z</time>
      </trkpt>
      <trkpt lat="42.93224" lon="0.92362">
        <ele>635</ele>
        <time>2021-08-20T18:31:59Z</time>
      </trkpt>
      <trkpt lat="42.93214" lon="0.92412">
        <ele>637</ele>
        <time>2021-08-20T18:32:06Z</time>
      </trkpt>
      <trkpt lat="42.93182" lon="0.92644">
        <ele>640</ele>
        <time>2021-08-20T18:32:36Z</time>
      </trkpt>
      <trkpt lat="42.9318" lon="0.92675">
        <ele>640</ele>
        <time>2021-08-20T18:32:40Z</time>
      </trkpt>
      <trkpt lat="42.93183" lon="0.92694">
        <ele>641</ele>
        <time>2021-08-20T18:32:43Z</time>
      </trkpt>
      <trkpt lat="42.93188" lon="0.9271">
        <ele>643</ele>
        <time>2021-08-20T18:32:45Z</time>
      </trkpt>
      <trkpt lat="42.932" lon="0.92732">
        <ele>646</ele>
        <time>2021-08-20T18:32:49Z</time>
      </trkpt>
      <trkpt lat="42.93202" lon="0.92746">
        <ele>646</ele>
        <time>2021-08-20T18:32:51Z</time>
      </trkpt>
      <trkpt lat="42.93202" lon="0.92753">
        <ele>646</ele>
        <time>2021-08-20T18:32:51Z</time>
      </trkpt>
      <trkpt lat="42.93193" lon="0.92771">
        <ele>646</ele>
        <time>2021-08-20T18:32:54Z</time>
      </trkpt>
      <trkpt lat="42.93135" lon="0.92834">
        <ele>646</ele>
        <time>2021-08-20T18:33:08Z</time>
      </trkpt>
      <trkpt lat="42.93116" lon="0.9285">
        <ele>646</ele>
        <time>2021-08-20T18:33:11Z</time>
      </trkpt>
      <trkpt lat="42.93094" lon="0.92859">
        <ele>644</ele>
        <time>2021-08-20T18:33:16Z</time>
      </trkpt>
      <trkpt lat="42.93056" lon="0.92865">
        <ele>642</ele>
        <time>2021-08-20T18:33:22Z</time>
      </trkpt>
      <trkpt lat="42.93033" lon="0.92876">
        <ele>642</ele>
        <time>2021-08-20T18:33:27Z</time>
      </trkpt>
      <trkpt lat="42.93011" lon="0.9289">
        <ele>643</ele>
        <time>2021-08-20T18:33:31Z</time>
      </trkpt>
      <trkpt lat="42.92992" lon="0.92906">
        <ele>643</ele>
        <time>2021-08-20T18:33:35Z</time>
      </trkpt>
      <trkpt lat="42.92985" lon="0.92916">
        <ele>644</ele>
        <time>2021-08-20T18:33:37Z</time>
      </trkpt>
      <trkpt lat="42.9298" lon="0.92929">
        <ele>643</ele>
        <time>2021-08-20T18:33:39Z</time>
      </trkpt>
      <trkpt lat="42.92975" lon="0.92952">
        <ele>643</ele>
        <time>2021-08-20T18:33:42Z</time>
      </trkpt>
      <trkpt lat="42.92976" lon="0.92972">
        <ele>644</ele>
        <time>2021-08-20T18:33:44Z</time>
      </trkpt>
      <trkpt lat="42.92982" lon="0.93001">
        <ele>646</ele>
        <time>2021-08-20T18:33:48Z</time>
      </trkpt>
      <trkpt lat="42.92992" lon="0.93027">
        <ele>648</ele>
        <time>2021-08-20T18:33:52Z</time>
      </trkpt>
      <trkpt lat="42.93037" lon="0.93101">
        <ele>651</ele>
        <time>2021-08-20T18:34:05Z</time>
      </trkpt>
      <trkpt lat="42.93085" lon="0.93186">
        <ele>650</ele>
        <time>2021-08-20T18:34:19Z</time>
      </trkpt>
      <trkpt lat="42.93105" lon="0.93214">
        <ele>650</ele>
        <time>2021-08-20T18:34:24Z</time>
      </trkpt>
      <trkpt lat="42.93127" lon="0.93239">
        <ele>650</ele>
        <time>2021-08-20T18:34:29Z</time>
      </trkpt>
      <trkpt lat="42.9315" lon="0.93266">
        <ele>650</ele>
        <time>2021-08-20T18:34:34Z</time>
      </trkpt>
      <trkpt lat="42.93183" lon="0.93297">
        <ele>651</ele>
        <time>2021-08-20T18:34:41Z</time>
      </trkpt>
      <trkpt lat="42.9323" lon="0.93357">
        <ele>649</ele>
        <time>2021-08-20T18:34:53Z</time>
      </trkpt>
      <trkpt lat="42.93271" lon="0.93433">
        <ele>651</ele>
        <time>2021-08-20T18:35:05Z</time>
      </trkpt>
      <trkpt lat="42.93288" lon="0.93471">
        <ele>653</ele>
        <time>2021-08-20T18:35:11Z</time>
      </trkpt>
      <trkpt lat="42.93345" lon="0.93577">
        <ele>655</ele>
        <time>2021-08-20T18:35:28Z</time>
      </trkpt>
      <trkpt lat="42.93402" lon="0.93694">
        <ele>656</ele>
        <time>2021-08-20T18:35:46Z</time>
      </trkpt>
      <trkpt lat="42.93407" lon="0.93718">
        <ele>656</ele>
        <time>2021-08-20T18:35:50Z</time>
      </trkpt>
      <trkpt lat="42.93416" lon="0.93793">
        <ele>654</ele>
        <time>2021-08-20T18:36:00Z</time>
      </trkpt>
      <trkpt lat="42.93419" lon="0.93832">
        <ele>652</ele>
        <time>2021-08-20T18:36:05Z</time>
      </trkpt>
      <trkpt lat="42.93422" lon="0.93942">
        <ele>645</ele>
        <time>2021-08-20T18:36:19Z</time>
      </trkpt>
      <trkpt lat="42.93428" lon="0.9398">
        <ele>644</ele>
        <time>2021-08-20T18:36:24Z</time>
      </trkpt>
      <trkpt lat="42.93435" lon="0.9401">
        <ele>643</ele>
        <time>2021-08-20T18:36:28Z</time>
      </trkpt>
      <trkpt lat="42.93456" lon="0.94067">
        <ele>642</ele>
        <time>2021-08-20T18:36:37Z</time>
      </trkpt>
      <trkpt lat="42.93476" lon="0.94109">
        <ele>638</ele>
        <time>2021-08-20T18:36:43Z</time>
      </trkpt>
      <trkpt lat="42.93489" lon="0.94125">
        <ele>637</ele>
        <time>2021-08-20T18:36:46Z</time>
      </trkpt>
      <trkpt lat="42.93505" lon="0.94131">
        <ele>637</ele>
        <time>2021-08-20T18:36:49Z</time>
      </trkpt>
      <trkpt lat="42.93562" lon="0.94136">
        <ele>638</ele>
        <time>2021-08-20T18:36:59Z</time>
      </trkpt>
      <trkpt lat="42.93597" lon="0.94131">
        <ele>642</ele>
        <time>2021-08-20T18:37:06Z</time>
      </trkpt>
      <trkpt lat="42.93603" lon="0.94134">
        <ele>641</ele>
        <time>2021-08-20T18:37:07Z</time>
      </trkpt>
      <trkpt lat="42.93608" lon="0.94139">
        <ele>641</ele>
        <time>2021-08-20T18:37:08Z</time>
      </trkpt>
      <trkpt lat="42.93613" lon="0.94157">
        <ele>637</ele>
        <time>2021-08-20T18:37:10Z</time>
      </trkpt>
      <trkpt lat="42.93612" lon="0.94179">
        <ele>634</ele>
        <time>2021-08-20T18:37:13Z</time>
      </trkpt>
      <trkpt lat="42.9358" lon="0.94255">
        <ele>627</ele>
        <time>2021-08-20T18:37:25Z</time>
      </trkpt>
      <trkpt lat="42.93532" lon="0.94355">
        <ele>625</ele>
        <time>2021-08-20T18:37:40Z</time>
      </trkpt>
      <trkpt lat="42.93525" lon="0.94378">
        <ele>624</ele>
        <time>2021-08-20T18:37:43Z</time>
      </trkpt>
      <trkpt lat="42.93521" lon="0.94401">
        <ele>623</ele>
        <time>2021-08-20T18:37:46Z</time>
      </trkpt>
      <trkpt lat="42.93519" lon="0.94444">
        <ele>622</ele>
        <time>2021-08-20T18:37:52Z</time>
      </trkpt>
      <trkpt lat="42.93528" lon="0.94499">
        <ele>622</ele>
        <time>2021-08-20T18:37:59Z</time>
      </trkpt>
      <trkpt lat="42.93531" lon="0.94545">
        <ele>620</ele>
        <time>2021-08-20T18:38:05Z</time>
      </trkpt>
      <trkpt lat="42.93536" lon="0.94581">
        <ele>618</ele>
        <time>2021-08-20T18:38:10Z</time>
      </trkpt>
      <trkpt lat="42.93544" lon="0.94615">
        <ele>614</ele>
        <time>2021-08-20T18:38:15Z</time>
      </trkpt>
      <trkpt lat="42.93569" lon="0.94664">
        <ele>610</ele>
        <time>2021-08-20T18:38:23Z</time>
      </trkpt>
      <trkpt lat="42.93584" lon="0.94682">
        <ele>609</ele>
        <time>2021-08-20T18:38:26Z</time>
      </trkpt>
      <trkpt lat="42.93607" lon="0.94705">
        <ele>609</ele>
        <time>2021-08-20T18:38:31Z</time>
      </trkpt>
      <trkpt lat="42.93666" lon="0.94748">
        <ele>610</ele>
        <time>2021-08-20T18:38:43Z</time>
      </trkpt>
      <trkpt lat="42.9369" lon="0.94768">
        <ele>614</ele>
        <time>2021-08-20T18:38:48Z</time>
      </trkpt>
      <trkpt lat="42.93701" lon="0.94783">
        <ele>615</ele>
        <time>2021-08-20T18:38:51Z</time>
      </trkpt>
      <trkpt lat="42.9371" lon="0.948">
        <ele>615</ele>
        <time>2021-08-20T18:38:54Z</time>
      </trkpt>
      <trkpt lat="42.93725" lon="0.9488">
        <ele>610</ele>
        <time>2021-08-20T18:39:04Z</time>
      </trkpt>
      <trkpt lat="42.93742" lon="0.94993">
        <ele>603</ele>
        <time>2021-08-20T18:39:19Z</time>
      </trkpt>
      <trkpt lat="42.93743" lon="0.95024">
        <ele>600</ele>
        <time>2021-08-20T18:39:23Z</time>
      </trkpt>
      <trkpt lat="42.93742" lon="0.95087">
        <ele>595</ele>
        <time>2021-08-20T18:39:32Z</time>
      </trkpt>
      <trkpt lat="42.93744" lon="0.95104">
        <ele>595</ele>
        <time>2021-08-20T18:39:34Z</time>
      </trkpt>
      <trkpt lat="42.93747" lon="0.95119">
        <ele>594</ele>
        <time>2021-08-20T18:39:36Z</time>
      </trkpt>
      <trkpt lat="42.93755" lon="0.95137">
        <ele>595</ele>
        <time>2021-08-20T18:39:39Z</time>
      </trkpt>
      <trkpt lat="42.93769" lon="0.95164">
        <ele>599</ele>
        <time>2021-08-20T18:39:43Z</time>
      </trkpt>
      <trkpt lat="42.93784" lon="0.95204">
        <ele>602</ele>
        <time>2021-08-20T18:39:49Z</time>
      </trkpt>
      <trkpt lat="42.93791" lon="0.95249">
        <ele>600</ele>
        <time>2021-08-20T18:39:55Z</time>
      </trkpt>
      <trkpt lat="42.93792" lon="0.95282">
        <ele>598</ele>
        <time>2021-08-20T18:39:59Z</time>
      </trkpt>
      <trkpt lat="42.93788" lon="0.95307">
        <ele>596</ele>
        <time>2021-08-20T18:40:03Z</time>
      </trkpt>
      <trkpt lat="42.93777" lon="0.9533">
        <ele>591</ele>
        <time>2021-08-20T18:40:06Z</time>
      </trkpt>
      <trkpt lat="42.93751" lon="0.95369">
        <ele>589</ele>
        <time>2021-08-20T18:40:13Z</time>
      </trkpt>
      <trkpt lat="42.93708" lon="0.95439">
        <ele>590</ele>
        <time>2021-08-20T18:40:25Z</time>
      </trkpt>
      <trkpt lat="42.93672" lon="0.95512">
        <ele>584</ele>
        <time>2021-08-20T18:40:36Z</time>
      </trkpt>
      <trkpt lat="42.93666" lon="0.95533">
        <ele>584</ele>
        <time>2021-08-20T18:40:39Z</time>
      </trkpt>
      <trkpt lat="42.93662" lon="0.95551">
        <ele>585</ele>
        <time>2021-08-20T18:40:42Z</time>
      </trkpt>
      <trkpt lat="42.93661" lon="0.95576">
        <ele>586</ele>
        <time>2021-08-20T18:40:45Z</time>
      </trkpt>
      <trkpt lat="42.93662" lon="0.95596">
        <ele>586</ele>
        <time>2021-08-20T18:40:48Z</time>
      </trkpt>
      <trkpt lat="42.93668" lon="0.95618">
        <ele>585</ele>
        <time>2021-08-20T18:40:51Z</time>
      </trkpt>
      <trkpt lat="42.93708" lon="0.95702">
        <ele>594</ele>
        <time>2021-08-20T18:41:04Z</time>
      </trkpt>
      <trkpt lat="42.93719" lon="0.9573">
        <ele>595</ele>
        <time>2021-08-20T18:41:08Z</time>
      </trkpt>
      <trkpt lat="42.93725" lon="0.95757">
        <ele>596</ele>
        <time>2021-08-20T18:41:12Z</time>
      </trkpt>
      <trkpt lat="42.93726" lon="0.95807">
        <ele>595</ele>
        <time>2021-08-20T18:41:18Z</time>
      </trkpt>
      <trkpt lat="42.93719" lon="0.95882">
        <ele>589</ele>
        <time>2021-08-20T18:41:28Z</time>
      </trkpt>
      <trkpt lat="42.93717" lon="0.95949">
        <ele>586</ele>
        <time>2021-08-20T18:41:37Z</time>
      </trkpt>
      <trkpt lat="42.93718" lon="0.96051">
        <ele>581</ele>
        <time>2021-08-20T18:41:50Z</time>
      </trkpt>
      <trkpt lat="42.93715" lon="0.96161">
        <ele>576</ele>
        <time>2021-08-20T18:42:04Z</time>
      </trkpt>
      <trkpt lat="42.9371" lon="0.96186">
        <ele>575</ele>
        <time>2021-08-20T18:42:08Z</time>
      </trkpt>
      <trkpt lat="42.93699" lon="0.96213">
        <ele>573</ele>
        <time>2021-08-20T18:42:12Z</time>
      </trkpt>
      <trkpt lat="42.93688" lon="0.96232">
        <ele>571</ele>
        <time>2021-08-20T18:42:15Z</time>
      </trkpt>
      <trkpt lat="42.93671" lon="0.96251">
        <ele>568</ele>
        <time>2021-08-20T18:42:19Z</time>
      </trkpt>
      <trkpt lat="42.93646" lon="0.96269">
        <ele>569</ele>
        <time>2021-08-20T18:42:24Z</time>
      </trkpt>
      <trkpt lat="42.93621" lon="0.96283">
        <ele>572</ele>
        <time>2021-08-20T18:42:29Z</time>
      </trkpt>
      <trkpt lat="42.93616" lon="0.96288">
        <ele>573</ele>
        <time>2021-08-20T18:42:30Z</time>
      </trkpt>
      <trkpt lat="42.93614" lon="0.96293">
        <ele>573</ele>
        <time>2021-08-20T18:42:30Z</time>
      </trkpt>
      <trkpt lat="42.93617" lon="0.96305">
        <ele>573</ele>
        <time>2021-08-20T18:42:32Z</time>
      </trkpt>
      <trkpt lat="42.93643" lon="0.96334">
        <ele>570</ele>
        <time>2021-08-20T18:42:38Z</time>
      </trkpt>
      <trkpt lat="42.93649" lon="0.96345">
        <ele>569</ele>
        <time>2021-08-20T18:42:40Z</time>
      </trkpt>
      <trkpt lat="42.93662" lon="0.96376">
        <ele>568</ele>
        <time>2021-08-20T18:42:44Z</time>
      </trkpt>
      <trkpt lat="42.9369" lon="0.96511">
        <ele>567</ele>
        <time>2021-08-20T18:43:03Z</time>
      </trkpt>
      <trkpt lat="42.93702" lon="0.96685">
        <ele>568</ele>
        <time>2021-08-20T18:43:25Z</time>
      </trkpt>
      <trkpt lat="42.93703" lon="0.96742">
        <ele>568</ele>
        <time>2021-08-20T18:43:33Z</time>
      </trkpt>
      <trkpt lat="42.93696" lon="0.96789">
        <ele>566</ele>
        <time>2021-08-20T18:43:39Z</time>
      </trkpt>
      <trkpt lat="42.9368" lon="0.96854">
        <ele>562</ele>
        <time>2021-08-20T18:43:48Z</time>
      </trkpt>
      <trkpt lat="42.93652" lon="0.97005">
        <ele>557</ele>
        <time>2021-08-20T18:44:08Z</time>
      </trkpt>
      <trkpt lat="42.93627" lon="0.9712">
        <ele>556</ele>
        <time>2021-08-20T18:44:24Z</time>
      </trkpt>
      <trkpt lat="42.93593" lon="0.97296">
        <ele>553</ele>
        <time>2021-08-20T18:44:48Z</time>
      </trkpt>
      <trkpt lat="42.93588" lon="0.97317">
        <ele>553</ele>
        <time>2021-08-20T18:44:51Z</time>
      </trkpt>
      <trkpt lat="42.93575" lon="0.9738">
        <ele>553</ele>
        <time>2021-08-20T18:44:59Z</time>
      </trkpt>
      <trkpt lat="42.9357" lon="0.97403">
        <ele>553</ele>
        <time>2021-08-20T18:45:02Z</time>
      </trkpt>
      <trkpt lat="42.93563" lon="0.97437">
        <ele>553</ele>
        <time>2021-08-20T18:45:07Z</time>
      </trkpt>
      <trkpt lat="42.93547" lon="0.97498">
        <ele>554</ele>
        <time>2021-08-20T18:45:15Z</time>
      </trkpt>
      <trkpt lat="42.93512" lon="0.97614">
        <ele>557</ele>
        <time>2021-08-20T18:45:32Z</time>
      </trkpt>
      <trkpt lat="42.93507" lon="0.97625">
        <ele>557</ele>
        <time>2021-08-20T18:45:33Z</time>
      </trkpt>
      <trkpt lat="42.93502" lon="0.97632">
        <ele>557</ele>
        <time>2021-08-20T18:45:35Z</time>
      </trkpt>
      <trkpt lat="42.93465" lon="0.97669">
        <ele>556</ele>
        <time>2021-08-20T18:45:43Z</time>
      </trkpt>
      <trkpt lat="42.93432" lon="0.97706">
        <ele>555</ele>
        <time>2021-08-20T18:45:50Z</time>
      </trkpt>
      <trkpt lat="42.93412" lon="0.97737">
        <ele>554</ele>
        <time>2021-08-20T18:45:56Z</time>
      </trkpt>
      <trkpt lat="42.93354" lon="0.97839">
        <ele>554</ele>
        <time>2021-08-20T18:46:13Z</time>
      </trkpt>
      <trkpt lat="42.93338" lon="0.97875">
        <ele>553</ele>
        <time>2021-08-20T18:46:18Z</time>
      </trkpt>
      <trkpt lat="42.9332" lon="0.97955">
        <ele>554</ele>
        <time>2021-08-20T18:46:29Z</time>
      </trkpt>
      <trkpt lat="42.93309" lon="0.98015">
        <ele>555</ele>
        <time>2021-08-20T18:46:37Z</time>
      </trkpt>
      <trkpt lat="42.93294" lon="0.98117">
        <ele>556</ele>
        <time>2021-08-20T18:46:51Z</time>
      </trkpt>
      <trkpt lat="42.93283" lon="0.98176">
        <ele>556</ele>
        <time>2021-08-20T18:46:58Z</time>
      </trkpt>
      <trkpt lat="42.93269" lon="0.98226">
        <ele>553</ele>
        <time>2021-08-20T18:47:05Z</time>
      </trkpt>
      <trkpt lat="42.93238" lon="0.98306">
        <ele>550</ele>
        <time>2021-08-20T18:47:17Z</time>
      </trkpt>
      <trkpt lat="42.93225" lon="0.98351">
        <ele>549</ele>
        <time>2021-08-20T18:47:24Z</time>
      </trkpt>
      <trkpt lat="42.93207" lon="0.98466">
        <ele>547</ele>
        <time>2021-08-20T18:47:39Z</time>
      </trkpt>
      <trkpt lat="42.93201" lon="0.98514">
        <ele>546</ele>
        <time>2021-08-20T18:47:45Z</time>
      </trkpt>
      <trkpt lat="42.93201" lon="0.98562">
        <ele>546</ele>
        <time>2021-08-20T18:47:51Z</time>
      </trkpt>
      <trkpt lat="42.93212" lon="0.98675">
        <ele>547</ele>
        <time>2021-08-20T18:48:06Z</time>
      </trkpt>
      <trkpt lat="42.93212" lon="0.98725">
        <ele>546</ele>
        <time>2021-08-20T18:48:13Z</time>
      </trkpt>
      <trkpt lat="42.93205" lon="0.98809">
        <ele>546</ele>
        <time>2021-08-20T18:48:24Z</time>
      </trkpt>
      <trkpt lat="42.93207" lon="0.98863">
        <ele>546</ele>
        <time>2021-08-20T18:48:31Z</time>
      </trkpt>
      <trkpt lat="42.93216" lon="0.98941">
        <ele>546</ele>
        <time>2021-08-20T18:48:41Z</time>
      </trkpt>
      <trkpt lat="42.93229" lon="0.99032">
        <ele>546</ele>
        <time>2021-08-20T18:48:53Z</time>
      </trkpt>
      <trkpt lat="42.93229" lon="0.99044">
        <ele>546</ele>
        <time>2021-08-20T18:48:55Z</time>
      </trkpt>
      <trkpt lat="42.93219" lon="0.99096">
        <ele>544</ele>
        <time>2021-08-20T18:49:02Z</time>
      </trkpt>
      <trkpt lat="42.93214" lon="0.99152">
        <ele>543</ele>
        <time>2021-08-20T18:49:09Z</time>
      </trkpt>
      <trkpt lat="42.93211" lon="0.99172">
        <ele>543</ele>
        <time>2021-08-20T18:49:12Z</time>
      </trkpt>
      <trkpt lat="42.93207" lon="0.99188">
        <ele>543</ele>
        <time>2021-08-20T18:49:14Z</time>
      </trkpt>
      <trkpt lat="42.93196" lon="0.99209">
        <ele>542</ele>
        <time>2021-08-20T18:49:17Z</time>
      </trkpt>
      <trkpt lat="42.93188" lon="0.99213">
        <ele>542</ele>
        <time>2021-08-20T18:49:19Z</time>
      </trkpt>
      <trkpt lat="42.93125" lon="0.99239">
        <ele>539</ele>
        <time>2021-08-20T18:49:31Z</time>
      </trkpt>
      <trkpt lat="42.93116" lon="0.99247">
        <ele>539</ele>
        <time>2021-08-20T18:49:33Z</time>
      </trkpt>
      <trkpt lat="42.93088" lon="0.99288">
        <ele>536</ele>
        <time>2021-08-20T18:49:40Z</time>
      </trkpt>
      <trkpt lat="42.93051" lon="0.99324">
        <ele>534</ele>
        <time>2021-08-20T18:49:48Z</time>
      </trkpt>
      <trkpt lat="42.93041" lon="0.99337">
        <ele>534</ele>
        <time>2021-08-20T18:49:50Z</time>
      </trkpt>
      <trkpt lat="42.93035" lon="0.99349">
        <ele>534</ele>
        <time>2021-08-20T18:49:52Z</time>
      </trkpt>
      <trkpt lat="42.93026" lon="0.99388">
        <ele>535</ele>
        <time>2021-08-20T18:49:58Z</time>
      </trkpt>
      <trkpt lat="42.93013" lon="0.9947">
        <ele>535</ele>
        <time>2021-08-20T18:50:09Z</time>
      </trkpt>
      <trkpt lat="42.93008" lon="0.99493">
        <ele>535</ele>
        <time>2021-08-20T18:50:12Z</time>
      </trkpt>
      <trkpt lat="42.92999" lon="0.99517">
        <ele>536</ele>
        <time>2021-08-20T18:50:15Z</time>
      </trkpt>
      <trkpt lat="42.92987" lon="0.99539">
        <ele>537</ele>
        <time>2021-08-20T18:50:19Z</time>
      </trkpt>
      <trkpt lat="42.92973" lon="0.99558">
        <ele>537</ele>
        <time>2021-08-20T18:50:22Z</time>
      </trkpt>
      <trkpt lat="42.92875" lon="0.99688">
        <ele>536</ele>
        <time>2021-08-20T18:50:47Z</time>
      </trkpt>
      <trkpt lat="42.92818" lon="0.99782">
        <ele>537</ele>
        <time>2021-08-20T18:51:02Z</time>
      </trkpt>
      <trkpt lat="42.92743" lon="0.99933">
        <ele>535</ele>
        <time>2021-08-20T18:51:26Z</time>
      </trkpt>
      <trkpt lat="42.92655" lon="1.00072">
        <ele>535</ele>
        <time>2021-08-20T18:51:50Z</time>
      </trkpt>
      <trkpt lat="42.92629" lon="1.00113">
        <ele>534</ele>
        <time>2021-08-20T18:51:57Z</time>
      </trkpt>
      <trkpt lat="42.92611" lon="1.00146">
        <ele>533</ele>
        <time>2021-08-20T18:52:03Z</time>
      </trkpt>
      <trkpt lat="42.92595" lon="1.00192">
        <ele>531</ele>
        <time>2021-08-20T18:52:09Z</time>
      </trkpt>
      <trkpt lat="42.92584" lon="1.00241">
        <ele>530</ele>
        <time>2021-08-20T18:52:16Z</time>
      </trkpt>
      <trkpt lat="42.92567" lon="1.00328">
        <ele>534</ele>
        <time>2021-08-20T18:52:28Z</time>
      </trkpt>
      <trkpt lat="42.92554" lon="1.00408">
        <ele>534</ele>
        <time>2021-08-20T18:52:38Z</time>
      </trkpt>
      <trkpt lat="42.92547" lon="1.00461">
        <ele>532</ele>
        <time>2021-08-20T18:52:45Z</time>
      </trkpt>
      <trkpt lat="42.92544" lon="1.00502">
        <ele>531</ele>
        <time>2021-08-20T18:52:51Z</time>
      </trkpt>
      <trkpt lat="42.9254" lon="1.00627">
        <ele>529</ele>
        <time>2021-08-20T18:53:07Z</time>
      </trkpt>
      <trkpt lat="42.92558" lon="1.00898">
        <ele>524</ele>
        <time>2021-08-20T18:53:42Z</time>
      </trkpt>
      <trkpt lat="42.92572" lon="1.01065">
        <ele>524</ele>
        <time>2021-08-20T18:54:04Z</time>
      </trkpt>
      <trkpt lat="42.92589" lon="1.01154">
        <ele>521</ele>
        <time>2021-08-20T18:54:16Z</time>
      </trkpt>
      <trkpt lat="42.92607" lon="1.01229">
        <ele>522</ele>
        <time>2021-08-20T18:54:27Z</time>
      </trkpt>
      <trkpt lat="42.92643" lon="1.01331">
        <ele>521</ele>
        <time>2021-08-20T18:54:41Z</time>
      </trkpt>
      <trkpt lat="42.92668" lon="1.0141">
        <ele>518</ele>
        <time>2021-08-20T18:54:53Z</time>
      </trkpt>
      <trkpt lat="42.92735" lon="1.01525">
        <ele>520</ele>
        <time>2021-08-20T18:55:12Z</time>
      </trkpt>
      <trkpt lat="42.92747" lon="1.0156">
        <ele>520</ele>
        <time>2021-08-20T18:55:17Z</time>
      </trkpt>
      <trkpt lat="42.9275" lon="1.01576">
        <ele>519</ele>
        <time>2021-08-20T18:55:19Z</time>
      </trkpt>
      <trkpt lat="42.9275" lon="1.01591">
        <ele>519</ele>
        <time>2021-08-20T18:55:21Z</time>
      </trkpt>
      <trkpt lat="42.92745" lon="1.01623">
        <ele>521</ele>
        <time>2021-08-20T18:55:25Z</time>
      </trkpt>
      <trkpt lat="42.92741" lon="1.01635">
        <ele>521</ele>
        <time>2021-08-20T18:55:27Z</time>
      </trkpt>
      <trkpt lat="42.92703" lon="1.01703">
        <ele>521</ele>
        <time>2021-08-20T18:55:38Z</time>
      </trkpt>
      <trkpt lat="42.92687" lon="1.01746">
        <ele>519</ele>
        <time>2021-08-20T18:55:44Z</time>
      </trkpt>
      <trkpt lat="42.92666" lon="1.01823">
        <ele>518</ele>
        <time>2021-08-20T18:55:55Z</time>
      </trkpt>
      <trkpt lat="42.92662" lon="1.0186">
        <ele>519</ele>
        <time>2021-08-20T18:56:00Z</time>
      </trkpt>
      <trkpt lat="42.92662" lon="1.01896">
        <ele>519</ele>
        <time>2021-08-20T18:56:05Z</time>
      </trkpt>
      <trkpt lat="42.92669" lon="1.01974">
        <ele>516</ele>
        <time>2021-08-20T18:56:15Z</time>
      </trkpt>
      <trkpt lat="42.92672" lon="1.02017">
        <ele>518</ele>
        <time>2021-08-20T18:56:20Z</time>
      </trkpt>
      <trkpt lat="42.92674" lon="1.02033">
        <ele>519</ele>
        <time>2021-08-20T18:56:23Z</time>
      </trkpt>
      <trkpt lat="42.9268" lon="1.02056">
        <ele>520</ele>
        <time>2021-08-20T18:56:26Z</time>
      </trkpt>
      <trkpt lat="42.92697" lon="1.02097">
        <ele>521</ele>
        <time>2021-08-20T18:56:32Z</time>
      </trkpt>
      <trkpt lat="42.92754" lon="1.02197">
        <ele>519</ele>
        <time>2021-08-20T18:56:48Z</time>
      </trkpt>
      <trkpt lat="42.92793" lon="1.0227">
        <ele>519</ele>
        <time>2021-08-20T18:57:00Z</time>
      </trkpt>
      <trkpt lat="42.92801" lon="1.02291">
        <ele>519</ele>
        <time>2021-08-20T18:57:03Z</time>
      </trkpt>
      <trkpt lat="42.92807" lon="1.02334">
        <ele>520</ele>
        <time>2021-08-20T18:57:09Z</time>
      </trkpt>
      <trkpt lat="42.92805" lon="1.02356">
        <ele>520</ele>
        <time>2021-08-20T18:57:12Z</time>
      </trkpt>
      <trkpt lat="42.92801" lon="1.02379">
        <ele>520</ele>
        <time>2021-08-20T18:57:15Z</time>
      </trkpt>
      <trkpt lat="42.92778" lon="1.02447">
        <ele>518</ele>
        <time>2021-08-20T18:57:25Z</time>
      </trkpt>
      <trkpt lat="42.92779" lon="1.02474">
        <ele>515</ele>
        <time>2021-08-20T18:57:28Z</time>
      </trkpt>
      <trkpt lat="42.92779" lon="1.0251">
        <ele>512</ele>
        <time>2021-08-20T18:57:33Z</time>
      </trkpt>
      <trkpt lat="42.92783" lon="1.02559">
        <ele>512</ele>
        <time>2021-08-20T18:57:39Z</time>
      </trkpt>
      <trkpt lat="42.92788" lon="1.02584">
        <ele>511</ele>
        <time>2021-08-20T18:57:43Z</time>
      </trkpt>
      <trkpt lat="42.92882" lon="1.02971">
        <ele>532</ele>
        <time>2021-08-20T18:58:36Z</time>
      </trkpt>
      <trkpt lat="42.92831" lon="1.02979">
        <ele>533</ele>
        <time>2021-08-20T18:58:45Z</time>
      </trkpt>
      <trkpt lat="42.92726" lon="1.02973">
        <ele>536</ele>
        <time>2021-08-20T18:59:04Z</time>
      </trkpt>
      <trkpt lat="42.92641" lon="1.0296">
        <ele>539</ele>
        <time>2021-08-20T18:59:19Z</time>
      </trkpt>
      <trkpt lat="42.92571" lon="1.02961">
        <ele>541</ele>
        <time>2021-08-20T18:59:31Z</time>
      </trkpt>
      <trkpt lat="42.92503" lon="1.0299">
        <ele>545</ele>
        <time>2021-08-20T18:59:44Z</time>
      </trkpt>
      <trkpt lat="42.92247" lon="1.03138">
        <ele>545</ele>
        <time>2021-08-20T19:00:33Z</time>
      </trkpt>
      <trkpt lat="42.92209" lon="1.03149">
        <ele>546</ele>
        <time>2021-08-20T19:00:40Z</time>
      </trkpt>
      <trkpt lat="42.92143" lon="1.03154">
        <ele>548</ele>
        <time>2021-08-20T19:00:52Z</time>
      </trkpt>
      <trkpt lat="42.92129" lon="1.03152">
        <ele>549</ele>
        <time>2021-08-20T19:00:55Z</time>
      </trkpt>
      <trkpt lat="42.91898" lon="1.03128">
        <ele>552</ele>
        <time>2021-08-20T19:01:36Z</time>
      </trkpt>
      <trkpt lat="42.91838" lon="1.03118">
        <ele>552</ele>
        <time>2021-08-20T19:01:47Z</time>
      </trkpt>
      <trkpt lat="42.91813" lon="1.03097">
        <ele>552</ele>
        <time>2021-08-20T19:01:52Z</time>
      </trkpt>
      <trkpt lat="42.9179" lon="1.03084">
        <ele>552</ele>
        <time>2021-08-20T19:01:56Z</time>
      </trkpt>
      <trkpt lat="42.91629" lon="1.03022">
        <ele>557</ele>
        <time>2021-08-20T19:02:26Z</time>
      </trkpt>
      <trkpt lat="42.91558" lon="1.02954">
        <ele>557</ele>
        <time>2021-08-20T19:02:41Z</time>
      </trkpt>
      <trkpt lat="42.9152" lon="1.02944">
        <ele>562</ele>
        <time>2021-08-20T19:02:48Z</time>
      </trkpt>
      <trkpt lat="42.9146" lon="1.02905">
        <ele>561</ele>
        <time>2021-08-20T19:03:00Z</time>
      </trkpt>
      <trkpt lat="42.91392" lon="1.02899">
        <ele>567</ele>
        <time>2021-08-20T19:03:12Z</time>
      </trkpt>
      <trkpt lat="42.91331" lon="1.02856">
        <ele>567</ele>
        <time>2021-08-20T19:03:24Z</time>
      </trkpt>
      <trkpt lat="42.91317" lon="1.02854">
        <ele>568</ele>
        <time>2021-08-20T19:03:27Z</time>
      </trkpt>
      <trkpt lat="42.91273" lon="1.02862">
        <ele>572</ele>
        <time>2021-08-20T19:03:35Z</time>
      </trkpt>
      <trkpt lat="42.9125" lon="1.02859">
        <ele>574</ele>
        <time>2021-08-20T19:03:39Z</time>
      </trkpt>
      <trkpt lat="42.91227" lon="1.02851">
        <ele>571</ele>
        <time>2021-08-20T19:03:43Z</time>
      </trkpt>
      <trkpt lat="42.9121" lon="1.0285">
        <ele>571</ele>
        <time>2021-08-20T19:03:46Z</time>
      </trkpt>
      <trkpt lat="42.91182" lon="1.02869">
        <ele>573</ele>
        <time>2021-08-20T19:03:52Z</time>
      </trkpt>
      <trkpt lat="42.91119" lon="1.02919">
        <ele>576</ele>
        <time>2021-08-20T19:04:05Z</time>
      </trkpt>
      <trkpt lat="42.91075" lon="1.02939">
        <ele>580</ele>
        <time>2021-08-20T19:04:13Z</time>
      </trkpt>
      <trkpt lat="42.91033" lon="1.02951">
        <ele>582</ele>
        <time>2021-08-20T19:04:21Z</time>
      </trkpt>
      <trkpt lat="42.91" lon="1.02947">
        <ele>579</ele>
        <time>2021-08-20T19:04:27Z</time>
      </trkpt>
      <trkpt lat="42.90963" lon="1.02934">
        <ele>575</ele>
        <time>2021-08-20T19:04:33Z</time>
      </trkpt>
      <trkpt lat="42.90946" lon="1.02922">
        <ele>571</ele>
        <time>2021-08-20T19:04:37Z</time>
      </trkpt>
      <trkpt lat="42.9093" lon="1.02917">
        <ele>569</ele>
        <time>2021-08-20T19:04:40Z</time>
      </trkpt>
      <trkpt lat="42.90865" lon="1.02912">
        <ele>567</ele>
        <time>2021-08-20T19:04:51Z</time>
      </trkpt>
      <trkpt lat="42.90814" lon="1.02914">
        <ele>566</ele>
        <time>2021-08-20T19:05:00Z</time>
      </trkpt>
      <trkpt lat="42.90751" lon="1.0291">
        <ele>565</ele>
        <time>2021-08-20T19:05:12Z</time>
      </trkpt>
      <trkpt lat="42.90728" lon="1.02905">
        <ele>570</ele>
        <time>2021-08-20T19:05:16Z</time>
      </trkpt>
      <trkpt lat="42.90672" lon="1.02879">
        <ele>578</ele>
        <time>2021-08-20T19:05:26Z</time>
      </trkpt>
      <trkpt lat="42.90594" lon="1.02834">
        <ele>567</ele>
        <time>2021-08-20T19:05:41Z</time>
      </trkpt>
      <trkpt lat="42.90569" lon="1.02825">
        <ele>564</ele>
        <time>2021-08-20T19:05:46Z</time>
      </trkpt>
      <trkpt lat="42.90541" lon="1.02832">
        <ele>561</ele>
        <time>2021-08-20T19:05:51Z</time>
      </trkpt>
      <trkpt lat="42.90513" lon="1.02849">
        <ele>561</ele>
        <time>2021-08-20T19:05:56Z</time>
      </trkpt>
      <trkpt lat="42.90488" lon="1.02869">
        <ele>562</ele>
        <time>2021-08-20T19:06:02Z</time>
      </trkpt>
      <trkpt lat="42.90451" lon="1.02909">
        <ele>563</ele>
        <time>2021-08-20T19:06:10Z</time>
      </trkpt>
      <trkpt lat="42.90416" lon="1.02938">
        <ele>563</ele>
        <time>2021-08-20T19:06:17Z</time>
      </trkpt>
      <trkpt lat="42.90393" lon="1.02944">
        <ele>563</ele>
        <time>2021-08-20T19:06:21Z</time>
      </trkpt>
      <trkpt lat="42.90346" lon="1.02944">
        <ele>561</ele>
        <time>2021-08-20T19:06:30Z</time>
      </trkpt>
      <trkpt lat="42.90311" lon="1.0294">
        <ele>560</ele>
        <time>2021-08-20T19:06:36Z</time>
      </trkpt>
      <trkpt lat="42.90302" lon="1.02957">
        <ele>564</ele>
        <time>2021-08-20T19:06:39Z</time>
      </trkpt>
      <trkpt lat="42.90279" lon="1.02979">
        <ele>568</ele>
        <time>2021-08-20T19:06:44Z</time>
      </trkpt>
      <trkpt lat="42.9021" lon="1.03001">
        <ele>572</ele>
        <time>2021-08-20T19:06:56Z</time>
      </trkpt>
      <trkpt lat="42.90189" lon="1.03015">
        <ele>573</ele>
        <time>2021-08-20T19:07:01Z</time>
      </trkpt>
      <trkpt lat="42.90162" lon="1.03053">
        <ele>576</ele>
        <time>2021-08-20T19:07:07Z</time>
      </trkpt>
      <trkpt lat="42.90151" lon="1.03082">
        <ele>580</ele>
        <time>2021-08-20T19:07:12Z</time>
      </trkpt>
      <trkpt lat="42.90149" lon="1.03215">
        <ele>600</ele>
        <time>2021-08-20T19:07:29Z</time>
      </trkpt>
      <trkpt lat="42.90145" lon="1.03245">
        <ele>604</ele>
        <time>2021-08-20T19:07:33Z</time>
      </trkpt>
      <trkpt lat="42.90138" lon="1.03252">
        <ele>607</ele>
        <time>2021-08-20T19:07:35Z</time>
      </trkpt>
      <trkpt lat="42.9013" lon="1.03255">
        <ele>609</ele>
        <time>2021-08-20T19:07:36Z</time>
      </trkpt>
      <trkpt lat="42.90126" lon="1.03253">
        <ele>609</ele>
        <time>2021-08-20T19:07:37Z</time>
      </trkpt>
      <trkpt lat="42.9011" lon="1.03217">
        <ele>606</ele>
        <time>2021-08-20T19:07:42Z</time>
      </trkpt>
      <trkpt lat="42.90099" lon="1.03175">
        <ele>600</ele>
        <time>2021-08-20T19:07:48Z</time>
      </trkpt>
      <trkpt lat="42.9009" lon="1.03153">
        <ele>597</ele>
        <time>2021-08-20T19:07:51Z</time>
      </trkpt>
      <trkpt lat="42.90051" lon="1.03138">
        <ele>600</ele>
        <time>2021-08-20T19:07:59Z</time>
      </trkpt>
      <trkpt lat="42.9002" lon="1.0312">
        <ele>602</ele>
        <time>2021-08-20T19:08:05Z</time>
      </trkpt>
      <trkpt lat="42.89998" lon="1.03104">
        <ele>603</ele>
        <time>2021-08-20T19:08:09Z</time>
      </trkpt>
      <trkpt lat="42.89957" lon="1.03066">
        <ele>596</ele>
        <time>2021-08-20T19:08:18Z</time>
      </trkpt>
      <trkpt lat="42.8994" lon="1.03062">
        <ele>595</ele>
        <time>2021-08-20T19:08:21Z</time>
      </trkpt>
      <trkpt lat="42.89933" lon="1.03068">
        <ele>596</ele>
        <time>2021-08-20T19:08:22Z</time>
      </trkpt>
      <trkpt lat="42.89927" lon="1.03083">
        <ele>599</ele>
        <time>2021-08-20T19:08:25Z</time>
      </trkpt>
      <trkpt lat="42.89923" lon="1.03159">
        <ele>608</ele>
        <time>2021-08-20T19:08:35Z</time>
      </trkpt>
      <trkpt lat="42.89896" lon="1.03268">
        <ele>616</ele>
        <time>2021-08-20T19:08:50Z</time>
      </trkpt>
      <trkpt lat="42.89871" lon="1.03386">
        <ele>626</ele>
        <time>2021-08-20T19:09:06Z</time>
      </trkpt>
      <trkpt lat="42.89858" lon="1.03433">
        <ele>628</ele>
        <time>2021-08-20T19:09:12Z</time>
      </trkpt>
      <trkpt lat="42.89855" lon="1.03469">
        <ele>629</ele>
        <time>2021-08-20T19:09:17Z</time>
      </trkpt>
      <trkpt lat="42.89869" lon="1.0353">
        <ele>638</ele>
        <time>2021-08-20T19:09:25Z</time>
      </trkpt>
      <trkpt lat="42.89866" lon="1.03554">
        <ele>639</ele>
        <time>2021-08-20T19:09:28Z</time>
      </trkpt>
      <trkpt lat="42.89841" lon="1.03588">
        <ele>636</ele>
        <time>2021-08-20T19:09:35Z</time>
      </trkpt>
      <trkpt lat="42.89815" lon="1.03613">
        <ele>635</ele>
        <time>2021-08-20T19:09:40Z</time>
      </trkpt>
      <trkpt lat="42.89787" lon="1.03652">
        <ele>638</ele>
        <time>2021-08-20T19:09:47Z</time>
      </trkpt>
      <trkpt lat="42.89777" lon="1.03676">
        <ele>640</ele>
        <time>2021-08-20T19:09:51Z</time>
      </trkpt>
      <trkpt lat="42.89773" lon="1.03704">
        <ele>643</ele>
        <time>2021-08-20T19:09:55Z</time>
      </trkpt>
      <trkpt lat="42.8977" lon="1.0376">
        <ele>650</ele>
        <time>2021-08-20T19:10:02Z</time>
      </trkpt>
      <trkpt lat="42.8976" lon="1.03775">
        <ele>651</ele>
        <time>2021-08-20T19:10:05Z</time>
      </trkpt>
      <trkpt lat="42.89718" lon="1.03802">
        <ele>650</ele>
        <time>2021-08-20T19:10:13Z</time>
      </trkpt>
      <trkpt lat="42.89665" lon="1.0385">
        <ele>652</ele>
        <time>2021-08-20T19:10:24Z</time>
      </trkpt>
      <trkpt lat="42.89654" lon="1.03863">
        <ele>651</ele>
        <time>2021-08-20T19:10:27Z</time>
      </trkpt>
      <trkpt lat="42.89643" lon="1.03893">
        <ele>652</ele>
        <time>2021-08-20T19:10:31Z</time>
      </trkpt>
      <trkpt lat="42.8964" lon="1.03914">
        <ele>653</ele>
        <time>2021-08-20T19:10:34Z</time>
      </trkpt>
      <trkpt lat="42.89646" lon="1.0396">
        <ele>658</ele>
        <time>2021-08-20T19:10:40Z</time>
      </trkpt>
      <trkpt lat="42.89652" lon="1.03982">
        <ele>660</ele>
        <time>2021-08-20T19:10:43Z</time>
      </trkpt>
      <trkpt lat="42.89655" lon="1.04007">
        <ele>662</ele>
        <time>2021-08-20T19:10:46Z</time>
      </trkpt>
      <trkpt lat="42.8965" lon="1.04023">
        <ele>663</ele>
        <time>2021-08-20T19:10:49Z</time>
      </trkpt>
      <trkpt lat="42.89639" lon="1.04042">
        <ele>663</ele>
        <time>2021-08-20T19:10:52Z</time>
      </trkpt>
      <trkpt lat="42.89591" lon="1.04066">
        <ele>658</ele>
        <time>2021-08-20T19:11:01Z</time>
      </trkpt>
      <trkpt lat="42.89577" lon="1.04076">
        <ele>658</ele>
        <time>2021-08-20T19:11:04Z</time>
      </trkpt>
      <trkpt lat="42.89565" lon="1.04093">
        <ele>657</ele>
        <time>2021-08-20T19:11:07Z</time>
      </trkpt>
      <trkpt lat="42.8956" lon="1.04104">
        <ele>657</ele>
        <time>2021-08-20T19:11:09Z</time>
      </trkpt>
      <trkpt lat="42.89559" lon="1.04125">
        <ele>658</ele>
        <time>2021-08-20T19:11:11Z</time>
      </trkpt>
      <trkpt lat="42.89564" lon="1.04151">
        <ele>661</ele>
        <time>2021-08-20T19:11:15Z</time>
      </trkpt>
      <trkpt lat="42.89605" lon="1.04251">
        <ele>672</ele>
        <time>2021-08-20T19:11:30Z</time>
      </trkpt>
      <trkpt lat="42.89622" lon="1.04285">
        <ele>679</ele>
        <time>2021-08-20T19:11:35Z</time>
      </trkpt>
      <trkpt lat="42.8964" lon="1.04357">
        <ele>686</ele>
        <time>2021-08-20T19:11:45Z</time>
      </trkpt>
      <trkpt lat="42.89649" lon="1.04378">
        <ele>688</ele>
        <time>2021-08-20T19:11:48Z</time>
      </trkpt>
      <trkpt lat="42.89663" lon="1.04401">
        <ele>690</ele>
        <time>2021-08-20T19:11:52Z</time>
      </trkpt>
      <trkpt lat="42.89668" lon="1.04415">
        <ele>690</ele>
        <time>2021-08-20T19:11:54Z</time>
      </trkpt>
      <trkpt lat="42.8967" lon="1.04429">
        <ele>693</ele>
        <time>2021-08-20T19:11:56Z</time>
      </trkpt>
      <trkpt lat="42.89665" lon="1.04443">
        <ele>694</ele>
        <time>2021-08-20T19:11:58Z</time>
      </trkpt>
      <trkpt lat="42.89659" lon="1.04455">
        <ele>697</ele>
        <time>2021-08-20T19:12:00Z</time>
      </trkpt>
      <trkpt lat="42.89651" lon="1.04464">
        <ele>698</ele>
        <time>2021-08-20T19:12:02Z</time>
      </trkpt>
      <trkpt lat="42.89642" lon="1.0447">
        <ele>699</ele>
        <time>2021-08-20T19:12:03Z</time>
      </trkpt>
      <trkpt lat="42.89627" lon="1.04475">
        <ele>700</ele>
        <time>2021-08-20T19:12:06Z</time>
      </trkpt>
      <trkpt lat="42.89616" lon="1.04465">
        <ele>699</ele>
        <time>2021-08-20T19:12:09Z</time>
      </trkpt>
      <trkpt lat="42.89583" lon="1.04408">
        <ele>690</ele>
        <time>2021-08-20T19:12:18Z</time>
      </trkpt>
      <trkpt lat="42.89575" lon="1.04399">
        <ele>688</ele>
        <time>2021-08-20T19:12:20Z</time>
      </trkpt>
      <trkpt lat="42.89564" lon="1.04396">
        <ele>686</ele>
        <time>2021-08-20T19:12:22Z</time>
      </trkpt>
      <trkpt lat="42.89543" lon="1.0441">
        <ele>687</ele>
        <time>2021-08-20T19:12:26Z</time>
      </trkpt>
      <trkpt lat="42.89526" lon="1.04436">
        <ele>689</ele>
        <time>2021-08-20T19:12:31Z</time>
      </trkpt>
      <trkpt lat="42.8949" lon="1.04526">
        <ele>698</ele>
        <time>2021-08-20T19:12:44Z</time>
      </trkpt>
      <trkpt lat="42.89458" lon="1.04644">
        <ele>704</ele>
        <time>2021-08-20T19:13:00Z</time>
      </trkpt>
      <trkpt lat="42.89458" lon="1.0469">
        <ele>708</ele>
        <time>2021-08-20T19:13:06Z</time>
      </trkpt>
      <trkpt lat="42.8946" lon="1.04711">
        <ele>710</ele>
        <time>2021-08-20T19:13:09Z</time>
      </trkpt>
      <trkpt lat="42.89468" lon="1.04731">
        <ele>713</ele>
        <time>2021-08-20T19:13:12Z</time>
      </trkpt>
      <trkpt lat="42.8948" lon="1.04775">
        <ele>719</ele>
        <time>2021-08-20T19:13:18Z</time>
      </trkpt>
      <trkpt lat="42.89482" lon="1.04789">
        <ele>721</ele>
        <time>2021-08-20T19:13:20Z</time>
      </trkpt>
      <trkpt lat="42.89475" lon="1.04802">
        <ele>721</ele>
        <time>2021-08-20T19:13:22Z</time>
      </trkpt>
      <trkpt lat="42.89455" lon="1.04806">
        <ele>719</ele>
        <time>2021-08-20T19:13:26Z</time>
      </trkpt>
      <trkpt lat="42.89418" lon="1.04817">
        <ele>717</ele>
        <time>2021-08-20T19:13:33Z</time>
      </trkpt>
      <trkpt lat="42.89388" lon="1.04831">
        <ele>713</ele>
        <time>2021-08-20T19:13:38Z</time>
      </trkpt>
      <trkpt lat="42.8938" lon="1.04846">
        <ele>712</ele>
        <time>2021-08-20T19:13:41Z</time>
      </trkpt>
      <trkpt lat="42.89379" lon="1.04867">
        <ele>712</ele>
        <time>2021-08-20T19:13:43Z</time>
      </trkpt>
      <trkpt lat="42.89409" lon="1.04935">
        <ele>720</ele>
        <time>2021-08-20T19:13:54Z</time>
      </trkpt>
      <trkpt lat="42.89449" lon="1.04979">
        <ele>728</ele>
        <time>2021-08-20T19:14:03Z</time>
      </trkpt>
      <trkpt lat="42.89455" lon="1.05002">
        <ele>730</ele>
        <time>2021-08-20T19:14:06Z</time>
      </trkpt>
      <trkpt lat="42.89466" lon="1.05082">
        <ele>742</ele>
        <time>2021-08-20T19:14:17Z</time>
      </trkpt>
      <trkpt lat="42.89465" lon="1.05091">
        <ele>744</ele>
        <time>2021-08-20T19:14:18Z</time>
      </trkpt>
      <trkpt lat="42.89463" lon="1.05097">
        <ele>745</ele>
        <time>2021-08-20T19:14:19Z</time>
      </trkpt>
      <trkpt lat="42.89456" lon="1.05104">
        <ele>745</ele>
        <time>2021-08-20T19:14:20Z</time>
      </trkpt>
      <trkpt lat="42.89446" lon="1.05104">
        <ele>744</ele>
        <time>2021-08-20T19:14:22Z</time>
      </trkpt>
      <trkpt lat="42.89402" lon="1.0508">
        <ele>733</ele>
        <time>2021-08-20T19:14:30Z</time>
      </trkpt>
      <trkpt lat="42.89374" lon="1.05072">
        <ele>732</ele>
        <time>2021-08-20T19:14:35Z</time>
      </trkpt>
      <trkpt lat="42.89353" lon="1.0507">
        <ele>732</ele>
        <time>2021-08-20T19:14:39Z</time>
      </trkpt>
      <trkpt lat="42.89333" lon="1.0507">
        <ele>732</ele>
        <time>2021-08-20T19:14:43Z</time>
      </trkpt>
      <trkpt lat="42.89312" lon="1.05077">
        <ele>732</ele>
        <time>2021-08-20T19:14:47Z</time>
      </trkpt>
      <trkpt lat="42.89291" lon="1.05087">
        <ele>733</ele>
        <time>2021-08-20T19:14:51Z</time>
      </trkpt>
      <trkpt lat="42.89272" lon="1.05103">
        <ele>733</ele>
        <time>2021-08-20T19:14:55Z</time>
      </trkpt>
      <trkpt lat="42.89263" lon="1.05114">
        <ele>734</ele>
        <time>2021-08-20T19:14:57Z</time>
      </trkpt>
      <trkpt lat="42.89246" lon="1.05145">
        <ele>735</ele>
        <time>2021-08-20T19:15:02Z</time>
      </trkpt>
      <trkpt lat="42.8924" lon="1.05165">
        <ele>735</ele>
        <time>2021-08-20T19:15:05Z</time>
      </trkpt>
      <trkpt lat="42.89236" lon="1.05188">
        <ele>737</ele>
        <time>2021-08-20T19:15:08Z</time>
      </trkpt>
      <trkpt lat="42.89232" lon="1.05252">
        <ele>743</ele>
        <time>2021-08-20T19:15:16Z</time>
      </trkpt>
      <trkpt lat="42.89224" lon="1.05275">
        <ele>746</ele>
        <time>2021-08-20T19:15:19Z</time>
      </trkpt>
      <trkpt lat="42.89217" lon="1.05282">
        <ele>746</ele>
        <time>2021-08-20T19:15:21Z</time>
      </trkpt>
      <trkpt lat="42.89197" lon="1.05295">
        <ele>744</ele>
        <time>2021-08-20T19:15:25Z</time>
      </trkpt>
      <trkpt lat="42.89171" lon="1.05327">
        <ele>746</ele>
        <time>2021-08-20T19:15:31Z</time>
      </trkpt>
      <trkpt lat="42.89158" lon="1.05336">
        <ele>746</ele>
        <time>2021-08-20T19:15:34Z</time>
      </trkpt>
      <trkpt lat="42.89126" lon="1.05348">
        <ele>742</ele>
        <time>2021-08-20T19:15:40Z</time>
      </trkpt>
      <trkpt lat="42.89109" lon="1.05358">
        <ele>740</ele>
        <time>2021-08-20T19:15:43Z</time>
      </trkpt>
      <trkpt lat="42.89094" lon="1.05373">
        <ele>739</ele>
        <time>2021-08-20T19:15:46Z</time>
      </trkpt>
      <trkpt lat="42.89082" lon="1.05392">
        <ele>739</ele>
        <time>2021-08-20T19:15:49Z</time>
      </trkpt>
      <trkpt lat="42.89073" lon="1.05418">
        <ele>739</ele>
        <time>2021-08-20T19:15:53Z</time>
      </trkpt>
      <trkpt lat="42.89071" lon="1.05434">
        <ele>739</ele>
        <time>2021-08-20T19:15:55Z</time>
      </trkpt>
      <trkpt lat="42.89071" lon="1.0545">
        <ele>739</ele>
        <time>2021-08-20T19:15:57Z</time>
      </trkpt>
      <trkpt lat="42.89077" lon="1.05563">
        <ele>746</ele>
        <time>2021-08-20T19:16:12Z</time>
      </trkpt>
      <trkpt lat="42.89079" lon="1.05575">
        <ele>746</ele>
        <time>2021-08-20T19:16:14Z</time>
      </trkpt>
      <trkpt lat="42.8909" lon="1.05596">
        <ele>752</ele>
        <time>2021-08-20T19:16:17Z</time>
      </trkpt>
      <trkpt lat="42.89094" lon="1.05612">
        <ele>756</ele>
        <time>2021-08-20T19:16:19Z</time>
      </trkpt>
      <trkpt lat="42.89095" lon="1.05624">
        <ele>759</ele>
        <time>2021-08-20T19:16:21Z</time>
      </trkpt>
      <trkpt lat="42.89092" lon="1.05634">
        <ele>760</ele>
        <time>2021-08-20T19:16:22Z</time>
      </trkpt>
      <trkpt lat="42.89085" lon="1.05639">
        <ele>760</ele>
        <time>2021-08-20T19:16:24Z</time>
      </trkpt>
      <trkpt lat="42.89077" lon="1.0564">
        <ele>760</ele>
        <time>2021-08-20T19:16:25Z</time>
      </trkpt>
      <trkpt lat="42.89056" lon="1.05635">
        <ele>758</ele>
        <time>2021-08-20T19:16:29Z</time>
      </trkpt>
      <trkpt lat="42.89022" lon="1.05617">
        <ele>753</ele>
        <time>2021-08-20T19:16:35Z</time>
      </trkpt>
      <trkpt lat="42.88997" lon="1.05609">
        <ele>751</ele>
        <time>2021-08-20T19:16:40Z</time>
      </trkpt>
      <trkpt lat="42.88987" lon="1.05609">
        <ele>750</ele>
        <time>2021-08-20T19:16:42Z</time>
      </trkpt>
      <trkpt lat="42.88967" lon="1.05624">
        <ele>750</ele>
        <time>2021-08-20T19:16:46Z</time>
      </trkpt>
      <trkpt lat="42.88959" lon="1.05635">
        <ele>751</ele>
        <time>2021-08-20T19:16:48Z</time>
      </trkpt>
      <trkpt lat="42.88944" lon="1.05667">
        <ele>754</ele>
        <time>2021-08-20T19:16:53Z</time>
      </trkpt>
      <trkpt lat="42.88935" lon="1.05691">
        <ele>755</ele>
        <time>2021-08-20T19:16:56Z</time>
      </trkpt>
      <trkpt lat="42.88924" lon="1.0574">
        <ele>756</ele>
        <time>2021-08-20T19:17:03Z</time>
      </trkpt>
      <trkpt lat="42.88921" lon="1.05755">
        <ele>757</ele>
        <time>2021-08-20T19:17:05Z</time>
      </trkpt>
      <trkpt lat="42.88916" lon="1.05818">
        <ele>758</ele>
        <time>2021-08-20T19:17:13Z</time>
      </trkpt>
      <trkpt lat="42.88915" lon="1.05882">
        <ele>768</ele>
        <time>2021-08-20T19:17:22Z</time>
      </trkpt>
      <trkpt lat="42.88909" lon="1.05909">
        <ele>772</ele>
        <time>2021-08-20T19:17:25Z</time>
      </trkpt>
      <trkpt lat="42.88891" lon="1.05918">
        <ele>774</ele>
        <time>2021-08-20T19:17:29Z</time>
      </trkpt>
      <trkpt lat="42.88871" lon="1.05914">
        <ele>772</ele>
        <time>2021-08-20T19:17:32Z</time>
      </trkpt>
      <trkpt lat="42.88826" lon="1.05894">
        <ele>765</ele>
        <time>2021-08-20T19:17:41Z</time>
      </trkpt>
      <trkpt lat="42.88813" lon="1.0589">
        <ele>763</ele>
        <time>2021-08-20T19:17:43Z</time>
      </trkpt>
      <trkpt lat="42.88797" lon="1.05888">
        <ele>761</ele>
        <time>2021-08-20T19:17:46Z</time>
      </trkpt>
      <trkpt lat="42.88779" lon="1.05892">
        <ele>760</ele>
        <time>2021-08-20T19:17:49Z</time>
      </trkpt>
      <trkpt lat="42.88765" lon="1.05898">
        <ele>760</ele>
        <time>2021-08-20T19:17:52Z</time>
      </trkpt>
      <trkpt lat="42.88749" lon="1.05911">
        <ele>761</ele>
        <time>2021-08-20T19:17:55Z</time>
      </trkpt>
      <trkpt lat="42.88739" lon="1.05925">
        <ele>761</ele>
        <time>2021-08-20T19:17:58Z</time>
      </trkpt>
      <trkpt lat="42.88728" lon="1.05946">
        <ele>761</ele>
        <time>2021-08-20T19:18:01Z</time>
      </trkpt>
      <trkpt lat="42.8872" lon="1.05981">
        <ele>764</ele>
        <time>2021-08-20T19:18:06Z</time>
      </trkpt>
      <trkpt lat="42.88723" lon="1.06051">
        <ele>775</ele>
        <time>2021-08-20T19:18:15Z</time>
      </trkpt>
      <trkpt lat="42.8872" lon="1.06078">
        <ele>778</ele>
        <time>2021-08-20T19:18:19Z</time>
      </trkpt>
      <trkpt lat="42.88681" lon="1.06115">
        <ele>772</ele>
        <time>2021-08-20T19:18:27Z</time>
      </trkpt>
      <trkpt lat="42.88662" lon="1.06129">
        <ele>769</ele>
        <time>2021-08-20T19:18:31Z</time>
      </trkpt>
      <trkpt lat="42.88651" lon="1.06145">
        <ele>768</ele>
        <time>2021-08-20T19:18:34Z</time>
      </trkpt>
      <trkpt lat="42.88645" lon="1.06161">
        <ele>768</ele>
        <time>2021-08-20T19:18:36Z</time>
      </trkpt>
      <trkpt lat="42.88641" lon="1.06195">
        <ele>770</ele>
        <time>2021-08-20T19:18:41Z</time>
      </trkpt>
      <trkpt lat="42.88646" lon="1.06255">
        <ele>776</ele>
        <time>2021-08-20T19:18:48Z</time>
      </trkpt>
      <trkpt lat="42.8867" lon="1.0639">
        <ele>795</ele>
        <time>2021-08-20T19:19:07Z</time>
      </trkpt>
      <trkpt lat="42.88671" lon="1.06412">
        <ele>797</ele>
        <time>2021-08-20T19:19:09Z</time>
      </trkpt>
      <trkpt lat="42.88668" lon="1.06425">
        <ele>797</ele>
        <time>2021-08-20T19:19:11Z</time>
      </trkpt>
      <trkpt lat="42.88662" lon="1.06433">
        <ele>798</ele>
        <time>2021-08-20T19:19:13Z</time>
      </trkpt>
      <trkpt lat="42.88649" lon="1.06441">
        <ele>800</ele>
        <time>2021-08-20T19:19:15Z</time>
      </trkpt>
      <trkpt lat="42.88641" lon="1.06441">
        <ele>800</ele>
        <time>2021-08-20T19:19:17Z</time>
      </trkpt>
      <trkpt lat="42.88635" lon="1.06435">
        <ele>799</ele>
        <time>2021-08-20T19:19:18Z</time>
      </trkpt>
      <trkpt lat="42.88592" lon="1.06381">
        <ele>783</ele>
        <time>2021-08-20T19:19:28Z</time>
      </trkpt>
      <trkpt lat="42.88578" lon="1.06373">
        <ele>778</ele>
        <time>2021-08-20T19:19:31Z</time>
      </trkpt>
      <trkpt lat="42.88556" lon="1.06371">
        <ele>773</ele>
        <time>2021-08-20T19:19:35Z</time>
      </trkpt>
      <trkpt lat="42.88547" lon="1.06375">
        <ele>772</ele>
        <time>2021-08-20T19:19:37Z</time>
      </trkpt>
      <trkpt lat="42.88531" lon="1.0639">
        <ele>773</ele>
        <time>2021-08-20T19:19:40Z</time>
      </trkpt>
      <trkpt lat="42.88413" lon="1.06588">
        <ele>784</ele>
        <time>2021-08-20T19:20:13Z</time>
      </trkpt>
      <trkpt lat="42.88356" lon="1.06712">
        <ele>789</ele>
        <time>2021-08-20T19:20:32Z</time>
      </trkpt>
      <trkpt lat="42.88339" lon="1.06754">
        <ele>791</ele>
        <time>2021-08-20T19:20:39Z</time>
      </trkpt>
      <trkpt lat="42.88326" lon="1.0679">
        <ele>796</ele>
        <time>2021-08-20T19:20:44Z</time>
      </trkpt>
      <trkpt lat="42.88317" lon="1.06802">
        <ele>797</ele>
        <time>2021-08-20T19:20:46Z</time>
      </trkpt>
      <trkpt lat="42.88306" lon="1.0681">
        <ele>797</ele>
        <time>2021-08-20T19:20:48Z</time>
      </trkpt>
      <trkpt lat="42.88244" lon="1.06839">
        <ele>791</ele>
        <time>2021-08-20T19:21:00Z</time>
      </trkpt>
      <trkpt lat="42.88168" lon="1.06887">
        <ele>794</ele>
        <time>2021-08-20T19:21:15Z</time>
      </trkpt>
      <trkpt lat="42.88156" lon="1.06897">
        <ele>795</ele>
        <time>2021-08-20T19:21:17Z</time>
      </trkpt>
      <trkpt lat="42.88147" lon="1.06909">
        <ele>796</ele>
        <time>2021-08-20T19:21:20Z</time>
      </trkpt>
      <trkpt lat="42.88144" lon="1.0693">
        <ele>798</ele>
        <time>2021-08-20T19:21:22Z</time>
      </trkpt>
      <trkpt lat="42.88145" lon="1.06939">
        <ele>799</ele>
        <time>2021-08-20T19:21:24Z</time>
      </trkpt>
      <trkpt lat="42.88147" lon="1.06949">
        <ele>800</ele>
        <time>2021-08-20T19:21:25Z</time>
      </trkpt>
      <trkpt lat="42.88157" lon="1.06971">
        <ele>804</ele>
        <time>2021-08-20T19:21:28Z</time>
      </trkpt>
      <trkpt lat="42.88181" lon="1.06986">
        <ele>810</ele>
        <time>2021-08-20T19:21:33Z</time>
      </trkpt>
      <trkpt lat="42.88192" lon="1.06991">
        <ele>814</ele>
        <time>2021-08-20T19:21:35Z</time>
      </trkpt>
      <trkpt lat="42.88198" lon="1.07">
        <ele>816</ele>
        <time>2021-08-20T19:21:37Z</time>
      </trkpt>
      <trkpt lat="42.88201" lon="1.07011">
        <ele>818</ele>
        <time>2021-08-20T19:21:38Z</time>
      </trkpt>
      <trkpt lat="42.88199" lon="1.07024">
        <ele>819</ele>
        <time>2021-08-20T19:21:40Z</time>
      </trkpt>
      <trkpt lat="42.88193" lon="1.07033">
        <ele>819</ele>
        <time>2021-08-20T19:21:42Z</time>
      </trkpt>
      <trkpt lat="42.88187" lon="1.0704">
        <ele>819</ele>
        <time>2021-08-20T19:21:43Z</time>
      </trkpt>
      <trkpt lat="42.88153" lon="1.07065">
        <ele>817</ele>
        <time>2021-08-20T19:21:50Z</time>
      </trkpt>
      <trkpt lat="42.88139" lon="1.07084">
        <ele>819</ele>
        <time>2021-08-20T19:21:53Z</time>
      </trkpt>
      <trkpt lat="42.88132" lon="1.07105">
        <ele>823</ele>
        <time>2021-08-20T19:21:56Z</time>
      </trkpt>
      <trkpt lat="42.88125" lon="1.07114">
        <ele>825</ele>
        <time>2021-08-20T19:21:58Z</time>
      </trkpt>
      <trkpt lat="42.88117" lon="1.0712">
        <ele>825</ele>
        <time>2021-08-20T19:22:00Z</time>
      </trkpt>
      <trkpt lat="42.881" lon="1.07122">
        <ele>824</ele>
        <time>2021-08-20T19:22:03Z</time>
      </trkpt>
      <trkpt lat="42.88083" lon="1.07114">
        <ele>820</ele>
        <time>2021-08-20T19:22:06Z</time>
      </trkpt>
      <trkpt lat="42.88071" lon="1.07114">
        <ele>821</ele>
        <time>2021-08-20T19:22:08Z</time>
      </trkpt>
      <trkpt lat="42.88039" lon="1.07127">
        <ele>827</ele>
        <time>2021-08-20T19:22:14Z</time>
      </trkpt>
      <trkpt lat="42.88028" lon="1.07127">
        <ele>828</ele>
        <time>2021-08-20T19:22:16Z</time>
      </trkpt>
      <trkpt lat="42.88018" lon="1.0712">
        <ele>828</ele>
        <time>2021-08-20T19:22:18Z</time>
      </trkpt>
      <trkpt lat="42.87997" lon="1.0709">
        <ele>821</ele>
        <time>2021-08-20T19:22:23Z</time>
      </trkpt>
      <trkpt lat="42.87983" lon="1.07086">
        <ele>816</ele>
        <time>2021-08-20T19:22:26Z</time>
      </trkpt>
      <trkpt lat="42.8797" lon="1.07091">
        <ele>815</ele>
        <time>2021-08-20T19:22:28Z</time>
      </trkpt>
      <trkpt lat="42.87938" lon="1.07125">
        <ele>820</ele>
        <time>2021-08-20T19:22:36Z</time>
      </trkpt>
      <trkpt lat="42.8792" lon="1.07154">
        <ele>828</ele>
        <time>2021-08-20T19:22:41Z</time>
      </trkpt>
      <trkpt lat="42.87913" lon="1.07176">
        <ele>835</ele>
        <time>2021-08-20T19:22:44Z</time>
      </trkpt>
      <trkpt lat="42.879" lon="1.07198">
        <ele>837</ele>
        <time>2021-08-20T19:22:47Z</time>
      </trkpt>
      <trkpt lat="42.87851" lon="1.0727">
        <ele>840</ele>
        <time>2021-08-20T19:23:00Z</time>
      </trkpt>
      <trkpt lat="42.87816" lon="1.07379">
        <ele>850</ele>
        <time>2021-08-20T19:23:16Z</time>
      </trkpt>
      <trkpt lat="42.87796" lon="1.07457">
        <ele>856</ele>
        <time>2021-08-20T19:23:26Z</time>
      </trkpt>
      <trkpt lat="42.87781" lon="1.07535">
        <ele>861</ele>
        <time>2021-08-20T19:23:37Z</time>
      </trkpt>
      <trkpt lat="42.87781" lon="1.07554">
        <ele>864</ele>
        <time>2021-08-20T19:23:39Z</time>
      </trkpt>
      <trkpt lat="42.87785" lon="1.07565">
        <ele>866</ele>
        <time>2021-08-20T19:23:41Z</time>
      </trkpt>
      <trkpt lat="42.87797" lon="1.0758">
        <ele>871</ele>
        <time>2021-08-20T19:23:44Z</time>
      </trkpt>
      <trkpt lat="42.87799" lon="1.07586">
        <ele>872</ele>
        <time>2021-08-20T19:23:45Z</time>
      </trkpt>
      <trkpt lat="42.87799" lon="1.07596">
        <ele>874</ele>
        <time>2021-08-20T19:23:46Z</time>
      </trkpt>
      <trkpt lat="42.87796" lon="1.07606">
        <ele>876</ele>
        <time>2021-08-20T19:23:48Z</time>
      </trkpt>
      <trkpt lat="42.87792" lon="1.07613">
        <ele>877</ele>
        <time>2021-08-20T19:23:49Z</time>
      </trkpt>
      <trkpt lat="42.87785" lon="1.07617">
        <ele>877</ele>
        <time>2021-08-20T19:23:50Z</time>
      </trkpt>
      <trkpt lat="42.87777" lon="1.0762">
        <ele>878</ele>
        <time>2021-08-20T19:23:51Z</time>
      </trkpt>
      <trkpt lat="42.87766" lon="1.0762">
        <ele>877</ele>
        <time>2021-08-20T19:23:53Z</time>
      </trkpt>
      <trkpt lat="42.87753" lon="1.07617">
        <ele>875</ele>
        <time>2021-08-20T19:23:56Z</time>
      </trkpt>
      <trkpt lat="42.87702" lon="1.07594">
        <ele>864</ele>
        <time>2021-08-20T19:24:05Z</time>
      </trkpt>
      <trkpt lat="42.87691" lon="1.07592">
        <ele>863</ele>
        <time>2021-08-20T19:24:07Z</time>
      </trkpt>
      <trkpt lat="42.87681" lon="1.07593">
        <ele>864</ele>
        <time>2021-08-20T19:24:09Z</time>
      </trkpt>
      <trkpt lat="42.87671" lon="1.07597">
        <ele>866</ele>
        <time>2021-08-20T19:24:11Z</time>
      </trkpt>
      <trkpt lat="42.87629" lon="1.07625">
        <ele>871</ele>
        <time>2021-08-20T19:24:19Z</time>
      </trkpt>
      <trkpt lat="42.87568" lon="1.07672">
        <ele>873</ele>
        <time>2021-08-20T19:24:32Z</time>
      </trkpt>
      <trkpt lat="42.87556" lon="1.07686">
        <ele>873</ele>
        <time>2021-08-20T19:24:35Z</time>
      </trkpt>
      <trkpt lat="42.87549" lon="1.07698">
        <ele>874</ele>
        <time>2021-08-20T19:24:37Z</time>
      </trkpt>
      <trkpt lat="42.87542" lon="1.07717">
        <ele>877</ele>
        <time>2021-08-20T19:24:39Z</time>
      </trkpt>
      <trkpt lat="42.87537" lon="1.07736">
        <ele>881</ele>
        <time>2021-08-20T19:24:42Z</time>
      </trkpt>
      <trkpt lat="42.87523" lon="1.07767">
        <ele>887</ele>
        <time>2021-08-20T19:24:47Z</time>
      </trkpt>
      <trkpt lat="42.87513" lon="1.0778">
        <ele>888</ele>
        <time>2021-08-20T19:24:49Z</time>
      </trkpt>
      <trkpt lat="42.87466" lon="1.07815">
        <ele>884</ele>
        <time>2021-08-20T19:24:59Z</time>
      </trkpt>
      <trkpt lat="42.87452" lon="1.07834">
        <ele>886</ele>
        <time>2021-08-20T19:25:02Z</time>
      </trkpt>
      <trkpt lat="42.87422" lon="1.07862">
        <ele>886</ele>
        <time>2021-08-20T19:25:09Z</time>
      </trkpt>
      <trkpt lat="42.87408" lon="1.07879">
        <ele>887</ele>
        <time>2021-08-20T19:25:12Z</time>
      </trkpt>
      <trkpt lat="42.87399" lon="1.07896">
        <ele>889</ele>
        <time>2021-08-20T19:25:15Z</time>
      </trkpt>
      <trkpt lat="42.87389" lon="1.07922">
        <ele>894</ele>
        <time>2021-08-20T19:25:19Z</time>
      </trkpt>
      <trkpt lat="42.87348" lon="1.07992">
        <ele>896</ele>
        <time>2021-08-20T19:25:30Z</time>
      </trkpt>
      <trkpt lat="42.87317" lon="1.0805">
        <ele>902</ele>
        <time>2021-08-20T19:25:40Z</time>
      </trkpt>
      <trkpt lat="42.87306" lon="1.08082">
        <ele>909</ele>
        <time>2021-08-20T19:25:44Z</time>
      </trkpt>
      <trkpt lat="42.87278" lon="1.08131">
        <ele>914</ele>
        <time>2021-08-20T19:25:52Z</time>
      </trkpt>
      <trkpt lat="42.8723" lon="1.08198">
        <ele>914</ele>
        <time>2021-08-20T19:26:05Z</time>
      </trkpt>
      <trkpt lat="42.87215" lon="1.0823">
        <ele>918</ele>
        <time>2021-08-20T19:26:09Z</time>
      </trkpt>
      <trkpt lat="42.87205" lon="1.08258">
        <ele>921</ele>
        <time>2021-08-20T19:26:14Z</time>
      </trkpt>
      <trkpt lat="42.87188" lon="1.08288">
        <ele>921</ele>
        <time>2021-08-20T19:26:19Z</time>
      </trkpt>
      <trkpt lat="42.87134" lon="1.08374">
        <ele>926</ele>
        <time>2021-08-20T19:26:33Z</time>
      </trkpt>
      <trkpt lat="42.87106" lon="1.08426">
        <ele>929</ele>
        <time>2021-08-20T19:26:42Z</time>
      </trkpt>
      <trkpt lat="42.87088" lon="1.08461">
        <ele>929</ele>
        <time>2021-08-20T19:26:47Z</time>
      </trkpt>
      <trkpt lat="42.87072" lon="1.08503">
        <ele>933</ele>
        <time>2021-08-20T19:26:53Z</time>
      </trkpt>
      <trkpt lat="42.87066" lon="1.08521">
        <ele>935</ele>
        <time>2021-08-20T19:26:56Z</time>
      </trkpt>
      <trkpt lat="42.87065" lon="1.08541">
        <ele>939</ele>
        <time>2021-08-20T19:26:59Z</time>
      </trkpt>
      <trkpt lat="42.87068" lon="1.08567">
        <ele>946</ele>
        <time>2021-08-20T19:27:02Z</time>
      </trkpt>
      <trkpt lat="42.87065" lon="1.08575">
        <ele>946</ele>
        <time>2021-08-20T19:27:03Z</time>
      </trkpt>
      <trkpt lat="42.87055" lon="1.08586">
        <ele>945</ele>
        <time>2021-08-20T19:27:06Z</time>
      </trkpt>
      <trkpt lat="42.87033" lon="1.086">
        <ele>940</ele>
        <time>2021-08-20T19:27:10Z</time>
      </trkpt>
      <trkpt lat="42.87018" lon="1.08618">
        <ele>939</ele>
        <time>2021-08-20T19:27:13Z</time>
      </trkpt>
      <trkpt lat="42.86992" lon="1.08679">
        <ele>949</ele>
        <time>2021-08-20T19:27:23Z</time>
      </trkpt>
      <trkpt lat="42.86962" lon="1.0873">
        <ele>954</ele>
        <time>2021-08-20T19:27:31Z</time>
      </trkpt>
      <trkpt lat="42.86957" lon="1.08743">
        <ele>956</ele>
        <time>2021-08-20T19:27:33Z</time>
      </trkpt>
      <trkpt lat="42.86942" lon="1.08809">
        <ele>969</ele>
        <time>2021-08-20T19:27:42Z</time>
      </trkpt>
      <trkpt lat="42.86935" lon="1.08826">
        <ele>970</ele>
        <time>2021-08-20T19:27:45Z</time>
      </trkpt>
      <trkpt lat="42.86929" lon="1.08836">
        <ele>970</ele>
        <time>2021-08-20T19:27:46Z</time>
      </trkpt>
      <trkpt lat="42.86894" lon="1.08869">
        <ele>972</ele>
        <time>2021-08-20T19:27:54Z</time>
      </trkpt>
      <trkpt lat="42.86858" lon="1.08899">
        <ele>972</ele>
        <time>2021-08-20T19:28:01Z</time>
      </trkpt>
      <trkpt lat="42.86781" lon="1.08983">
        <ele>977</ele>
        <time>2021-08-20T19:28:19Z</time>
      </trkpt>
      <trkpt lat="42.86765" lon="1.09004">
        <ele>978</ele>
        <time>2021-08-20T19:28:23Z</time>
      </trkpt>
      <trkpt lat="42.86696" lon="1.09131">
        <ele>997</ele>
        <time>2021-08-20T19:28:43Z</time>
      </trkpt>
      <trkpt lat="42.8667" lon="1.09169">
        <ele>998</ele>
        <time>2021-08-20T19:28:50Z</time>
      </trkpt>
      <trkpt lat="42.86634" lon="1.09212">
        <ele>1007</ele>
        <time>2021-08-20T19:28:59Z</time>
      </trkpt>
      <trkpt lat="42.8658" lon="1.09263">
        <ele>1008</ele>
        <time>2021-08-20T19:29:10Z</time>
      </trkpt>
      <trkpt lat="42.86561" lon="1.09275">
        <ele>1013</ele>
        <time>2021-08-20T19:29:14Z</time>
      </trkpt>
      <trkpt lat="42.8655" lon="1.09277">
        <ele>1014</ele>
        <time>2021-08-20T19:29:16Z</time>
      </trkpt>
      <trkpt lat="42.86539" lon="1.09276">
        <ele>1015</ele>
        <time>2021-08-20T19:29:18Z</time>
      </trkpt>
      <trkpt lat="42.86531" lon="1.09269">
        <ele>1015</ele>
        <time>2021-08-20T19:29:20Z</time>
      </trkpt>
      <trkpt lat="42.86529" lon="1.09261">
        <ele>1014</ele>
        <time>2021-08-20T19:29:21Z</time>
      </trkpt>
      <trkpt lat="42.86527" lon="1.09241">
        <ele>1012</ele>
        <time>2021-08-20T19:29:24Z</time>
      </trkpt>
      <trkpt lat="42.86527" lon="1.09218">
        <ele>1010</ele>
        <time>2021-08-20T19:29:27Z</time>
      </trkpt>
      <trkpt lat="42.86523" lon="1.09197">
        <ele>1010</ele>
        <time>2021-08-20T19:29:29Z</time>
      </trkpt>
      <trkpt lat="42.86495" lon="1.0915">
        <ele>1015</ele>
        <time>2021-08-20T19:29:37Z</time>
      </trkpt>
      <trkpt lat="42.86485" lon="1.09123">
        <ele>1017</ele>
        <time>2021-08-20T19:29:41Z</time>
      </trkpt>
      <trkpt lat="42.86479" lon="1.0909">
        <ele>1019</ele>
        <time>2021-08-20T19:29:46Z</time>
      </trkpt>
      <trkpt lat="42.86475" lon="1.09043">
        <ele>1025</ele>
        <time>2021-08-20T19:29:52Z</time>
      </trkpt>
      <trkpt lat="42.86475" lon="1.09023">
        <ele>1027</ele>
        <time>2021-08-20T19:29:54Z</time>
      </trkpt>
      <trkpt lat="42.86504" lon="1.08883">
        <ele>1034</ele>
        <time>2021-08-20T19:30:13Z</time>
      </trkpt>
      <trkpt lat="42.8651" lon="1.08863">
        <ele>1036</ele>
        <time>2021-08-20T19:30:16Z</time>
      </trkpt>
      <trkpt lat="42.86517" lon="1.08845">
        <ele>1037</ele>
        <time>2021-08-20T19:30:19Z</time>
      </trkpt>
      <trkpt lat="42.8653" lon="1.08823">
        <ele>1036</ele>
        <time>2021-08-20T19:30:23Z</time>
      </trkpt>
      <trkpt lat="42.86577" lon="1.08756">
        <ele>1031</ele>
        <time>2021-08-20T19:30:35Z</time>
      </trkpt>
      <trkpt lat="42.86579" lon="1.08748">
        <ele>1031</ele>
        <time>2021-08-20T19:30:36Z</time>
      </trkpt>
      <trkpt lat="42.86579" lon="1.0874">
        <ele>1030</ele>
        <time>2021-08-20T19:30:37Z</time>
      </trkpt>
      <trkpt lat="42.86576" lon="1.08735">
        <ele>1030</ele>
        <time>2021-08-20T19:30:38Z</time>
      </trkpt>
      <trkpt lat="42.86562" lon="1.08727">
        <ele>1034</ele>
        <time>2021-08-20T19:30:40Z</time>
      </trkpt>
      <trkpt lat="42.86513" lon="1.08704">
        <ele>1050</ele>
        <time>2021-08-20T19:30:50Z</time>
      </trkpt>
      <trkpt lat="42.86479" lon="1.08685">
        <ele>1065</ele>
        <time>2021-08-20T19:30:56Z</time>
      </trkpt>
      <trkpt lat="42.86466" lon="1.08673">
        <ele>1070</ele>
        <time>2021-08-20T19:30:59Z</time>
      </trkpt>
      <trkpt lat="42.86443" lon="1.08612">
        <ele>1061</ele>
        <time>2021-08-20T19:31:08Z</time>
      </trkpt>
      <trkpt lat="42.86411" lon="1.08554">
        <ele>1058</ele>
        <time>2021-08-20T19:31:17Z</time>
      </trkpt>
      <trkpt lat="42.86405" lon="1.08545">
        <ele>1058</ele>
        <time>2021-08-20T19:31:19Z</time>
      </trkpt>
      <trkpt lat="42.86391" lon="1.08536">
        <ele>1059</ele>
        <time>2021-08-20T19:31:22Z</time>
      </trkpt>
      <trkpt lat="42.86386" lon="1.08535">
        <ele>1061</ele>
        <time>2021-08-20T19:31:23Z</time>
      </trkpt>
      <trkpt lat="42.86383" lon="1.08538">
        <ele>1062</ele>
        <time>2021-08-20T19:31:23Z</time>
      </trkpt>
      <trkpt lat="42.86382" lon="1.08542">
        <ele>1064</ele>
        <time>2021-08-20T19:31:24Z</time>
      </trkpt>
      <trkpt lat="42.86385" lon="1.08553">
        <ele>1066</ele>
        <time>2021-08-20T19:31:25Z</time>
      </trkpt>
      <trkpt lat="42.86415" lon="1.08589">
        <ele>1067</ele>
        <time>2021-08-20T19:31:32Z</time>
      </trkpt>
      <trkpt lat="42.8643" lon="1.08613">
        <ele>1069</ele>
        <time>2021-08-20T19:31:36Z</time>
      </trkpt>
      <trkpt lat="42.86438" lon="1.08636">
        <ele>1074</ele>
        <time>2021-08-20T19:31:40Z</time>
      </trkpt>
      <trkpt lat="42.86448" lon="1.08679">
        <ele>1082</ele>
        <time>2021-08-20T19:31:46Z</time>
      </trkpt>
      <trkpt lat="42.86456" lon="1.08704">
        <ele>1082</ele>
        <time>2021-08-20T19:31:49Z</time>
      </trkpt>
      <trkpt lat="42.86463" lon="1.08718">
        <ele>1080</ele>
        <time>2021-08-20T19:31:51Z</time>
      </trkpt>
      <trkpt lat="42.86477" lon="1.08736">
        <ele>1074</ele>
        <time>2021-08-20T19:31:55Z</time>
      </trkpt>
      <trkpt lat="42.86483" lon="1.08748">
        <ele>1073</ele>
        <time>2021-08-20T19:31:57Z</time>
      </trkpt>
      <trkpt lat="42.86485" lon="1.08754">
        <ele>1071</ele>
        <time>2021-08-20T19:31:58Z</time>
      </trkpt>
      <trkpt lat="42.86483" lon="1.08766">
        <ele>1070</ele>
        <time>2021-08-20T19:31:59Z</time>
      </trkpt>
      <trkpt lat="42.86466" lon="1.088">
        <ele>1075</ele>
        <time>2021-08-20T19:32:05Z</time>
      </trkpt>
      <trkpt lat="42.8637" lon="1.08962">
        <ele>1098</ele>
        <time>2021-08-20T19:32:32Z</time>
      </trkpt>
      <trkpt lat="42.86314" lon="1.09079">
        <ele>1102</ele>
        <time>2021-08-20T19:32:50Z</time>
      </trkpt>
      <trkpt lat="42.86284" lon="1.09164">
        <ele>1109</ele>
        <time>2021-08-20T19:33:02Z</time>
      </trkpt>
      <trkpt lat="42.86259" lon="1.09238">
        <ele>1111</ele>
        <time>2021-08-20T19:33:13Z</time>
      </trkpt>
      <trkpt lat="42.86226" lon="1.09319">
        <ele>1112</ele>
        <time>2021-08-20T19:33:25Z</time>
      </trkpt>
      <trkpt lat="42.86204" lon="1.09361">
        <ele>1113</ele>
        <time>2021-08-20T19:33:32Z</time>
      </trkpt>
      <trkpt lat="42.86185" lon="1.09389">
        <ele>1113</ele>
        <time>2021-08-20T19:33:37Z</time>
      </trkpt>
      <trkpt lat="42.86172" lon="1.09402">
        <ele>1113</ele>
        <time>2021-08-20T19:33:40Z</time>
      </trkpt>
      <trkpt lat="42.86158" lon="1.09413">
        <ele>1114</ele>
        <time>2021-08-20T19:33:42Z</time>
      </trkpt>
      <trkpt lat="42.8613" lon="1.0943">
        <ele>1118</ele>
        <time>2021-08-20T19:33:48Z</time>
      </trkpt>
      <trkpt lat="42.86094" lon="1.09439">
        <ele>1126</ele>
        <time>2021-08-20T19:33:54Z</time>
      </trkpt>
      <trkpt lat="42.86057" lon="1.09444">
        <ele>1128</ele>
        <time>2021-08-20T19:34:01Z</time>
      </trkpt>
      <trkpt lat="42.86003" lon="1.09435">
        <ele>1134</ele>
        <time>2021-08-20T19:34:11Z</time>
      </trkpt>
      <trkpt lat="42.8595" lon="1.09422">
        <ele>1129</ele>
        <time>2021-08-20T19:34:20Z</time>
      </trkpt>
      <trkpt lat="42.85915" lon="1.09409">
        <ele>1128</ele>
        <time>2021-08-20T19:34:27Z</time>
      </trkpt>
      <trkpt lat="42.85879" lon="1.09389">
        <ele>1133</ele>
        <time>2021-08-20T19:34:34Z</time>
      </trkpt>
      <trkpt lat="42.85772" lon="1.09313">
        <ele>1144</ele>
        <time>2021-08-20T19:34:55Z</time>
      </trkpt>
      <trkpt lat="42.85677" lon="1.09233">
        <ele>1158</ele>
        <time>2021-08-20T19:35:15Z</time>
      </trkpt>
      <trkpt lat="42.85639" lon="1.09212">
        <ele>1164</ele>
        <time>2021-08-20T19:35:22Z</time>
      </trkpt>
      <trkpt lat="42.85616" lon="1.09203">
        <ele>1167</ele>
        <time>2021-08-20T19:35:27Z</time>
      </trkpt>
      <trkpt lat="42.85605" lon="1.09201">
        <ele>1167</ele>
        <time>2021-08-20T19:35:29Z</time>
      </trkpt>
      <trkpt lat="42.85588" lon="1.09209">
        <ele>1165</ele>
        <time>2021-08-20T19:35:32Z</time>
      </trkpt>
      <trkpt lat="42.85544" lon="1.09259">
        <ele>1168</ele>
        <time>2021-08-20T19:35:42Z</time>
      </trkpt>
      <trkpt lat="42.85503" lon="1.09299">
        <ele>1172</ele>
        <time>2021-08-20T19:35:51Z</time>
      </trkpt>
      <trkpt lat="42.85478" lon="1.09321">
        <ele>1180</ele>
        <time>2021-08-20T19:35:56Z</time>
      </trkpt>
      <trkpt lat="42.85467" lon="1.09337">
        <ele>1183</ele>
        <time>2021-08-20T19:35:59Z</time>
      </trkpt>
      <trkpt lat="42.85459" lon="1.09354">
        <ele>1186</ele>
        <time>2021-08-20T19:36:02Z</time>
      </trkpt>
      <trkpt lat="42.85439" lon="1.09401">
        <ele>1194</ele>
        <time>2021-08-20T19:36:09Z</time>
      </trkpt>
      <trkpt lat="42.85437" lon="1.09425">
        <ele>1193</ele>
        <time>2021-08-20T19:36:12Z</time>
      </trkpt>
      <trkpt lat="42.8544" lon="1.09451">
        <ele>1188</ele>
        <time>2021-08-20T19:36:15Z</time>
      </trkpt>
      <trkpt lat="42.85448" lon="1.09572">
        <ele>1188</ele>
        <time>2021-08-20T19:36:31Z</time>
      </trkpt>
      <trkpt lat="42.85453" lon="1.09603">
        <ele>1197</ele>
        <time>2021-08-20T19:36:35Z</time>
      </trkpt>
      <trkpt lat="42.85463" lon="1.09627">
        <ele>1205</ele>
        <time>2021-08-20T19:36:39Z</time>
      </trkpt>
      <trkpt lat="42.85474" lon="1.09639">
        <ele>1208</ele>
        <time>2021-08-20T19:36:41Z</time>
      </trkpt>
      <trkpt lat="42.85502" lon="1.09658">
        <ele>1208</ele>
        <time>2021-08-20T19:36:47Z</time>
      </trkpt>
      <trkpt lat="42.85525" lon="1.09676">
        <ele>1209</ele>
        <time>2021-08-20T19:36:52Z</time>
      </trkpt>
      <trkpt lat="42.8554" lon="1.09695">
        <ele>1214</ele>
        <time>2021-08-20T19:36:55Z</time>
      </trkpt>
      <trkpt lat="42.85578" lon="1.09718">
        <ele>1213</ele>
        <time>2021-08-20T19:37:03Z</time>
      </trkpt>
      <trkpt lat="42.85702" lon="1.09808">
        <ele>1226</ele>
        <time>2021-08-20T19:37:28Z</time>
      </trkpt>
      <trkpt lat="42.85839" lon="1.09877">
        <ele>1227</ele>
        <time>2021-08-20T19:37:54Z</time>
      </trkpt>
      <trkpt lat="42.85868" lon="1.09902">
        <ele>1229</ele>
        <time>2021-08-20T19:38:00Z</time>
      </trkpt>
      <trkpt lat="42.85897" lon="1.09923">
        <ele>1230</ele>
        <time>2021-08-20T19:38:06Z</time>
      </trkpt>
      <trkpt lat="42.85911" lon="1.09928">
        <ele>1228</ele>
        <time>2021-08-20T19:38:08Z</time>
      </trkpt>
      <trkpt lat="42.85926" lon="1.09939">
        <ele>1229</ele>
        <time>2021-08-20T19:38:11Z</time>
      </trkpt>
      <trkpt lat="42.8594" lon="1.09969">
        <ele>1234</ele>
        <time>2021-08-20T19:38:16Z</time>
      </trkpt>
      <trkpt lat="42.85973" lon="1.10071">
        <ele>1245</ele>
        <time>2021-08-20T19:38:30Z</time>
      </trkpt>
      <trkpt lat="42.8598" lon="1.10084">
        <ele>1245</ele>
        <time>2021-08-20T19:38:33Z</time>
      </trkpt>
      <trkpt lat="42.85997" lon="1.10105">
        <ele>1246</ele>
        <time>2021-08-20T19:38:37Z</time>
      </trkpt>
      <trkpt lat="42.86011" lon="1.10121">
        <ele>1250</ele>
        <time>2021-08-20T19:38:40Z</time>
      </trkpt>
      <trkpt lat="42.86026" lon="1.10132">
        <ele>1252</ele>
        <time>2021-08-20T19:38:43Z</time>
      </trkpt>
      <trkpt lat="42.86078" lon="1.10156">
        <ele>1256</ele>
        <time>2021-08-20T19:38:53Z</time>
      </trkpt>
      <trkpt lat="42.86127" lon="1.10176">
        <ele>1261</ele>
        <time>2021-08-20T19:39:02Z</time>
      </trkpt>
      <trkpt lat="42.86137" lon="1.10176">
        <ele>1261</ele>
        <time>2021-08-20T19:39:04Z</time>
      </trkpt>
      <trkpt lat="42.86145" lon="1.10173">
        <ele>1260</ele>
        <time>2021-08-20T19:39:05Z</time>
      </trkpt>
      <trkpt lat="42.86154" lon="1.10166">
        <ele>1258</ele>
        <time>2021-08-20T19:39:07Z</time>
      </trkpt>
      <trkpt lat="42.86171" lon="1.10145">
        <ele>1252</ele>
        <time>2021-08-20T19:39:11Z</time>
      </trkpt>
      <trkpt lat="42.86179" lon="1.10141">
        <ele>1250</ele>
        <time>2021-08-20T19:39:13Z</time>
      </trkpt>
      <trkpt lat="42.86185" lon="1.1014">
        <ele>1249</ele>
        <time>2021-08-20T19:39:14Z</time>
      </trkpt>
      <trkpt lat="42.86196" lon="1.10149">
        <ele>1248</ele>
        <time>2021-08-20T19:39:16Z</time>
      </trkpt>
      <trkpt lat="42.86203" lon="1.10163">
        <ele>1250</ele>
        <time>2021-08-20T19:39:18Z</time>
      </trkpt>
      <trkpt lat="42.86213" lon="1.10193">
        <ele>1255</ele>
        <time>2021-08-20T19:39:22Z</time>
      </trkpt>
      <trkpt lat="42.86221" lon="1.10229">
        <ele>1260</ele>
        <time>2021-08-20T19:39:27Z</time>
      </trkpt>
      <trkpt lat="42.86221" lon="1.10247">
        <ele>1264</ele>
        <time>2021-08-20T19:39:30Z</time>
      </trkpt>
      <trkpt lat="42.86215" lon="1.10311">
        <ele>1280</ele>
        <time>2021-08-20T19:39:38Z</time>
      </trkpt>
      <trkpt lat="42.86216" lon="1.10324">
        <ele>1283</ele>
        <time>2021-08-20T19:39:40Z</time>
      </trkpt>
      <trkpt lat="42.8622" lon="1.10334">
        <ele>1284</ele>
        <time>2021-08-20T19:39:41Z</time>
      </trkpt>
      <trkpt lat="42.86225" lon="1.1034">
        <ele>1284</ele>
        <time>2021-08-20T19:39:42Z</time>
      </trkpt>
      <trkpt lat="42.86231" lon="1.10343">
        <ele>1284</ele>
        <time>2021-08-20T19:39:44Z</time>
      </trkpt>
      <trkpt lat="42.86248" lon="1.10344">
        <ele>1280</ele>
        <time>2021-08-20T19:39:47Z</time>
      </trkpt>
      <trkpt lat="42.86286" lon="1.10337">
        <ele>1279</ele>
        <time>2021-08-20T19:39:53Z</time>
      </trkpt>
      <trkpt lat="42.86314" lon="1.10335">
        <ele>1280</ele>
        <time>2021-08-20T19:39:58Z</time>
      </trkpt>
      <trkpt lat="42.86352" lon="1.10334">
        <ele>1284</ele>
        <time>2021-08-20T19:40:05Z</time>
      </trkpt>
      <trkpt lat="42.86407" lon="1.10337">
        <ele>1293</ele>
        <time>2021-08-20T19:40:15Z</time>
      </trkpt>
      <trkpt lat="42.86416" lon="1.10335">
        <ele>1293</ele>
        <time>2021-08-20T19:40:17Z</time>
      </trkpt>
      <trkpt lat="42.86435" lon="1.10325">
        <ele>1297</ele>
        <time>2021-08-20T19:40:20Z</time>
      </trkpt>
      <trkpt lat="42.86446" lon="1.10315">
        <ele>1299</ele>
        <time>2021-08-20T19:40:23Z</time>
      </trkpt>
      <trkpt lat="42.86473" lon="1.10273">
        <ele>1297</ele>
        <time>2021-08-20T19:40:30Z</time>
      </trkpt>
      <trkpt lat="42.86528" lon="1.10205">
        <ele>1307</ele>
        <time>2021-08-20T19:40:43Z</time>
      </trkpt>
      <trkpt lat="42.86539" lon="1.10188">
        <ele>1308</ele>
        <time>2021-08-20T19:40:46Z</time>
      </trkpt>
      <trkpt lat="42.86545" lon="1.10175">
        <ele>1308</ele>
        <time>2021-08-20T19:40:48Z</time>
      </trkpt>
      <trkpt lat="42.86548" lon="1.1016">
        <ele>1307</ele>
        <time>2021-08-20T19:40:50Z</time>
      </trkpt>
      <trkpt lat="42.8655" lon="1.1011">
        <ele>1303</ele>
        <time>2021-08-20T19:40:57Z</time>
      </trkpt>
      <trkpt lat="42.86553" lon="1.10093">
        <ele>1303</ele>
        <time>2021-08-20T19:40:59Z</time>
      </trkpt>
      <trkpt lat="42.86559" lon="1.10076">
        <ele>1304</ele>
        <time>2021-08-20T19:41:01Z</time>
      </trkpt>
      <trkpt lat="42.86571" lon="1.10056">
        <ele>1305</ele>
        <time>2021-08-20T19:41:05Z</time>
      </trkpt>
      <trkpt lat="42.86587" lon="1.10038">
        <ele>1309</ele>
        <time>2021-08-20T19:41:08Z</time>
      </trkpt>
      <trkpt lat="42.86602" lon="1.10027">
        <ele>1312</ele>
        <time>2021-08-20T19:41:11Z</time>
      </trkpt>
      <trkpt lat="42.86613" lon="1.10021">
        <ele>1314</ele>
        <time>2021-08-20T19:41:14Z</time>
      </trkpt>
      <trkpt lat="42.86618" lon="1.10021">
        <ele>1316</ele>
        <time>2021-08-20T19:41:14Z</time>
      </trkpt>
      <trkpt lat="42.86622" lon="1.10025">
        <ele>1319</ele>
        <time>2021-08-20T19:41:15Z</time>
      </trkpt>
      <trkpt lat="42.86622" lon="1.10031">
        <ele>1321</ele>
        <time>2021-08-20T19:41:16Z</time>
      </trkpt>
      <trkpt lat="42.8662" lon="1.10037">
        <ele>1322</ele>
        <time>2021-08-20T19:41:17Z</time>
      </trkpt>
      <trkpt lat="42.86614" lon="1.10044">
        <ele>1322</ele>
        <time>2021-08-20T19:41:18Z</time>
      </trkpt>
      <trkpt lat="42.86603" lon="1.10051">
        <ele>1319</ele>
        <time>2021-08-20T19:41:20Z</time>
      </trkpt>
      <trkpt lat="42.86592" lon="1.10062">
        <ele>1317</ele>
        <time>2021-08-20T19:41:23Z</time>
      </trkpt>
      <trkpt lat="42.86586" lon="1.10072">
        <ele>1317</ele>
        <time>2021-08-20T19:41:25Z</time>
      </trkpt>
      <trkpt lat="42.86581" lon="1.10084">
        <ele>1317</ele>
        <time>2021-08-20T19:41:26Z</time>
      </trkpt>
      <trkpt lat="42.86579" lon="1.101">
        <ele>1317</ele>
        <time>2021-08-20T19:41:29Z</time>
      </trkpt>
      <trkpt lat="42.86579" lon="1.10113">
        <ele>1319</ele>
        <time>2021-08-20T19:41:30Z</time>
      </trkpt>
      <trkpt lat="42.86583" lon="1.10145">
        <ele>1324</ele>
        <time>2021-08-20T19:41:34Z</time>
      </trkpt>
      <trkpt lat="42.86583" lon="1.10169">
        <ele>1326</ele>
        <time>2021-08-20T19:41:38Z</time>
      </trkpt>
      <trkpt lat="42.86581" lon="1.10194">
        <ele>1333</ele>
        <time>2021-08-20T19:41:41Z</time>
      </trkpt>
      <trkpt lat="42.86575" lon="1.10231">
        <ele>1340</ele>
        <time>2021-08-20T19:41:46Z</time>
      </trkpt>
      <trkpt lat="42.86569" lon="1.10245">
        <ele>1340</ele>
        <time>2021-08-20T19:41:48Z</time>
      </trkpt>
      <trkpt lat="42.86535" lon="1.10305">
        <ele>1338</ele>
        <time>2021-08-20T19:41:58Z</time>
      </trkpt>
      <trkpt lat="42.86513" lon="1.10353">
        <ele>1338</ele>
        <time>2021-08-20T19:42:05Z</time>
      </trkpt>
      <trkpt lat="42.86493" lon="1.10431">
        <ele>1349</ele>
        <time>2021-08-20T19:42:16Z</time>
      </trkpt>
      <trkpt lat="42.86482" lon="1.10483">
        <ele>1360</ele>
        <time>2021-08-20T19:42:23Z</time>
      </trkpt>
      <trkpt lat="42.86479" lon="1.1049">
        <ele>1362</ele>
        <time>2021-08-20T19:42:24Z</time>
      </trkpt>
      <trkpt lat="42.86473" lon="1.10497">
        <ele>1362</ele>
        <time>2021-08-20T19:42:25Z</time>
      </trkpt>
      <trkpt lat="42.86438" lon="1.10509">
        <ele>1359</ele>
        <time>2021-08-20T19:42:32Z</time>
      </trkpt>
      <trkpt lat="42.86375" lon="1.1052">
        <ele>1355</ele>
        <time>2021-08-20T19:42:43Z</time>
      </trkpt>
      <trkpt lat="42.86357" lon="1.10526">
        <ele>1356</ele>
        <time>2021-08-20T19:42:46Z</time>
      </trkpt>
      <trkpt lat="42.86322" lon="1.10542">
        <ele>1360</ele>
        <time>2021-08-20T19:42:53Z</time>
      </trkpt>
      <trkpt lat="42.8625" lon="1.10579">
        <ele>1366</ele>
        <time>2021-08-20T19:43:07Z</time>
      </trkpt>
      <trkpt lat="42.86176" lon="1.10622">
        <ele>1380</ele>
        <time>2021-08-20T19:43:21Z</time>
      </trkpt>
      <trkpt lat="42.86142" lon="1.10622">
        <ele>1383</ele>
        <time>2021-08-20T19:43:27Z</time>
      </trkpt>
      <trkpt lat="42.86104" lon="1.10608">
        <ele>1384</ele>
        <time>2021-08-20T19:43:34Z</time>
      </trkpt>
      <trkpt lat="42.86088" lon="1.10599">
        <ele>1384</ele>
        <time>2021-08-20T19:43:37Z</time>
      </trkpt>
      <trkpt lat="42.86077" lon="1.10591">
        <ele>1384</ele>
        <time>2021-08-20T19:43:39Z</time>
      </trkpt>
      <trkpt lat="42.86063" lon="1.10575">
        <ele>1384</ele>
        <time>2021-08-20T19:43:43Z</time>
      </trkpt>
      <trkpt lat="42.86046" lon="1.10549">
        <ele>1383</ele>
        <time>2021-08-20T19:43:47Z</time>
      </trkpt>
      <trkpt lat="42.86014" lon="1.10492">
        <ele>1382</ele>
        <time>2021-08-20T19:43:57Z</time>
      </trkpt>
      <trkpt lat="42.86006" lon="1.1048">
        <ele>1382</ele>
        <time>2021-08-20T19:43:59Z</time>
      </trkpt>
      <trkpt lat="42.85997" lon="1.10472">
        <ele>1382</ele>
        <time>2021-08-20T19:44:01Z</time>
      </trkpt>
      <trkpt lat="42.85987" lon="1.10467">
        <ele>1382</ele>
        <time>2021-08-20T19:44:02Z</time>
      </trkpt>
      <trkpt lat="42.85975" lon="1.10464">
        <ele>1382</ele>
        <time>2021-08-20T19:44:05Z</time>
      </trkpt>
      <trkpt lat="42.85965" lon="1.10464">
        <ele>1382</ele>
        <time>2021-08-20T19:44:06Z</time>
      </trkpt>
      <trkpt lat="42.85951" lon="1.10469">
        <ele>1385</ele>
        <time>2021-08-20T19:44:09Z</time>
      </trkpt>
      <trkpt lat="42.85911" lon="1.1049">
        <ele>1392</ele>
        <time>2021-08-20T19:44:17Z</time>
      </trkpt>
      <trkpt lat="42.8589" lon="1.10499">
        <ele>1393</ele>
        <time>2021-08-20T19:44:21Z</time>
      </trkpt>
      <trkpt lat="42.85874" lon="1.10503">
        <ele>1393</ele>
        <time>2021-08-20T19:44:23Z</time>
      </trkpt>
      <trkpt lat="42.85853" lon="1.10504">
        <ele>1392</ele>
        <time>2021-08-20T19:44:27Z</time>
      </trkpt>
      <trkpt lat="42.85837" lon="1.10507">
        <ele>1391</ele>
        <time>2021-08-20T19:44:30Z</time>
      </trkpt>
      <trkpt lat="42.85789" lon="1.1053">
        <ele>1387</ele>
        <time>2021-08-20T19:44:39Z</time>
      </trkpt>
      <trkpt lat="42.85778" lon="1.10534">
        <ele>1386</ele>
        <time>2021-08-20T19:44:41Z</time>
      </trkpt>
      <trkpt lat="42.85745" lon="1.10536">
        <ele>1386</ele>
        <time>2021-08-20T19:44:47Z</time>
      </trkpt>
      <trkpt lat="42.85697" lon="1.10533">
        <ele>1385</ele>
        <time>2021-08-20T19:44:56Z</time>
      </trkpt>
      <trkpt lat="42.85645" lon="1.10538">
        <ele>1389</ele>
        <time>2021-08-20T19:45:05Z</time>
      </trkpt>
      <trkpt lat="42.85634" lon="1.10541">
        <ele>1392</ele>
        <time>2021-08-20T19:45:07Z</time>
      </trkpt>
      <trkpt lat="42.85625" lon="1.10547">
        <ele>1393</ele>
        <time>2021-08-20T19:45:09Z</time>
      </trkpt>
      <trkpt lat="42.8562" lon="1.10553">
        <ele>1393</ele>
        <time>2021-08-20T19:45:10Z</time>
      </trkpt>
      <trkpt lat="42.85613" lon="1.10565">
        <ele>1393</ele>
        <time>2021-08-20T19:45:12Z</time>
      </trkpt>
      <trkpt lat="42.85607" lon="1.10586">
        <ele>1391</ele>
        <time>2021-08-20T19:45:15Z</time>
      </trkpt>
      <trkpt lat="42.85599" lon="1.10634">
        <ele>1387</ele>
        <time>2021-08-20T19:45:21Z</time>
      </trkpt>
      <trkpt lat="42.85589" lon="1.10769">
        <ele>1378</ele>
        <time>2021-08-20T19:45:39Z</time>
      </trkpt>
      <trkpt lat="42.85578" lon="1.10822">
        <ele>1377</ele>
        <time>2021-08-20T19:45:46Z</time>
      </trkpt>
      <trkpt lat="42.85577" lon="1.10831">
        <ele>1376</ele>
        <time>2021-08-20T19:45:47Z</time>
      </trkpt>
      <trkpt lat="42.8558" lon="1.10842">
        <ele>1373</ele>
        <time>2021-08-20T19:45:49Z</time>
      </trkpt>
      <trkpt lat="42.85583" lon="1.10844">
        <ele>1372</ele>
        <time>2021-08-20T19:45:49Z</time>
      </trkpt>
      <trkpt lat="42.85587" lon="1.10843">
        <ele>1370</ele>
        <time>2021-08-20T19:45:50Z</time>
      </trkpt>
      <trkpt lat="42.85591" lon="1.10839">
        <ele>1369</ele>
        <time>2021-08-20T19:45:51Z</time>
      </trkpt>
      <trkpt lat="42.85598" lon="1.10797">
        <ele>1370</ele>
        <time>2021-08-20T19:45:57Z</time>
      </trkpt>
      <trkpt lat="42.85602" lon="1.10783">
        <ele>1369</ele>
        <time>2021-08-20T19:45:59Z</time>
      </trkpt>
      <trkpt lat="42.85629" lon="1.10709">
        <ele>1363</ele>
        <time>2021-08-20T19:46:09Z</time>
      </trkpt>
      <trkpt lat="42.85646" lon="1.10654">
        <ele>1363</ele>
        <time>2021-08-20T19:46:17Z</time>
      </trkpt>
      <trkpt lat="42.85658" lon="1.10636">
        <ele>1361</ele>
        <time>2021-08-20T19:46:20Z</time>
      </trkpt>
      <trkpt lat="42.85667" lon="1.10631">
        <ele>1358</ele>
        <time>2021-08-20T19:46:22Z</time>
      </trkpt>
      <trkpt lat="42.85685" lon="1.10633">
        <ele>1356</ele>
        <time>2021-08-20T19:46:25Z</time>
      </trkpt>
      <trkpt lat="42.8573" lon="1.10656">
        <ele>1347</ele>
        <time>2021-08-20T19:46:34Z</time>
      </trkpt>
      <trkpt lat="42.85804" lon="1.10707">
        <ele>1341</ele>
        <time>2021-08-20T19:46:49Z</time>
      </trkpt>
      <trkpt lat="42.85825" lon="1.10719">
        <ele>1343</ele>
        <time>2021-08-20T19:46:53Z</time>
      </trkpt>
      <trkpt lat="42.85834" lon="1.10728">
        <ele>1343</ele>
        <time>2021-08-20T19:46:55Z</time>
      </trkpt>
      <trkpt lat="42.8584" lon="1.10739">
        <ele>1343</ele>
        <time>2021-08-20T19:46:56Z</time>
      </trkpt>
      <trkpt lat="42.85866" lon="1.10816">
        <ele>1338</ele>
        <time>2021-08-20T19:47:07Z</time>
      </trkpt>
      <trkpt lat="42.85895" lon="1.1093">
        <ele>1325</ele>
        <time>2021-08-20T19:47:23Z</time>
      </trkpt>
      <trkpt lat="42.859" lon="1.10941">
        <ele>1323</ele>
        <time>2021-08-20T19:47:25Z</time>
      </trkpt>
      <trkpt lat="42.85907" lon="1.10948">
        <ele>1324</ele>
        <time>2021-08-20T19:47:26Z</time>
      </trkpt>
      <trkpt lat="42.85934" lon="1.10965">
        <ele>1330</ele>
        <time>2021-08-20T19:47:32Z</time>
      </trkpt>
      <trkpt lat="42.85978" lon="1.11014">
        <ele>1333</ele>
        <time>2021-08-20T19:47:42Z</time>
      </trkpt>
      <trkpt lat="42.85988" lon="1.11029">
        <ele>1334</ele>
        <time>2021-08-20T19:47:44Z</time>
      </trkpt>
      <trkpt lat="42.85993" lon="1.11051">
        <ele>1331</ele>
        <time>2021-08-20T19:47:47Z</time>
      </trkpt>
      <trkpt lat="42.85998" lon="1.11094">
        <ele>1327</ele>
        <time>2021-08-20T19:47:53Z</time>
      </trkpt>
      <trkpt lat="42.85999" lon="1.11108">
        <ele>1327</ele>
        <time>2021-08-20T19:47:55Z</time>
      </trkpt>
      <trkpt lat="42.85997" lon="1.11122">
        <ele>1326</ele>
        <time>2021-08-20T19:47:57Z</time>
      </trkpt>
      <trkpt lat="42.85993" lon="1.11136">
        <ele>1324</ele>
        <time>2021-08-20T19:47:59Z</time>
      </trkpt>
      <trkpt lat="42.85976" lon="1.1118">
        <ele>1313</ele>
        <time>2021-08-20T19:48:05Z</time>
      </trkpt>
      <trkpt lat="42.85974" lon="1.11191">
        <ele>1311</ele>
        <time>2021-08-20T19:48:07Z</time>
      </trkpt>
      <trkpt lat="42.85975" lon="1.11208">
        <ele>1310</ele>
        <time>2021-08-20T19:48:09Z</time>
      </trkpt>
      <trkpt lat="42.85986" lon="1.11264">
        <ele>1309</ele>
        <time>2021-08-20T19:48:17Z</time>
      </trkpt>
      <trkpt lat="42.85995" lon="1.11292">
        <ele>1308</ele>
        <time>2021-08-20T19:48:21Z</time>
      </trkpt>
      <trkpt lat="42.86005" lon="1.11312">
        <ele>1308</ele>
        <time>2021-08-20T19:48:24Z</time>
      </trkpt>
      <trkpt lat="42.86031" lon="1.1135">
        <ele>1315</ele>
        <time>2021-08-20T19:48:30Z</time>
      </trkpt>
      <trkpt lat="42.86034" lon="1.1136">
        <ele>1316</ele>
        <time>2021-08-20T19:48:32Z</time>
      </trkpt>
      <trkpt lat="42.86035" lon="1.11369">
        <ele>1315</ele>
        <time>2021-08-20T19:48:33Z</time>
      </trkpt>
      <trkpt lat="42.86022" lon="1.1141">
        <ele>1306</ele>
        <time>2021-08-20T19:48:39Z</time>
      </trkpt>
      <trkpt lat="42.86018" lon="1.11432">
        <ele>1304</ele>
        <time>2021-08-20T19:48:42Z</time>
      </trkpt>
      <trkpt lat="42.86017" lon="1.11453">
        <ele>1306</ele>
        <time>2021-08-20T19:48:45Z</time>
      </trkpt>
      <trkpt lat="42.86014" lon="1.11469">
        <ele>1306</ele>
        <time>2021-08-20T19:48:47Z</time>
      </trkpt>
      <trkpt lat="42.85993" lon="1.11521">
        <ele>1299</ele>
        <time>2021-08-20T19:48:54Z</time>
      </trkpt>
      <trkpt lat="42.85985" lon="1.11551">
        <ele>1296</ele>
        <time>2021-08-20T19:48:59Z</time>
      </trkpt>
      <trkpt lat="42.85973" lon="1.11616">
        <ele>1294</ele>
        <time>2021-08-20T19:49:07Z</time>
      </trkpt>
      <trkpt lat="42.85969" lon="1.11693">
        <ele>1293</ele>
        <time>2021-08-20T19:49:17Z</time>
      </trkpt>
      <trkpt lat="42.85963" lon="1.1172">
        <ele>1291</ele>
        <time>2021-08-20T19:49:21Z</time>
      </trkpt>
      <trkpt lat="42.85943" lon="1.11772">
        <ele>1281</ele>
        <time>2021-08-20T19:49:29Z</time>
      </trkpt>
      <trkpt lat="42.85936" lon="1.11799">
        <ele>1277</ele>
        <time>2021-08-20T19:49:33Z</time>
      </trkpt>
      <trkpt lat="42.85923" lon="1.11876">
        <ele>1270</ele>
        <time>2021-08-20T19:49:43Z</time>
      </trkpt>
      <trkpt lat="42.8592" lon="1.11893">
        <ele>1268</ele>
        <time>2021-08-20T19:49:45Z</time>
      </trkpt>
      <trkpt lat="42.8592" lon="1.11908">
        <ele>1268</ele>
        <time>2021-08-20T19:49:47Z</time>
      </trkpt>
      <trkpt lat="42.85923" lon="1.11921">
        <ele>1268</ele>
        <time>2021-08-20T19:49:49Z</time>
      </trkpt>
      <trkpt lat="42.85927" lon="1.11932">
        <ele>1268</ele>
        <time>2021-08-20T19:49:50Z</time>
      </trkpt>
      <trkpt lat="42.85968" lon="1.11982">
        <ele>1274</ele>
        <time>2021-08-20T19:50:00Z</time>
      </trkpt>
      <trkpt lat="42.85974" lon="1.11995">
        <ele>1274</ele>
        <time>2021-08-20T19:50:02Z</time>
      </trkpt>
      <trkpt lat="42.85977" lon="1.12004">
        <ele>1273</ele>
        <time>2021-08-20T19:50:04Z</time>
      </trkpt>
      <trkpt lat="42.85977" lon="1.12023">
        <ele>1273</ele>
        <time>2021-08-20T19:50:06Z</time>
      </trkpt>
      <trkpt lat="42.85973" lon="1.12033">
        <ele>1271</ele>
        <time>2021-08-20T19:50:07Z</time>
      </trkpt>
      <trkpt lat="42.85953" lon="1.1207">
        <ele>1260</ele>
        <time>2021-08-20T19:50:13Z</time>
      </trkpt>
      <trkpt lat="42.85946" lon="1.12092">
        <ele>1256</ele>
        <time>2021-08-20T19:50:17Z</time>
      </trkpt>
      <trkpt lat="42.85927" lon="1.12179">
        <ele>1246</ele>
        <time>2021-08-20T19:50:28Z</time>
      </trkpt>
      <trkpt lat="42.8592" lon="1.12233">
        <ele>1243</ele>
        <time>2021-08-20T19:50:36Z</time>
      </trkpt>
      <trkpt lat="42.85923" lon="1.12252">
        <ele>1246</ele>
        <time>2021-08-20T19:50:38Z</time>
      </trkpt>
      <trkpt lat="42.85938" lon="1.12328">
        <ele>1243</ele>
        <time>2021-08-20T19:50:48Z</time>
      </trkpt>
      <trkpt lat="42.85941" lon="1.12337">
        <ele>1242</ele>
        <time>2021-08-20T19:50:50Z</time>
      </trkpt>
      <trkpt lat="42.85948" lon="1.12347">
        <ele>1243</ele>
        <time>2021-08-20T19:50:51Z</time>
      </trkpt>
      <trkpt lat="42.85957" lon="1.12353">
        <ele>1245</ele>
        <time>2021-08-20T19:50:53Z</time>
      </trkpt>
      <trkpt lat="42.85966" lon="1.12363">
        <ele>1246</ele>
        <time>2021-08-20T19:50:55Z</time>
      </trkpt>
      <trkpt lat="42.85979" lon="1.12386">
        <ele>1245</ele>
        <time>2021-08-20T19:50:59Z</time>
      </trkpt>
      <trkpt lat="42.86018" lon="1.1244">
        <ele>1247</ele>
        <time>2021-08-20T19:51:09Z</time>
      </trkpt>
      <trkpt lat="42.86029" lon="1.12459">
        <ele>1248</ele>
        <time>2021-08-20T19:51:12Z</time>
      </trkpt>
      <trkpt lat="42.86034" lon="1.12469">
        <ele>1248</ele>
        <time>2021-08-20T19:51:14Z</time>
      </trkpt>
      <trkpt lat="42.86034" lon="1.12482">
        <ele>1244</ele>
        <time>2021-08-20T19:51:15Z</time>
      </trkpt>
      <trkpt lat="42.86031" lon="1.12491">
        <ele>1240</ele>
        <time>2021-08-20T19:51:17Z</time>
      </trkpt>
      <trkpt lat="42.86015" lon="1.12518">
        <ele>1229</ele>
        <time>2021-08-20T19:51:21Z</time>
      </trkpt>
      <trkpt lat="42.85993" lon="1.12553">
        <ele>1215</ele>
        <time>2021-08-20T19:51:27Z</time>
      </trkpt>
      <trkpt lat="42.8599" lon="1.12562">
        <ele>1213</ele>
        <time>2021-08-20T19:51:29Z</time>
      </trkpt>
      <trkpt lat="42.85991" lon="1.12572">
        <ele>1213</ele>
        <time>2021-08-20T19:51:30Z</time>
      </trkpt>
      <trkpt lat="42.85994" lon="1.12583">
        <ele>1214</ele>
        <time>2021-08-20T19:51:31Z</time>
      </trkpt>
      <trkpt lat="42.86004" lon="1.12594">
        <ele>1218</ele>
        <time>2021-08-20T19:51:34Z</time>
      </trkpt>
      <trkpt lat="42.86026" lon="1.12612">
        <ele>1228</ele>
        <time>2021-08-20T19:51:38Z</time>
      </trkpt>
      <trkpt lat="42.86031" lon="1.12622">
        <ele>1230</ele>
        <time>2021-08-20T19:51:40Z</time>
      </trkpt>
      <trkpt lat="42.86033" lon="1.12634">
        <ele>1230</ele>
        <time>2021-08-20T19:51:41Z</time>
      </trkpt>
      <trkpt lat="42.86033" lon="1.12645">
        <ele>1228</ele>
        <time>2021-08-20T19:51:43Z</time>
      </trkpt>
      <trkpt lat="42.8603" lon="1.12653">
        <ele>1226</ele>
        <time>2021-08-20T19:51:44Z</time>
      </trkpt>
      <trkpt lat="42.86005" lon="1.127">
        <ele>1210</ele>
        <time>2021-08-20T19:51:52Z</time>
      </trkpt>
      <trkpt lat="42.85996" lon="1.12729">
        <ele>1207</ele>
        <time>2021-08-20T19:51:56Z</time>
      </trkpt>
      <trkpt lat="42.85987" lon="1.12761">
        <ele>1204</ele>
        <time>2021-08-20T19:52:00Z</time>
      </trkpt>
      <trkpt lat="42.85979" lon="1.12832">
        <ele>1203</ele>
        <time>2021-08-20T19:52:10Z</time>
      </trkpt>
      <trkpt lat="42.85979" lon="1.12845">
        <ele>1200</ele>
        <time>2021-08-20T19:52:11Z</time>
      </trkpt>
      <trkpt lat="42.85981" lon="1.12859">
        <ele>1199</ele>
        <time>2021-08-20T19:52:13Z</time>
      </trkpt>
      <trkpt lat="42.85985" lon="1.12871">
        <ele>1199</ele>
        <time>2021-08-20T19:52:15Z</time>
      </trkpt>
      <trkpt lat="42.86" lon="1.12901">
        <ele>1201</ele>
        <time>2021-08-20T19:52:20Z</time>
      </trkpt>
      <trkpt lat="42.86004" lon="1.12912">
        <ele>1201</ele>
        <time>2021-08-20T19:52:21Z</time>
      </trkpt>
      <trkpt lat="42.86012" lon="1.12955">
        <ele>1194</ele>
        <time>2021-08-20T19:52:27Z</time>
      </trkpt>
      <trkpt lat="42.86016" lon="1.12967">
        <ele>1193</ele>
        <time>2021-08-20T19:52:29Z</time>
      </trkpt>
      <trkpt lat="42.8603" lon="1.12991">
        <ele>1196</ele>
        <time>2021-08-20T19:52:33Z</time>
      </trkpt>
      <trkpt lat="42.86035" lon="1.13009">
        <ele>1196</ele>
        <time>2021-08-20T19:52:35Z</time>
      </trkpt>
      <trkpt lat="42.86038" lon="1.13028">
        <ele>1197</ele>
        <time>2021-08-20T19:52:38Z</time>
      </trkpt>
      <trkpt lat="42.86038" lon="1.13079">
        <ele>1195</ele>
        <time>2021-08-20T19:52:44Z</time>
      </trkpt>
      <trkpt lat="42.86036" lon="1.13088">
        <ele>1194</ele>
        <time>2021-08-20T19:52:46Z</time>
      </trkpt>
      <trkpt lat="42.86016" lon="1.13119">
        <ele>1190</ele>
        <time>2021-08-20T19:52:51Z</time>
      </trkpt>
      <trkpt lat="42.85965" lon="1.13181">
        <ele>1173</ele>
        <time>2021-08-20T19:53:03Z</time>
      </trkpt>
      <trkpt lat="42.8596" lon="1.1319">
        <ele>1171</ele>
        <time>2021-08-20T19:53:05Z</time>
      </trkpt>
      <trkpt lat="42.85956" lon="1.132">
        <ele>1169</ele>
        <time>2021-08-20T19:53:06Z</time>
      </trkpt>
      <trkpt lat="42.85954" lon="1.13213">
        <ele>1169</ele>
        <time>2021-08-20T19:53:08Z</time>
      </trkpt>
      <trkpt lat="42.85949" lon="1.13273">
        <ele>1171</ele>
        <time>2021-08-20T19:53:16Z</time>
      </trkpt>
      <trkpt lat="42.85941" lon="1.13303">
        <ele>1172</ele>
        <time>2021-08-20T19:53:20Z</time>
      </trkpt>
      <trkpt lat="42.85927" lon="1.13327">
        <ele>1167</ele>
        <time>2021-08-20T19:53:24Z</time>
      </trkpt>
      <trkpt lat="42.85902" lon="1.1336">
        <ele>1160</ele>
        <time>2021-08-20T19:53:30Z</time>
      </trkpt>
      <trkpt lat="42.8588" lon="1.13398">
        <ele>1157</ele>
        <time>2021-08-20T19:53:36Z</time>
      </trkpt>
      <trkpt lat="42.85831" lon="1.13453">
        <ele>1143</ele>
        <time>2021-08-20T19:53:48Z</time>
      </trkpt>
      <trkpt lat="42.85814" lon="1.13478">
        <ele>1139</ele>
        <time>2021-08-20T19:53:52Z</time>
      </trkpt>
      <trkpt lat="42.85801" lon="1.13506">
        <ele>1136</ele>
        <time>2021-08-20T19:53:56Z</time>
      </trkpt>
      <trkpt lat="42.85795" lon="1.13533">
        <ele>1130</ele>
        <time>2021-08-20T19:54:00Z</time>
      </trkpt>
      <trkpt lat="42.85792" lon="1.13551">
        <ele>1127</ele>
        <time>2021-08-20T19:54:03Z</time>
      </trkpt>
      <trkpt lat="42.85793" lon="1.13563">
        <ele>1127</ele>
        <time>2021-08-20T19:54:04Z</time>
      </trkpt>
      <trkpt lat="42.85798" lon="1.1358">
        <ele>1127</ele>
        <time>2021-08-20T19:54:07Z</time>
      </trkpt>
      <trkpt lat="42.85802" lon="1.13585">
        <ele>1129</ele>
        <time>2021-08-20T19:54:07Z</time>
      </trkpt>
      <trkpt lat="42.85846" lon="1.13623">
        <ele>1141</ele>
        <time>2021-08-20T19:54:17Z</time>
      </trkpt>
      <trkpt lat="42.85859" lon="1.13642">
        <ele>1143</ele>
        <time>2021-08-20T19:54:20Z</time>
      </trkpt>
      <trkpt lat="42.85866" lon="1.13659">
        <ele>1143</ele>
        <time>2021-08-20T19:54:23Z</time>
      </trkpt>
      <trkpt lat="42.85868" lon="1.13667">
        <ele>1142</ele>
        <time>2021-08-20T19:54:24Z</time>
      </trkpt>
      <trkpt lat="42.85865" lon="1.13677">
        <ele>1141</ele>
        <time>2021-08-20T19:54:25Z</time>
      </trkpt>
      <trkpt lat="42.8584" lon="1.13729">
        <ele>1125</ele>
        <time>2021-08-20T19:54:33Z</time>
      </trkpt>
      <trkpt lat="42.85816" lon="1.13814">
        <ele>1124</ele>
        <time>2021-08-20T19:54:45Z</time>
      </trkpt>
      <trkpt lat="42.85787" lon="1.13866">
        <ele>1118</ele>
        <time>2021-08-20T19:54:54Z</time>
      </trkpt>
      <trkpt lat="42.85766" lon="1.13895">
        <ele>1111</ele>
        <time>2021-08-20T19:54:59Z</time>
      </trkpt>
      <trkpt lat="42.85751" lon="1.13924">
        <ele>1107</ele>
        <time>2021-08-20T19:55:04Z</time>
      </trkpt>
      <trkpt lat="42.85724" lon="1.13987">
        <ele>1097</ele>
        <time>2021-08-20T19:55:13Z</time>
      </trkpt>
      <trkpt lat="42.8572" lon="1.14004">
        <ele>1095</ele>
        <time>2021-08-20T19:55:15Z</time>
      </trkpt>
      <trkpt lat="42.85718" lon="1.14095">
        <ele>1092</ele>
        <time>2021-08-20T19:55:27Z</time>
      </trkpt>
      <trkpt lat="42.85721" lon="1.14131">
        <ele>1089</ele>
        <time>2021-08-20T19:55:32Z</time>
      </trkpt>
      <trkpt lat="42.85724" lon="1.14141">
        <ele>1089</ele>
        <time>2021-08-20T19:55:33Z</time>
      </trkpt>
      <trkpt lat="42.85736" lon="1.14154">
        <ele>1094</ele>
        <time>2021-08-20T19:55:36Z</time>
      </trkpt>
      <trkpt lat="42.85741" lon="1.14164">
        <ele>1096</ele>
        <time>2021-08-20T19:55:38Z</time>
      </trkpt>
      <trkpt lat="42.85746" lon="1.14176">
        <ele>1097</ele>
        <time>2021-08-20T19:55:40Z</time>
      </trkpt>
      <trkpt lat="42.8575" lon="1.1419">
        <ele>1097</ele>
        <time>2021-08-20T19:55:42Z</time>
      </trkpt>
      <trkpt lat="42.85754" lon="1.14218">
        <ele>1095</ele>
        <time>2021-08-20T19:55:45Z</time>
      </trkpt>
      <trkpt lat="42.85755" lon="1.14231">
        <ele>1094</ele>
        <time>2021-08-20T19:55:47Z</time>
      </trkpt>
      <trkpt lat="42.85752" lon="1.14264">
        <ele>1086</ele>
        <time>2021-08-20T19:55:51Z</time>
      </trkpt>
      <trkpt lat="42.85752" lon="1.14277">
        <ele>1085</ele>
        <time>2021-08-20T19:55:53Z</time>
      </trkpt>
      <trkpt lat="42.85755" lon="1.1429">
        <ele>1085</ele>
        <time>2021-08-20T19:55:55Z</time>
      </trkpt>
      <trkpt lat="42.85766" lon="1.14318">
        <ele>1089</ele>
        <time>2021-08-20T19:55:59Z</time>
      </trkpt>
      <trkpt lat="42.85769" lon="1.14329">
        <ele>1090</ele>
        <time>2021-08-20T19:56:00Z</time>
      </trkpt>
      <trkpt lat="42.8577" lon="1.1434">
        <ele>1091</ele>
        <time>2021-08-20T19:56:02Z</time>
      </trkpt>
      <trkpt lat="42.85767" lon="1.14351">
        <ele>1090</ele>
        <time>2021-08-20T19:56:03Z</time>
      </trkpt>
      <trkpt lat="42.85761" lon="1.14364">
        <ele>1087</ele>
        <time>2021-08-20T19:56:05Z</time>
      </trkpt>
      <trkpt lat="42.85738" lon="1.14393">
        <ele>1074</ele>
        <time>2021-08-20T19:56:11Z</time>
      </trkpt>
      <trkpt lat="42.8571" lon="1.14436">
        <ele>1064</ele>
        <time>2021-08-20T19:56:19Z</time>
      </trkpt>
      <trkpt lat="42.85699" lon="1.14458">
        <ele>1063</ele>
        <time>2021-08-20T19:56:22Z</time>
      </trkpt>
      <trkpt lat="42.85672" lon="1.14554">
        <ele>1061</ele>
        <time>2021-08-20T19:56:35Z</time>
      </trkpt>
      <trkpt lat="42.85652" lon="1.14647">
        <ele>1055</ele>
        <time>2021-08-20T19:56:48Z</time>
      </trkpt>
      <trkpt lat="42.85636" lon="1.14707">
        <ele>1048</ele>
        <time>2021-08-20T19:56:56Z</time>
      </trkpt>
      <trkpt lat="42.8563" lon="1.14758">
        <ele>1047</ele>
        <time>2021-08-20T19:57:03Z</time>
      </trkpt>
      <trkpt lat="42.8563" lon="1.14796">
        <ele>1045</ele>
        <time>2021-08-20T19:57:08Z</time>
      </trkpt>
      <trkpt lat="42.85646" lon="1.14947">
        <ele>1037</ele>
        <time>2021-08-20T19:57:28Z</time>
      </trkpt>
      <trkpt lat="42.85652" lon="1.1498">
        <ele>1034</ele>
        <time>2021-08-20T19:57:32Z</time>
      </trkpt>
      <trkpt lat="42.85661" lon="1.15003">
        <ele>1035</ele>
        <time>2021-08-20T19:57:36Z</time>
      </trkpt>
      <trkpt lat="42.85669" lon="1.15009">
        <ele>1038</ele>
        <time>2021-08-20T19:57:37Z</time>
      </trkpt>
      <trkpt lat="42.85692" lon="1.15018">
        <ele>1048</ele>
        <time>2021-08-20T19:57:42Z</time>
      </trkpt>
      <trkpt lat="42.85697" lon="1.15024">
        <ele>1049</ele>
        <time>2021-08-20T19:57:43Z</time>
      </trkpt>
      <trkpt lat="42.85702" lon="1.15038">
        <ele>1048</ele>
        <time>2021-08-20T19:57:45Z</time>
      </trkpt>
      <trkpt lat="42.85711" lon="1.15073">
        <ele>1045</ele>
        <time>2021-08-20T19:57:50Z</time>
      </trkpt>
      <trkpt lat="42.8571" lon="1.15095">
        <ele>1041</ele>
        <time>2021-08-20T19:57:53Z</time>
      </trkpt>
      <trkpt lat="42.85707" lon="1.15126">
        <ele>1035</ele>
        <time>2021-08-20T19:57:57Z</time>
      </trkpt>
      <trkpt lat="42.85707" lon="1.1514">
        <ele>1033</ele>
        <time>2021-08-20T19:57:59Z</time>
      </trkpt>
      <trkpt lat="42.85714" lon="1.15177">
        <ele>1034</ele>
        <time>2021-08-20T19:58:04Z</time>
      </trkpt>
      <trkpt lat="42.85715" lon="1.15187">
        <ele>1035</ele>
        <time>2021-08-20T19:58:05Z</time>
      </trkpt>
      <trkpt lat="42.85711" lon="1.15229">
        <ele>1030</ele>
        <time>2021-08-20T19:58:10Z</time>
      </trkpt>
      <trkpt lat="42.85715" lon="1.15339">
        <ele>1028</ele>
        <time>2021-08-20T19:58:25Z</time>
      </trkpt>
      <trkpt lat="42.85719" lon="1.15374">
        <ele>1027</ele>
        <time>2021-08-20T19:58:29Z</time>
      </trkpt>
      <trkpt lat="42.85724" lon="1.15394">
        <ele>1028</ele>
        <time>2021-08-20T19:58:32Z</time>
      </trkpt>
      <trkpt lat="42.85752" lon="1.15465">
        <ele>1029</ele>
        <time>2021-08-20T19:58:43Z</time>
      </trkpt>
      <trkpt lat="42.8576" lon="1.15475">
        <ele>1030</ele>
        <time>2021-08-20T19:58:45Z</time>
      </trkpt>
      <trkpt lat="42.8578" lon="1.15495">
        <ele>1034</ele>
        <time>2021-08-20T19:58:49Z</time>
      </trkpt>
      <trkpt lat="42.85787" lon="1.15506">
        <ele>1034</ele>
        <time>2021-08-20T19:58:51Z</time>
      </trkpt>
      <trkpt lat="42.85801" lon="1.15565">
        <ele>1027</ele>
        <time>2021-08-20T19:58:59Z</time>
      </trkpt>
      <trkpt lat="42.8582" lon="1.15628">
        <ele>1023</ele>
        <time>2021-08-20T19:59:08Z</time>
      </trkpt>
      <trkpt lat="42.8585" lon="1.15688">
        <ele>1027</ele>
        <time>2021-08-20T19:59:17Z</time>
      </trkpt>
      <trkpt lat="42.85859" lon="1.15728">
        <ele>1025</ele>
        <time>2021-08-20T19:59:23Z</time>
      </trkpt>
      <trkpt lat="42.85862" lon="1.15759">
        <ele>1022</ele>
        <time>2021-08-20T19:59:27Z</time>
      </trkpt>
      <trkpt lat="42.85862" lon="1.15826">
        <ele>1017</ele>
        <time>2021-08-20T19:59:36Z</time>
      </trkpt>
      <trkpt lat="42.85864" lon="1.15851">
        <ele>1015</ele>
        <time>2021-08-20T19:59:39Z</time>
      </trkpt>
      <trkpt lat="42.8587" lon="1.1587">
        <ele>1014</ele>
        <time>2021-08-20T19:59:42Z</time>
      </trkpt>
      <trkpt lat="42.85879" lon="1.15884">
        <ele>1014</ele>
        <time>2021-08-20T19:59:44Z</time>
      </trkpt>
      <trkpt lat="42.85892" lon="1.15896">
        <ele>1015</ele>
        <time>2021-08-20T19:59:47Z</time>
      </trkpt>
      <trkpt lat="42.85942" lon="1.15904">
        <ele>1023</ele>
        <time>2021-08-20T19:59:56Z</time>
      </trkpt>
      <trkpt lat="42.85955" lon="1.1591">
        <ele>1025</ele>
        <time>2021-08-20T19:59:58Z</time>
      </trkpt>
      <trkpt lat="42.85962" lon="1.1592">
        <ele>1024</ele>
        <time>2021-08-20T20:00:00Z</time>
      </trkpt>
      <trkpt lat="42.85971" lon="1.15954">
        <ele>1019</ele>
        <time>2021-08-20T20:00:05Z</time>
      </trkpt>
      <trkpt lat="42.85982" lon="1.16003">
        <ele>1013</ele>
        <time>2021-08-20T20:00:11Z</time>
      </trkpt>
      <trkpt lat="42.86001" lon="1.16071">
        <ele>1008</ele>
        <time>2021-08-20T20:00:21Z</time>
      </trkpt>
      <trkpt lat="42.86024" lon="1.16204">
        <ele>999</ele>
        <time>2021-08-20T20:00:39Z</time>
      </trkpt>
      <trkpt lat="42.86026" lon="1.16249">
        <ele>993</ele>
        <time>2021-08-20T20:00:45Z</time>
      </trkpt>
      <trkpt lat="42.86029" lon="1.16265">
        <ele>990</ele>
        <time>2021-08-20T20:00:47Z</time>
      </trkpt>
      <trkpt lat="42.86034" lon="1.16277">
        <ele>988</ele>
        <time>2021-08-20T20:00:49Z</time>
      </trkpt>
      <trkpt lat="42.86041" lon="1.16285">
        <ele>988</ele>
        <time>2021-08-20T20:00:50Z</time>
      </trkpt>
      <trkpt lat="42.86047" lon="1.16289">
        <ele>988</ele>
        <time>2021-08-20T20:00:51Z</time>
      </trkpt>
      <trkpt lat="42.86058" lon="1.1629">
        <ele>990</ele>
        <time>2021-08-20T20:00:53Z</time>
      </trkpt>
      <trkpt lat="42.86078" lon="1.16282">
        <ele>995</ele>
        <time>2021-08-20T20:00:57Z</time>
      </trkpt>
      <trkpt lat="42.86115" lon="1.1626">
        <ele>1004</ele>
        <time>2021-08-20T20:01:04Z</time>
      </trkpt>
      <trkpt lat="42.86122" lon="1.16259">
        <ele>1004</ele>
        <time>2021-08-20T20:01:05Z</time>
      </trkpt>
      <trkpt lat="42.86129" lon="1.16262">
        <ele>1004</ele>
        <time>2021-08-20T20:01:07Z</time>
      </trkpt>
      <trkpt lat="42.86151" lon="1.16286">
        <ele>998</ele>
        <time>2021-08-20T20:01:12Z</time>
      </trkpt>
      <trkpt lat="42.8617" lon="1.16295">
        <ele>997</ele>
        <time>2021-08-20T20:01:15Z</time>
      </trkpt>
      <trkpt lat="42.86198" lon="1.16302">
        <ele>995</ele>
        <time>2021-08-20T20:01:20Z</time>
      </trkpt>
      <trkpt lat="42.86246" lon="1.16302">
        <ele>995</ele>
        <time>2021-08-20T20:01:29Z</time>
      </trkpt>
      <trkpt lat="42.86268" lon="1.16297">
        <ele>996</ele>
        <time>2021-08-20T20:01:33Z</time>
      </trkpt>
      <trkpt lat="42.86321" lon="1.16269">
        <ele>1004</ele>
        <time>2021-08-20T20:01:43Z</time>
      </trkpt>
      <trkpt lat="42.8633" lon="1.16268">
        <ele>1004</ele>
        <time>2021-08-20T20:01:45Z</time>
      </trkpt>
      <trkpt lat="42.86335" lon="1.1627">
        <ele>1004</ele>
        <time>2021-08-20T20:01:46Z</time>
      </trkpt>
      <trkpt lat="42.8634" lon="1.16281">
        <ele>1001</ele>
        <time>2021-08-20T20:01:47Z</time>
      </trkpt>
      <trkpt lat="42.86343" lon="1.16298">
        <ele>997</ele>
        <time>2021-08-20T20:01:50Z</time>
      </trkpt>
      <trkpt lat="42.86343" lon="1.16327">
        <ele>989</ele>
        <time>2021-08-20T20:01:53Z</time>
      </trkpt>
      <trkpt lat="42.86349" lon="1.16345">
        <ele>985</ele>
        <time>2021-08-20T20:01:56Z</time>
      </trkpt>
      <trkpt lat="42.86388" lon="1.16438">
        <ele>972</ele>
        <time>2021-08-20T20:02:10Z</time>
      </trkpt>
      <trkpt lat="42.86405" lon="1.16464">
        <ele>968</ele>
        <time>2021-08-20T20:02:14Z</time>
      </trkpt>
      <trkpt lat="42.86418" lon="1.16483">
        <ele>965</ele>
        <time>2021-08-20T20:02:18Z</time>
      </trkpt>
      <trkpt lat="42.86429" lon="1.1649">
        <ele>963</ele>
        <time>2021-08-20T20:02:20Z</time>
      </trkpt>
      <trkpt lat="42.86441" lon="1.16494">
        <ele>962</ele>
        <time>2021-08-20T20:02:22Z</time>
      </trkpt>
      <trkpt lat="42.86456" lon="1.16495">
        <ele>963</ele>
        <time>2021-08-20T20:02:25Z</time>
      </trkpt>
      <trkpt lat="42.8653" lon="1.16479">
        <ele>965</ele>
        <time>2021-08-20T20:02:38Z</time>
      </trkpt>
      <trkpt lat="42.86557" lon="1.16466">
        <ele>964</ele>
        <time>2021-08-20T20:02:43Z</time>
      </trkpt>
      <trkpt lat="42.86583" lon="1.16443">
        <ele>968</ele>
        <time>2021-08-20T20:02:49Z</time>
      </trkpt>
      <trkpt lat="42.86633" lon="1.16404">
        <ele>962</ele>
        <time>2021-08-20T20:02:59Z</time>
      </trkpt>
      <trkpt lat="42.867" lon="1.16366">
        <ele>951</ele>
        <time>2021-08-20T20:03:12Z</time>
      </trkpt>
      <trkpt lat="42.86724" lon="1.16344">
        <ele>950</ele>
        <time>2021-08-20T20:03:17Z</time>
      </trkpt>
      <trkpt lat="42.86752" lon="1.16325">
        <ele>946</ele>
        <time>2021-08-20T20:03:23Z</time>
      </trkpt>
      <trkpt lat="42.86777" lon="1.16315">
        <ele>942</ele>
        <time>2021-08-20T20:03:27Z</time>
      </trkpt>
      <trkpt lat="42.86819" lon="1.16293">
        <ele>936</ele>
        <time>2021-08-20T20:03:35Z</time>
      </trkpt>
      <trkpt lat="42.86859" lon="1.16266">
        <ele>931</ele>
        <time>2021-08-20T20:03:43Z</time>
      </trkpt>
      <trkpt lat="42.86885" lon="1.16237">
        <ele>928</ele>
        <time>2021-08-20T20:03:49Z</time>
      </trkpt>
      <trkpt lat="42.86903" lon="1.16202">
        <ele>924</ele>
        <time>2021-08-20T20:03:55Z</time>
      </trkpt>
      <trkpt lat="42.86906" lon="1.16184">
        <ele>925</ele>
        <time>2021-08-20T20:03:57Z</time>
      </trkpt>
      <trkpt lat="42.86905" lon="1.16155">
        <ele>928</ele>
        <time>2021-08-20T20:04:01Z</time>
      </trkpt>
      <trkpt lat="42.86907" lon="1.16145">
        <ele>927</ele>
        <time>2021-08-20T20:04:02Z</time>
      </trkpt>
      <trkpt lat="42.86909" lon="1.16141">
        <ele>926</ele>
        <time>2021-08-20T20:04:03Z</time>
      </trkpt>
      <trkpt lat="42.86914" lon="1.16138">
        <ele>923</ele>
        <time>2021-08-20T20:04:04Z</time>
      </trkpt>
      <trkpt lat="42.86918" lon="1.16139">
        <ele>921</ele>
        <time>2021-08-20T20:04:05Z</time>
      </trkpt>
      <trkpt lat="42.86923" lon="1.16143">
        <ele>919</ele>
        <time>2021-08-20T20:04:06Z</time>
      </trkpt>
      <trkpt lat="42.86926" lon="1.16152">
        <ele>918</ele>
        <time>2021-08-20T20:04:07Z</time>
      </trkpt>
      <trkpt lat="42.86927" lon="1.16176">
        <ele>917</ele>
        <time>2021-08-20T20:04:10Z</time>
      </trkpt>
      <trkpt lat="42.86926" lon="1.16212">
        <ele>914</ele>
        <time>2021-08-20T20:04:15Z</time>
      </trkpt>
      <trkpt lat="42.86921" lon="1.16238">
        <ele>914</ele>
        <time>2021-08-20T20:04:18Z</time>
      </trkpt>
      <trkpt lat="42.86916" lon="1.16261">
        <ele>912</ele>
        <time>2021-08-20T20:04:21Z</time>
      </trkpt>
      <trkpt lat="42.86902" lon="1.16291">
        <ele>910</ele>
        <time>2021-08-20T20:04:26Z</time>
      </trkpt>
      <trkpt lat="42.86867" lon="1.16341">
        <ele>907</ele>
        <time>2021-08-20T20:04:35Z</time>
      </trkpt>
      <trkpt lat="42.86838" lon="1.16372">
        <ele>904</ele>
        <time>2021-08-20T20:04:42Z</time>
      </trkpt>
      <trkpt lat="42.86743" lon="1.16447">
        <ele>903</ele>
        <time>2021-08-20T20:05:01Z</time>
      </trkpt>
      <trkpt lat="42.86738" lon="1.16454">
        <ele>903</ele>
        <time>2021-08-20T20:05:02Z</time>
      </trkpt>
      <trkpt lat="42.86738" lon="1.16463">
        <ele>900</ele>
        <time>2021-08-20T20:05:04Z</time>
      </trkpt>
      <trkpt lat="42.86742" lon="1.16467">
        <ele>897</ele>
        <time>2021-08-20T20:05:04Z</time>
      </trkpt>
      <trkpt lat="42.86748" lon="1.16468">
        <ele>895</ele>
        <time>2021-08-20T20:05:06Z</time>
      </trkpt>
      <trkpt lat="42.8678" lon="1.16442">
        <ele>895</ele>
        <time>2021-08-20T20:05:12Z</time>
      </trkpt>
      <trkpt lat="42.86797" lon="1.16436">
        <ele>893</ele>
        <time>2021-08-20T20:05:15Z</time>
      </trkpt>
      <trkpt lat="42.86847" lon="1.16427">
        <ele>883</ele>
        <time>2021-08-20T20:05:24Z</time>
      </trkpt>
      <trkpt lat="42.86864" lon="1.16422">
        <ele>880</ele>
        <time>2021-08-20T20:05:27Z</time>
      </trkpt>
      <trkpt lat="42.86939" lon="1.16389">
        <ele>875</ele>
        <time>2021-08-20T20:05:41Z</time>
      </trkpt>
      <trkpt lat="42.87019" lon="1.16339">
        <ele>869</ele>
        <time>2021-08-20T20:05:57Z</time>
      </trkpt>
      <trkpt lat="42.87031" lon="1.16333">
        <ele>867</ele>
        <time>2021-08-20T20:05:59Z</time>
      </trkpt>
      <trkpt lat="42.87039" lon="1.16324">
        <ele>866</ele>
        <time>2021-08-20T20:06:01Z</time>
      </trkpt>
      <trkpt lat="42.87047" lon="1.16311">
        <ele>865</ele>
        <time>2021-08-20T20:06:03Z</time>
      </trkpt>
      <trkpt lat="42.87052" lon="1.16294">
        <ele>865</ele>
        <time>2021-08-20T20:06:06Z</time>
      </trkpt>
      <trkpt lat="42.87068" lon="1.16168">
        <ele>868</ele>
        <time>2021-08-20T20:06:22Z</time>
      </trkpt>
      <trkpt lat="42.87077" lon="1.16155">
        <ele>869</ele>
        <time>2021-08-20T20:06:25Z</time>
      </trkpt>
      <trkpt lat="42.87088" lon="1.16149">
        <ele>870</ele>
        <time>2021-08-20T20:06:27Z</time>
      </trkpt>
      <trkpt lat="42.87102" lon="1.1615">
        <ele>871</ele>
        <time>2021-08-20T20:06:29Z</time>
      </trkpt>
      <trkpt lat="42.87112" lon="1.16156">
        <ele>870</ele>
        <time>2021-08-20T20:06:31Z</time>
      </trkpt>
      <trkpt lat="42.8714" lon="1.16213">
        <ele>857</ele>
        <time>2021-08-20T20:06:40Z</time>
      </trkpt>
      <trkpt lat="42.87149" lon="1.16221">
        <ele>855</ele>
        <time>2021-08-20T20:06:42Z</time>
      </trkpt>
      <trkpt lat="42.87156" lon="1.16223">
        <ele>854</ele>
        <time>2021-08-20T20:06:43Z</time>
      </trkpt>
      <trkpt lat="42.87174" lon="1.16224">
        <ele>852</ele>
        <time>2021-08-20T20:06:47Z</time>
      </trkpt>
      <trkpt lat="42.87212" lon="1.16221">
        <ele>852</ele>
        <time>2021-08-20T20:06:53Z</time>
      </trkpt>
      <trkpt lat="42.87222" lon="1.16222">
        <ele>851</ele>
        <time>2021-08-20T20:06:55Z</time>
      </trkpt>
      <trkpt lat="42.87258" lon="1.16234">
        <ele>844</ele>
        <time>2021-08-20T20:07:02Z</time>
      </trkpt>
      <trkpt lat="42.87275" lon="1.16231">
        <ele>842</ele>
        <time>2021-08-20T20:07:05Z</time>
      </trkpt>
      <trkpt lat="42.87284" lon="1.16223">
        <ele>842</ele>
        <time>2021-08-20T20:07:07Z</time>
      </trkpt>
      <trkpt lat="42.87332" lon="1.1616">
        <ele>845</ele>
        <time>2021-08-20T20:07:19Z</time>
      </trkpt>
      <trkpt lat="42.8735" lon="1.16123">
        <ele>847</ele>
        <time>2021-08-20T20:07:24Z</time>
      </trkpt>
      <trkpt lat="42.87358" lon="1.16112">
        <ele>847</ele>
        <time>2021-08-20T20:07:26Z</time>
      </trkpt>
      <trkpt lat="42.87365" lon="1.16109">
        <ele>846</ele>
        <time>2021-08-20T20:07:28Z</time>
      </trkpt>
      <trkpt lat="42.87378" lon="1.16113">
        <ele>842</ele>
        <time>2021-08-20T20:07:30Z</time>
      </trkpt>
      <trkpt lat="42.87386" lon="1.16121">
        <ele>839</ele>
        <time>2021-08-20T20:07:32Z</time>
      </trkpt>
      <trkpt lat="42.87408" lon="1.16153">
        <ele>828</ele>
        <time>2021-08-20T20:07:38Z</time>
      </trkpt>
      <trkpt lat="42.87427" lon="1.16178">
        <ele>822</ele>
        <time>2021-08-20T20:07:42Z</time>
      </trkpt>
      <trkpt lat="42.87438" lon="1.16188">
        <ele>820</ele>
        <time>2021-08-20T20:07:45Z</time>
      </trkpt>
      <trkpt lat="42.87469" lon="1.16199">
        <ele>819</ele>
        <time>2021-08-20T20:07:50Z</time>
      </trkpt>
      <trkpt lat="42.87479" lon="1.16199">
        <ele>819</ele>
        <time>2021-08-20T20:07:52Z</time>
      </trkpt>
      <trkpt lat="42.87494" lon="1.1619">
        <ele>820</ele>
        <time>2021-08-20T20:07:55Z</time>
      </trkpt>
      <trkpt lat="42.87509" lon="1.16176">
        <ele>823</ele>
        <time>2021-08-20T20:07:58Z</time>
      </trkpt>
      <trkpt lat="42.8752" lon="1.16172">
        <ele>823</ele>
        <time>2021-08-20T20:08:00Z</time>
      </trkpt>
      <trkpt lat="42.87529" lon="1.16172">
        <ele>822</ele>
        <time>2021-08-20T20:08:02Z</time>
      </trkpt>
      <trkpt lat="42.87583" lon="1.16197">
        <ele>815</ele>
        <time>2021-08-20T20:08:12Z</time>
      </trkpt>
      <trkpt lat="42.87595" lon="1.16211">
        <ele>813</ele>
        <time>2021-08-20T20:08:15Z</time>
      </trkpt>
      <trkpt lat="42.87599" lon="1.16223">
        <ele>811</ele>
        <time>2021-08-20T20:08:17Z</time>
      </trkpt>
      <trkpt lat="42.87605" lon="1.16273">
        <ele>805</ele>
        <time>2021-08-20T20:08:23Z</time>
      </trkpt>
      <trkpt lat="42.8761" lon="1.16291">
        <ele>803</ele>
        <time>2021-08-20T20:08:26Z</time>
      </trkpt>
      <trkpt lat="42.87632" lon="1.16363">
        <ele>796</ele>
        <time>2021-08-20T20:08:36Z</time>
      </trkpt>
      <trkpt lat="42.87641" lon="1.16382">
        <ele>795</ele>
        <time>2021-08-20T20:08:39Z</time>
      </trkpt>
      <trkpt lat="42.87654" lon="1.16396">
        <ele>794</ele>
        <time>2021-08-20T20:08:42Z</time>
      </trkpt>
      <trkpt lat="42.87701" lon="1.16433">
        <ele>790</ele>
        <time>2021-08-20T20:08:51Z</time>
      </trkpt>
      <trkpt lat="42.87709" lon="1.16441">
        <ele>789</ele>
        <time>2021-08-20T20:08:53Z</time>
      </trkpt>
      <trkpt lat="42.87714" lon="1.16451">
        <ele>788</ele>
        <time>2021-08-20T20:08:55Z</time>
      </trkpt>
      <trkpt lat="42.87716" lon="1.16458">
        <ele>787</ele>
        <time>2021-08-20T20:08:56Z</time>
      </trkpt>
      <trkpt lat="42.87714" lon="1.1648">
        <ele>785</ele>
        <time>2021-08-20T20:08:59Z</time>
      </trkpt>
      <trkpt lat="42.877" lon="1.16538">
        <ele>780</ele>
        <time>2021-08-20T20:09:07Z</time>
      </trkpt>
      <trkpt lat="42.87698" lon="1.16561">
        <ele>779</ele>
        <time>2021-08-20T20:09:10Z</time>
      </trkpt>
      <trkpt lat="42.87701" lon="1.16574">
        <ele>778</ele>
        <time>2021-08-20T20:09:11Z</time>
      </trkpt>
      <trkpt lat="42.87713" lon="1.16604">
        <ele>779</ele>
        <time>2021-08-20T20:09:16Z</time>
      </trkpt>
      <trkpt lat="42.87717" lon="1.16621">
        <ele>779</ele>
        <time>2021-08-20T20:09:18Z</time>
      </trkpt>
      <trkpt lat="42.87717" lon="1.16636">
        <ele>779</ele>
        <time>2021-08-20T20:09:20Z</time>
      </trkpt>
      <trkpt lat="42.87714" lon="1.16654">
        <ele>778</ele>
        <time>2021-08-20T20:09:23Z</time>
      </trkpt>
      <trkpt lat="42.87699" lon="1.16685">
        <ele>775</ele>
        <time>2021-08-20T20:09:27Z</time>
      </trkpt>
      <trkpt lat="42.87689" lon="1.167">
        <ele>774</ele>
        <time>2021-08-20T20:09:30Z</time>
      </trkpt>
      <trkpt lat="42.87678" lon="1.16712">
        <ele>773</ele>
        <time>2021-08-20T20:09:33Z</time>
      </trkpt>
      <trkpt lat="42.87646" lon="1.16736">
        <ele>767</ele>
        <time>2021-08-20T20:09:39Z</time>
      </trkpt>
      <trkpt lat="42.87637" lon="1.16745">
        <ele>765</ele>
        <time>2021-08-20T20:09:41Z</time>
      </trkpt>
      <trkpt lat="42.8763" lon="1.16756">
        <ele>763</ele>
        <time>2021-08-20T20:09:43Z</time>
      </trkpt>
      <trkpt lat="42.87626" lon="1.16769">
        <ele>761</ele>
        <time>2021-08-20T20:09:45Z</time>
      </trkpt>
      <trkpt lat="42.87623" lon="1.16785">
        <ele>760</ele>
        <time>2021-08-20T20:09:47Z</time>
      </trkpt>
      <trkpt lat="42.87624" lon="1.16805">
        <ele>759</ele>
        <time>2021-08-20T20:09:50Z</time>
      </trkpt>
      <trkpt lat="42.8763" lon="1.16832">
        <ele>759</ele>
        <time>2021-08-20T20:09:53Z</time>
      </trkpt>
      <trkpt lat="42.87641" lon="1.16857">
        <ele>758</ele>
        <time>2021-08-20T20:09:57Z</time>
      </trkpt>
      <trkpt lat="42.87659" lon="1.16878">
        <ele>760</ele>
        <time>2021-08-20T20:10:01Z</time>
      </trkpt>
      <trkpt lat="42.87666" lon="1.1689">
        <ele>760</ele>
        <time>2021-08-20T20:10:03Z</time>
      </trkpt>
      <trkpt lat="42.8767" lon="1.16901">
        <ele>760</ele>
        <time>2021-08-20T20:10:05Z</time>
      </trkpt>
      <trkpt lat="42.87672" lon="1.1692">
        <ele>758</ele>
        <time>2021-08-20T20:10:07Z</time>
      </trkpt>
      <trkpt lat="42.87673" lon="1.16941">
        <ele>758</ele>
        <time>2021-08-20T20:10:10Z</time>
      </trkpt>
      <trkpt lat="42.87672" lon="1.16959">
        <ele>757</ele>
        <time>2021-08-20T20:10:12Z</time>
      </trkpt>
      <trkpt lat="42.87668" lon="1.16978">
        <ele>755</ele>
        <time>2021-08-20T20:10:15Z</time>
      </trkpt>
      <trkpt lat="42.87649" lon="1.17041">
        <ele>747</ele>
        <time>2021-08-20T20:10:24Z</time>
      </trkpt>
      <trkpt lat="42.87646" lon="1.17059">
        <ele>746</ele>
        <time>2021-08-20T20:10:26Z</time>
      </trkpt>
      <trkpt lat="42.87644" lon="1.17095">
        <ele>744</ele>
        <time>2021-08-20T20:10:31Z</time>
      </trkpt>
      <trkpt lat="42.87645" lon="1.17118">
        <ele>742</ele>
        <time>2021-08-20T20:10:34Z</time>
      </trkpt>
      <trkpt lat="42.87652" lon="1.17166">
        <ele>740</ele>
        <time>2021-08-20T20:10:40Z</time>
      </trkpt>
      <trkpt lat="42.87659" lon="1.17231">
        <ele>739</ele>
        <time>2021-08-20T20:10:49Z</time>
      </trkpt>
      <trkpt lat="42.87645" lon="1.17387">
        <ele>728</ele>
        <time>2021-08-20T20:11:09Z</time>
      </trkpt>
      <trkpt lat="42.87635" lon="1.1745">
        <ele>723</ele>
        <time>2021-08-20T20:11:18Z</time>
      </trkpt>
      <trkpt lat="42.87622" lon="1.17508">
        <ele>718</ele>
        <time>2021-08-20T20:11:26Z</time>
      </trkpt>
      <trkpt lat="42.87619" lon="1.17524">
        <ele>716</ele>
        <time>2021-08-20T20:11:28Z</time>
      </trkpt>
      <trkpt lat="42.87619" lon="1.17535">
        <ele>715</ele>
        <time>2021-08-20T20:11:29Z</time>
      </trkpt>
      <trkpt lat="42.87624" lon="1.1755">
        <ele>715</ele>
        <time>2021-08-20T20:11:31Z</time>
      </trkpt>
      <trkpt lat="42.8763" lon="1.17563">
        <ele>715</ele>
        <time>2021-08-20T20:11:33Z</time>
      </trkpt>
      <trkpt lat="42.87647" lon="1.17582">
        <ele>716</ele>
        <time>2021-08-20T20:11:37Z</time>
      </trkpt>
      <trkpt lat="42.8765" lon="1.17589">
        <ele>716</ele>
        <time>2021-08-20T20:11:38Z</time>
      </trkpt>
      <trkpt lat="42.87651" lon="1.17594">
        <ele>715</ele>
        <time>2021-08-20T20:11:39Z</time>
      </trkpt>
      <trkpt lat="42.87649" lon="1.176">
        <ele>714</ele>
        <time>2021-08-20T20:11:40Z</time>
      </trkpt>
      <trkpt lat="42.87643" lon="1.17604">
        <ele>712</ele>
        <time>2021-08-20T20:11:41Z</time>
      </trkpt>
      <trkpt lat="42.87639" lon="1.17603">
        <ele>712</ele>
        <time>2021-08-20T20:11:42Z</time>
      </trkpt>
      <trkpt lat="42.87601" lon="1.17569">
        <ele>708</ele>
        <time>2021-08-20T20:11:50Z</time>
      </trkpt>
      <trkpt lat="42.87591" lon="1.17556">
        <ele>707</ele>
        <time>2021-08-20T20:11:52Z</time>
      </trkpt>
      <trkpt lat="42.87584" lon="1.17537">
        <ele>706</ele>
        <time>2021-08-20T20:11:55Z</time>
      </trkpt>
      <trkpt lat="42.87569" lon="1.17459">
        <ele>704</ele>
        <time>2021-08-20T20:12:06Z</time>
      </trkpt>
      <trkpt lat="42.87567" lon="1.17441">
        <ele>703</ele>
        <time>2021-08-20T20:12:08Z</time>
      </trkpt>
      <trkpt lat="42.87566" lon="1.17422">
        <ele>703</ele>
        <time>2021-08-20T20:12:11Z</time>
      </trkpt>
      <trkpt lat="42.87569" lon="1.17356">
        <ele>705</ele>
        <time>2021-08-20T20:12:19Z</time>
      </trkpt>
      <trkpt lat="42.87567" lon="1.17333">
        <ele>705</ele>
        <time>2021-08-20T20:12:22Z</time>
      </trkpt>
      <trkpt lat="42.87564" lon="1.17327">
        <ele>704</ele>
        <time>2021-08-20T20:12:23Z</time>
      </trkpt>
      <trkpt lat="42.87561" lon="1.17324">
        <ele>704</ele>
        <time>2021-08-20T20:12:24Z</time>
      </trkpt>
      <trkpt lat="42.87557" lon="1.17323">
        <ele>703</ele>
        <time>2021-08-20T20:12:25Z</time>
      </trkpt>
      <trkpt lat="42.87553" lon="1.17326">
        <ele>702</ele>
        <time>2021-08-20T20:12:25Z</time>
      </trkpt>
      <trkpt lat="42.8755" lon="1.17332">
        <ele>701</ele>
        <time>2021-08-20T20:12:26Z</time>
      </trkpt>
      <trkpt lat="42.87545" lon="1.17389">
        <ele>697</ele>
        <time>2021-08-20T20:12:34Z</time>
      </trkpt>
      <trkpt lat="42.87529" lon="1.17467">
        <ele>691</ele>
        <time>2021-08-20T20:12:44Z</time>
      </trkpt>
      <trkpt lat="42.87484" lon="1.17603">
        <ele>679</ele>
        <time>2021-08-20T20:13:04Z</time>
      </trkpt>
      <trkpt lat="42.87478" lon="1.17633">
        <ele>676</ele>
        <time>2021-08-20T20:13:08Z</time>
      </trkpt>
      <trkpt lat="42.87477" lon="1.17648">
        <ele>676</ele>
        <time>2021-08-20T20:13:10Z</time>
      </trkpt>
      <trkpt lat="42.8748" lon="1.17675">
        <ele>674</ele>
        <time>2021-08-20T20:13:13Z</time>
      </trkpt>
      <trkpt lat="42.87483" lon="1.17687">
        <ele>673</ele>
        <time>2021-08-20T20:13:15Z</time>
      </trkpt>
      <trkpt lat="42.87487" lon="1.17694">
        <ele>673</ele>
        <time>2021-08-20T20:13:16Z</time>
      </trkpt>
      <trkpt lat="42.87495" lon="1.17699">
        <ele>674</ele>
        <time>2021-08-20T20:13:18Z</time>
      </trkpt>
      <trkpt lat="42.87531" lon="1.17707">
        <ele>679</ele>
        <time>2021-08-20T20:13:24Z</time>
      </trkpt>
      <trkpt lat="42.87541" lon="1.17713">
        <ele>679</ele>
        <time>2021-08-20T20:13:26Z</time>
      </trkpt>
      <trkpt lat="42.87547" lon="1.17719">
        <ele>680</ele>
        <time>2021-08-20T20:13:28Z</time>
      </trkpt>
      <trkpt lat="42.87552" lon="1.17727">
        <ele>679</ele>
        <time>2021-08-20T20:13:29Z</time>
      </trkpt>
      <trkpt lat="42.87555" lon="1.17738">
        <ele>678</ele>
        <time>2021-08-20T20:13:30Z</time>
      </trkpt>
      <trkpt lat="42.87556" lon="1.17751">
        <ele>677</ele>
        <time>2021-08-20T20:13:32Z</time>
      </trkpt>
      <trkpt lat="42.87551" lon="1.17823">
        <ele>668</ele>
        <time>2021-08-20T20:13:42Z</time>
      </trkpt>
      <trkpt lat="42.87534" lon="1.17901">
        <ele>659</ele>
        <time>2021-08-20T20:13:52Z</time>
      </trkpt>
      <trkpt lat="42.87531" lon="1.17927">
        <ele>656</ele>
        <time>2021-08-20T20:13:56Z</time>
      </trkpt>
      <trkpt lat="42.87532" lon="1.17947">
        <ele>654</ele>
        <time>2021-08-20T20:13:58Z</time>
      </trkpt>
      <trkpt lat="42.8755" lon="1.18005">
        <ele>650</ele>
        <time>2021-08-20T20:14:06Z</time>
      </trkpt>
      <trkpt lat="42.87551" lon="1.18016">
        <ele>649</ele>
        <time>2021-08-20T20:14:08Z</time>
      </trkpt>
      <trkpt lat="42.87549" lon="1.18028">
        <ele>647</ele>
        <time>2021-08-20T20:14:09Z</time>
      </trkpt>
      <trkpt lat="42.87541" lon="1.18043">
        <ele>644</ele>
        <time>2021-08-20T20:14:12Z</time>
      </trkpt>
      <trkpt lat="42.87531" lon="1.18048">
        <ele>643</ele>
        <time>2021-08-20T20:14:14Z</time>
      </trkpt>
      <trkpt lat="42.87517" lon="1.18041">
        <ele>643</ele>
        <time>2021-08-20T20:14:16Z</time>
      </trkpt>
      <trkpt lat="42.87507" lon="1.18025">
        <ele>644</ele>
        <time>2021-08-20T20:14:19Z</time>
      </trkpt>
      <trkpt lat="42.87463" lon="1.17848">
        <ele>648</ele>
        <time>2021-08-20T20:14:44Z</time>
      </trkpt>
      <trkpt lat="42.87454" lon="1.17837">
        <ele>647</ele>
        <time>2021-08-20T20:14:46Z</time>
      </trkpt>
      <trkpt lat="42.87434" lon="1.17827">
        <ele>645</ele>
        <time>2021-08-20T20:14:50Z</time>
      </trkpt>
      <trkpt lat="42.87425" lon="1.17826">
        <ele>644</ele>
        <time>2021-08-20T20:14:51Z</time>
      </trkpt>
      <trkpt lat="42.87417" lon="1.17827">
        <ele>643</ele>
        <time>2021-08-20T20:14:53Z</time>
      </trkpt>
      <trkpt lat="42.87409" lon="1.17832">
        <ele>643</ele>
        <time>2021-08-20T20:14:54Z</time>
      </trkpt>
      <trkpt lat="42.87404" lon="1.17839">
        <ele>643</ele>
        <time>2021-08-20T20:14:55Z</time>
      </trkpt>
      <trkpt lat="42.87401" lon="1.17851">
        <ele>642</ele>
        <time>2021-08-20T20:14:57Z</time>
      </trkpt>
      <trkpt lat="42.87398" lon="1.17857">
        <ele>642</ele>
        <time>2021-08-20T20:14:58Z</time>
      </trkpt>
      <trkpt lat="42.87394" lon="1.17873">
        <ele>641</ele>
        <time>2021-08-20T20:15:00Z</time>
      </trkpt>
      <trkpt lat="42.87364" lon="1.17943">
        <ele>638</ele>
        <time>2021-08-20T20:15:11Z</time>
      </trkpt>
      <trkpt lat="42.87356" lon="1.1795">
        <ele>638</ele>
        <time>2021-08-20T20:15:12Z</time>
      </trkpt>
      <trkpt lat="42.87328" lon="1.17957">
        <ele>641</ele>
        <time>2021-08-20T20:15:18Z</time>
      </trkpt>
      <trkpt lat="42.87323" lon="1.17964">
        <ele>641</ele>
        <time>2021-08-20T20:15:19Z</time>
      </trkpt>
      <trkpt lat="42.87321" lon="1.17972">
        <ele>640</ele>
        <time>2021-08-20T20:15:20Z</time>
      </trkpt>
      <trkpt lat="42.87325" lon="1.18094">
        <ele>632</ele>
        <time>2021-08-20T20:15:36Z</time>
      </trkpt>
      <trkpt lat="42.8732" lon="1.18226">
        <ele>620</ele>
        <time>2021-08-20T20:15:53Z</time>
      </trkpt>
      <trkpt lat="42.87289" lon="1.1832">
        <ele>611</ele>
        <time>2021-08-20T20:16:07Z</time>
      </trkpt>
      <trkpt lat="42.87268" lon="1.18372">
        <ele>605</ele>
        <time>2021-08-20T20:16:14Z</time>
      </trkpt>
      <trkpt lat="42.87259" lon="1.18389">
        <ele>603</ele>
        <time>2021-08-20T20:16:17Z</time>
      </trkpt>
      <trkpt lat="42.87234" lon="1.18416">
        <ele>600</ele>
        <time>2021-08-20T20:16:23Z</time>
      </trkpt>
      <trkpt lat="42.87225" lon="1.18421">
        <ele>601</ele>
        <time>2021-08-20T20:16:24Z</time>
      </trkpt>
      <trkpt lat="42.87216" lon="1.18421">
        <ele>602</ele>
        <time>2021-08-20T20:16:26Z</time>
      </trkpt>
      <trkpt lat="42.87193" lon="1.1841">
        <ele>607</ele>
        <time>2021-08-20T20:16:30Z</time>
      </trkpt>
      <trkpt lat="42.87188" lon="1.1841">
        <ele>607</ele>
        <time>2021-08-20T20:16:31Z</time>
      </trkpt>
      <trkpt lat="42.87184" lon="1.18413">
        <ele>607</ele>
        <time>2021-08-20T20:16:32Z</time>
      </trkpt>
      <trkpt lat="42.87181" lon="1.1842">
        <ele>607</ele>
        <time>2021-08-20T20:16:33Z</time>
      </trkpt>
      <trkpt lat="42.87191" lon="1.18474">
        <ele>597</ele>
        <time>2021-08-20T20:16:40Z</time>
      </trkpt>
      <trkpt lat="42.8719" lon="1.18495">
        <ele>593</ele>
        <time>2021-08-20T20:16:43Z</time>
      </trkpt>
      <trkpt lat="42.87186" lon="1.18512">
        <ele>591</ele>
        <time>2021-08-20T20:16:45Z</time>
      </trkpt>
      <trkpt lat="42.8718" lon="1.18523">
        <ele>590</ele>
        <time>2021-08-20T20:16:47Z</time>
      </trkpt>
      <trkpt lat="42.87164" lon="1.18539">
        <ele>588</ele>
        <time>2021-08-20T20:16:51Z</time>
      </trkpt>
      <trkpt lat="42.87152" lon="1.18547">
        <ele>589</ele>
        <time>2021-08-20T20:16:53Z</time>
      </trkpt>
      <trkpt lat="42.87116" lon="1.18554">
        <ele>593</ele>
        <time>2021-08-20T20:17:00Z</time>
      </trkpt>
      <trkpt lat="42.87107" lon="1.1856">
        <ele>593</ele>
        <time>2021-08-20T20:17:01Z</time>
      </trkpt>
      <trkpt lat="42.87083" lon="1.1859">
        <ele>590</ele>
        <time>2021-08-20T20:17:07Z</time>
      </trkpt>
      <trkpt lat="42.87036" lon="1.18634">
        <ele>596</ele>
        <time>2021-08-20T20:17:17Z</time>
      </trkpt>
      <trkpt lat="42.87021" lon="1.1866">
        <ele>594</ele>
        <time>2021-08-20T20:17:22Z</time>
      </trkpt>
      <trkpt lat="42.87014" lon="1.18679">
        <ele>592</ele>
        <time>2021-08-20T20:17:24Z</time>
      </trkpt>
      <trkpt lat="42.87004" lon="1.18722">
        <ele>583</ele>
        <time>2021-08-20T20:17:30Z</time>
      </trkpt>
      <trkpt lat="42.86989" lon="1.1875">
        <ele>580</ele>
        <time>2021-08-20T20:17:35Z</time>
      </trkpt>
      <trkpt lat="42.86967" lon="1.18768">
        <ele>585</ele>
        <time>2021-08-20T20:17:39Z</time>
      </trkpt>
      <trkpt lat="42.86958" lon="1.18782">
        <ele>585</ele>
        <time>2021-08-20T20:17:42Z</time>
      </trkpt>
      <trkpt lat="42.86934" lon="1.18832">
        <ele>581</ele>
        <time>2021-08-20T20:17:50Z</time>
      </trkpt>
      <trkpt lat="42.86918" lon="1.18874">
        <ele>574</ele>
        <time>2021-08-20T20:17:56Z</time>
      </trkpt>
      <trkpt lat="42.8691" lon="1.18921">
        <ele>566</ele>
        <time>2021-08-20T20:18:02Z</time>
      </trkpt>
      <trkpt lat="42.86901" lon="1.18955">
        <ele>564</ele>
        <time>2021-08-20T20:18:07Z</time>
      </trkpt>
      <trkpt lat="42.86884" lon="1.18995">
        <ele>563</ele>
        <time>2021-08-20T20:18:13Z</time>
      </trkpt>
      <trkpt lat="42.86853" lon="1.19048">
        <ele>563</ele>
        <time>2021-08-20T20:18:22Z</time>
      </trkpt>
      <trkpt lat="42.8681" lon="1.19101">
        <ele>558</ele>
        <time>2021-08-20T20:18:32Z</time>
      </trkpt>
      <trkpt lat="42.86801" lon="1.19109">
        <ele>558</ele>
        <time>2021-08-20T20:18:34Z</time>
      </trkpt>
      <trkpt lat="42.86792" lon="1.19123">
        <ele>557</ele>
        <time>2021-08-20T20:18:36Z</time>
      </trkpt>
      <trkpt lat="42.86788" lon="1.19159">
        <ele>552</ele>
        <time>2021-08-20T20:18:41Z</time>
      </trkpt>
      <trkpt lat="42.86783" lon="1.19177">
        <ele>551</ele>
        <time>2021-08-20T20:18:44Z</time>
      </trkpt>
      <trkpt lat="42.86744" lon="1.19239">
        <ele>547</ele>
        <time>2021-08-20T20:18:54Z</time>
      </trkpt>
      <trkpt lat="42.86722" lon="1.19292">
        <ele>543</ele>
        <time>2021-08-20T20:19:02Z</time>
      </trkpt>
      <trkpt lat="42.86671" lon="1.1938">
        <ele>535</ele>
        <time>2021-08-20T20:19:17Z</time>
      </trkpt>
      <trkpt lat="42.86632" lon="1.19455">
        <ele>530</ele>
        <time>2021-08-20T20:19:29Z</time>
      </trkpt>
      <trkpt lat="42.86604" lon="1.19516">
        <ele>529</ele>
        <time>2021-08-20T20:19:38Z</time>
      </trkpt>
      <trkpt lat="42.86596" lon="1.19538">
        <ele>528</ele>
        <time>2021-08-20T20:19:41Z</time>
      </trkpt>
      <trkpt lat="42.86585" lon="1.19567">
        <ele>527</ele>
        <time>2021-08-20T20:19:46Z</time>
      </trkpt>
      <trkpt lat="42.86577" lon="1.19597">
        <ele>526</ele>
        <time>2021-08-20T20:19:50Z</time>
      </trkpt>
      <trkpt lat="42.86573" lon="1.1962">
        <ele>526</ele>
        <time>2021-08-20T20:19:53Z</time>
      </trkpt>
      <trkpt lat="42.86572" lon="1.1963">
        <ele>526</ele>
        <time>2021-08-20T20:19:54Z</time>
      </trkpt>
      <trkpt lat="42.86572" lon="1.19738">
        <ele>526</ele>
        <time>2021-08-20T20:20:08Z</time>
      </trkpt>
      <trkpt lat="42.86561" lon="1.19806">
        <ele>527</ele>
        <time>2021-08-20T20:20:17Z</time>
      </trkpt>
      <trkpt lat="42.8654" lon="1.19856">
        <ele>525</ele>
        <time>2021-08-20T20:20:25Z</time>
      </trkpt>
      <trkpt lat="42.86533" lon="1.19893">
        <ele>524</ele>
        <time>2021-08-20T20:20:30Z</time>
      </trkpt>
      <trkpt lat="42.86533" lon="1.19937">
        <ele>524</ele>
        <time>2021-08-20T20:20:36Z</time>
      </trkpt>
      <trkpt lat="42.86527" lon="1.19964">
        <ele>523</ele>
        <time>2021-08-20T20:20:39Z</time>
      </trkpt>
      <trkpt lat="42.86483" lon="1.20047">
        <ele>521</ele>
        <time>2021-08-20T20:20:53Z</time>
      </trkpt>
      <trkpt lat="42.86435" lon="1.20116">
        <ele>516</ele>
        <time>2021-08-20T20:21:05Z</time>
      </trkpt>
      <trkpt lat="42.86429" lon="1.20128">
        <ele>515</ele>
        <time>2021-08-20T20:21:07Z</time>
      </trkpt>
      <trkpt lat="42.86425" lon="1.20131">
        <ele>514</ele>
        <time>2021-08-20T20:21:08Z</time>
      </trkpt>
      <trkpt lat="42.86405" lon="1.20132">
        <ele>513</ele>
        <time>2021-08-20T20:21:11Z</time>
      </trkpt>
      <trkpt lat="42.86402" lon="1.20132">
        <ele>513</ele>
        <time>2021-08-20T20:21:12Z</time>
      </trkpt>
      <trkpt lat="42.86386" lon="1.20133">
        <ele>513</ele>
        <time>2021-08-20T20:21:15Z</time>
      </trkpt>
      <trkpt lat="42.86376" lon="1.2014">
        <ele>512</ele>
        <time>2021-08-20T20:21:17Z</time>
      </trkpt>
      <trkpt lat="42.8635" lon="1.20166">
        <ele>512</ele>
        <time>2021-08-20T20:21:22Z</time>
      </trkpt>
      <trkpt lat="42.86345" lon="1.2017">
        <ele>512</ele>
        <time>2021-08-20T20:21:23Z</time>
      </trkpt>
      <trkpt lat="42.86346" lon="1.20172">
        <ele>512</ele>
        <time>2021-08-20T20:21:24Z</time>
      </trkpt>
      <trkpt lat="42.86352" lon="1.20184">
        <ele>512</ele>
        <time>2021-08-20T20:21:26Z</time>
      </trkpt>
      <trkpt lat="42.86355" lon="1.20193">
        <ele>512</ele>
        <time>2021-08-20T20:21:27Z</time>
      </trkpt>
      <trkpt lat="42.86382" lon="1.20258">
        <ele>511</ele>
        <time>2021-08-20T20:21:37Z</time>
      </trkpt>
      <trkpt lat="42.86404" lon="1.20303">
        <ele>511</ele>
        <time>2021-08-20T20:21:44Z</time>
      </trkpt>
      <trkpt lat="42.86432" lon="1.20351">
        <ele>511</ele>
        <time>2021-08-20T20:21:52Z</time>
      </trkpt>
      <trkpt lat="42.86433" lon="1.20352">
        <ele>511</ele>
        <time>2021-08-20T20:21:52Z</time>
      </trkpt>
      <trkpt lat="42.86474" lon="1.20412">
        <ele>511</ele>
        <time>2021-08-20T20:22:03Z</time>
      </trkpt>
      <trkpt lat="42.86495" lon="1.20443">
        <ele>511</ele>
        <time>2021-08-20T20:22:08Z</time>
      </trkpt>
      <trkpt lat="42.86544" lon="1.20494">
        <ele>510</ele>
        <time>2021-08-20T20:22:19Z</time>
      </trkpt>
      <trkpt lat="42.86567" lon="1.2052">
        <ele>509</ele>
        <time>2021-08-20T20:22:24Z</time>
      </trkpt>
      <trkpt lat="42.86591" lon="1.20552">
        <ele>509</ele>
        <time>2021-08-20T20:22:30Z</time>
      </trkpt>
      <trkpt lat="42.86637" lon="1.20611">
        <ele>507</ele>
        <time>2021-08-20T20:22:42Z</time>
      </trkpt>
      <trkpt lat="42.86672" lon="1.20656">
        <ele>506</ele>
        <time>2021-08-20T20:22:50Z</time>
      </trkpt>
      <trkpt lat="42.86715" lon="1.20714">
        <ele>508</ele>
        <time>2021-08-20T20:23:01Z</time>
      </trkpt>
      <trkpt lat="42.86755" lon="1.20766">
        <ele>508</ele>
        <time>2021-08-20T20:23:11Z</time>
      </trkpt>
      <trkpt lat="42.86774" lon="1.20791">
        <ele>510</ele>
        <time>2021-08-20T20:23:15Z</time>
      </trkpt>
      <trkpt lat="42.86778" lon="1.20794">
        <ele>510</ele>
        <time>2021-08-20T20:23:16Z</time>
      </trkpt>
      <trkpt lat="42.86798" lon="1.20818">
        <ele>510</ele>
        <time>2021-08-20T20:23:21Z</time>
      </trkpt>
      <trkpt lat="42.86814" lon="1.20831">
        <ele>510</ele>
        <time>2021-08-20T20:23:24Z</time>
      </trkpt>
      <trkpt lat="42.86812" lon="1.20837">
        <ele>511</ele>
        <time>2021-08-20T20:23:25Z</time>
      </trkpt>
      <trkpt lat="42.86813" lon="1.20846">
        <ele>512</ele>
        <time>2021-08-20T20:23:26Z</time>
      </trkpt>
      <trkpt lat="42.86817" lon="1.20853">
        <ele>513</ele>
        <time>2021-08-20T20:23:28Z</time>
      </trkpt>
      <trkpt lat="42.86826" lon="1.20855">
        <ele>512</ele>
        <time>2021-08-20T20:23:29Z</time>
      </trkpt>
      <trkpt lat="42.86831" lon="1.20852">
        <ele>511</ele>
        <time>2021-08-20T20:23:30Z</time>
      </trkpt>
      <trkpt lat="42.86831" lon="1.2085">
        <ele>511</ele>
        <time>2021-08-20T20:23:30Z</time>
      </trkpt>
      <trkpt lat="42.86842" lon="1.20862">
        <ele>511</ele>
        <time>2021-08-20T20:23:33Z</time>
      </trkpt>
      <trkpt lat="42.86858" lon="1.20878">
        <ele>511</ele>
        <time>2021-08-20T20:23:36Z</time>
      </trkpt>
      <trkpt lat="42.86901" lon="1.20905">
        <ele>508</ele>
        <time>2021-08-20T20:23:45Z</time>
      </trkpt>
      <trkpt lat="42.8694" lon="1.20937">
        <ele>508</ele>
        <time>2021-08-20T20:23:53Z</time>
      </trkpt>
      <trkpt lat="42.8697" lon="1.20979">
        <ele>510</ele>
        <time>2021-08-20T20:24:01Z</time>
      </trkpt>
      <trkpt lat="42.87003" lon="1.21016">
        <ele>510</ele>
        <time>2021-08-20T20:24:08Z</time>
      </trkpt>
      <trkpt lat="42.87024" lon="1.21031">
        <ele>509</ele>
        <time>2021-08-20T20:24:12Z</time>
      </trkpt>
      <trkpt lat="42.87051" lon="1.21047">
        <ele>507</ele>
        <time>2021-08-20T20:24:18Z</time>
      </trkpt>
      <trkpt lat="42.871" lon="1.21076">
        <ele>505</ele>
        <time>2021-08-20T20:24:27Z</time>
      </trkpt>
      <trkpt lat="42.87199" lon="1.21121">
        <ele>506</ele>
        <time>2021-08-20T20:24:46Z</time>
      </trkpt>
      <trkpt lat="42.87222" lon="1.21133">
        <ele>506</ele>
        <time>2021-08-20T20:24:50Z</time>
      </trkpt>
      <trkpt lat="42.87228" lon="1.21133">
        <ele>505</ele>
        <time>2021-08-20T20:24:51Z</time>
      </trkpt>
      <trkpt lat="42.87254" lon="1.21133">
        <ele>504</ele>
        <time>2021-08-20T20:24:56Z</time>
      </trkpt>
      <trkpt lat="42.87257" lon="1.21133">
        <ele>503</ele>
        <time>2021-08-20T20:24:56Z</time>
      </trkpt>
      <trkpt lat="42.87261" lon="1.21133">
        <ele>503</ele>
        <time>2021-08-20T20:24:57Z</time>
      </trkpt>
      <trkpt lat="42.87287" lon="1.21133">
        <ele>502</ele>
        <time>2021-08-20T20:25:02Z</time>
      </trkpt>
      <trkpt lat="42.87318" lon="1.21138">
        <ele>501</ele>
        <time>2021-08-20T20:25:07Z</time>
      </trkpt>
      <trkpt lat="42.87507" lon="1.21249">
        <ele>500</ele>
        <time>2021-08-20T20:25:44Z</time>
      </trkpt>
      <trkpt lat="42.8752" lon="1.21258">
        <ele>500</ele>
        <time>2021-08-20T20:25:46Z</time>
      </trkpt>
      <trkpt lat="42.87535" lon="1.21266">
        <ele>501</ele>
        <time>2021-08-20T20:25:49Z</time>
      </trkpt>
      <trkpt lat="42.87542" lon="1.2127">
        <ele>501</ele>
        <time>2021-08-20T20:25:51Z</time>
      </trkpt>
      <trkpt lat="42.87676" lon="1.21349">
        <ele>499</ele>
        <time>2021-08-20T20:26:17Z</time>
      </trkpt>
      <trkpt lat="42.87722" lon="1.21376">
        <ele>498</ele>
        <time>2021-08-20T20:26:26Z</time>
      </trkpt>
      <trkpt lat="42.87828" lon="1.2144">
        <ele>494</ele>
        <time>2021-08-20T20:26:46Z</time>
      </trkpt>
      <trkpt lat="42.87836" lon="1.21444">
        <ele>494</ele>
        <time>2021-08-20T20:26:48Z</time>
      </trkpt>
      <trkpt lat="42.87865" lon="1.21461">
        <ele>494</ele>
        <time>2021-08-20T20:26:53Z</time>
      </trkpt>
      <trkpt lat="42.87953" lon="1.21513">
        <ele>494</ele>
        <time>2021-08-20T20:27:10Z</time>
      </trkpt>
      <trkpt lat="42.87987" lon="1.21535">
        <ele>495</ele>
        <time>2021-08-20T20:27:17Z</time>
      </trkpt>
      <trkpt lat="42.87998" lon="1.21542">
        <ele>495</ele>
        <time>2021-08-20T20:27:19Z</time>
      </trkpt>
      <trkpt lat="42.87997" lon="1.21547">
        <ele>496</ele>
        <time>2021-08-20T20:27:20Z</time>
      </trkpt>
      <trkpt lat="42.87996" lon="1.21553">
        <ele>496</ele>
        <time>2021-08-20T20:27:21Z</time>
      </trkpt>
      <trkpt lat="42.87998" lon="1.2156">
        <ele>497</ele>
        <time>2021-08-20T20:27:22Z</time>
      </trkpt>
      <trkpt lat="42.87984" lon="1.21562">
        <ele>496</ele>
        <time>2021-08-20T20:27:24Z</time>
      </trkpt>
      <trkpt lat="42.87963" lon="1.21567">
        <ele>496</ele>
        <time>2021-08-20T20:27:28Z</time>
      </trkpt>
      <trkpt lat="42.87962" lon="1.21568">
        <ele>496</ele>
        <time>2021-08-20T20:27:28Z</time>
      </trkpt>
      <trkpt lat="42.87943" lon="1.21576">
        <ele>496</ele>
        <time>2021-08-20T20:27:32Z</time>
      </trkpt>
      <trkpt lat="42.87923" lon="1.21591">
        <ele>496</ele>
        <time>2021-08-20T20:27:36Z</time>
      </trkpt>
      <trkpt lat="42.87861" lon="1.2165">
        <ele>499</ele>
        <time>2021-08-20T20:27:49Z</time>
      </trkpt>
      <trkpt lat="42.8785" lon="1.21659">
        <ele>500</ele>
        <time>2021-08-20T20:27:52Z</time>
      </trkpt>
      <trkpt lat="42.8784" lon="1.21662">
        <ele>500</ele>
        <time>2021-08-20T20:27:53Z</time>
      </trkpt>
      <trkpt lat="42.87792" lon="1.21665">
        <ele>499</ele>
        <time>2021-08-20T20:28:02Z</time>
      </trkpt>
      <trkpt lat="42.87778" lon="1.21668">
        <ele>499</ele>
        <time>2021-08-20T20:28:04Z</time>
      </trkpt>
      <trkpt lat="42.87572" lon="1.2174">
        <ele>502</ele>
        <time>2021-08-20T20:28:42Z</time>
      </trkpt>
      <trkpt lat="42.87508" lon="1.21764">
        <ele>503</ele>
        <time>2021-08-20T20:28:54Z</time>
      </trkpt>
      <trkpt lat="42.87467" lon="1.21779">
        <ele>503</ele>
        <time>2021-08-20T20:29:02Z</time>
      </trkpt>
      <trkpt lat="42.87462" lon="1.21787">
        <ele>504</ele>
        <time>2021-08-20T20:29:03Z</time>
      </trkpt>
      <trkpt lat="42.87445" lon="1.21808">
        <ele>504</ele>
        <time>2021-08-20T20:29:07Z</time>
      </trkpt>
      <trkpt lat="42.87345" lon="1.2194">
        <ele>508</ele>
        <time>2021-08-20T20:29:32Z</time>
      </trkpt>
      <trkpt lat="42.87242" lon="1.22067">
        <ele>513</ele>
        <time>2021-08-20T20:29:57Z</time>
      </trkpt>
      <trkpt lat="42.8719" lon="1.22135">
        <ele>515</ele>
        <time>2021-08-20T20:30:09Z</time>
      </trkpt>
      <trkpt lat="42.87134" lon="1.22195">
        <ele>515</ele>
        <time>2021-08-20T20:30:22Z</time>
      </trkpt>
      <trkpt lat="42.86804" lon="1.22758">
        <ele>527</ele>
        <time>2021-08-20T20:31:56Z</time>
      </trkpt>
      <trkpt lat="42.86773" lon="1.22805">
        <ele>529</ele>
        <time>2021-08-20T20:32:04Z</time>
      </trkpt>
      <trkpt lat="42.86691" lon="1.22949">
        <ele>531</ele>
        <time>2021-08-20T20:32:28Z</time>
      </trkpt>
      <trkpt lat="42.86678" lon="1.22973">
        <ele>531</ele>
        <time>2021-08-20T20:32:32Z</time>
      </trkpt>
      <trkpt lat="42.86578" lon="1.23127">
        <ele>536</ele>
        <time>2021-08-20T20:32:59Z</time>
      </trkpt>
      <trkpt lat="42.86527" lon="1.23214">
        <ele>541</ele>
        <time>2021-08-20T20:33:13Z</time>
      </trkpt>
      <trkpt lat="42.86515" lon="1.23226">
        <ele>541</ele>
        <time>2021-08-20T20:33:16Z</time>
      </trkpt>
      <trkpt lat="42.86511" lon="1.2323">
        <ele>541</ele>
        <time>2021-08-20T20:33:17Z</time>
      </trkpt>
      <trkpt lat="42.86394" lon="1.23295">
        <ele>544</ele>
        <time>2021-08-20T20:33:39Z</time>
      </trkpt>
      <trkpt lat="42.86374" lon="1.23312">
        <ele>545</ele>
        <time>2021-08-20T20:33:43Z</time>
      </trkpt>
      <trkpt lat="42.86352" lon="1.23337">
        <ele>546</ele>
        <time>2021-08-20T20:33:49Z</time>
      </trkpt>
      <trkpt lat="42.86334" lon="1.23363">
        <ele>546</ele>
        <time>2021-08-20T20:33:53Z</time>
      </trkpt>
      <trkpt lat="42.86323" lon="1.23381">
        <ele>548</ele>
        <time>2021-08-20T20:33:56Z</time>
      </trkpt>
      <trkpt lat="42.86321" lon="1.23385">
        <ele>548</ele>
        <time>2021-08-20T20:33:57Z</time>
      </trkpt>
      <trkpt lat="42.86311" lon="1.2341">
        <ele>550</ele>
        <time>2021-08-20T20:34:01Z</time>
      </trkpt>
      <trkpt lat="42.86306" lon="1.23436">
        <ele>551</ele>
        <time>2021-08-20T20:34:04Z</time>
      </trkpt>
      <trkpt lat="42.86294" lon="1.2364">
        <ele>557</ele>
        <time>2021-08-20T20:34:31Z</time>
      </trkpt>
      <trkpt lat="42.86294" lon="1.23666">
        <ele>558</ele>
        <time>2021-08-20T20:34:34Z</time>
      </trkpt>
      <trkpt lat="42.86297" lon="1.23686">
        <ele>559</ele>
        <time>2021-08-20T20:34:37Z</time>
      </trkpt>
      <trkpt lat="42.86304" lon="1.23709">
        <ele>560</ele>
        <time>2021-08-20T20:34:40Z</time>
      </trkpt>
      <trkpt lat="42.86349" lon="1.23825">
        <ele>565</ele>
        <time>2021-08-20T20:34:57Z</time>
      </trkpt>
      <trkpt lat="42.86427" lon="1.24018">
        <ele>574</ele>
        <time>2021-08-20T20:35:26Z</time>
      </trkpt>
      <trkpt lat="42.86435" lon="1.24045">
        <ele>576</ele>
        <time>2021-08-20T20:35:30Z</time>
      </trkpt>
      <trkpt lat="42.86439" lon="1.2407">
        <ele>576</ele>
        <time>2021-08-20T20:35:33Z</time>
      </trkpt>
      <trkpt lat="42.86442" lon="1.24134">
        <ele>578</ele>
        <time>2021-08-20T20:35:42Z</time>
      </trkpt>
      <trkpt lat="42.86439" lon="1.24161">
        <ele>578</ele>
        <time>2021-08-20T20:35:45Z</time>
      </trkpt>
      <trkpt lat="42.86435" lon="1.24178">
        <ele>578</ele>
        <time>2021-08-20T20:35:47Z</time>
      </trkpt>
      <trkpt lat="42.86428" lon="1.24194">
        <ele>577</ele>
        <time>2021-08-20T20:35:50Z</time>
      </trkpt>
      <trkpt lat="42.86416" lon="1.24211">
        <ele>574</ele>
        <time>2021-08-20T20:35:53Z</time>
      </trkpt>
      <trkpt lat="42.86402" lon="1.24227">
        <ele>575</ele>
        <time>2021-08-20T20:35:56Z</time>
      </trkpt>
      <trkpt lat="42.86385" lon="1.24241">
        <ele>574</ele>
        <time>2021-08-20T20:36:00Z</time>
      </trkpt>
      <trkpt lat="42.86271" lon="1.24303">
        <ele>573</ele>
        <time>2021-08-20T20:36:22Z</time>
      </trkpt>
      <trkpt lat="42.86253" lon="1.24317">
        <ele>572</ele>
        <time>2021-08-20T20:36:25Z</time>
      </trkpt>
      <trkpt lat="42.86237" lon="1.24336">
        <ele>575</ele>
        <time>2021-08-20T20:36:29Z</time>
      </trkpt>
      <trkpt lat="42.86227" lon="1.24357">
        <ele>578</ele>
        <time>2021-08-20T20:36:32Z</time>
      </trkpt>
      <trkpt lat="42.86226" lon="1.24374">
        <ele>579</ele>
        <time>2021-08-20T20:36:34Z</time>
      </trkpt>
      <trkpt lat="42.86228" lon="1.24414">
        <ele>582</ele>
        <time>2021-08-20T20:36:40Z</time>
      </trkpt>
      <trkpt lat="42.86236" lon="1.24506">
        <ele>586</ele>
        <time>2021-08-20T20:36:52Z</time>
      </trkpt>
      <trkpt lat="42.86233" lon="1.24548">
        <ele>587</ele>
        <time>2021-08-20T20:36:57Z</time>
      </trkpt>
      <trkpt lat="42.86225" lon="1.24585">
        <ele>587</ele>
        <time>2021-08-20T20:37:02Z</time>
      </trkpt>
      <trkpt lat="42.86213" lon="1.2462">
        <ele>591</ele>
        <time>2021-08-20T20:37:07Z</time>
      </trkpt>
      <trkpt lat="42.862" lon="1.24646">
        <ele>591</ele>
        <time>2021-08-20T20:37:11Z</time>
      </trkpt>
      <trkpt lat="42.86187" lon="1.24664">
        <ele>588</ele>
        <time>2021-08-20T20:37:15Z</time>
      </trkpt>
      <trkpt lat="42.86163" lon="1.24681">
        <ele>584</ele>
        <time>2021-08-20T20:37:20Z</time>
      </trkpt>
      <trkpt lat="42.86061" lon="1.2471">
        <ele>582</ele>
        <time>2021-08-20T20:37:38Z</time>
      </trkpt>
      <trkpt lat="42.86027" lon="1.2473">
        <ele>584</ele>
        <time>2021-08-20T20:37:45Z</time>
      </trkpt>
      <trkpt lat="42.86015" lon="1.2474">
        <ele>584</ele>
        <time>2021-08-20T20:37:47Z</time>
      </trkpt>
      <trkpt lat="42.86014" lon="1.24741">
        <ele>584</ele>
        <time>2021-08-20T20:37:47Z</time>
      </trkpt>
      <trkpt lat="42.86004" lon="1.24754">
        <ele>585</ele>
        <time>2021-08-20T20:37:50Z</time>
      </trkpt>
      <trkpt lat="42.85995" lon="1.24769">
        <ele>586</ele>
        <time>2021-08-20T20:37:52Z</time>
      </trkpt>
      <trkpt lat="42.85987" lon="1.2479">
        <ele>588</ele>
        <time>2021-08-20T20:37:55Z</time>
      </trkpt>
      <trkpt lat="42.85983" lon="1.24812">
        <ele>589</ele>
        <time>2021-08-20T20:37:58Z</time>
      </trkpt>
      <trkpt lat="42.85983" lon="1.24832">
        <ele>590</ele>
        <time>2021-08-20T20:38:01Z</time>
      </trkpt>
      <trkpt lat="42.85986" lon="1.24869">
        <ele>591</ele>
        <time>2021-08-20T20:38:06Z</time>
      </trkpt>
      <trkpt lat="42.86" lon="1.24958">
        <ele>592</ele>
        <time>2021-08-20T20:38:18Z</time>
      </trkpt>
      <trkpt lat="42.86007" lon="1.24993">
        <ele>593</ele>
        <time>2021-08-20T20:38:23Z</time>
      </trkpt>
      <trkpt lat="42.86036" lon="1.25074">
        <ele>597</ele>
        <time>2021-08-20T20:38:34Z</time>
      </trkpt>
      <trkpt lat="42.86043" lon="1.25113">
        <ele>597</ele>
        <time>2021-08-20T20:38:40Z</time>
      </trkpt>
      <trkpt lat="42.8606" lon="1.25235">
        <ele>596</ele>
        <time>2021-08-20T20:38:56Z</time>
      </trkpt>
      <trkpt lat="42.86092" lon="1.25508">
        <ele>598</ele>
        <time>2021-08-20T20:39:32Z</time>
      </trkpt>
      <trkpt lat="42.86106" lon="1.25604">
        <ele>595</ele>
        <time>2021-08-20T20:39:45Z</time>
      </trkpt>
      <trkpt lat="42.86115" lon="1.25652">
        <ele>594</ele>
        <time>2021-08-20T20:39:51Z</time>
      </trkpt>
      <trkpt lat="42.86134" lon="1.25739">
        <ele>595</ele>
        <time>2021-08-20T20:40:03Z</time>
      </trkpt>
      <trkpt lat="42.8614" lon="1.25772">
        <ele>596</ele>
        <time>2021-08-20T20:40:07Z</time>
      </trkpt>
      <trkpt lat="42.86142" lon="1.258">
        <ele>597</ele>
        <time>2021-08-20T20:40:11Z</time>
      </trkpt>
      <trkpt lat="42.86142" lon="1.25834">
        <ele>598</ele>
        <time>2021-08-20T20:40:15Z</time>
      </trkpt>
      <trkpt lat="42.86136" lon="1.25938">
        <ele>600</ele>
        <time>2021-08-20T20:40:29Z</time>
      </trkpt>
      <trkpt lat="42.86132" lon="1.25965">
        <ele>599</ele>
        <time>2021-08-20T20:40:33Z</time>
      </trkpt>
      <trkpt lat="42.86127" lon="1.25992">
        <ele>598</ele>
        <time>2021-08-20T20:40:36Z</time>
      </trkpt>
      <trkpt lat="42.86111" lon="1.26048">
        <ele>596</ele>
        <time>2021-08-20T20:40:44Z</time>
      </trkpt>
      <trkpt lat="42.86082" lon="1.2613">
        <ele>590</ele>
        <time>2021-08-20T20:40:56Z</time>
      </trkpt>
      <trkpt lat="42.86027" lon="1.26277">
        <ele>593</ele>
        <time>2021-08-20T20:41:17Z</time>
      </trkpt>
      <trkpt lat="42.86017" lon="1.26307">
        <ele>593</ele>
        <time>2021-08-20T20:41:22Z</time>
      </trkpt>
      <trkpt lat="42.86011" lon="1.2633">
        <ele>593</ele>
        <time>2021-08-20T20:41:25Z</time>
      </trkpt>
      <trkpt lat="42.86007" lon="1.26362">
        <ele>593</ele>
        <time>2021-08-20T20:41:29Z</time>
      </trkpt>
      <trkpt lat="42.86006" lon="1.26394">
        <ele>593</ele>
        <time>2021-08-20T20:41:33Z</time>
      </trkpt>
      <trkpt lat="42.86014" lon="1.26472">
        <ele>595</ele>
        <time>2021-08-20T20:41:44Z</time>
      </trkpt>
      <trkpt lat="42.86014" lon="1.26502">
        <ele>595</ele>
        <time>2021-08-20T20:41:48Z</time>
      </trkpt>
      <trkpt lat="42.86012" lon="1.2653">
        <ele>595</ele>
        <time>2021-08-20T20:41:51Z</time>
      </trkpt>
      <trkpt lat="42.86006" lon="1.26554">
        <ele>595</ele>
        <time>2021-08-20T20:41:54Z</time>
      </trkpt>
      <trkpt lat="42.85992" lon="1.26589">
        <ele>595</ele>
        <time>2021-08-20T20:42:00Z</time>
      </trkpt>
      <trkpt lat="42.8596" lon="1.26665">
        <ele>597</ele>
        <time>2021-08-20T20:42:11Z</time>
      </trkpt>
      <trkpt lat="42.85947" lon="1.26692">
        <ele>598</ele>
        <time>2021-08-20T20:42:15Z</time>
      </trkpt>
      <trkpt lat="42.85933" lon="1.26714">
        <ele>598</ele>
        <time>2021-08-20T20:42:19Z</time>
      </trkpt>
      <trkpt lat="42.85899" lon="1.26753">
        <ele>600</ele>
        <time>2021-08-20T20:42:27Z</time>
      </trkpt>
      <trkpt lat="42.8587" lon="1.26781">
        <ele>600</ele>
        <time>2021-08-20T20:42:33Z</time>
      </trkpt>
      <trkpt lat="42.85839" lon="1.26809">
        <ele>600</ele>
        <time>2021-08-20T20:42:40Z</time>
      </trkpt>
      <trkpt lat="42.85825" lon="1.26825">
        <ele>601</ele>
        <time>2021-08-20T20:42:43Z</time>
      </trkpt>
      <trkpt lat="42.85815" lon="1.2684">
        <ele>603</ele>
        <time>2021-08-20T20:42:46Z</time>
      </trkpt>
      <trkpt lat="42.85808" lon="1.26859">
        <ele>604</ele>
        <time>2021-08-20T20:42:49Z</time>
      </trkpt>
      <trkpt lat="42.85795" lon="1.26914">
        <ele>606</ele>
        <time>2021-08-20T20:42:56Z</time>
      </trkpt>
      <trkpt lat="42.85788" lon="1.26933">
        <ele>607</ele>
        <time>2021-08-20T20:42:59Z</time>
      </trkpt>
      <trkpt lat="42.85777" lon="1.26952">
        <ele>608</ele>
        <time>2021-08-20T20:43:02Z</time>
      </trkpt>
      <trkpt lat="42.85769" lon="1.26967">
        <ele>609</ele>
        <time>2021-08-20T20:43:05Z</time>
      </trkpt>
      <trkpt lat="42.85692" lon="1.27066">
        <ele>613</ele>
        <time>2021-08-20T20:43:23Z</time>
      </trkpt>
      <trkpt lat="42.85681" lon="1.27083">
        <ele>612</ele>
        <time>2021-08-20T20:43:26Z</time>
      </trkpt>
      <trkpt lat="42.85674" lon="1.27102">
        <ele>611</ele>
        <time>2021-08-20T20:43:29Z</time>
      </trkpt>
      <trkpt lat="42.85665" lon="1.27185">
        <ele>608</ele>
        <time>2021-08-20T20:43:40Z</time>
      </trkpt>
      <trkpt lat="42.8566" lon="1.2721">
        <ele>609</ele>
        <time>2021-08-20T20:43:43Z</time>
      </trkpt>
      <trkpt lat="42.85529" lon="1.27616">
        <ele>625</ele>
        <time>2021-08-20T20:44:41Z</time>
      </trkpt>
      <trkpt lat="42.85479" lon="1.27728">
        <ele>621</ele>
        <time>2021-08-20T20:44:58Z</time>
      </trkpt>
      <trkpt lat="42.85469" lon="1.27753">
        <ele>621</ele>
        <time>2021-08-20T20:45:02Z</time>
      </trkpt>
      <trkpt lat="42.85405" lon="1.27968">
        <ele>621</ele>
        <time>2021-08-20T20:45:32Z</time>
      </trkpt>
      <trkpt lat="42.85397" lon="1.27989">
        <ele>622</ele>
        <time>2021-08-20T20:45:35Z</time>
      </trkpt>
      <trkpt lat="42.85387" lon="1.28006">
        <ele>622</ele>
        <time>2021-08-20T20:45:38Z</time>
      </trkpt>
      <trkpt lat="42.85377" lon="1.28019">
        <ele>622</ele>
        <time>2021-08-20T20:45:41Z</time>
      </trkpt>
      <trkpt lat="42.85334" lon="1.28058">
        <ele>613</ele>
        <time>2021-08-20T20:45:50Z</time>
      </trkpt>
      <trkpt lat="42.85322" lon="1.28073">
        <ele>613</ele>
        <time>2021-08-20T20:45:53Z</time>
      </trkpt>
      <trkpt lat="42.85312" lon="1.28089">
        <ele>613</ele>
        <time>2021-08-20T20:45:56Z</time>
      </trkpt>
      <trkpt lat="42.85304" lon="1.28108">
        <ele>612</ele>
        <time>2021-08-20T20:45:58Z</time>
      </trkpt>
      <trkpt lat="42.85289" lon="1.28158">
        <ele>611</ele>
        <time>2021-08-20T20:46:05Z</time>
      </trkpt>
      <trkpt lat="42.85249" lon="1.28265">
        <ele>609</ele>
        <time>2021-08-20T20:46:21Z</time>
      </trkpt>
      <trkpt lat="42.85201" lon="1.28391">
        <ele>609</ele>
        <time>2021-08-20T20:46:40Z</time>
      </trkpt>
      <trkpt lat="42.85095" lon="1.28674">
        <ele>615</ele>
        <time>2021-08-20T20:47:21Z</time>
      </trkpt>
      <trkpt lat="42.85087" lon="1.28691">
        <ele>615</ele>
        <time>2021-08-20T20:47:24Z</time>
      </trkpt>
      <trkpt lat="42.85085" lon="1.28697">
        <ele>616</ele>
        <time>2021-08-20T20:47:25Z</time>
      </trkpt>
      <trkpt lat="42.85073" lon="1.28713">
        <ele>616</ele>
        <time>2021-08-20T20:47:28Z</time>
      </trkpt>
      <trkpt lat="42.85048" lon="1.28741">
        <ele>617</ele>
        <time>2021-08-20T20:47:33Z</time>
      </trkpt>
      <trkpt lat="42.85033" lon="1.28757">
        <ele>617</ele>
        <time>2021-08-20T20:47:37Z</time>
      </trkpt>
      <trkpt lat="42.84953" lon="1.28848">
        <ele>619</ele>
        <time>2021-08-20T20:47:55Z</time>
      </trkpt>
      <trkpt lat="42.84941" lon="1.28861">
        <ele>620</ele>
        <time>2021-08-20T20:47:58Z</time>
      </trkpt>
      <trkpt lat="42.84917" lon="1.28891">
        <ele>620</ele>
        <time>2021-08-20T20:48:04Z</time>
      </trkpt>
      <trkpt lat="42.84895" lon="1.28927">
        <ele>622</ele>
        <time>2021-08-20T20:48:10Z</time>
      </trkpt>
      <trkpt lat="42.84879" lon="1.28955">
        <ele>623</ele>
        <time>2021-08-20T20:48:15Z</time>
      </trkpt>
      <trkpt lat="42.84869" lon="1.28968">
        <ele>623</ele>
        <time>2021-08-20T20:48:17Z</time>
      </trkpt>
      <trkpt lat="42.84827" lon="1.29">
        <ele>621</ele>
        <time>2021-08-20T20:48:26Z</time>
      </trkpt>
      <trkpt lat="42.84824" lon="1.29002">
        <ele>621</ele>
        <time>2021-08-20T20:48:26Z</time>
      </trkpt>
      <trkpt lat="42.84819" lon="1.29005">
        <ele>621</ele>
        <time>2021-08-20T20:48:27Z</time>
      </trkpt>
      <trkpt lat="42.84772" lon="1.29037">
        <ele>622</ele>
        <time>2021-08-20T20:48:36Z</time>
      </trkpt>
      <trkpt lat="42.84708" lon="1.29085">
        <ele>625</ele>
        <time>2021-08-20T20:48:49Z</time>
      </trkpt>
      <trkpt lat="42.84674" lon="1.29106">
        <ele>627</ele>
        <time>2021-08-20T20:48:56Z</time>
      </trkpt>
      <trkpt lat="42.84655" lon="1.29119">
        <ele>627</ele>
        <time>2021-08-20T20:49:00Z</time>
      </trkpt>
      <trkpt lat="42.84539" lon="1.2922">
        <ele>631</ele>
        <time>2021-08-20T20:49:24Z</time>
      </trkpt>
      <trkpt lat="42.84445" lon="1.29295">
        <ele>637</ele>
        <time>2021-08-20T20:49:44Z</time>
      </trkpt>
    </trkseg>
  </trk>
</gpx>